<?xml version="1.0" encoding="UTF-8" standalone="no" ?>
<gpx xmlns="http://www.topografix.com/GPX/1/1" xmlns:xsi="http://www.w3.org/2001/XMLSchema-instance" xsi:schemaLocation="http://www.topografix.com/GPX/1/1 http://www.topografix.com/GPX/1/1/gpx.xsd" version="1.1" creator="VisuGPX - https://www.visugpx.com">
  <metadata>
    <name>[09/04/2017] Caudebécaise VTT</name>
    <desc><![CDATA[Parcours de 60 km en forêt de Bord-Louviers
Organisation par le Racing Club Caudebécais]]></desc>
  </metadata>
  <trk>
    <name><![CDATA[[09/04/2017] Caudebécaise VTT_1]]></name>
    <trkseg>
      <trkpt lat="49.28219" lon="1.0287">
        <ele>12.247713</ele>
        <time>2017-04-09T06:14:15Z</time>
      </trkpt>
      <trkpt lat="49.2822" lon="1.02876">
        <ele>12.247713</ele>
        <time>2017-04-09T06:14:16Z</time>
      </trkpt>
      <trkpt lat="49.28221" lon="1.02894">
        <ele>12.424932</ele>
        <time>2017-04-09T06:14:19Z</time>
      </trkpt>
      <trkpt lat="49.28221" lon="1.0291">
        <ele>12.613677</ele>
        <time>2017-04-09T06:14:23Z</time>
      </trkpt>
      <trkpt lat="49.28221" lon="1.02925">
        <ele>13.026314</ele>
        <time>2017-04-09T06:14:39Z</time>
      </trkpt>
      <trkpt lat="49.28222" lon="1.0294">
        <ele>13.066479</ele>
        <time>2017-04-09T06:14:42Z</time>
      </trkpt>
      <trkpt lat="49.2822" lon="1.02958">
        <ele>13.104734</ele>
        <time>2017-04-09T06:14:45Z</time>
      </trkpt>
      <trkpt lat="49.28212" lon="1.02974">
        <ele>13.232834</ele>
        <time>2017-04-09T06:14:48Z</time>
      </trkpt>
      <trkpt lat="49.28203" lon="1.0299">
        <ele>13.338386</ele>
        <time>2017-04-09T06:14:51Z</time>
      </trkpt>
      <trkpt lat="49.28198" lon="1.03001">
        <ele>13.398215</ele>
        <time>2017-04-09T06:14:53Z</time>
      </trkpt>
      <trkpt lat="49.28192" lon="1.03013">
        <ele>13.450801</ele>
        <time>2017-04-09T06:14:55Z</time>
      </trkpt>
      <trkpt lat="49.28186" lon="1.03025">
        <ele>13.497019</ele>
        <time>2017-04-09T06:14:57Z</time>
      </trkpt>
      <trkpt lat="49.2818" lon="1.03037">
        <ele>13.537641</ele>
        <time>2017-04-09T06:14:59Z</time>
      </trkpt>
      <trkpt lat="49.28174" lon="1.03048">
        <ele>13.6</ele>
        <time>2017-04-09T06:15:01Z</time>
      </trkpt>
      <trkpt lat="49.28168" lon="1.0306">
        <ele>13.6</ele>
        <time>2017-04-09T06:15:03Z</time>
      </trkpt>
      <trkpt lat="49.28162" lon="1.03073">
        <ele>13.6</ele>
        <time>2017-04-09T06:15:05Z</time>
      </trkpt>
      <trkpt lat="49.28155" lon="1.03085">
        <ele>13.7</ele>
        <time>2017-04-09T06:15:07Z</time>
      </trkpt>
      <trkpt lat="49.28149" lon="1.03097">
        <ele>13.7</ele>
        <time>2017-04-09T06:15:09Z</time>
      </trkpt>
      <trkpt lat="49.28143" lon="1.0311">
        <ele>13.7</ele>
        <time>2017-04-09T06:15:11Z</time>
      </trkpt>
      <trkpt lat="49.28136" lon="1.03122">
        <ele>13.7</ele>
        <time>2017-04-09T06:15:13Z</time>
      </trkpt>
      <trkpt lat="49.2813" lon="1.03135">
        <ele>13.7</ele>
        <time>2017-04-09T06:15:15Z</time>
      </trkpt>
      <trkpt lat="49.28123" lon="1.03147">
        <ele>13.7</ele>
        <time>2017-04-09T06:15:17Z</time>
      </trkpt>
      <trkpt lat="49.28117" lon="1.0316">
        <ele>13.8</ele>
        <time>2017-04-09T06:15:19Z</time>
      </trkpt>
      <trkpt lat="49.28111" lon="1.03172">
        <ele>13.8</ele>
        <time>2017-04-09T06:15:21Z</time>
      </trkpt>
      <trkpt lat="49.28105" lon="1.03185">
        <ele>13.8</ele>
        <time>2017-04-09T06:15:23Z</time>
      </trkpt>
      <trkpt lat="49.28098" lon="1.03198">
        <ele>13.8</ele>
        <time>2017-04-09T06:15:25Z</time>
      </trkpt>
      <trkpt lat="49.28092" lon="1.0321">
        <ele>13.8</ele>
        <time>2017-04-09T06:15:27Z</time>
      </trkpt>
      <trkpt lat="49.28085" lon="1.03223">
        <ele>13.8</ele>
        <time>2017-04-09T06:15:29Z</time>
      </trkpt>
      <trkpt lat="49.28079" lon="1.03234">
        <ele>13.8</ele>
        <time>2017-04-09T06:15:31Z</time>
      </trkpt>
      <trkpt lat="49.28073" lon="1.03246">
        <ele>13.8</ele>
        <time>2017-04-09T06:15:33Z</time>
      </trkpt>
      <trkpt lat="49.28067" lon="1.03258">
        <ele>13.8</ele>
        <time>2017-04-09T06:15:35Z</time>
      </trkpt>
      <trkpt lat="49.28061" lon="1.03269">
        <ele>13.8</ele>
        <time>2017-04-09T06:15:37Z</time>
      </trkpt>
      <trkpt lat="49.28055" lon="1.0328">
        <ele>13.8</ele>
        <time>2017-04-09T06:15:39Z</time>
      </trkpt>
      <trkpt lat="49.2805" lon="1.03292">
        <ele>13.8</ele>
        <time>2017-04-09T06:15:41Z</time>
      </trkpt>
      <trkpt lat="49.28044" lon="1.03303">
        <ele>13.8</ele>
        <time>2017-04-09T06:15:43Z</time>
      </trkpt>
      <trkpt lat="49.28038" lon="1.03314">
        <ele>13.8</ele>
        <time>2017-04-09T06:15:45Z</time>
      </trkpt>
      <trkpt lat="49.28032" lon="1.03326">
        <ele>13.8</ele>
        <time>2017-04-09T06:15:47Z</time>
      </trkpt>
      <trkpt lat="49.28026" lon="1.03337">
        <ele>13.8</ele>
        <time>2017-04-09T06:15:49Z</time>
      </trkpt>
      <trkpt lat="49.2802" lon="1.03349">
        <ele>13.8</ele>
        <time>2017-04-09T06:15:51Z</time>
      </trkpt>
      <trkpt lat="49.28015" lon="1.0336">
        <ele>13.8</ele>
        <time>2017-04-09T06:15:53Z</time>
      </trkpt>
      <trkpt lat="49.28009" lon="1.03372">
        <ele>13.8</ele>
        <time>2017-04-09T06:15:55Z</time>
      </trkpt>
      <trkpt lat="49.28003" lon="1.03383">
        <ele>13.8</ele>
        <time>2017-04-09T06:15:57Z</time>
      </trkpt>
      <trkpt lat="49.27997" lon="1.03394">
        <ele>13.8</ele>
        <time>2017-04-09T06:15:59Z</time>
      </trkpt>
      <trkpt lat="49.27991" lon="1.03406">
        <ele>13.8</ele>
        <time>2017-04-09T06:16:01Z</time>
      </trkpt>
      <trkpt lat="49.27985" lon="1.03418">
        <ele>13.8</ele>
        <time>2017-04-09T06:16:03Z</time>
      </trkpt>
      <trkpt lat="49.27979" lon="1.0343">
        <ele>13.8</ele>
        <time>2017-04-09T06:16:05Z</time>
      </trkpt>
      <trkpt lat="49.27973" lon="1.03442">
        <ele>13.8</ele>
        <time>2017-04-09T06:16:07Z</time>
      </trkpt>
      <trkpt lat="49.27967" lon="1.03454">
        <ele>13.9</ele>
        <time>2017-04-09T06:16:09Z</time>
      </trkpt>
      <trkpt lat="49.27961" lon="1.03466">
        <ele>13.9</ele>
        <time>2017-04-09T06:16:11Z</time>
      </trkpt>
      <trkpt lat="49.27955" lon="1.03477">
        <ele>14</ele>
        <time>2017-04-09T06:16:13Z</time>
      </trkpt>
      <trkpt lat="49.2795" lon="1.03489">
        <ele>14</ele>
        <time>2017-04-09T06:16:15Z</time>
      </trkpt>
      <trkpt lat="49.27944" lon="1.035">
        <ele>14.1</ele>
        <time>2017-04-09T06:16:17Z</time>
      </trkpt>
      <trkpt lat="49.27938" lon="1.03511">
        <ele>14.2</ele>
        <time>2017-04-09T06:16:19Z</time>
      </trkpt>
      <trkpt lat="49.27933" lon="1.03522">
        <ele>14.2</ele>
        <time>2017-04-09T06:16:21Z</time>
      </trkpt>
      <trkpt lat="49.27926" lon="1.03533">
        <ele>14.3</ele>
        <time>2017-04-09T06:16:24Z</time>
      </trkpt>
      <trkpt lat="49.27918" lon="1.03549">
        <ele>14.4</ele>
        <time>2017-04-09T06:16:27Z</time>
      </trkpt>
      <trkpt lat="49.27913" lon="1.03562">
        <ele>14.4</ele>
        <time>2017-04-09T06:16:29Z</time>
      </trkpt>
      <trkpt lat="49.27907" lon="1.03573">
        <ele>14.5</ele>
        <time>2017-04-09T06:16:31Z</time>
      </trkpt>
      <trkpt lat="49.27901" lon="1.03584">
        <ele>14.5</ele>
        <time>2017-04-09T06:16:33Z</time>
      </trkpt>
      <trkpt lat="49.27895" lon="1.03595">
        <ele>14.6</ele>
        <time>2017-04-09T06:16:35Z</time>
      </trkpt>
      <trkpt lat="49.27889" lon="1.03606">
        <ele>14.6</ele>
        <time>2017-04-09T06:16:37Z</time>
      </trkpt>
      <trkpt lat="49.27883" lon="1.03619">
        <ele>14.6</ele>
        <time>2017-04-09T06:16:39Z</time>
      </trkpt>
      <trkpt lat="49.27876" lon="1.03632">
        <ele>14.6</ele>
        <time>2017-04-09T06:16:41Z</time>
      </trkpt>
      <trkpt lat="49.2787" lon="1.03644">
        <ele>14.7</ele>
        <time>2017-04-09T06:16:43Z</time>
      </trkpt>
      <trkpt lat="49.27864" lon="1.03655">
        <ele>14.7</ele>
        <time>2017-04-09T06:16:45Z</time>
      </trkpt>
      <trkpt lat="49.27858" lon="1.03666">
        <ele>14.7</ele>
        <time>2017-04-09T06:16:47Z</time>
      </trkpt>
      <trkpt lat="49.2785" lon="1.03682">
        <ele>14.8</ele>
        <time>2017-04-09T06:16:50Z</time>
      </trkpt>
      <trkpt lat="49.27844" lon="1.03694">
        <ele>14.9</ele>
        <time>2017-04-09T06:16:52Z</time>
      </trkpt>
      <trkpt lat="49.27839" lon="1.03705">
        <ele>15</ele>
        <time>2017-04-09T06:16:54Z</time>
      </trkpt>
      <trkpt lat="49.27833" lon="1.03716">
        <ele>15</ele>
        <time>2017-04-09T06:16:56Z</time>
      </trkpt>
      <trkpt lat="49.27828" lon="1.03727">
        <ele>15.1</ele>
        <time>2017-04-09T06:16:58Z</time>
      </trkpt>
      <trkpt lat="49.27819" lon="1.03743">
        <ele>15.2</ele>
        <time>2017-04-09T06:17:01Z</time>
      </trkpt>
      <trkpt lat="49.27814" lon="1.03754">
        <ele>15.3</ele>
        <time>2017-04-09T06:17:03Z</time>
      </trkpt>
      <trkpt lat="49.27805" lon="1.03771">
        <ele>15.4</ele>
        <time>2017-04-09T06:17:06Z</time>
      </trkpt>
      <trkpt lat="49.278" lon="1.03782">
        <ele>15.5</ele>
        <time>2017-04-09T06:17:08Z</time>
      </trkpt>
      <trkpt lat="49.27794" lon="1.03793">
        <ele>15.6</ele>
        <time>2017-04-09T06:17:10Z</time>
      </trkpt>
      <trkpt lat="49.27788" lon="1.03804">
        <ele>15.7</ele>
        <time>2017-04-09T06:17:12Z</time>
      </trkpt>
      <trkpt lat="49.27783" lon="1.03816">
        <ele>15.8</ele>
        <time>2017-04-09T06:17:14Z</time>
      </trkpt>
      <trkpt lat="49.27777" lon="1.03828">
        <ele>15.8</ele>
        <time>2017-04-09T06:17:16Z</time>
      </trkpt>
      <trkpt lat="49.27771" lon="1.0384">
        <ele>15.9</ele>
        <time>2017-04-09T06:17:18Z</time>
      </trkpt>
      <trkpt lat="49.27765" lon="1.03851">
        <ele>16</ele>
        <time>2017-04-09T06:17:20Z</time>
      </trkpt>
      <trkpt lat="49.27759" lon="1.03862">
        <ele>16.1</ele>
        <time>2017-04-09T06:17:22Z</time>
      </trkpt>
      <trkpt lat="49.27753" lon="1.03873">
        <ele>16.2</ele>
        <time>2017-04-09T06:17:24Z</time>
      </trkpt>
      <trkpt lat="49.27745" lon="1.03889">
        <ele>16.4</ele>
        <time>2017-04-09T06:17:27Z</time>
      </trkpt>
      <trkpt lat="49.27737" lon="1.03905">
        <ele>16.5</ele>
        <time>2017-04-09T06:17:30Z</time>
      </trkpt>
      <trkpt lat="49.27728" lon="1.03919">
        <ele>16.6</ele>
        <time>2017-04-09T06:17:33Z</time>
      </trkpt>
      <trkpt lat="49.27719" lon="1.03932">
        <ele>16.7</ele>
        <time>2017-04-09T06:17:36Z</time>
      </trkpt>
      <trkpt lat="49.2771" lon="1.03946">
        <ele>16.9</ele>
        <time>2017-04-09T06:17:39Z</time>
      </trkpt>
      <trkpt lat="49.27701" lon="1.0396">
        <ele>17.1</ele>
        <time>2017-04-09T06:17:42Z</time>
      </trkpt>
      <trkpt lat="49.27692" lon="1.03974">
        <ele>17.2</ele>
        <time>2017-04-09T06:17:45Z</time>
      </trkpt>
      <trkpt lat="49.27683" lon="1.03988">
        <ele>17.4</ele>
        <time>2017-04-09T06:17:48Z</time>
      </trkpt>
      <trkpt lat="49.27675" lon="1.04001">
        <ele>17.5</ele>
        <time>2017-04-09T06:17:51Z</time>
      </trkpt>
      <trkpt lat="49.27666" lon="1.04015">
        <ele>17.7</ele>
        <time>2017-04-09T06:17:54Z</time>
      </trkpt>
      <trkpt lat="49.2766" lon="1.04031">
        <ele>17.8</ele>
        <time>2017-04-09T06:17:57Z</time>
      </trkpt>
      <trkpt lat="49.27657" lon="1.0405">
        <ele>18</ele>
        <time>2017-04-09T06:18:00Z</time>
      </trkpt>
      <trkpt lat="49.27656" lon="1.04069">
        <ele>18.1</ele>
        <time>2017-04-09T06:18:03Z</time>
      </trkpt>
      <trkpt lat="49.27655" lon="1.04089">
        <ele>18.2</ele>
        <time>2017-04-09T06:18:06Z</time>
      </trkpt>
      <trkpt lat="49.27657" lon="1.04109">
        <ele>18.3</ele>
        <time>2017-04-09T06:18:09Z</time>
      </trkpt>
      <trkpt lat="49.27659" lon="1.04123">
        <ele>18.4</ele>
        <time>2017-04-09T06:18:11Z</time>
      </trkpt>
      <trkpt lat="49.27661" lon="1.04138">
        <ele>18.4</ele>
        <time>2017-04-09T06:18:13Z</time>
      </trkpt>
      <trkpt lat="49.27663" lon="1.04153">
        <ele>18.5</ele>
        <time>2017-04-09T06:18:15Z</time>
      </trkpt>
      <trkpt lat="49.27664" lon="1.04168">
        <ele>18.5</ele>
        <time>2017-04-09T06:18:17Z</time>
      </trkpt>
      <trkpt lat="49.27666" lon="1.04183">
        <ele>18.6</ele>
        <time>2017-04-09T06:18:19Z</time>
      </trkpt>
      <trkpt lat="49.27668" lon="1.04198">
        <ele>18.6</ele>
        <time>2017-04-09T06:18:21Z</time>
      </trkpt>
      <trkpt lat="49.2767" lon="1.04214">
        <ele>18.6</ele>
        <time>2017-04-09T06:18:23Z</time>
      </trkpt>
      <trkpt lat="49.27671" lon="1.04229">
        <ele>18.6</ele>
        <time>2017-04-09T06:18:25Z</time>
      </trkpt>
      <trkpt lat="49.27673" lon="1.04244">
        <ele>18.6</ele>
        <time>2017-04-09T06:18:27Z</time>
      </trkpt>
      <trkpt lat="49.27678" lon="1.04256">
        <ele>18.6</ele>
        <time>2017-04-09T06:18:29Z</time>
      </trkpt>
      <trkpt lat="49.27683" lon="1.04268">
        <ele>18.5</ele>
        <time>2017-04-09T06:18:31Z</time>
      </trkpt>
      <trkpt lat="49.27687" lon="1.04283">
        <ele>18.4</ele>
        <time>2017-04-09T06:18:33Z</time>
      </trkpt>
      <trkpt lat="49.27689" lon="1.04299">
        <ele>18.3</ele>
        <time>2017-04-09T06:18:35Z</time>
      </trkpt>
      <trkpt lat="49.27691" lon="1.04316">
        <ele>18.2</ele>
        <time>2017-04-09T06:18:37Z</time>
      </trkpt>
      <trkpt lat="49.27693" lon="1.04333">
        <ele>18.1</ele>
        <time>2017-04-09T06:18:39Z</time>
      </trkpt>
      <trkpt lat="49.27693" lon="1.04349">
        <ele>18</ele>
        <time>2017-04-09T06:18:41Z</time>
      </trkpt>
      <trkpt lat="49.2769" lon="1.04365">
        <ele>17.9</ele>
        <time>2017-04-09T06:18:43Z</time>
      </trkpt>
      <trkpt lat="49.27688" lon="1.0438">
        <ele>17.8</ele>
        <time>2017-04-09T06:18:45Z</time>
      </trkpt>
      <trkpt lat="49.27689" lon="1.04395">
        <ele>17.6</ele>
        <time>2017-04-09T06:18:47Z</time>
      </trkpt>
      <trkpt lat="49.27691" lon="1.04411">
        <ele>17.5</ele>
        <time>2017-04-09T06:18:49Z</time>
      </trkpt>
      <trkpt lat="49.27693" lon="1.04426">
        <ele>17.5</ele>
        <time>2017-04-09T06:18:51Z</time>
      </trkpt>
      <trkpt lat="49.27694" lon="1.04442">
        <ele>17.4</ele>
        <time>2017-04-09T06:18:53Z</time>
      </trkpt>
      <trkpt lat="49.27696" lon="1.04457">
        <ele>17.3</ele>
        <time>2017-04-09T06:18:55Z</time>
      </trkpt>
      <trkpt lat="49.27698" lon="1.04473">
        <ele>17.2</ele>
        <time>2017-04-09T06:18:57Z</time>
      </trkpt>
      <trkpt lat="49.277" lon="1.04488">
        <ele>17.2</ele>
        <time>2017-04-09T06:18:59Z</time>
      </trkpt>
      <trkpt lat="49.27701" lon="1.04504">
        <ele>17.1</ele>
        <time>2017-04-09T06:19:01Z</time>
      </trkpt>
      <trkpt lat="49.27703" lon="1.0452">
        <ele>17.1</ele>
        <time>2017-04-09T06:19:03Z</time>
      </trkpt>
      <trkpt lat="49.27705" lon="1.04535">
        <ele>17</ele>
        <time>2017-04-09T06:19:05Z</time>
      </trkpt>
      <trkpt lat="49.27706" lon="1.04551">
        <ele>17</ele>
        <time>2017-04-09T06:19:07Z</time>
      </trkpt>
      <trkpt lat="49.27708" lon="1.04566">
        <ele>16.9</ele>
        <time>2017-04-09T06:19:09Z</time>
      </trkpt>
      <trkpt lat="49.2771" lon="1.04581">
        <ele>16.9</ele>
        <time>2017-04-09T06:19:11Z</time>
      </trkpt>
      <trkpt lat="49.27711" lon="1.04595">
        <ele>16.9</ele>
        <time>2017-04-09T06:19:13Z</time>
      </trkpt>
      <trkpt lat="49.27713" lon="1.0461">
        <ele>16.8</ele>
        <time>2017-04-09T06:19:15Z</time>
      </trkpt>
      <trkpt lat="49.27715" lon="1.04624">
        <ele>16.8</ele>
        <time>2017-04-09T06:19:17Z</time>
      </trkpt>
      <trkpt lat="49.27716" lon="1.04638">
        <ele>16.8</ele>
        <time>2017-04-09T06:19:19Z</time>
      </trkpt>
      <trkpt lat="49.27719" lon="1.04658">
        <ele>16.9</ele>
        <time>2017-04-09T06:19:22Z</time>
      </trkpt>
      <trkpt lat="49.2772" lon="1.04677">
        <ele>17.1</ele>
        <time>2017-04-09T06:19:25Z</time>
      </trkpt>
      <trkpt lat="49.27719" lon="1.04695">
        <ele>17.3</ele>
        <time>2017-04-09T06:19:28Z</time>
      </trkpt>
      <trkpt lat="49.27718" lon="1.04712">
        <ele>17.6</ele>
        <time>2017-04-09T06:19:31Z</time>
      </trkpt>
      <trkpt lat="49.27713" lon="1.04728">
        <ele>17.9</ele>
        <time>2017-04-09T06:19:34Z</time>
      </trkpt>
      <trkpt lat="49.27702" lon="1.04736">
        <ele>18.3</ele>
        <time>2017-04-09T06:19:37Z</time>
      </trkpt>
      <trkpt lat="49.27689" lon="1.04739">
        <ele>18.7</ele>
        <time>2017-04-09T06:19:40Z</time>
      </trkpt>
      <trkpt lat="49.27677" lon="1.04741">
        <ele>19.1</ele>
        <time>2017-04-09T06:19:43Z</time>
      </trkpt>
      <trkpt lat="49.27665" lon="1.04746">
        <ele>19.5</ele>
        <time>2017-04-09T06:19:46Z</time>
      </trkpt>
      <trkpt lat="49.27655" lon="1.04758">
        <ele>20</ele>
        <time>2017-04-09T06:19:49Z</time>
      </trkpt>
      <trkpt lat="49.27654" lon="1.04775">
        <ele>20.4</ele>
        <time>2017-04-09T06:19:52Z</time>
      </trkpt>
      <trkpt lat="49.27655" lon="1.04794">
        <ele>20.9</ele>
        <time>2017-04-09T06:19:55Z</time>
      </trkpt>
      <trkpt lat="49.27655" lon="1.04813">
        <ele>21.3</ele>
        <time>2017-04-09T06:19:58Z</time>
      </trkpt>
      <trkpt lat="49.27656" lon="1.04832">
        <ele>21.7</ele>
        <time>2017-04-09T06:20:01Z</time>
      </trkpt>
      <trkpt lat="49.27656" lon="1.04851">
        <ele>22.2</ele>
        <time>2017-04-09T06:20:04Z</time>
      </trkpt>
      <trkpt lat="49.27657" lon="1.04871">
        <ele>22.5</ele>
        <time>2017-04-09T06:20:07Z</time>
      </trkpt>
      <trkpt lat="49.27657" lon="1.04892">
        <ele>22.8</ele>
        <time>2017-04-09T06:20:10Z</time>
      </trkpt>
      <trkpt lat="49.27656" lon="1.04905">
        <ele>23.1</ele>
        <time>2017-04-09T06:20:12Z</time>
      </trkpt>
      <trkpt lat="49.27656" lon="1.04919">
        <ele>23.3</ele>
        <time>2017-04-09T06:20:14Z</time>
      </trkpt>
      <trkpt lat="49.27656" lon="1.04933">
        <ele>23.5</ele>
        <time>2017-04-09T06:20:16Z</time>
      </trkpt>
      <trkpt lat="49.27656" lon="1.04947">
        <ele>23.7</ele>
        <time>2017-04-09T06:20:18Z</time>
      </trkpt>
      <trkpt lat="49.27656" lon="1.04961">
        <ele>23.9</ele>
        <time>2017-04-09T06:20:20Z</time>
      </trkpt>
      <trkpt lat="49.27656" lon="1.04982">
        <ele>24.1</ele>
        <time>2017-04-09T06:20:23Z</time>
      </trkpt>
      <trkpt lat="49.27654" lon="1.04999">
        <ele>24.3</ele>
        <time>2017-04-09T06:20:26Z</time>
      </trkpt>
      <trkpt lat="49.27644" lon="1.0501">
        <ele>24.5</ele>
        <time>2017-04-09T06:20:30Z</time>
      </trkpt>
      <trkpt lat="49.27632" lon="1.05013">
        <ele>24.7</ele>
        <time>2017-04-09T06:20:33Z</time>
      </trkpt>
      <trkpt lat="49.27618" lon="1.05015">
        <ele>24.8</ele>
        <time>2017-04-09T06:20:36Z</time>
      </trkpt>
      <trkpt lat="49.27605" lon="1.05015">
        <ele>25</ele>
        <time>2017-04-09T06:20:39Z</time>
      </trkpt>
      <trkpt lat="49.27596" lon="1.05017">
        <ele>25</ele>
        <time>2017-04-09T06:20:41Z</time>
      </trkpt>
      <trkpt lat="49.27583" lon="1.05016">
        <ele>25.2</ele>
        <time>2017-04-09T06:20:44Z</time>
      </trkpt>
      <trkpt lat="49.27569" lon="1.05017">
        <ele>25</ele>
        <time>2017-04-09T06:20:47Z</time>
      </trkpt>
      <trkpt lat="49.27554" lon="1.0502">
        <ele>25.5</ele>
        <time>2017-04-09T06:20:50Z</time>
      </trkpt>
      <trkpt lat="49.27544" lon="1.05022">
        <ele>25.6</ele>
        <time>2017-04-09T06:20:52Z</time>
      </trkpt>
      <trkpt lat="49.27534" lon="1.05022">
        <ele>25.7</ele>
        <time>2017-04-09T06:20:54Z</time>
      </trkpt>
      <trkpt lat="49.27525" lon="1.0502">
        <ele>25.8</ele>
        <time>2017-04-09T06:20:56Z</time>
      </trkpt>
      <trkpt lat="49.27515" lon="1.05017">
        <ele>25.9</ele>
        <time>2017-04-09T06:20:58Z</time>
      </trkpt>
      <trkpt lat="49.27506" lon="1.05015">
        <ele>26</ele>
        <time>2017-04-09T06:21:00Z</time>
      </trkpt>
      <trkpt lat="49.27496" lon="1.05015">
        <ele>26.2</ele>
        <time>2017-04-09T06:21:02Z</time>
      </trkpt>
      <trkpt lat="49.27487" lon="1.05015">
        <ele>26.3</ele>
        <time>2017-04-09T06:21:04Z</time>
      </trkpt>
      <trkpt lat="49.27478" lon="1.05015">
        <ele>26.4</ele>
        <time>2017-04-09T06:21:06Z</time>
      </trkpt>
      <trkpt lat="49.27469" lon="1.05015">
        <ele>26.5</ele>
        <time>2017-04-09T06:21:08Z</time>
      </trkpt>
      <trkpt lat="49.27455" lon="1.05016">
        <ele>26.6</ele>
        <time>2017-04-09T06:21:11Z</time>
      </trkpt>
      <trkpt lat="49.27446" lon="1.05018">
        <ele>26.7</ele>
        <time>2017-04-09T06:21:13Z</time>
      </trkpt>
      <trkpt lat="49.27437" lon="1.05019">
        <ele>26.7</ele>
        <time>2017-04-09T06:21:15Z</time>
      </trkpt>
      <trkpt lat="49.27425" lon="1.0502">
        <ele>26.9</ele>
        <time>2017-04-09T06:21:18Z</time>
      </trkpt>
      <trkpt lat="49.27412" lon="1.05024">
        <ele>27</ele>
        <time>2017-04-09T06:21:21Z</time>
      </trkpt>
      <trkpt lat="49.27395" lon="1.05028">
        <ele>27</ele>
        <time>2017-04-09T06:21:25Z</time>
      </trkpt>
      <trkpt lat="49.27383" lon="1.05031">
        <ele>27.2</ele>
        <time>2017-04-09T06:21:28Z</time>
      </trkpt>
      <trkpt lat="49.27371" lon="1.05034">
        <ele>27.3</ele>
        <time>2017-04-09T06:21:31Z</time>
      </trkpt>
      <trkpt lat="49.27358" lon="1.05037">
        <ele>27.5</ele>
        <time>2017-04-09T06:21:34Z</time>
      </trkpt>
      <trkpt lat="49.27345" lon="1.05041">
        <ele>27.6</ele>
        <time>2017-04-09T06:21:37Z</time>
      </trkpt>
      <trkpt lat="49.27333" lon="1.05046">
        <ele>27.8</ele>
        <time>2017-04-09T06:21:40Z</time>
      </trkpt>
      <trkpt lat="49.27321" lon="1.05049">
        <ele>27.9</ele>
        <time>2017-04-09T06:21:43Z</time>
      </trkpt>
      <trkpt lat="49.27308" lon="1.05053">
        <ele>28.1</ele>
        <time>2017-04-09T06:21:46Z</time>
      </trkpt>
      <trkpt lat="49.27292" lon="1.05056">
        <ele>28</ele>
        <time>2017-04-09T06:21:50Z</time>
      </trkpt>
      <trkpt lat="49.2728" lon="1.05059">
        <ele>28.3</ele>
        <time>2017-04-09T06:21:53Z</time>
      </trkpt>
      <trkpt lat="49.2727" lon="1.0506">
        <ele>28.5</ele>
        <time>2017-04-09T06:21:56Z</time>
      </trkpt>
      <trkpt lat="49.27259" lon="1.0506">
        <ele>28.6</ele>
        <time>2017-04-09T06:22:00Z</time>
      </trkpt>
      <trkpt lat="49.27248" lon="1.05057">
        <ele>28.7</ele>
        <time>2017-04-09T06:22:03Z</time>
      </trkpt>
      <trkpt lat="49.27235" lon="1.05052">
        <ele>28.8</ele>
        <time>2017-04-09T06:22:06Z</time>
      </trkpt>
      <trkpt lat="49.27225" lon="1.05049">
        <ele>28.9</ele>
        <time>2017-04-09T06:22:08Z</time>
      </trkpt>
      <trkpt lat="49.27214" lon="1.05046">
        <ele>29</ele>
        <time>2017-04-09T06:22:10Z</time>
      </trkpt>
      <trkpt lat="49.27204" lon="1.05042">
        <ele>29</ele>
        <time>2017-04-09T06:22:12Z</time>
      </trkpt>
      <trkpt lat="49.27193" lon="1.05039">
        <ele>29.1</ele>
        <time>2017-04-09T06:22:14Z</time>
      </trkpt>
      <trkpt lat="49.27181" lon="1.05036">
        <ele>29.1</ele>
        <time>2017-04-09T06:22:16Z</time>
      </trkpt>
      <trkpt lat="49.2717" lon="1.05035">
        <ele>29.2</ele>
        <time>2017-04-09T06:22:18Z</time>
      </trkpt>
      <trkpt lat="49.27159" lon="1.05035">
        <ele>29.2</ele>
        <time>2017-04-09T06:22:20Z</time>
      </trkpt>
      <trkpt lat="49.27148" lon="1.05036">
        <ele>29.3</ele>
        <time>2017-04-09T06:22:22Z</time>
      </trkpt>
      <trkpt lat="49.27137" lon="1.05036">
        <ele>29.4</ele>
        <time>2017-04-09T06:22:24Z</time>
      </trkpt>
      <trkpt lat="49.27126" lon="1.05036">
        <ele>29.4</ele>
        <time>2017-04-09T06:22:26Z</time>
      </trkpt>
      <trkpt lat="49.27116" lon="1.05035">
        <ele>29.6</ele>
        <time>2017-04-09T06:22:28Z</time>
      </trkpt>
      <trkpt lat="49.27106" lon="1.05037">
        <ele>29.7</ele>
        <time>2017-04-09T06:22:30Z</time>
      </trkpt>
      <trkpt lat="49.27096" lon="1.05041">
        <ele>29.8</ele>
        <time>2017-04-09T06:22:32Z</time>
      </trkpt>
      <trkpt lat="49.27086" lon="1.05044">
        <ele>29.9</ele>
        <time>2017-04-09T06:22:34Z</time>
      </trkpt>
      <trkpt lat="49.27078" lon="1.05049">
        <ele>30</ele>
        <time>2017-04-09T06:22:36Z</time>
      </trkpt>
      <trkpt lat="49.2707" lon="1.05056">
        <ele>30.1</ele>
        <time>2017-04-09T06:22:38Z</time>
      </trkpt>
      <trkpt lat="49.27062" lon="1.05065">
        <ele>30.2</ele>
        <time>2017-04-09T06:22:40Z</time>
      </trkpt>
      <trkpt lat="49.27055" lon="1.05073">
        <ele>30.2</ele>
        <time>2017-04-09T06:22:42Z</time>
      </trkpt>
      <trkpt lat="49.27047" lon="1.05082">
        <ele>30.3</ele>
        <time>2017-04-09T06:22:44Z</time>
      </trkpt>
      <trkpt lat="49.2704" lon="1.0509">
        <ele>30.4</ele>
        <time>2017-04-09T06:22:46Z</time>
      </trkpt>
      <trkpt lat="49.27033" lon="1.05098">
        <ele>30.6</ele>
        <time>2017-04-09T06:22:48Z</time>
      </trkpt>
      <trkpt lat="49.27025" lon="1.05107">
        <ele>30.8</ele>
        <time>2017-04-09T06:22:50Z</time>
      </trkpt>
      <trkpt lat="49.27017" lon="1.05114">
        <ele>30.9</ele>
        <time>2017-04-09T06:22:52Z</time>
      </trkpt>
      <trkpt lat="49.27009" lon="1.0512">
        <ele>31.1</ele>
        <time>2017-04-09T06:22:54Z</time>
      </trkpt>
      <trkpt lat="49.27" lon="1.05125">
        <ele>31.2</ele>
        <time>2017-04-09T06:22:56Z</time>
      </trkpt>
      <trkpt lat="49.26991" lon="1.05129">
        <ele>31.4</ele>
        <time>2017-04-09T06:22:58Z</time>
      </trkpt>
      <trkpt lat="49.26982" lon="1.05132">
        <ele>31.6</ele>
        <time>2017-04-09T06:23:00Z</time>
      </trkpt>
      <trkpt lat="49.26973" lon="1.05132">
        <ele>31.8</ele>
        <time>2017-04-09T06:23:02Z</time>
      </trkpt>
      <trkpt lat="49.26964" lon="1.05132">
        <ele>31.9</ele>
        <time>2017-04-09T06:23:04Z</time>
      </trkpt>
      <trkpt lat="49.26954" lon="1.05131">
        <ele>32.1</ele>
        <time>2017-04-09T06:23:06Z</time>
      </trkpt>
      <trkpt lat="49.26945" lon="1.0513">
        <ele>32.2</ele>
        <time>2017-04-09T06:23:08Z</time>
      </trkpt>
      <trkpt lat="49.26936" lon="1.05134">
        <ele>32.3</ele>
        <time>2017-04-09T06:23:10Z</time>
      </trkpt>
      <trkpt lat="49.26924" lon="1.05143">
        <ele>32.4</ele>
        <time>2017-04-09T06:23:13Z</time>
      </trkpt>
      <trkpt lat="49.26918" lon="1.05154">
        <ele>32.5</ele>
        <time>2017-04-09T06:23:15Z</time>
      </trkpt>
      <trkpt lat="49.26912" lon="1.05165">
        <ele>32.6</ele>
        <time>2017-04-09T06:23:17Z</time>
      </trkpt>
      <trkpt lat="49.26905" lon="1.05178">
        <ele>32.7</ele>
        <time>2017-04-09T06:23:19Z</time>
      </trkpt>
      <trkpt lat="49.26899" lon="1.05191">
        <ele>32.7</ele>
        <time>2017-04-09T06:23:21Z</time>
      </trkpt>
      <trkpt lat="49.26892" lon="1.05203">
        <ele>32.8</ele>
        <time>2017-04-09T06:23:23Z</time>
      </trkpt>
      <trkpt lat="49.26886" lon="1.05215">
        <ele>32.8</ele>
        <time>2017-04-09T06:23:25Z</time>
      </trkpt>
      <trkpt lat="49.26879" lon="1.05226">
        <ele>32.9</ele>
        <time>2017-04-09T06:23:27Z</time>
      </trkpt>
      <trkpt lat="49.26873" lon="1.05238">
        <ele>33</ele>
        <time>2017-04-09T06:23:29Z</time>
      </trkpt>
      <trkpt lat="49.26866" lon="1.0525">
        <ele>33.1</ele>
        <time>2017-04-09T06:23:31Z</time>
      </trkpt>
      <trkpt lat="49.2686" lon="1.05262">
        <ele>33.1</ele>
        <time>2017-04-09T06:23:33Z</time>
      </trkpt>
      <trkpt lat="49.26853" lon="1.05273">
        <ele>33.2</ele>
        <time>2017-04-09T06:23:35Z</time>
      </trkpt>
      <trkpt lat="49.26847" lon="1.05285">
        <ele>33.3</ele>
        <time>2017-04-09T06:23:37Z</time>
      </trkpt>
      <trkpt lat="49.26841" lon="1.05296">
        <ele>33.4</ele>
        <time>2017-04-09T06:23:39Z</time>
      </trkpt>
      <trkpt lat="49.26835" lon="1.05308">
        <ele>33.5</ele>
        <time>2017-04-09T06:23:41Z</time>
      </trkpt>
      <trkpt lat="49.26828" lon="1.05319">
        <ele>33.7</ele>
        <time>2017-04-09T06:23:43Z</time>
      </trkpt>
      <trkpt lat="49.26822" lon="1.05332">
        <ele>33.8</ele>
        <time>2017-04-09T06:23:45Z</time>
      </trkpt>
      <trkpt lat="49.26816" lon="1.05345">
        <ele>34</ele>
        <time>2017-04-09T06:23:47Z</time>
      </trkpt>
      <trkpt lat="49.2681" lon="1.05358">
        <ele>34.2</ele>
        <time>2017-04-09T06:23:49Z</time>
      </trkpt>
      <trkpt lat="49.26804" lon="1.05372">
        <ele>34.3</ele>
        <time>2017-04-09T06:23:51Z</time>
      </trkpt>
      <trkpt lat="49.26802" lon="1.05386">
        <ele>34.5</ele>
        <time>2017-04-09T06:23:53Z</time>
      </trkpt>
      <trkpt lat="49.268" lon="1.05401">
        <ele>34.6</ele>
        <time>2017-04-09T06:23:55Z</time>
      </trkpt>
      <trkpt lat="49.26798" lon="1.05417">
        <ele>34.7</ele>
        <time>2017-04-09T06:23:57Z</time>
      </trkpt>
      <trkpt lat="49.26795" lon="1.05434">
        <ele>34.8</ele>
        <time>2017-04-09T06:23:59Z</time>
      </trkpt>
      <trkpt lat="49.26793" lon="1.0545">
        <ele>34.9</ele>
        <time>2017-04-09T06:24:01Z</time>
      </trkpt>
      <trkpt lat="49.26791" lon="1.05466">
        <ele>35</ele>
        <time>2017-04-09T06:24:03Z</time>
      </trkpt>
      <trkpt lat="49.26789" lon="1.05487">
        <ele>35.1</ele>
        <time>2017-04-09T06:24:06Z</time>
      </trkpt>
      <trkpt lat="49.26787" lon="1.05502">
        <ele>35.2</ele>
        <time>2017-04-09T06:24:08Z</time>
      </trkpt>
      <trkpt lat="49.26784" lon="1.0552">
        <ele>35.2</ele>
        <time>2017-04-09T06:24:10Z</time>
      </trkpt>
      <trkpt lat="49.26783" lon="1.05537">
        <ele>35.3</ele>
        <time>2017-04-09T06:24:12Z</time>
      </trkpt>
      <trkpt lat="49.26777" lon="1.05555">
        <ele>35.3</ele>
        <time>2017-04-09T06:24:15Z</time>
      </trkpt>
      <trkpt lat="49.26772" lon="1.05569">
        <ele>35.4</ele>
        <time>2017-04-09T06:24:17Z</time>
      </trkpt>
      <trkpt lat="49.26769" lon="1.05585">
        <ele>35.4</ele>
        <time>2017-04-09T06:24:19Z</time>
      </trkpt>
      <trkpt lat="49.26767" lon="1.05601">
        <ele>35.4</ele>
        <time>2017-04-09T06:24:21Z</time>
      </trkpt>
      <trkpt lat="49.26765" lon="1.05618">
        <ele>35.4</ele>
        <time>2017-04-09T06:24:23Z</time>
      </trkpt>
      <trkpt lat="49.26763" lon="1.05635">
        <ele>35.5</ele>
        <time>2017-04-09T06:24:25Z</time>
      </trkpt>
      <trkpt lat="49.26761" lon="1.05654">
        <ele>35.5</ele>
        <time>2017-04-09T06:24:27Z</time>
      </trkpt>
      <trkpt lat="49.2676" lon="1.05668">
        <ele>35.5</ele>
        <time>2017-04-09T06:24:29Z</time>
      </trkpt>
      <trkpt lat="49.26755" lon="1.05686">
        <ele>35.5</ele>
        <time>2017-04-09T06:24:31Z</time>
      </trkpt>
      <trkpt lat="49.2675" lon="1.05707">
        <ele>35.5</ele>
        <time>2017-04-09T06:24:33Z</time>
      </trkpt>
      <trkpt lat="49.26746" lon="1.05724">
        <ele>35.5</ele>
        <time>2017-04-09T06:24:35Z</time>
      </trkpt>
      <trkpt lat="49.26741" lon="1.05738">
        <ele>35.6</ele>
        <time>2017-04-09T06:24:37Z</time>
      </trkpt>
      <trkpt lat="49.26735" lon="1.05752">
        <ele>35.8</ele>
        <time>2017-04-09T06:24:39Z</time>
      </trkpt>
      <trkpt lat="49.2673" lon="1.05763">
        <ele>35.9</ele>
        <time>2017-04-09T06:24:41Z</time>
      </trkpt>
      <trkpt lat="49.26723" lon="1.05773">
        <ele>36</ele>
        <time>2017-04-09T06:24:43Z</time>
      </trkpt>
      <trkpt lat="49.26716" lon="1.05783">
        <ele>36.2</ele>
        <time>2017-04-09T06:24:45Z</time>
      </trkpt>
      <trkpt lat="49.26708" lon="1.05796">
        <ele>36.3</ele>
        <time>2017-04-09T06:24:47Z</time>
      </trkpt>
      <trkpt lat="49.26702" lon="1.05807">
        <ele>36.4</ele>
        <time>2017-04-09T06:24:49Z</time>
      </trkpt>
      <trkpt lat="49.26694" lon="1.05819">
        <ele>36.6</ele>
        <time>2017-04-09T06:24:52Z</time>
      </trkpt>
      <trkpt lat="49.26687" lon="1.0583">
        <ele>37.1</ele>
        <time>2017-04-09T06:24:55Z</time>
      </trkpt>
      <trkpt lat="49.26679" lon="1.05841">
        <ele>37.8</ele>
        <time>2017-04-09T06:24:59Z</time>
      </trkpt>
      <trkpt lat="49.2667" lon="1.05852">
        <ele>38.3</ele>
        <time>2017-04-09T06:25:02Z</time>
      </trkpt>
      <trkpt lat="49.26661" lon="1.05865">
        <ele>39.1</ele>
        <time>2017-04-09T06:25:06Z</time>
      </trkpt>
      <trkpt lat="49.26653" lon="1.05877">
        <ele>39.8</ele>
        <time>2017-04-09T06:25:09Z</time>
      </trkpt>
      <trkpt lat="49.26645" lon="1.05886">
        <ele>40.7</ele>
        <time>2017-04-09T06:25:12Z</time>
      </trkpt>
      <trkpt lat="49.26635" lon="1.05892">
        <ele>42</ele>
        <time>2017-04-09T06:25:16Z</time>
      </trkpt>
      <trkpt lat="49.26624" lon="1.05898">
        <ele>43</ele>
        <time>2017-04-09T06:25:20Z</time>
      </trkpt>
      <trkpt lat="49.26614" lon="1.05907">
        <ele>44.1</ele>
        <time>2017-04-09T06:25:24Z</time>
      </trkpt>
      <trkpt lat="49.26606" lon="1.05917">
        <ele>45.1</ele>
        <time>2017-04-09T06:25:28Z</time>
      </trkpt>
      <trkpt lat="49.266" lon="1.05929">
        <ele>46.1</ele>
        <time>2017-04-09T06:25:32Z</time>
      </trkpt>
      <trkpt lat="49.26594" lon="1.05943">
        <ele>47.4</ele>
        <time>2017-04-09T06:25:36Z</time>
      </trkpt>
      <trkpt lat="49.26588" lon="1.05954">
        <ele>48.1</ele>
        <time>2017-04-09T06:25:39Z</time>
      </trkpt>
      <trkpt lat="49.26581" lon="1.05969">
        <ele>48.8</ele>
        <time>2017-04-09T06:25:42Z</time>
      </trkpt>
      <trkpt lat="49.26574" lon="1.05981">
        <ele>49.4</ele>
        <time>2017-04-09T06:25:45Z</time>
      </trkpt>
      <trkpt lat="49.26568" lon="1.05993">
        <ele>49.8</ele>
        <time>2017-04-09T06:25:47Z</time>
      </trkpt>
      <trkpt lat="49.2656" lon="1.06003">
        <ele>50.4</ele>
        <time>2017-04-09T06:25:50Z</time>
      </trkpt>
      <trkpt lat="49.26551" lon="1.06015">
        <ele>51</ele>
        <time>2017-04-09T06:25:53Z</time>
      </trkpt>
      <trkpt lat="49.26542" lon="1.06025">
        <ele>51.6</ele>
        <time>2017-04-09T06:25:56Z</time>
      </trkpt>
      <trkpt lat="49.26533" lon="1.06035">
        <ele>52.1</ele>
        <time>2017-04-09T06:25:59Z</time>
      </trkpt>
      <trkpt lat="49.26523" lon="1.06048">
        <ele>52.6</ele>
        <time>2017-04-09T06:26:03Z</time>
      </trkpt>
      <trkpt lat="49.26515" lon="1.0606">
        <ele>53</ele>
        <time>2017-04-09T06:26:06Z</time>
      </trkpt>
      <trkpt lat="49.26507" lon="1.06073">
        <ele>53.4</ele>
        <time>2017-04-09T06:26:09Z</time>
      </trkpt>
      <trkpt lat="49.265" lon="1.06083">
        <ele>53.9</ele>
        <time>2017-04-09T06:26:12Z</time>
      </trkpt>
      <trkpt lat="49.26492" lon="1.06093">
        <ele>54.6</ele>
        <time>2017-04-09T06:26:16Z</time>
      </trkpt>
      <trkpt lat="49.26485" lon="1.06103">
        <ele>55</ele>
        <time>2017-04-09T06:26:18Z</time>
      </trkpt>
      <trkpt lat="49.26478" lon="1.06113">
        <ele>55.6</ele>
        <time>2017-04-09T06:26:21Z</time>
      </trkpt>
      <trkpt lat="49.26469" lon="1.06126">
        <ele>56.2</ele>
        <time>2017-04-09T06:26:24Z</time>
      </trkpt>
      <trkpt lat="49.26461" lon="1.06137">
        <ele>56.5</ele>
        <time>2017-04-09T06:26:26Z</time>
      </trkpt>
      <trkpt lat="49.26453" lon="1.06148">
        <ele>57.1</ele>
        <time>2017-04-09T06:26:29Z</time>
      </trkpt>
      <trkpt lat="49.26445" lon="1.06162">
        <ele>57.7</ele>
        <time>2017-04-09T06:26:32Z</time>
      </trkpt>
      <trkpt lat="49.26438" lon="1.06175">
        <ele>58.5</ele>
        <time>2017-04-09T06:26:36Z</time>
      </trkpt>
      <trkpt lat="49.26431" lon="1.06187">
        <ele>59.1</ele>
        <time>2017-04-09T06:26:39Z</time>
      </trkpt>
      <trkpt lat="49.26423" lon="1.06202">
        <ele>59.7</ele>
        <time>2017-04-09T06:26:42Z</time>
      </trkpt>
      <trkpt lat="49.26416" lon="1.06218">
        <ele>60.3</ele>
        <time>2017-04-09T06:26:45Z</time>
      </trkpt>
      <trkpt lat="49.26409" lon="1.06231">
        <ele>61</ele>
        <time>2017-04-09T06:26:48Z</time>
      </trkpt>
      <trkpt lat="49.26403" lon="1.06244">
        <ele>61.6</ele>
        <time>2017-04-09T06:26:51Z</time>
      </trkpt>
      <trkpt lat="49.26395" lon="1.06261">
        <ele>62.1</ele>
        <time>2017-04-09T06:26:54Z</time>
      </trkpt>
      <trkpt lat="49.2639" lon="1.06272">
        <ele>62.4</ele>
        <time>2017-04-09T06:26:56Z</time>
      </trkpt>
      <trkpt lat="49.26383" lon="1.06289">
        <ele>62.8</ele>
        <time>2017-04-09T06:26:59Z</time>
      </trkpt>
      <trkpt lat="49.26376" lon="1.06306">
        <ele>63.2</ele>
        <time>2017-04-09T06:27:02Z</time>
      </trkpt>
      <trkpt lat="49.26369" lon="1.06323">
        <ele>63.5</ele>
        <time>2017-04-09T06:27:05Z</time>
      </trkpt>
      <trkpt lat="49.26364" lon="1.06335">
        <ele>63.7</ele>
        <time>2017-04-09T06:27:07Z</time>
      </trkpt>
      <trkpt lat="49.26358" lon="1.06348">
        <ele>63.9</ele>
        <time>2017-04-09T06:27:09Z</time>
      </trkpt>
      <trkpt lat="49.26351" lon="1.06366">
        <ele>64.1</ele>
        <time>2017-04-09T06:27:12Z</time>
      </trkpt>
      <trkpt lat="49.26346" lon="1.06381">
        <ele>64.4</ele>
        <time>2017-04-09T06:27:14Z</time>
      </trkpt>
      <trkpt lat="49.26341" lon="1.06393">
        <ele>64.6</ele>
        <time>2017-04-09T06:27:16Z</time>
      </trkpt>
      <trkpt lat="49.26334" lon="1.06408">
        <ele>64.8</ele>
        <time>2017-04-09T06:27:18Z</time>
      </trkpt>
      <trkpt lat="49.26328" lon="1.06423">
        <ele>65</ele>
        <time>2017-04-09T06:27:20Z</time>
      </trkpt>
      <trkpt lat="49.26323" lon="1.06436">
        <ele>65.2</ele>
        <time>2017-04-09T06:27:22Z</time>
      </trkpt>
      <trkpt lat="49.26318" lon="1.0645">
        <ele>65.3</ele>
        <time>2017-04-09T06:27:24Z</time>
      </trkpt>
      <trkpt lat="49.26313" lon="1.06467">
        <ele>65.4</ele>
        <time>2017-04-09T06:27:26Z</time>
      </trkpt>
      <trkpt lat="49.26306" lon="1.06483">
        <ele>65.6</ele>
        <time>2017-04-09T06:27:29Z</time>
      </trkpt>
      <trkpt lat="49.26297" lon="1.0649">
        <ele>65.8</ele>
        <time>2017-04-09T06:27:31Z</time>
      </trkpt>
      <trkpt lat="49.26287" lon="1.0649">
        <ele>66</ele>
        <time>2017-04-09T06:27:33Z</time>
      </trkpt>
      <trkpt lat="49.26276" lon="1.06483">
        <ele>66.3</ele>
        <time>2017-04-09T06:27:36Z</time>
      </trkpt>
      <trkpt lat="49.26265" lon="1.06472">
        <ele>66.6</ele>
        <time>2017-04-09T06:27:39Z</time>
      </trkpt>
      <trkpt lat="49.26256" lon="1.0646">
        <ele>67</ele>
        <time>2017-04-09T06:27:42Z</time>
      </trkpt>
      <trkpt lat="49.26247" lon="1.06447">
        <ele>67.4</ele>
        <time>2017-04-09T06:27:45Z</time>
      </trkpt>
      <trkpt lat="49.26241" lon="1.06436">
        <ele>67.7</ele>
        <time>2017-04-09T06:27:47Z</time>
      </trkpt>
      <trkpt lat="49.26231" lon="1.06422">
        <ele>68</ele>
        <time>2017-04-09T06:27:50Z</time>
      </trkpt>
      <trkpt lat="49.26224" lon="1.06408">
        <ele>68.4</ele>
        <time>2017-04-09T06:27:53Z</time>
      </trkpt>
      <trkpt lat="49.26217" lon="1.06399">
        <ele>68.7</ele>
        <time>2017-04-09T06:27:55Z</time>
      </trkpt>
      <trkpt lat="49.26206" lon="1.0639">
        <ele>69.1</ele>
        <time>2017-04-09T06:27:58Z</time>
      </trkpt>
      <trkpt lat="49.26194" lon="1.06385">
        <ele>69.7</ele>
        <time>2017-04-09T06:28:01Z</time>
      </trkpt>
      <trkpt lat="49.26185" lon="1.06389">
        <ele>70.3</ele>
        <time>2017-04-09T06:28:04Z</time>
      </trkpt>
      <trkpt lat="49.26176" lon="1.06397">
        <ele>71.3</ele>
        <time>2017-04-09T06:28:08Z</time>
      </trkpt>
      <trkpt lat="49.26166" lon="1.06407">
        <ele>72.7</ele>
        <time>2017-04-09T06:28:13Z</time>
      </trkpt>
      <trkpt lat="49.26157" lon="1.06414">
        <ele>73.6</ele>
        <time>2017-04-09T06:28:16Z</time>
      </trkpt>
      <trkpt lat="49.26147" lon="1.06418">
        <ele>74.9</ele>
        <time>2017-04-09T06:28:20Z</time>
      </trkpt>
      <trkpt lat="49.26138" lon="1.06428">
        <ele>76.1</ele>
        <time>2017-04-09T06:28:24Z</time>
      </trkpt>
      <trkpt lat="49.26132" lon="1.06441">
        <ele>77</ele>
        <time>2017-04-09T06:28:27Z</time>
      </trkpt>
      <trkpt lat="49.26127" lon="1.06454">
        <ele>77.9</ele>
        <time>2017-04-09T06:28:30Z</time>
      </trkpt>
      <trkpt lat="49.2612" lon="1.06467">
        <ele>79.1</ele>
        <time>2017-04-09T06:28:34Z</time>
      </trkpt>
      <trkpt lat="49.26115" lon="1.0648">
        <ele>80.4</ele>
        <time>2017-04-09T06:28:38Z</time>
      </trkpt>
      <trkpt lat="49.26109" lon="1.06492">
        <ele>81.6</ele>
        <time>2017-04-09T06:28:42Z</time>
      </trkpt>
      <trkpt lat="49.26104" lon="1.06505">
        <ele>82.8</ele>
        <time>2017-04-09T06:28:46Z</time>
      </trkpt>
      <trkpt lat="49.26096" lon="1.06518">
        <ele>83.9</ele>
        <time>2017-04-09T06:28:50Z</time>
      </trkpt>
      <trkpt lat="49.26091" lon="1.06533">
        <ele>85.4</ele>
        <time>2017-04-09T06:28:55Z</time>
      </trkpt>
      <trkpt lat="49.26085" lon="1.06547">
        <ele>86.6</ele>
        <time>2017-04-09T06:28:59Z</time>
      </trkpt>
      <trkpt lat="49.26079" lon="1.0656">
        <ele>87.8</ele>
        <time>2017-04-09T06:29:03Z</time>
      </trkpt>
      <trkpt lat="49.26072" lon="1.0657">
        <ele>89</ele>
        <time>2017-04-09T06:29:07Z</time>
      </trkpt>
      <trkpt lat="49.26066" lon="1.06582">
        <ele>90.3</ele>
        <time>2017-04-09T06:29:11Z</time>
      </trkpt>
      <trkpt lat="49.2606" lon="1.06597">
        <ele>91.7</ele>
        <time>2017-04-09T06:29:16Z</time>
      </trkpt>
      <trkpt lat="49.26054" lon="1.06611">
        <ele>92.7</ele>
        <time>2017-04-09T06:29:20Z</time>
      </trkpt>
      <trkpt lat="49.26048" lon="1.06624">
        <ele>93.9</ele>
        <time>2017-04-09T06:29:24Z</time>
      </trkpt>
      <trkpt lat="49.26043" lon="1.06638">
        <ele>95.1</ele>
        <time>2017-04-09T06:29:28Z</time>
      </trkpt>
      <trkpt lat="49.26038" lon="1.06651">
        <ele>96.3</ele>
        <time>2017-04-09T06:29:32Z</time>
      </trkpt>
      <trkpt lat="49.26033" lon="1.06663">
        <ele>97.4</ele>
        <time>2017-04-09T06:29:36Z</time>
      </trkpt>
      <trkpt lat="49.26027" lon="1.06677">
        <ele>98.5</ele>
        <time>2017-04-09T06:29:40Z</time>
      </trkpt>
      <trkpt lat="49.26021" lon="1.0669">
        <ele>99.6</ele>
        <time>2017-04-09T06:29:44Z</time>
      </trkpt>
      <trkpt lat="49.26016" lon="1.06704">
        <ele>100.7</ele>
        <time>2017-04-09T06:29:48Z</time>
      </trkpt>
      <trkpt lat="49.26011" lon="1.06716">
        <ele>101.7</ele>
        <time>2017-04-09T06:29:52Z</time>
      </trkpt>
      <trkpt lat="49.26005" lon="1.06731">
        <ele>102.7</ele>
        <time>2017-04-09T06:29:56Z</time>
      </trkpt>
      <trkpt lat="49.25999" lon="1.06745">
        <ele>103.8</ele>
        <time>2017-04-09T06:30:00Z</time>
      </trkpt>
      <trkpt lat="49.25994" lon="1.0676">
        <ele>104.8</ele>
        <time>2017-04-09T06:30:04Z</time>
      </trkpt>
      <trkpt lat="49.25989" lon="1.06772">
        <ele>105.5</ele>
        <time>2017-04-09T06:30:07Z</time>
      </trkpt>
      <trkpt lat="49.25984" lon="1.06784">
        <ele>106.2</ele>
        <time>2017-04-09T06:30:10Z</time>
      </trkpt>
      <trkpt lat="49.25979" lon="1.06795">
        <ele>106.8</ele>
        <time>2017-04-09T06:30:13Z</time>
      </trkpt>
      <trkpt lat="49.25974" lon="1.06808">
        <ele>107.5</ele>
        <time>2017-04-09T06:30:16Z</time>
      </trkpt>
      <trkpt lat="49.25969" lon="1.06821">
        <ele>108.2</ele>
        <time>2017-04-09T06:30:19Z</time>
      </trkpt>
      <trkpt lat="49.25959" lon="1.06824">
        <ele>109.2</ele>
        <time>2017-04-09T06:30:24Z</time>
      </trkpt>
      <trkpt lat="49.25951" lon="1.06816">
        <ele>109.8</ele>
        <time>2017-04-09T06:30:27Z</time>
      </trkpt>
      <trkpt lat="49.25943" lon="1.0681">
        <ele>110.4</ele>
        <time>2017-04-09T06:30:30Z</time>
      </trkpt>
      <trkpt lat="49.25933" lon="1.06803">
        <ele>110.8</ele>
        <time>2017-04-09T06:30:33Z</time>
      </trkpt>
      <trkpt lat="49.25922" lon="1.06795">
        <ele>111.2</ele>
        <time>2017-04-09T06:30:36Z</time>
      </trkpt>
      <trkpt lat="49.25912" lon="1.06785">
        <ele>111.7</ele>
        <time>2017-04-09T06:30:39Z</time>
      </trkpt>
      <trkpt lat="49.25903" lon="1.06778">
        <ele>112.2</ele>
        <time>2017-04-09T06:30:42Z</time>
      </trkpt>
      <trkpt lat="49.25894" lon="1.06771">
        <ele>112.5</ele>
        <time>2017-04-09T06:30:45Z</time>
      </trkpt>
      <trkpt lat="49.25885" lon="1.0676">
        <ele>112.9</ele>
        <time>2017-04-09T06:30:48Z</time>
      </trkpt>
      <trkpt lat="49.25875" lon="1.06752">
        <ele>113.3</ele>
        <time>2017-04-09T06:30:51Z</time>
      </trkpt>
      <trkpt lat="49.25864" lon="1.06741">
        <ele>113.6</ele>
        <time>2017-04-09T06:30:55Z</time>
      </trkpt>
      <trkpt lat="49.25854" lon="1.06731">
        <ele>113.9</ele>
        <time>2017-04-09T06:30:58Z</time>
      </trkpt>
      <trkpt lat="49.25843" lon="1.06723">
        <ele>114.1</ele>
        <time>2017-04-09T06:31:01Z</time>
      </trkpt>
      <trkpt lat="49.25835" lon="1.06714">
        <ele>114.2</ele>
        <time>2017-04-09T06:31:03Z</time>
      </trkpt>
      <trkpt lat="49.25826" lon="1.06707">
        <ele>114.3</ele>
        <time>2017-04-09T06:31:05Z</time>
      </trkpt>
      <trkpt lat="49.25818" lon="1.06702">
        <ele>114.4</ele>
        <time>2017-04-09T06:31:07Z</time>
      </trkpt>
      <trkpt lat="49.25807" lon="1.06693">
        <ele>114.6</ele>
        <time>2017-04-09T06:31:10Z</time>
      </trkpt>
      <trkpt lat="49.25797" lon="1.06689">
        <ele>114.6</ele>
        <time>2017-04-09T06:31:12Z</time>
      </trkpt>
      <trkpt lat="49.25784" lon="1.0669">
        <ele>114.7</ele>
        <time>2017-04-09T06:31:15Z</time>
      </trkpt>
      <trkpt lat="49.25774" lon="1.06692">
        <ele>114.7</ele>
        <time>2017-04-09T06:31:17Z</time>
      </trkpt>
      <trkpt lat="49.25765" lon="1.06698">
        <ele>114.8</ele>
        <time>2017-04-09T06:31:19Z</time>
      </trkpt>
      <trkpt lat="49.25758" lon="1.06709">
        <ele>114.8</ele>
        <time>2017-04-09T06:31:21Z</time>
      </trkpt>
      <trkpt lat="49.25752" lon="1.06721">
        <ele>114.8</ele>
        <time>2017-04-09T06:31:24Z</time>
      </trkpt>
      <trkpt lat="49.25746" lon="1.06734">
        <ele>114.9</ele>
        <time>2017-04-09T06:31:27Z</time>
      </trkpt>
      <trkpt lat="49.2574" lon="1.06745">
        <ele>115</ele>
        <time>2017-04-09T06:31:29Z</time>
      </trkpt>
      <trkpt lat="49.25734" lon="1.06757">
        <ele>115.1</ele>
        <time>2017-04-09T06:31:31Z</time>
      </trkpt>
      <trkpt lat="49.25727" lon="1.06771">
        <ele>115.2</ele>
        <time>2017-04-09T06:31:34Z</time>
      </trkpt>
      <trkpt lat="49.25721" lon="1.06783">
        <ele>115.4</ele>
        <time>2017-04-09T06:31:36Z</time>
      </trkpt>
      <trkpt lat="49.25712" lon="1.06797">
        <ele>115.5</ele>
        <time>2017-04-09T06:31:39Z</time>
      </trkpt>
      <trkpt lat="49.25703" lon="1.06812">
        <ele>115.8</ele>
        <time>2017-04-09T06:31:42Z</time>
      </trkpt>
      <trkpt lat="49.25697" lon="1.06823">
        <ele>116</ele>
        <time>2017-04-09T06:31:44Z</time>
      </trkpt>
      <trkpt lat="49.25692" lon="1.06834">
        <ele>116.2</ele>
        <time>2017-04-09T06:31:46Z</time>
      </trkpt>
      <trkpt lat="49.25686" lon="1.06849">
        <ele>116.5</ele>
        <time>2017-04-09T06:31:49Z</time>
      </trkpt>
      <trkpt lat="49.25679" lon="1.06864">
        <ele>116.7</ele>
        <time>2017-04-09T06:31:52Z</time>
      </trkpt>
      <trkpt lat="49.25673" lon="1.06877">
        <ele>116.9</ele>
        <time>2017-04-09T06:31:54Z</time>
      </trkpt>
      <trkpt lat="49.25666" lon="1.06897">
        <ele>117.2</ele>
        <time>2017-04-09T06:31:57Z</time>
      </trkpt>
      <trkpt lat="49.25662" lon="1.0691">
        <ele>117.3</ele>
        <time>2017-04-09T06:31:59Z</time>
      </trkpt>
      <trkpt lat="49.25655" lon="1.06924">
        <ele>117.5</ele>
        <time>2017-04-09T06:32:02Z</time>
      </trkpt>
      <trkpt lat="49.25651" lon="1.06939">
        <ele>117.8</ele>
        <time>2017-04-09T06:32:06Z</time>
      </trkpt>
      <trkpt lat="49.25654" lon="1.06959">
        <ele>118.1</ele>
        <time>2017-04-09T06:32:09Z</time>
      </trkpt>
      <trkpt lat="49.25661" lon="1.06975">
        <ele>118.5</ele>
        <time>2017-04-09T06:32:12Z</time>
      </trkpt>
      <trkpt lat="49.25667" lon="1.06984">
        <ele>118.8</ele>
        <time>2017-04-09T06:32:14Z</time>
      </trkpt>
      <trkpt lat="49.25675" lon="1.06994">
        <ele>119</ele>
        <time>2017-04-09T06:32:16Z</time>
      </trkpt>
      <trkpt lat="49.25682" lon="1.07003">
        <ele>119.3</ele>
        <time>2017-04-09T06:32:18Z</time>
      </trkpt>
      <trkpt lat="49.25691" lon="1.07017">
        <ele>119.8</ele>
        <time>2017-04-09T06:32:21Z</time>
      </trkpt>
      <trkpt lat="49.25702" lon="1.07031">
        <ele>120.2</ele>
        <time>2017-04-09T06:32:24Z</time>
      </trkpt>
      <trkpt lat="49.25712" lon="1.07044">
        <ele>120.6</ele>
        <time>2017-04-09T06:32:27Z</time>
      </trkpt>
      <trkpt lat="49.25721" lon="1.07055">
        <ele>120.8</ele>
        <time>2017-04-09T06:32:29Z</time>
      </trkpt>
      <trkpt lat="49.25729" lon="1.07063">
        <ele>121</ele>
        <time>2017-04-09T06:32:31Z</time>
      </trkpt>
      <trkpt lat="49.25736" lon="1.07071">
        <ele>121.2</ele>
        <time>2017-04-09T06:32:33Z</time>
      </trkpt>
      <trkpt lat="49.25746" lon="1.07086">
        <ele>121.5</ele>
        <time>2017-04-09T06:32:36Z</time>
      </trkpt>
      <trkpt lat="49.25755" lon="1.07097">
        <ele>121.7</ele>
        <time>2017-04-09T06:32:38Z</time>
      </trkpt>
      <trkpt lat="49.25764" lon="1.07107">
        <ele>121.9</ele>
        <time>2017-04-09T06:32:40Z</time>
      </trkpt>
      <trkpt lat="49.25774" lon="1.07118">
        <ele>122.1</ele>
        <time>2017-04-09T06:32:42Z</time>
      </trkpt>
      <trkpt lat="49.25784" lon="1.07133">
        <ele>122.3</ele>
        <time>2017-04-09T06:32:45Z</time>
      </trkpt>
      <trkpt lat="49.25792" lon="1.07143">
        <ele>122.4</ele>
        <time>2017-04-09T06:32:47Z</time>
      </trkpt>
      <trkpt lat="49.258" lon="1.07157">
        <ele>122.5</ele>
        <time>2017-04-09T06:32:50Z</time>
      </trkpt>
      <trkpt lat="49.25807" lon="1.07168">
        <ele>122.6</ele>
        <time>2017-04-09T06:32:52Z</time>
      </trkpt>
      <trkpt lat="49.25807" lon="1.07188">
        <ele>122.7</ele>
        <time>2017-04-09T06:32:55Z</time>
      </trkpt>
      <trkpt lat="49.25802" lon="1.07205">
        <ele>122.9</ele>
        <time>2017-04-09T06:32:58Z</time>
      </trkpt>
      <trkpt lat="49.25796" lon="1.07219">
        <ele>122.9</ele>
        <time>2017-04-09T06:33:00Z</time>
      </trkpt>
      <trkpt lat="49.25789" lon="1.07236">
        <ele>123.1</ele>
        <time>2017-04-09T06:33:03Z</time>
      </trkpt>
      <trkpt lat="49.25783" lon="1.07252">
        <ele>123.1</ele>
        <time>2017-04-09T06:33:05Z</time>
      </trkpt>
      <trkpt lat="49.25778" lon="1.07265">
        <ele>123.2</ele>
        <time>2017-04-09T06:33:07Z</time>
      </trkpt>
      <trkpt lat="49.2577" lon="1.07283">
        <ele>123.3</ele>
        <time>2017-04-09T06:33:09Z</time>
      </trkpt>
      <trkpt lat="49.25765" lon="1.07297">
        <ele>123.4</ele>
        <time>2017-04-09T06:33:11Z</time>
      </trkpt>
      <trkpt lat="49.2576" lon="1.07311">
        <ele>123.5</ele>
        <time>2017-04-09T06:33:13Z</time>
      </trkpt>
      <trkpt lat="49.25754" lon="1.07326">
        <ele>123.6</ele>
        <time>2017-04-09T06:33:15Z</time>
      </trkpt>
      <trkpt lat="49.25747" lon="1.07341">
        <ele>123.6</ele>
        <time>2017-04-09T06:33:17Z</time>
      </trkpt>
      <trkpt lat="49.2574" lon="1.07356">
        <ele>123.7</ele>
        <time>2017-04-09T06:33:19Z</time>
      </trkpt>
      <trkpt lat="49.25733" lon="1.07372">
        <ele>123.7</ele>
        <time>2017-04-09T06:33:21Z</time>
      </trkpt>
      <trkpt lat="49.25727" lon="1.07387">
        <ele>123.8</ele>
        <time>2017-04-09T06:33:23Z</time>
      </trkpt>
      <trkpt lat="49.2572" lon="1.07403">
        <ele>123.8</ele>
        <time>2017-04-09T06:33:25Z</time>
      </trkpt>
      <trkpt lat="49.25714" lon="1.07418">
        <ele>123.8</ele>
        <time>2017-04-09T06:33:27Z</time>
      </trkpt>
      <trkpt lat="49.25707" lon="1.07435">
        <ele>123.8</ele>
        <time>2017-04-09T06:33:29Z</time>
      </trkpt>
      <trkpt lat="49.257" lon="1.07451">
        <ele>123.8</ele>
        <time>2017-04-09T06:33:31Z</time>
      </trkpt>
      <trkpt lat="49.25694" lon="1.07464">
        <ele>123.7</ele>
        <time>2017-04-09T06:33:33Z</time>
      </trkpt>
      <trkpt lat="49.25688" lon="1.07478">
        <ele>123.7</ele>
        <time>2017-04-09T06:33:35Z</time>
      </trkpt>
      <trkpt lat="49.25681" lon="1.07493">
        <ele>123.6</ele>
        <time>2017-04-09T06:33:37Z</time>
      </trkpt>
      <trkpt lat="49.25673" lon="1.07513">
        <ele>123.5</ele>
        <time>2017-04-09T06:33:39Z</time>
      </trkpt>
      <trkpt lat="49.25666" lon="1.07527">
        <ele>123.5</ele>
        <time>2017-04-09T06:33:41Z</time>
      </trkpt>
      <trkpt lat="49.25658" lon="1.07543">
        <ele>123.4</ele>
        <time>2017-04-09T06:33:43Z</time>
      </trkpt>
      <trkpt lat="49.25651" lon="1.0756">
        <ele>123.4</ele>
        <time>2017-04-09T06:33:45Z</time>
      </trkpt>
      <trkpt lat="49.25643" lon="1.07577">
        <ele>123.3</ele>
        <time>2017-04-09T06:33:47Z</time>
      </trkpt>
      <trkpt lat="49.25638" lon="1.07593">
        <ele>123.3</ele>
        <time>2017-04-09T06:33:50Z</time>
      </trkpt>
      <trkpt lat="49.25643" lon="1.07605">
        <ele>123.1</ele>
        <time>2017-04-09T06:33:55Z</time>
      </trkpt>
      <trkpt lat="49.25653" lon="1.07616">
        <ele>122.9</ele>
        <time>2017-04-09T06:33:58Z</time>
      </trkpt>
      <trkpt lat="49.25659" lon="1.07627">
        <ele>122.9</ele>
        <time>2017-04-09T06:34:00Z</time>
      </trkpt>
      <trkpt lat="49.25662" lon="1.0764">
        <ele>122.8</ele>
        <time>2017-04-09T06:34:02Z</time>
      </trkpt>
      <trkpt lat="49.25664" lon="1.07655">
        <ele>122.7</ele>
        <time>2017-04-09T06:34:04Z</time>
      </trkpt>
      <trkpt lat="49.25666" lon="1.07668">
        <ele>122.6</ele>
        <time>2017-04-09T06:34:06Z</time>
      </trkpt>
      <trkpt lat="49.2567" lon="1.07683">
        <ele>122.6</ele>
        <time>2017-04-09T06:34:08Z</time>
      </trkpt>
      <trkpt lat="49.25674" lon="1.07696">
        <ele>122.5</ele>
        <time>2017-04-09T06:34:10Z</time>
      </trkpt>
      <trkpt lat="49.25675" lon="1.0771">
        <ele>122.5</ele>
        <time>2017-04-09T06:34:12Z</time>
      </trkpt>
      <trkpt lat="49.25673" lon="1.07728">
        <ele>122.4</ele>
        <time>2017-04-09T06:34:15Z</time>
      </trkpt>
      <trkpt lat="49.25672" lon="1.07747">
        <ele>122.4</ele>
        <time>2017-04-09T06:34:18Z</time>
      </trkpt>
      <trkpt lat="49.25671" lon="1.07763">
        <ele>122.3</ele>
        <time>2017-04-09T06:34:20Z</time>
      </trkpt>
      <trkpt lat="49.2567" lon="1.07779">
        <ele>122.3</ele>
        <time>2017-04-09T06:34:22Z</time>
      </trkpt>
      <trkpt lat="49.25674" lon="1.07794">
        <ele>122.3</ele>
        <time>2017-04-09T06:34:24Z</time>
      </trkpt>
      <trkpt lat="49.25682" lon="1.0781">
        <ele>122.3</ele>
        <time>2017-04-09T06:34:27Z</time>
      </trkpt>
      <trkpt lat="49.25691" lon="1.07825">
        <ele>122.3</ele>
        <time>2017-04-09T06:34:30Z</time>
      </trkpt>
      <trkpt lat="49.25698" lon="1.07834">
        <ele>122.3</ele>
        <time>2017-04-09T06:34:32Z</time>
      </trkpt>
      <trkpt lat="49.25707" lon="1.07848">
        <ele>122.4</ele>
        <time>2017-04-09T06:34:35Z</time>
      </trkpt>
      <trkpt lat="49.25715" lon="1.07862">
        <ele>122.5</ele>
        <time>2017-04-09T06:34:38Z</time>
      </trkpt>
      <trkpt lat="49.25722" lon="1.07876">
        <ele>122.7</ele>
        <time>2017-04-09T06:34:41Z</time>
      </trkpt>
      <trkpt lat="49.25731" lon="1.07889">
        <ele>122.9</ele>
        <time>2017-04-09T06:34:44Z</time>
      </trkpt>
      <trkpt lat="49.25739" lon="1.07899">
        <ele>123</ele>
        <time>2017-04-09T06:34:46Z</time>
      </trkpt>
      <trkpt lat="49.25748" lon="1.0791">
        <ele>123.1</ele>
        <time>2017-04-09T06:34:49Z</time>
      </trkpt>
      <trkpt lat="49.25754" lon="1.07926">
        <ele>123.3</ele>
        <time>2017-04-09T06:34:53Z</time>
      </trkpt>
      <trkpt lat="49.25765" lon="1.07931">
        <ele>123.4</ele>
        <time>2017-04-09T06:34:58Z</time>
      </trkpt>
      <trkpt lat="49.25774" lon="1.07936">
        <ele>123.5</ele>
        <time>2017-04-09T06:35:01Z</time>
      </trkpt>
      <trkpt lat="49.25783" lon="1.0795">
        <ele>123.6</ele>
        <time>2017-04-09T06:35:04Z</time>
      </trkpt>
      <trkpt lat="49.25793" lon="1.07964">
        <ele>123.7</ele>
        <time>2017-04-09T06:35:07Z</time>
      </trkpt>
      <trkpt lat="49.258" lon="1.07975">
        <ele>123.8</ele>
        <time>2017-04-09T06:35:09Z</time>
      </trkpt>
      <trkpt lat="49.25809" lon="1.07984">
        <ele>123.9</ele>
        <time>2017-04-09T06:35:11Z</time>
      </trkpt>
      <trkpt lat="49.25817" lon="1.07993">
        <ele>124</ele>
        <time>2017-04-09T06:35:13Z</time>
      </trkpt>
      <trkpt lat="49.25823" lon="1.08003">
        <ele>124.1</ele>
        <time>2017-04-09T06:35:15Z</time>
      </trkpt>
      <trkpt lat="49.25832" lon="1.08016">
        <ele>124.2</ele>
        <time>2017-04-09T06:35:18Z</time>
      </trkpt>
      <trkpt lat="49.25842" lon="1.08029">
        <ele>124.4</ele>
        <time>2017-04-09T06:35:21Z</time>
      </trkpt>
      <trkpt lat="49.25853" lon="1.08036">
        <ele>124.5</ele>
        <time>2017-04-09T06:35:24Z</time>
      </trkpt>
      <trkpt lat="49.25862" lon="1.08031">
        <ele>124.7</ele>
        <time>2017-04-09T06:35:26Z</time>
      </trkpt>
      <trkpt lat="49.2587" lon="1.08023">
        <ele>124.8</ele>
        <time>2017-04-09T06:35:28Z</time>
      </trkpt>
      <trkpt lat="49.25878" lon="1.08013">
        <ele>124.9</ele>
        <time>2017-04-09T06:35:30Z</time>
      </trkpt>
      <trkpt lat="49.25885" lon="1.08001">
        <ele>125.1</ele>
        <time>2017-04-09T06:35:32Z</time>
      </trkpt>
      <trkpt lat="49.25893" lon="1.07991">
        <ele>125.2</ele>
        <time>2017-04-09T06:35:34Z</time>
      </trkpt>
      <trkpt lat="49.259" lon="1.0798">
        <ele>125.3</ele>
        <time>2017-04-09T06:35:36Z</time>
      </trkpt>
      <trkpt lat="49.25907" lon="1.07969">
        <ele>125.5</ele>
        <time>2017-04-09T06:35:38Z</time>
      </trkpt>
      <trkpt lat="49.25914" lon="1.07958">
        <ele>125.6</ele>
        <time>2017-04-09T06:35:40Z</time>
      </trkpt>
      <trkpt lat="49.25922" lon="1.07946">
        <ele>125.7</ele>
        <time>2017-04-09T06:35:42Z</time>
      </trkpt>
      <trkpt lat="49.25929" lon="1.07934">
        <ele>125.9</ele>
        <time>2017-04-09T06:35:44Z</time>
      </trkpt>
      <trkpt lat="49.25936" lon="1.07921">
        <ele>126</ele>
        <time>2017-04-09T06:35:46Z</time>
      </trkpt>
      <trkpt lat="49.25943" lon="1.07908">
        <ele>126.1</ele>
        <time>2017-04-09T06:35:48Z</time>
      </trkpt>
      <trkpt lat="49.2595" lon="1.07898">
        <ele>126.1</ele>
        <time>2017-04-09T06:35:50Z</time>
      </trkpt>
      <trkpt lat="49.25959" lon="1.07886">
        <ele>126.2</ele>
        <time>2017-04-09T06:35:52Z</time>
      </trkpt>
      <trkpt lat="49.25966" lon="1.07872">
        <ele>126.3</ele>
        <time>2017-04-09T06:35:54Z</time>
      </trkpt>
      <trkpt lat="49.25974" lon="1.07858">
        <ele>126.3</ele>
        <time>2017-04-09T06:35:56Z</time>
      </trkpt>
      <trkpt lat="49.25982" lon="1.07844">
        <ele>126.4</ele>
        <time>2017-04-09T06:35:58Z</time>
      </trkpt>
      <trkpt lat="49.25991" lon="1.07831">
        <ele>126.4</ele>
        <time>2017-04-09T06:36:00Z</time>
      </trkpt>
      <trkpt lat="49.25998" lon="1.07818">
        <ele>126.5</ele>
        <time>2017-04-09T06:36:02Z</time>
      </trkpt>
      <trkpt lat="49.26007" lon="1.07804">
        <ele>126.5</ele>
        <time>2017-04-09T06:36:04Z</time>
      </trkpt>
      <trkpt lat="49.26015" lon="1.07792">
        <ele>126.5</ele>
        <time>2017-04-09T06:36:06Z</time>
      </trkpt>
      <trkpt lat="49.26023" lon="1.07781">
        <ele>126.5</ele>
        <time>2017-04-09T06:36:08Z</time>
      </trkpt>
      <trkpt lat="49.2603" lon="1.07773">
        <ele>126.5</ele>
        <time>2017-04-09T06:36:10Z</time>
      </trkpt>
      <trkpt lat="49.2604" lon="1.07781">
        <ele>126.5</ele>
        <time>2017-04-09T06:36:13Z</time>
      </trkpt>
      <trkpt lat="49.26046" lon="1.07792">
        <ele>126.5</ele>
        <time>2017-04-09T06:36:15Z</time>
      </trkpt>
      <trkpt lat="49.26053" lon="1.07803">
        <ele>126.4</ele>
        <time>2017-04-09T06:36:17Z</time>
      </trkpt>
      <trkpt lat="49.26059" lon="1.0782">
        <ele>126.3</ele>
        <time>2017-04-09T06:36:20Z</time>
      </trkpt>
      <trkpt lat="49.26065" lon="1.07831">
        <ele>126.2</ele>
        <time>2017-04-09T06:36:22Z</time>
      </trkpt>
      <trkpt lat="49.26073" lon="1.07842">
        <ele>126.2</ele>
        <time>2017-04-09T06:36:24Z</time>
      </trkpt>
      <trkpt lat="49.2608" lon="1.07856">
        <ele>126.1</ele>
        <time>2017-04-09T06:36:26Z</time>
      </trkpt>
      <trkpt lat="49.26088" lon="1.07868">
        <ele>126</ele>
        <time>2017-04-09T06:36:28Z</time>
      </trkpt>
      <trkpt lat="49.26094" lon="1.07883">
        <ele>125.9</ele>
        <time>2017-04-09T06:36:30Z</time>
      </trkpt>
      <trkpt lat="49.26102" lon="1.07895">
        <ele>125.9</ele>
        <time>2017-04-09T06:36:32Z</time>
      </trkpt>
      <trkpt lat="49.26108" lon="1.07913">
        <ele>125.8</ele>
        <time>2017-04-09T06:36:35Z</time>
      </trkpt>
      <trkpt lat="49.26117" lon="1.07924">
        <ele>125.8</ele>
        <time>2017-04-09T06:36:37Z</time>
      </trkpt>
      <trkpt lat="49.26127" lon="1.07934">
        <ele>125.7</ele>
        <time>2017-04-09T06:36:39Z</time>
      </trkpt>
      <trkpt lat="49.26133" lon="1.07947">
        <ele>125.7</ele>
        <time>2017-04-09T06:36:41Z</time>
      </trkpt>
      <trkpt lat="49.26139" lon="1.07959">
        <ele>125.7</ele>
        <time>2017-04-09T06:36:43Z</time>
      </trkpt>
      <trkpt lat="49.26144" lon="1.07974">
        <ele>125.7</ele>
        <time>2017-04-09T06:36:45Z</time>
      </trkpt>
      <trkpt lat="49.26151" lon="1.07988">
        <ele>125.6</ele>
        <time>2017-04-09T06:36:47Z</time>
      </trkpt>
      <trkpt lat="49.2616" lon="1.08002">
        <ele>125.6</ele>
        <time>2017-04-09T06:36:49Z</time>
      </trkpt>
      <trkpt lat="49.26167" lon="1.08014">
        <ele>125.6</ele>
        <time>2017-04-09T06:36:51Z</time>
      </trkpt>
      <trkpt lat="49.26174" lon="1.08027">
        <ele>125.6</ele>
        <time>2017-04-09T06:36:53Z</time>
      </trkpt>
      <trkpt lat="49.26182" lon="1.08038">
        <ele>125.6</ele>
        <time>2017-04-09T06:36:55Z</time>
      </trkpt>
      <trkpt lat="49.26189" lon="1.08051">
        <ele>125.6</ele>
        <time>2017-04-09T06:36:57Z</time>
      </trkpt>
      <trkpt lat="49.26196" lon="1.08062">
        <ele>125.6</ele>
        <time>2017-04-09T06:36:59Z</time>
      </trkpt>
      <trkpt lat="49.26203" lon="1.08074">
        <ele>125.5</ele>
        <time>2017-04-09T06:37:01Z</time>
      </trkpt>
      <trkpt lat="49.26213" lon="1.08091">
        <ele>125.5</ele>
        <time>2017-04-09T06:37:04Z</time>
      </trkpt>
      <trkpt lat="49.26221" lon="1.08108">
        <ele>125.5</ele>
        <time>2017-04-09T06:37:07Z</time>
      </trkpt>
      <trkpt lat="49.26228" lon="1.08121">
        <ele>125.5</ele>
        <time>2017-04-09T06:37:09Z</time>
      </trkpt>
      <trkpt lat="49.26236" lon="1.08134">
        <ele>125.5</ele>
        <time>2017-04-09T06:37:11Z</time>
      </trkpt>
      <trkpt lat="49.26241" lon="1.08145">
        <ele>125.5</ele>
        <time>2017-04-09T06:37:13Z</time>
      </trkpt>
      <trkpt lat="49.26248" lon="1.08159">
        <ele>125.5</ele>
        <time>2017-04-09T06:37:15Z</time>
      </trkpt>
      <trkpt lat="49.26256" lon="1.08175">
        <ele>125.4</ele>
        <time>2017-04-09T06:37:18Z</time>
      </trkpt>
      <trkpt lat="49.26262" lon="1.08188">
        <ele>125.3</ele>
        <time>2017-04-09T06:37:20Z</time>
      </trkpt>
      <trkpt lat="49.2627" lon="1.08202">
        <ele>125.2</ele>
        <time>2017-04-09T06:37:22Z</time>
      </trkpt>
      <trkpt lat="49.26279" lon="1.08214">
        <ele>125.1</ele>
        <time>2017-04-09T06:37:24Z</time>
      </trkpt>
      <trkpt lat="49.26285" lon="1.08228">
        <ele>125</ele>
        <time>2017-04-09T06:37:27Z</time>
      </trkpt>
      <trkpt lat="49.26294" lon="1.08245">
        <ele>124.9</ele>
        <time>2017-04-09T06:37:30Z</time>
      </trkpt>
      <trkpt lat="49.26299" lon="1.08259">
        <ele>124.8</ele>
        <time>2017-04-09T06:37:32Z</time>
      </trkpt>
      <trkpt lat="49.26311" lon="1.08271">
        <ele>124.8</ele>
        <time>2017-04-09T06:37:34Z</time>
      </trkpt>
      <trkpt lat="49.26323" lon="1.08277">
        <ele>124.7</ele>
        <time>2017-04-09T06:37:36Z</time>
      </trkpt>
      <trkpt lat="49.26335" lon="1.08281">
        <ele>124.7</ele>
        <time>2017-04-09T06:37:38Z</time>
      </trkpt>
      <trkpt lat="49.26346" lon="1.08285">
        <ele>124.6</ele>
        <time>2017-04-09T06:37:40Z</time>
      </trkpt>
      <trkpt lat="49.26358" lon="1.08289">
        <ele>124.5</ele>
        <time>2017-04-09T06:37:42Z</time>
      </trkpt>
      <trkpt lat="49.26368" lon="1.08291">
        <ele>124.3</ele>
        <time>2017-04-09T06:37:44Z</time>
      </trkpt>
      <trkpt lat="49.26379" lon="1.08293">
        <ele>124.2</ele>
        <time>2017-04-09T06:37:46Z</time>
      </trkpt>
      <trkpt lat="49.26385" lon="1.08304">
        <ele>123.9</ele>
        <time>2017-04-09T06:37:50Z</time>
      </trkpt>
      <trkpt lat="49.26382" lon="1.08319">
        <ele>123.8</ele>
        <time>2017-04-09T06:37:53Z</time>
      </trkpt>
      <trkpt lat="49.26381" lon="1.08335">
        <ele>123.7</ele>
        <time>2017-04-09T06:37:56Z</time>
      </trkpt>
      <trkpt lat="49.26377" lon="1.08355">
        <ele>123.6</ele>
        <time>2017-04-09T06:37:59Z</time>
      </trkpt>
      <trkpt lat="49.2637" lon="1.08367">
        <ele>123.5</ele>
        <time>2017-04-09T06:38:01Z</time>
      </trkpt>
      <trkpt lat="49.2636" lon="1.08379">
        <ele>123.5</ele>
        <time>2017-04-09T06:38:03Z</time>
      </trkpt>
      <trkpt lat="49.2635" lon="1.08386">
        <ele>123.5</ele>
        <time>2017-04-09T06:38:05Z</time>
      </trkpt>
      <trkpt lat="49.26339" lon="1.08396">
        <ele>123.4</ele>
        <time>2017-04-09T06:38:07Z</time>
      </trkpt>
      <trkpt lat="49.26328" lon="1.08405">
        <ele>123.5</ele>
        <time>2017-04-09T06:38:09Z</time>
      </trkpt>
      <trkpt lat="49.26319" lon="1.08414">
        <ele>123.5</ele>
        <time>2017-04-09T06:38:11Z</time>
      </trkpt>
      <trkpt lat="49.26319" lon="1.0843">
        <ele>123.5</ele>
        <time>2017-04-09T06:38:14Z</time>
      </trkpt>
      <trkpt lat="49.26323" lon="1.08446">
        <ele>123.5</ele>
        <time>2017-04-09T06:38:17Z</time>
      </trkpt>
      <trkpt lat="49.2633" lon="1.08463">
        <ele>123.5</ele>
        <time>2017-04-09T06:38:20Z</time>
      </trkpt>
      <trkpt lat="49.26336" lon="1.08474">
        <ele>123.5</ele>
        <time>2017-04-09T06:38:22Z</time>
      </trkpt>
      <trkpt lat="49.26342" lon="1.08486">
        <ele>123.5</ele>
        <time>2017-04-09T06:38:25Z</time>
      </trkpt>
      <trkpt lat="49.26353" lon="1.08492">
        <ele>123.4</ele>
        <time>2017-04-09T06:38:29Z</time>
      </trkpt>
      <trkpt lat="49.2636" lon="1.085">
        <ele>123.3</ele>
        <time>2017-04-09T06:38:31Z</time>
      </trkpt>
      <trkpt lat="49.26368" lon="1.08512">
        <ele>123.2</ele>
        <time>2017-04-09T06:38:33Z</time>
      </trkpt>
      <trkpt lat="49.26376" lon="1.08522">
        <ele>123.1</ele>
        <time>2017-04-09T06:38:35Z</time>
      </trkpt>
      <trkpt lat="49.26385" lon="1.08533">
        <ele>123.1</ele>
        <time>2017-04-09T06:38:37Z</time>
      </trkpt>
      <trkpt lat="49.26392" lon="1.08543">
        <ele>123</ele>
        <time>2017-04-09T06:38:39Z</time>
      </trkpt>
      <trkpt lat="49.264" lon="1.08556">
        <ele>122.9</ele>
        <time>2017-04-09T06:38:41Z</time>
      </trkpt>
      <trkpt lat="49.26408" lon="1.08565">
        <ele>122.7</ele>
        <time>2017-04-09T06:38:43Z</time>
      </trkpt>
      <trkpt lat="49.26416" lon="1.08581">
        <ele>122.4</ele>
        <time>2017-04-09T06:38:46Z</time>
      </trkpt>
      <trkpt lat="49.26426" lon="1.08595">
        <ele>122.3</ele>
        <time>2017-04-09T06:38:48Z</time>
      </trkpt>
      <trkpt lat="49.26439" lon="1.08606">
        <ele>122.1</ele>
        <time>2017-04-09T06:38:50Z</time>
      </trkpt>
      <trkpt lat="49.26445" lon="1.08621">
        <ele>121.8</ele>
        <time>2017-04-09T06:38:52Z</time>
      </trkpt>
      <trkpt lat="49.26456" lon="1.08635">
        <ele>121.5</ele>
        <time>2017-04-09T06:38:54Z</time>
      </trkpt>
      <trkpt lat="49.26469" lon="1.08651">
        <ele>121.3</ele>
        <time>2017-04-09T06:38:56Z</time>
      </trkpt>
      <trkpt lat="49.26482" lon="1.08668">
        <ele>120.8</ele>
        <time>2017-04-09T06:38:58Z</time>
      </trkpt>
      <trkpt lat="49.26489" lon="1.08677">
        <ele>120.6</ele>
        <time>2017-04-09T06:38:59Z</time>
      </trkpt>
      <trkpt lat="49.26502" lon="1.08691">
        <ele>119.9</ele>
        <time>2017-04-09T06:39:01Z</time>
      </trkpt>
      <trkpt lat="49.26517" lon="1.08706">
        <ele>119.1</ele>
        <time>2017-04-09T06:39:03Z</time>
      </trkpt>
      <trkpt lat="49.26525" lon="1.08712">
        <ele>118.6</ele>
        <time>2017-04-09T06:39:04Z</time>
      </trkpt>
      <trkpt lat="49.26537" lon="1.08731">
        <ele>117.6</ele>
        <time>2017-04-09T06:39:06Z</time>
      </trkpt>
      <trkpt lat="49.26544" lon="1.08741">
        <ele>117.1</ele>
        <time>2017-04-09T06:39:07Z</time>
      </trkpt>
      <trkpt lat="49.26555" lon="1.08758">
        <ele>116</ele>
        <time>2017-04-09T06:39:09Z</time>
      </trkpt>
      <trkpt lat="49.26567" lon="1.08772">
        <ele>115</ele>
        <time>2017-04-09T06:39:11Z</time>
      </trkpt>
      <trkpt lat="49.26577" lon="1.08783">
        <ele>114.1</ele>
        <time>2017-04-09T06:39:13Z</time>
      </trkpt>
      <trkpt lat="49.2659" lon="1.08796">
        <ele>113.2</ele>
        <time>2017-04-09T06:39:15Z</time>
      </trkpt>
      <trkpt lat="49.26601" lon="1.08809">
        <ele>112.1</ele>
        <time>2017-04-09T06:39:17Z</time>
      </trkpt>
      <trkpt lat="49.26613" lon="1.08824">
        <ele>110.6</ele>
        <time>2017-04-09T06:39:19Z</time>
      </trkpt>
      <trkpt lat="49.26625" lon="1.08839">
        <ele>108.9</ele>
        <time>2017-04-09T06:39:21Z</time>
      </trkpt>
      <trkpt lat="49.26633" lon="1.08849">
        <ele>107.9</ele>
        <time>2017-04-09T06:39:22Z</time>
      </trkpt>
      <trkpt lat="49.2664" lon="1.08859">
        <ele>106.9</ele>
        <time>2017-04-09T06:39:23Z</time>
      </trkpt>
      <trkpt lat="49.26654" lon="1.08876">
        <ele>104.7</ele>
        <time>2017-04-09T06:39:25Z</time>
      </trkpt>
      <trkpt lat="49.26661" lon="1.08885">
        <ele>103.7</ele>
        <time>2017-04-09T06:39:26Z</time>
      </trkpt>
      <trkpt lat="49.26669" lon="1.08894">
        <ele>102.7</ele>
        <time>2017-04-09T06:39:27Z</time>
      </trkpt>
      <trkpt lat="49.26677" lon="1.08903">
        <ele>101.6</ele>
        <time>2017-04-09T06:39:28Z</time>
      </trkpt>
      <trkpt lat="49.26683" lon="1.08912">
        <ele>100.6</ele>
        <time>2017-04-09T06:39:29Z</time>
      </trkpt>
      <trkpt lat="49.26695" lon="1.08928">
        <ele>98.7</ele>
        <time>2017-04-09T06:39:31Z</time>
      </trkpt>
      <trkpt lat="49.26704" lon="1.08933">
        <ele>96.1</ele>
        <time>2017-04-09T06:39:34Z</time>
      </trkpt>
      <trkpt lat="49.26714" lon="1.08925">
        <ele>93.2</ele>
        <time>2017-04-09T06:39:38Z</time>
      </trkpt>
      <trkpt lat="49.26722" lon="1.08913">
        <ele>91</ele>
        <time>2017-04-09T06:39:42Z</time>
      </trkpt>
      <trkpt lat="49.26728" lon="1.08901">
        <ele>89.1</ele>
        <time>2017-04-09T06:39:47Z</time>
      </trkpt>
      <trkpt lat="49.26735" lon="1.08891">
        <ele>88.1</ele>
        <time>2017-04-09T06:39:53Z</time>
      </trkpt>
      <trkpt lat="49.2674" lon="1.08879">
        <ele>88.6</ele>
        <time>2017-04-09T06:40:00Z</time>
      </trkpt>
      <trkpt lat="49.26746" lon="1.08867">
        <ele>90.2</ele>
        <time>2017-04-09T06:40:08Z</time>
      </trkpt>
      <trkpt lat="49.26752" lon="1.08855">
        <ele>92.5</ele>
        <time>2017-04-09T06:40:16Z</time>
      </trkpt>
      <trkpt lat="49.26758" lon="1.08842">
        <ele>94.4</ele>
        <time>2017-04-09T06:40:23Z</time>
      </trkpt>
      <trkpt lat="49.26765" lon="1.08831">
        <ele>96.4</ele>
        <time>2017-04-09T06:40:30Z</time>
      </trkpt>
      <trkpt lat="49.26772" lon="1.08818">
        <ele>97.7</ele>
        <time>2017-04-09T06:40:36Z</time>
      </trkpt>
      <trkpt lat="49.26777" lon="1.08807">
        <ele>98.5</ele>
        <time>2017-04-09T06:40:40Z</time>
      </trkpt>
      <trkpt lat="49.26784" lon="1.08796">
        <ele>99</ele>
        <time>2017-04-09T06:40:43Z</time>
      </trkpt>
      <trkpt lat="49.26791" lon="1.08784">
        <ele>99.5</ele>
        <time>2017-04-09T06:40:46Z</time>
      </trkpt>
      <trkpt lat="49.26798" lon="1.08771">
        <ele>100</ele>
        <time>2017-04-09T06:40:49Z</time>
      </trkpt>
      <trkpt lat="49.26806" lon="1.08757">
        <ele>100.5</ele>
        <time>2017-04-09T06:40:52Z</time>
      </trkpt>
      <trkpt lat="49.26812" lon="1.08742">
        <ele>101</ele>
        <time>2017-04-09T06:40:55Z</time>
      </trkpt>
      <trkpt lat="49.26818" lon="1.08731">
        <ele>101.3</ele>
        <time>2017-04-09T06:40:57Z</time>
      </trkpt>
      <trkpt lat="49.26824" lon="1.0872">
        <ele>101.5</ele>
        <time>2017-04-09T06:40:59Z</time>
      </trkpt>
      <trkpt lat="49.2683" lon="1.0871">
        <ele>101.7</ele>
        <time>2017-04-09T06:41:01Z</time>
      </trkpt>
      <trkpt lat="49.26836" lon="1.087">
        <ele>101.9</ele>
        <time>2017-04-09T06:41:03Z</time>
      </trkpt>
      <trkpt lat="49.26844" lon="1.08688">
        <ele>102</ele>
        <time>2017-04-09T06:41:05Z</time>
      </trkpt>
      <trkpt lat="49.2685" lon="1.08674">
        <ele>102.1</ele>
        <time>2017-04-09T06:41:07Z</time>
      </trkpt>
      <trkpt lat="49.26858" lon="1.08662">
        <ele>102.2</ele>
        <time>2017-04-09T06:41:09Z</time>
      </trkpt>
      <trkpt lat="49.26865" lon="1.08647">
        <ele>102.2</ele>
        <time>2017-04-09T06:41:11Z</time>
      </trkpt>
      <trkpt lat="49.26871" lon="1.0863">
        <ele>102.2</ele>
        <time>2017-04-09T06:41:13Z</time>
      </trkpt>
      <trkpt lat="49.26881" lon="1.08613">
        <ele>102</ele>
        <time>2017-04-09T06:41:15Z</time>
      </trkpt>
      <trkpt lat="49.2689" lon="1.08595">
        <ele>101.7</ele>
        <time>2017-04-09T06:41:17Z</time>
      </trkpt>
      <trkpt lat="49.26899" lon="1.08581">
        <ele>101.2</ele>
        <time>2017-04-09T06:41:19Z</time>
      </trkpt>
      <trkpt lat="49.2691" lon="1.08575">
        <ele>100.4</ele>
        <time>2017-04-09T06:41:22Z</time>
      </trkpt>
      <trkpt lat="49.26918" lon="1.08585">
        <ele>99.9</ele>
        <time>2017-04-09T06:41:24Z</time>
      </trkpt>
      <trkpt lat="49.2693" lon="1.08599">
        <ele>99.3</ele>
        <time>2017-04-09T06:41:26Z</time>
      </trkpt>
      <trkpt lat="49.26943" lon="1.08615">
        <ele>98.6</ele>
        <time>2017-04-09T06:41:28Z</time>
      </trkpt>
      <trkpt lat="49.26957" lon="1.08632">
        <ele>97.7</ele>
        <time>2017-04-09T06:41:30Z</time>
      </trkpt>
      <trkpt lat="49.26965" lon="1.08642">
        <ele>97.2</ele>
        <time>2017-04-09T06:41:31Z</time>
      </trkpt>
      <trkpt lat="49.26972" lon="1.08652">
        <ele>96.8</ele>
        <time>2017-04-09T06:41:32Z</time>
      </trkpt>
      <trkpt lat="49.26981" lon="1.08663">
        <ele>96.3</ele>
        <time>2017-04-09T06:41:33Z</time>
      </trkpt>
      <trkpt lat="49.26989" lon="1.08673">
        <ele>95.9</ele>
        <time>2017-04-09T06:41:34Z</time>
      </trkpt>
      <trkpt lat="49.26998" lon="1.08685">
        <ele>95.3</ele>
        <time>2017-04-09T06:41:35Z</time>
      </trkpt>
      <trkpt lat="49.27007" lon="1.08696">
        <ele>94.7</ele>
        <time>2017-04-09T06:41:36Z</time>
      </trkpt>
      <trkpt lat="49.27017" lon="1.08708">
        <ele>94.1</ele>
        <time>2017-04-09T06:41:37Z</time>
      </trkpt>
      <trkpt lat="49.27026" lon="1.0872">
        <ele>93.5</ele>
        <time>2017-04-09T06:41:38Z</time>
      </trkpt>
      <trkpt lat="49.27036" lon="1.08732">
        <ele>92.8</ele>
        <time>2017-04-09T06:41:39Z</time>
      </trkpt>
      <trkpt lat="49.27046" lon="1.08744">
        <ele>92.1</ele>
        <time>2017-04-09T06:41:40Z</time>
      </trkpt>
      <trkpt lat="49.27056" lon="1.08757">
        <ele>91.4</ele>
        <time>2017-04-09T06:41:41Z</time>
      </trkpt>
      <trkpt lat="49.27066" lon="1.08769">
        <ele>90.6</ele>
        <time>2017-04-09T06:41:42Z</time>
      </trkpt>
      <trkpt lat="49.27077" lon="1.08782">
        <ele>89.7</ele>
        <time>2017-04-09T06:41:43Z</time>
      </trkpt>
      <trkpt lat="49.27087" lon="1.08795">
        <ele>88.9</ele>
        <time>2017-04-09T06:41:44Z</time>
      </trkpt>
      <trkpt lat="49.27097" lon="1.08808">
        <ele>88</ele>
        <time>2017-04-09T06:41:45Z</time>
      </trkpt>
      <trkpt lat="49.27108" lon="1.08821">
        <ele>87.2</ele>
        <time>2017-04-09T06:41:46Z</time>
      </trkpt>
      <trkpt lat="49.27118" lon="1.08834">
        <ele>86.3</ele>
        <time>2017-04-09T06:41:47Z</time>
      </trkpt>
      <trkpt lat="49.27128" lon="1.08847">
        <ele>85.5</ele>
        <time>2017-04-09T06:41:48Z</time>
      </trkpt>
      <trkpt lat="49.27138" lon="1.08859">
        <ele>84.6</ele>
        <time>2017-04-09T06:41:49Z</time>
      </trkpt>
      <trkpt lat="49.27147" lon="1.0887">
        <ele>83.8</ele>
        <time>2017-04-09T06:41:50Z</time>
      </trkpt>
      <trkpt lat="49.27156" lon="1.08881">
        <ele>83.1</ele>
        <time>2017-04-09T06:41:51Z</time>
      </trkpt>
      <trkpt lat="49.27164" lon="1.08892">
        <ele>82.3</ele>
        <time>2017-04-09T06:41:52Z</time>
      </trkpt>
      <trkpt lat="49.27172" lon="1.08902">
        <ele>81.7</ele>
        <time>2017-04-09T06:41:53Z</time>
      </trkpt>
      <trkpt lat="49.2718" lon="1.08912">
        <ele>81</ele>
        <time>2017-04-09T06:41:54Z</time>
      </trkpt>
      <trkpt lat="49.27187" lon="1.08922">
        <ele>80.5</ele>
        <time>2017-04-09T06:41:55Z</time>
      </trkpt>
      <trkpt lat="49.27199" lon="1.08938">
        <ele>79.4</ele>
        <time>2017-04-09T06:41:57Z</time>
      </trkpt>
      <trkpt lat="49.27211" lon="1.08953">
        <ele>78.5</ele>
        <time>2017-04-09T06:41:59Z</time>
      </trkpt>
      <trkpt lat="49.27226" lon="1.08971">
        <ele>77</ele>
        <time>2017-04-09T06:42:02Z</time>
      </trkpt>
      <trkpt lat="49.27239" lon="1.08986">
        <ele>77.3</ele>
        <time>2017-04-09T06:42:05Z</time>
      </trkpt>
      <trkpt lat="49.27247" lon="1.08996">
        <ele>77.3</ele>
        <time>2017-04-09T06:42:07Z</time>
      </trkpt>
      <trkpt lat="49.27256" lon="1.09008">
        <ele>77.3</ele>
        <time>2017-04-09T06:42:10Z</time>
      </trkpt>
      <trkpt lat="49.27263" lon="1.09021">
        <ele>77.7</ele>
        <time>2017-04-09T06:42:13Z</time>
      </trkpt>
      <trkpt lat="49.27266" lon="1.09035">
        <ele>78.2</ele>
        <time>2017-04-09T06:42:16Z</time>
      </trkpt>
      <trkpt lat="49.27264" lon="1.09049">
        <ele>79.1</ele>
        <time>2017-04-09T06:42:21Z</time>
      </trkpt>
      <trkpt lat="49.27259" lon="1.09064">
        <ele>80.2</ele>
        <time>2017-04-09T06:42:26Z</time>
      </trkpt>
      <trkpt lat="49.27254" lon="1.09076">
        <ele>80.9</ele>
        <time>2017-04-09T06:42:29Z</time>
      </trkpt>
      <trkpt lat="49.27246" lon="1.09088">
        <ele>81.9</ele>
        <time>2017-04-09T06:42:33Z</time>
      </trkpt>
      <trkpt lat="49.27236" lon="1.09101">
        <ele>83.3</ele>
        <time>2017-04-09T06:42:38Z</time>
      </trkpt>
      <trkpt lat="49.27228" lon="1.0911">
        <ele>84.1</ele>
        <time>2017-04-09T06:42:41Z</time>
      </trkpt>
      <trkpt lat="49.27219" lon="1.09118">
        <ele>85</ele>
        <time>2017-04-09T06:42:45Z</time>
      </trkpt>
      <trkpt lat="49.2721" lon="1.09127">
        <ele>85.6</ele>
        <time>2017-04-09T06:42:48Z</time>
      </trkpt>
      <trkpt lat="49.27203" lon="1.09136">
        <ele>86.2</ele>
        <time>2017-04-09T06:42:51Z</time>
      </trkpt>
      <trkpt lat="49.27194" lon="1.09145">
        <ele>86.7</ele>
        <time>2017-04-09T06:42:54Z</time>
      </trkpt>
      <trkpt lat="49.27187" lon="1.09154">
        <ele>87.1</ele>
        <time>2017-04-09T06:42:56Z</time>
      </trkpt>
      <trkpt lat="49.2718" lon="1.09163">
        <ele>87.6</ele>
        <time>2017-04-09T06:42:59Z</time>
      </trkpt>
      <trkpt lat="49.27172" lon="1.09173">
        <ele>88.1</ele>
        <time>2017-04-09T06:43:02Z</time>
      </trkpt>
      <trkpt lat="49.27162" lon="1.0918">
        <ele>89.2</ele>
        <time>2017-04-09T06:43:07Z</time>
      </trkpt>
      <trkpt lat="49.27153" lon="1.0919">
        <ele>90.1</ele>
        <time>2017-04-09T06:43:11Z</time>
      </trkpt>
      <trkpt lat="49.27145" lon="1.092">
        <ele>90.8</ele>
        <time>2017-04-09T06:43:14Z</time>
      </trkpt>
      <trkpt lat="49.27135" lon="1.09209">
        <ele>91.7</ele>
        <time>2017-04-09T06:43:18Z</time>
      </trkpt>
      <trkpt lat="49.27125" lon="1.0922">
        <ele>92.4</ele>
        <time>2017-04-09T06:43:21Z</time>
      </trkpt>
      <trkpt lat="49.27116" lon="1.09227">
        <ele>93.3</ele>
        <time>2017-04-09T06:43:25Z</time>
      </trkpt>
      <trkpt lat="49.27108" lon="1.09236">
        <ele>94</ele>
        <time>2017-04-09T06:43:28Z</time>
      </trkpt>
      <trkpt lat="49.271" lon="1.09243">
        <ele>94.7</ele>
        <time>2017-04-09T06:43:31Z</time>
      </trkpt>
      <trkpt lat="49.27089" lon="1.09251">
        <ele>95.6</ele>
        <time>2017-04-09T06:43:35Z</time>
      </trkpt>
      <trkpt lat="49.2708" lon="1.09256">
        <ele>96.4</ele>
        <time>2017-04-09T06:43:38Z</time>
      </trkpt>
      <trkpt lat="49.2707" lon="1.09261">
        <ele>97.1</ele>
        <time>2017-04-09T06:43:41Z</time>
      </trkpt>
      <trkpt lat="49.2706" lon="1.09266">
        <ele>97.8</ele>
        <time>2017-04-09T06:43:44Z</time>
      </trkpt>
      <trkpt lat="49.27051" lon="1.0927">
        <ele>98.6</ele>
        <time>2017-04-09T06:43:47Z</time>
      </trkpt>
      <trkpt lat="49.2704" lon="1.09273">
        <ele>99.2</ele>
        <time>2017-04-09T06:43:50Z</time>
      </trkpt>
      <trkpt lat="49.27029" lon="1.09275">
        <ele>99.8</ele>
        <time>2017-04-09T06:43:53Z</time>
      </trkpt>
      <trkpt lat="49.27017" lon="1.09276">
        <ele>100.3</ele>
        <time>2017-04-09T06:43:56Z</time>
      </trkpt>
      <trkpt lat="49.27005" lon="1.09277">
        <ele>100.9</ele>
        <time>2017-04-09T06:43:59Z</time>
      </trkpt>
      <trkpt lat="49.26993" lon="1.0928">
        <ele>101.4</ele>
        <time>2017-04-09T06:44:02Z</time>
      </trkpt>
      <trkpt lat="49.26982" lon="1.09283">
        <ele>101.9</ele>
        <time>2017-04-09T06:44:05Z</time>
      </trkpt>
      <trkpt lat="49.26972" lon="1.09287">
        <ele>102.5</ele>
        <time>2017-04-09T06:44:08Z</time>
      </trkpt>
      <trkpt lat="49.26962" lon="1.09294">
        <ele>103</ele>
        <time>2017-04-09T06:44:11Z</time>
      </trkpt>
      <trkpt lat="49.26953" lon="1.093">
        <ele>103.6</ele>
        <time>2017-04-09T06:44:14Z</time>
      </trkpt>
      <trkpt lat="49.26945" lon="1.09306">
        <ele>104.3</ele>
        <time>2017-04-09T06:44:17Z</time>
      </trkpt>
      <trkpt lat="49.26936" lon="1.09311">
        <ele>105</ele>
        <time>2017-04-09T06:44:20Z</time>
      </trkpt>
      <trkpt lat="49.26926" lon="1.09315">
        <ele>105.8</ele>
        <time>2017-04-09T06:44:23Z</time>
      </trkpt>
      <trkpt lat="49.26916" lon="1.09318">
        <ele>106.6</ele>
        <time>2017-04-09T06:44:26Z</time>
      </trkpt>
      <trkpt lat="49.26905" lon="1.09323">
        <ele>107.2</ele>
        <time>2017-04-09T06:44:29Z</time>
      </trkpt>
      <trkpt lat="49.26896" lon="1.09326">
        <ele>107.9</ele>
        <time>2017-04-09T06:44:32Z</time>
      </trkpt>
      <trkpt lat="49.26887" lon="1.09332">
        <ele>108.5</ele>
        <time>2017-04-09T06:44:35Z</time>
      </trkpt>
      <trkpt lat="49.26877" lon="1.09339">
        <ele>109.4</ele>
        <time>2017-04-09T06:44:39Z</time>
      </trkpt>
      <trkpt lat="49.26867" lon="1.09345">
        <ele>110.4</ele>
        <time>2017-04-09T06:44:43Z</time>
      </trkpt>
      <trkpt lat="49.26857" lon="1.09354">
        <ele>111.3</ele>
        <time>2017-04-09T06:44:47Z</time>
      </trkpt>
      <trkpt lat="49.26849" lon="1.0936">
        <ele>111.9</ele>
        <time>2017-04-09T06:44:50Z</time>
      </trkpt>
      <trkpt lat="49.2684" lon="1.09366">
        <ele>112.6</ele>
        <time>2017-04-09T06:44:53Z</time>
      </trkpt>
      <trkpt lat="49.2683" lon="1.09372">
        <ele>113.3</ele>
        <time>2017-04-09T06:44:56Z</time>
      </trkpt>
      <trkpt lat="49.2682" lon="1.09379">
        <ele>113.9</ele>
        <time>2017-04-09T06:44:59Z</time>
      </trkpt>
      <trkpt lat="49.2681" lon="1.09384">
        <ele>114.5</ele>
        <time>2017-04-09T06:45:02Z</time>
      </trkpt>
      <trkpt lat="49.26801" lon="1.09392">
        <ele>115</ele>
        <time>2017-04-09T06:45:05Z</time>
      </trkpt>
      <trkpt lat="49.26792" lon="1.09399">
        <ele>115.6</ele>
        <time>2017-04-09T06:45:08Z</time>
      </trkpt>
      <trkpt lat="49.26782" lon="1.09409">
        <ele>116.2</ele>
        <time>2017-04-09T06:45:11Z</time>
      </trkpt>
      <trkpt lat="49.26773" lon="1.09419">
        <ele>116.7</ele>
        <time>2017-04-09T06:45:14Z</time>
      </trkpt>
      <trkpt lat="49.26764" lon="1.0943">
        <ele>117.3</ele>
        <time>2017-04-09T06:45:17Z</time>
      </trkpt>
      <trkpt lat="49.26756" lon="1.09439">
        <ele>117.8</ele>
        <time>2017-04-09T06:45:20Z</time>
      </trkpt>
      <trkpt lat="49.26748" lon="1.09447">
        <ele>118.4</ele>
        <time>2017-04-09T06:45:23Z</time>
      </trkpt>
      <trkpt lat="49.2674" lon="1.09456">
        <ele>119</ele>
        <time>2017-04-09T06:45:26Z</time>
      </trkpt>
      <trkpt lat="49.26731" lon="1.09466">
        <ele>119.5</ele>
        <time>2017-04-09T06:45:29Z</time>
      </trkpt>
      <trkpt lat="49.26722" lon="1.09473">
        <ele>120</ele>
        <time>2017-04-09T06:45:32Z</time>
      </trkpt>
      <trkpt lat="49.26714" lon="1.09481">
        <ele>120.2</ele>
        <time>2017-04-09T06:45:34Z</time>
      </trkpt>
      <trkpt lat="49.26706" lon="1.0949">
        <ele>120.4</ele>
        <time>2017-04-09T06:45:36Z</time>
      </trkpt>
      <trkpt lat="49.26698" lon="1.09499">
        <ele>120.6</ele>
        <time>2017-04-09T06:45:38Z</time>
      </trkpt>
      <trkpt lat="49.26691" lon="1.09508">
        <ele>120.8</ele>
        <time>2017-04-09T06:45:40Z</time>
      </trkpt>
      <trkpt lat="49.26682" lon="1.09524">
        <ele>121.1</ele>
        <time>2017-04-09T06:45:43Z</time>
      </trkpt>
      <trkpt lat="49.26677" lon="1.09536">
        <ele>121.2</ele>
        <time>2017-04-09T06:45:45Z</time>
      </trkpt>
      <trkpt lat="49.26672" lon="1.09549">
        <ele>121.4</ele>
        <time>2017-04-09T06:45:47Z</time>
      </trkpt>
      <trkpt lat="49.26669" lon="1.09563">
        <ele>121.5</ele>
        <time>2017-04-09T06:45:49Z</time>
      </trkpt>
      <trkpt lat="49.26666" lon="1.09576">
        <ele>121.6</ele>
        <time>2017-04-09T06:45:51Z</time>
      </trkpt>
      <trkpt lat="49.26663" lon="1.0959">
        <ele>121.8</ele>
        <time>2017-04-09T06:45:53Z</time>
      </trkpt>
      <trkpt lat="49.26659" lon="1.09604">
        <ele>121.9</ele>
        <time>2017-04-09T06:45:55Z</time>
      </trkpt>
      <trkpt lat="49.26654" lon="1.09618">
        <ele>122</ele>
        <time>2017-04-09T06:45:57Z</time>
      </trkpt>
      <trkpt lat="49.26648" lon="1.09631">
        <ele>122.1</ele>
        <time>2017-04-09T06:45:59Z</time>
      </trkpt>
      <trkpt lat="49.26642" lon="1.09645">
        <ele>122.2</ele>
        <time>2017-04-09T06:46:01Z</time>
      </trkpt>
      <trkpt lat="49.26636" lon="1.09659">
        <ele>122.3</ele>
        <time>2017-04-09T06:46:03Z</time>
      </trkpt>
      <trkpt lat="49.26632" lon="1.09674">
        <ele>122.4</ele>
        <time>2017-04-09T06:46:05Z</time>
      </trkpt>
      <trkpt lat="49.2663" lon="1.09689">
        <ele>122.4</ele>
        <time>2017-04-09T06:46:07Z</time>
      </trkpt>
      <trkpt lat="49.2663" lon="1.09705">
        <ele>122.5</ele>
        <time>2017-04-09T06:46:09Z</time>
      </trkpt>
      <trkpt lat="49.2663" lon="1.0972">
        <ele>122.5</ele>
        <time>2017-04-09T06:46:11Z</time>
      </trkpt>
      <trkpt lat="49.26629" lon="1.09736">
        <ele>122.6</ele>
        <time>2017-04-09T06:46:13Z</time>
      </trkpt>
      <trkpt lat="49.26628" lon="1.09752">
        <ele>122.6</ele>
        <time>2017-04-09T06:46:15Z</time>
      </trkpt>
      <trkpt lat="49.26627" lon="1.09768">
        <ele>122.7</ele>
        <time>2017-04-09T06:46:17Z</time>
      </trkpt>
      <trkpt lat="49.26625" lon="1.09783">
        <ele>122.8</ele>
        <time>2017-04-09T06:46:19Z</time>
      </trkpt>
      <trkpt lat="49.26624" lon="1.09799">
        <ele>122.8</ele>
        <time>2017-04-09T06:46:21Z</time>
      </trkpt>
      <trkpt lat="49.26623" lon="1.09815">
        <ele>122.9</ele>
        <time>2017-04-09T06:46:23Z</time>
      </trkpt>
      <trkpt lat="49.26621" lon="1.0983">
        <ele>123</ele>
        <time>2017-04-09T06:46:25Z</time>
      </trkpt>
      <trkpt lat="49.26621" lon="1.09845">
        <ele>123.1</ele>
        <time>2017-04-09T06:46:27Z</time>
      </trkpt>
      <trkpt lat="49.26624" lon="1.09864">
        <ele>123.2</ele>
        <time>2017-04-09T06:46:30Z</time>
      </trkpt>
      <trkpt lat="49.26625" lon="1.09881">
        <ele>123.3</ele>
        <time>2017-04-09T06:46:33Z</time>
      </trkpt>
      <trkpt lat="49.26625" lon="1.09896">
        <ele>123.3</ele>
        <time>2017-04-09T06:46:35Z</time>
      </trkpt>
      <trkpt lat="49.26622" lon="1.09913">
        <ele>123.4</ele>
        <time>2017-04-09T06:46:37Z</time>
      </trkpt>
      <trkpt lat="49.26618" lon="1.09927">
        <ele>123.5</ele>
        <time>2017-04-09T06:46:39Z</time>
      </trkpt>
      <trkpt lat="49.26613" lon="1.09946">
        <ele>123.5</ele>
        <time>2017-04-09T06:46:42Z</time>
      </trkpt>
      <trkpt lat="49.26608" lon="1.0996">
        <ele>123.6</ele>
        <time>2017-04-09T06:46:44Z</time>
      </trkpt>
      <trkpt lat="49.26606" lon="1.09976">
        <ele>123.6</ele>
        <time>2017-04-09T06:46:46Z</time>
      </trkpt>
      <trkpt lat="49.266" lon="1.09995">
        <ele>123.7</ele>
        <time>2017-04-09T06:46:48Z</time>
      </trkpt>
      <trkpt lat="49.266" lon="1.10011">
        <ele>123.7</ele>
        <time>2017-04-09T06:46:50Z</time>
      </trkpt>
      <trkpt lat="49.26597" lon="1.10031">
        <ele>123.7</ele>
        <time>2017-04-09T06:46:52Z</time>
      </trkpt>
      <trkpt lat="49.26602" lon="1.1005">
        <ele>123.8</ele>
        <time>2017-04-09T06:46:55Z</time>
      </trkpt>
      <trkpt lat="49.26609" lon="1.10064">
        <ele>123.8</ele>
        <time>2017-04-09T06:46:58Z</time>
      </trkpt>
      <trkpt lat="49.26618" lon="1.10069">
        <ele>123.9</ele>
        <time>2017-04-09T06:47:01Z</time>
      </trkpt>
      <trkpt lat="49.26626" lon="1.10079">
        <ele>123.9</ele>
        <time>2017-04-09T06:47:04Z</time>
      </trkpt>
      <trkpt lat="49.26638" lon="1.1009">
        <ele>123.9</ele>
        <time>2017-04-09T06:47:07Z</time>
      </trkpt>
      <trkpt lat="49.26648" lon="1.10098">
        <ele>123.9</ele>
        <time>2017-04-09T06:47:09Z</time>
      </trkpt>
      <trkpt lat="49.26655" lon="1.10107">
        <ele>123.9</ele>
        <time>2017-04-09T06:47:12Z</time>
      </trkpt>
      <trkpt lat="49.26664" lon="1.10114">
        <ele>124</ele>
        <time>2017-04-09T06:47:14Z</time>
      </trkpt>
      <trkpt lat="49.26675" lon="1.10125">
        <ele>124.1</ele>
        <time>2017-04-09T06:47:17Z</time>
      </trkpt>
      <trkpt lat="49.26684" lon="1.10132">
        <ele>124.2</ele>
        <time>2017-04-09T06:47:19Z</time>
      </trkpt>
      <trkpt lat="49.26692" lon="1.10139">
        <ele>124.3</ele>
        <time>2017-04-09T06:47:21Z</time>
      </trkpt>
      <trkpt lat="49.26706" lon="1.10147">
        <ele>124.3</ele>
        <time>2017-04-09T06:47:23Z</time>
      </trkpt>
      <trkpt lat="49.26714" lon="1.10153">
        <ele>124.4</ele>
        <time>2017-04-09T06:47:25Z</time>
      </trkpt>
      <trkpt lat="49.26723" lon="1.1016">
        <ele>124.5</ele>
        <time>2017-04-09T06:47:27Z</time>
      </trkpt>
      <trkpt lat="49.26736" lon="1.10171">
        <ele>124.7</ele>
        <time>2017-04-09T06:47:30Z</time>
      </trkpt>
      <trkpt lat="49.26745" lon="1.10177">
        <ele>124.9</ele>
        <time>2017-04-09T06:47:32Z</time>
      </trkpt>
      <trkpt lat="49.26755" lon="1.10181">
        <ele>125</ele>
        <time>2017-04-09T06:47:34Z</time>
      </trkpt>
      <trkpt lat="49.26766" lon="1.10185">
        <ele>125.2</ele>
        <time>2017-04-09T06:47:36Z</time>
      </trkpt>
      <trkpt lat="49.26777" lon="1.10185">
        <ele>125.4</ele>
        <time>2017-04-09T06:47:38Z</time>
      </trkpt>
      <trkpt lat="49.26791" lon="1.10182">
        <ele>125.6</ele>
        <time>2017-04-09T06:47:40Z</time>
      </trkpt>
      <trkpt lat="49.26802" lon="1.10177">
        <ele>125.8</ele>
        <time>2017-04-09T06:47:42Z</time>
      </trkpt>
      <trkpt lat="49.26815" lon="1.1017">
        <ele>126</ele>
        <time>2017-04-09T06:47:45Z</time>
      </trkpt>
      <trkpt lat="49.26825" lon="1.10164">
        <ele>126.1</ele>
        <time>2017-04-09T06:47:47Z</time>
      </trkpt>
      <trkpt lat="49.26836" lon="1.10159">
        <ele>126.3</ele>
        <time>2017-04-09T06:47:49Z</time>
      </trkpt>
      <trkpt lat="49.26846" lon="1.10154">
        <ele>126.4</ele>
        <time>2017-04-09T06:47:51Z</time>
      </trkpt>
      <trkpt lat="49.26859" lon="1.10149">
        <ele>126.5</ele>
        <time>2017-04-09T06:47:53Z</time>
      </trkpt>
      <trkpt lat="49.26869" lon="1.10144">
        <ele>126.6</ele>
        <time>2017-04-09T06:47:55Z</time>
      </trkpt>
      <trkpt lat="49.26881" lon="1.10137">
        <ele>126.8</ele>
        <time>2017-04-09T06:47:57Z</time>
      </trkpt>
      <trkpt lat="49.26893" lon="1.1013">
        <ele>127</ele>
        <time>2017-04-09T06:47:59Z</time>
      </trkpt>
      <trkpt lat="49.26903" lon="1.10124">
        <ele>127.1</ele>
        <time>2017-04-09T06:48:01Z</time>
      </trkpt>
      <trkpt lat="49.26913" lon="1.10116">
        <ele>127.3</ele>
        <time>2017-04-09T06:48:03Z</time>
      </trkpt>
      <trkpt lat="49.26923" lon="1.1011">
        <ele>127.4</ele>
        <time>2017-04-09T06:48:05Z</time>
      </trkpt>
      <trkpt lat="49.26934" lon="1.10102">
        <ele>127.6</ele>
        <time>2017-04-09T06:48:07Z</time>
      </trkpt>
      <trkpt lat="49.26943" lon="1.10095">
        <ele>127.7</ele>
        <time>2017-04-09T06:48:09Z</time>
      </trkpt>
      <trkpt lat="49.26954" lon="1.10087">
        <ele>127.8</ele>
        <time>2017-04-09T06:48:11Z</time>
      </trkpt>
      <trkpt lat="49.26966" lon="1.1008">
        <ele>127.9</ele>
        <time>2017-04-09T06:48:13Z</time>
      </trkpt>
      <trkpt lat="49.26978" lon="1.10073">
        <ele>127.9</ele>
        <time>2017-04-09T06:48:15Z</time>
      </trkpt>
      <trkpt lat="49.2699" lon="1.10066">
        <ele>128</ele>
        <time>2017-04-09T06:48:17Z</time>
      </trkpt>
      <trkpt lat="49.27002" lon="1.1006">
        <ele>128.1</ele>
        <time>2017-04-09T06:48:19Z</time>
      </trkpt>
      <trkpt lat="49.27014" lon="1.10055">
        <ele>128.1</ele>
        <time>2017-04-09T06:48:21Z</time>
      </trkpt>
      <trkpt lat="49.27026" lon="1.10048">
        <ele>128.1</ele>
        <time>2017-04-09T06:48:23Z</time>
      </trkpt>
      <trkpt lat="49.27039" lon="1.10042">
        <ele>128.2</ele>
        <time>2017-04-09T06:48:25Z</time>
      </trkpt>
      <trkpt lat="49.27052" lon="1.10036">
        <ele>128.2</ele>
        <time>2017-04-09T06:48:27Z</time>
      </trkpt>
      <trkpt lat="49.27065" lon="1.10031">
        <ele>128.2</ele>
        <time>2017-04-09T06:48:29Z</time>
      </trkpt>
      <trkpt lat="49.27078" lon="1.10025">
        <ele>128.2</ele>
        <time>2017-04-09T06:48:31Z</time>
      </trkpt>
      <trkpt lat="49.2709" lon="1.1002">
        <ele>128.2</ele>
        <time>2017-04-09T06:48:33Z</time>
      </trkpt>
      <trkpt lat="49.27102" lon="1.10012">
        <ele>128.2</ele>
        <time>2017-04-09T06:48:35Z</time>
      </trkpt>
      <trkpt lat="49.27113" lon="1.10002">
        <ele>128.1</ele>
        <time>2017-04-09T06:48:37Z</time>
      </trkpt>
      <trkpt lat="49.27123" lon="1.09989">
        <ele>127.9</ele>
        <time>2017-04-09T06:48:39Z</time>
      </trkpt>
      <trkpt lat="49.27132" lon="1.09975">
        <ele>127.8</ele>
        <time>2017-04-09T06:48:41Z</time>
      </trkpt>
      <trkpt lat="49.2714" lon="1.0996">
        <ele>127.6</ele>
        <time>2017-04-09T06:48:43Z</time>
      </trkpt>
      <trkpt lat="49.27149" lon="1.09945">
        <ele>127.5</ele>
        <time>2017-04-09T06:48:45Z</time>
      </trkpt>
      <trkpt lat="49.27157" lon="1.0993">
        <ele>127.3</ele>
        <time>2017-04-09T06:48:47Z</time>
      </trkpt>
      <trkpt lat="49.27167" lon="1.09916">
        <ele>127.1</ele>
        <time>2017-04-09T06:48:49Z</time>
      </trkpt>
      <trkpt lat="49.27178" lon="1.09906">
        <ele>126.9</ele>
        <time>2017-04-09T06:48:51Z</time>
      </trkpt>
      <trkpt lat="49.2719" lon="1.09898">
        <ele>126.7</ele>
        <time>2017-04-09T06:48:53Z</time>
      </trkpt>
      <trkpt lat="49.27203" lon="1.09892">
        <ele>126.6</ele>
        <time>2017-04-09T06:48:55Z</time>
      </trkpt>
      <trkpt lat="49.27215" lon="1.09884">
        <ele>126.4</ele>
        <time>2017-04-09T06:48:57Z</time>
      </trkpt>
      <trkpt lat="49.27227" lon="1.09878">
        <ele>126.3</ele>
        <time>2017-04-09T06:48:59Z</time>
      </trkpt>
      <trkpt lat="49.27238" lon="1.09872">
        <ele>126.1</ele>
        <time>2017-04-09T06:49:01Z</time>
      </trkpt>
      <trkpt lat="49.2725" lon="1.09867">
        <ele>125.9</ele>
        <time>2017-04-09T06:49:03Z</time>
      </trkpt>
      <trkpt lat="49.2726" lon="1.09858">
        <ele>125.6</ele>
        <time>2017-04-09T06:49:05Z</time>
      </trkpt>
      <trkpt lat="49.27267" lon="1.09848">
        <ele>125.4</ele>
        <time>2017-04-09T06:49:07Z</time>
      </trkpt>
      <trkpt lat="49.27274" lon="1.09837">
        <ele>125.2</ele>
        <time>2017-04-09T06:49:09Z</time>
      </trkpt>
      <trkpt lat="49.27282" lon="1.09823">
        <ele>125</ele>
        <time>2017-04-09T06:49:11Z</time>
      </trkpt>
      <trkpt lat="49.2729" lon="1.09809">
        <ele>124.9</ele>
        <time>2017-04-09T06:49:13Z</time>
      </trkpt>
      <trkpt lat="49.27298" lon="1.09795">
        <ele>124.7</ele>
        <time>2017-04-09T06:49:15Z</time>
      </trkpt>
      <trkpt lat="49.27306" lon="1.0978">
        <ele>124.5</ele>
        <time>2017-04-09T06:49:17Z</time>
      </trkpt>
      <trkpt lat="49.27315" lon="1.09764">
        <ele>124.4</ele>
        <time>2017-04-09T06:49:19Z</time>
      </trkpt>
      <trkpt lat="49.27323" lon="1.09749">
        <ele>124.1</ele>
        <time>2017-04-09T06:49:21Z</time>
      </trkpt>
      <trkpt lat="49.27332" lon="1.09734">
        <ele>123.7</ele>
        <time>2017-04-09T06:49:23Z</time>
      </trkpt>
      <trkpt lat="49.2734" lon="1.09718">
        <ele>123.3</ele>
        <time>2017-04-09T06:49:25Z</time>
      </trkpt>
      <trkpt lat="49.27348" lon="1.09703">
        <ele>123</ele>
        <time>2017-04-09T06:49:27Z</time>
      </trkpt>
      <trkpt lat="49.27359" lon="1.09687">
        <ele>122.5</ele>
        <time>2017-04-09T06:49:29Z</time>
      </trkpt>
      <trkpt lat="49.27368" lon="1.09668">
        <ele>122</ele>
        <time>2017-04-09T06:49:31Z</time>
      </trkpt>
      <trkpt lat="49.27377" lon="1.0965">
        <ele>121.1</ele>
        <time>2017-04-09T06:49:33Z</time>
      </trkpt>
      <trkpt lat="49.27387" lon="1.09633">
        <ele>120.3</ele>
        <time>2017-04-09T06:49:35Z</time>
      </trkpt>
      <trkpt lat="49.27394" lon="1.09623">
        <ele>120</ele>
        <time>2017-04-09T06:49:36Z</time>
      </trkpt>
      <trkpt lat="49.274" lon="1.09612">
        <ele>119.6</ele>
        <time>2017-04-09T06:49:37Z</time>
      </trkpt>
      <trkpt lat="49.2741" lon="1.0959">
        <ele>118.5</ele>
        <time>2017-04-09T06:49:39Z</time>
      </trkpt>
      <trkpt lat="49.27417" lon="1.09578">
        <ele>117.9</ele>
        <time>2017-04-09T06:49:40Z</time>
      </trkpt>
      <trkpt lat="49.27423" lon="1.09567">
        <ele>117.2</ele>
        <time>2017-04-09T06:49:41Z</time>
      </trkpt>
      <trkpt lat="49.27435" lon="1.09547">
        <ele>115.5</ele>
        <time>2017-04-09T06:49:43Z</time>
      </trkpt>
      <trkpt lat="49.27441" lon="1.09535">
        <ele>114.5</ele>
        <time>2017-04-09T06:49:44Z</time>
      </trkpt>
      <trkpt lat="49.27448" lon="1.09524">
        <ele>113.5</ele>
        <time>2017-04-09T06:49:45Z</time>
      </trkpt>
      <trkpt lat="49.27455" lon="1.09512">
        <ele>112.6</ele>
        <time>2017-04-09T06:49:46Z</time>
      </trkpt>
      <trkpt lat="49.27462" lon="1.09498">
        <ele>111.5</ele>
        <time>2017-04-09T06:49:47Z</time>
      </trkpt>
      <trkpt lat="49.27469" lon="1.0948">
        <ele>110.5</ele>
        <time>2017-04-09T06:49:48Z</time>
      </trkpt>
      <trkpt lat="49.27477" lon="1.09466">
        <ele>109.2</ele>
        <time>2017-04-09T06:49:49Z</time>
      </trkpt>
      <trkpt lat="49.27485" lon="1.09452">
        <ele>108</ele>
        <time>2017-04-09T06:49:50Z</time>
      </trkpt>
      <trkpt lat="49.27491" lon="1.09439">
        <ele>106.8</ele>
        <time>2017-04-09T06:49:51Z</time>
      </trkpt>
      <trkpt lat="49.27498" lon="1.09427">
        <ele>105.5</ele>
        <time>2017-04-09T06:49:52Z</time>
      </trkpt>
      <trkpt lat="49.27506" lon="1.09415">
        <ele>104.3</ele>
        <time>2017-04-09T06:49:53Z</time>
      </trkpt>
      <trkpt lat="49.27516" lon="1.09398">
        <ele>101.8</ele>
        <time>2017-04-09T06:49:55Z</time>
      </trkpt>
      <trkpt lat="49.27527" lon="1.09392">
        <ele>99.3</ele>
        <time>2017-04-09T06:49:57Z</time>
      </trkpt>
      <trkpt lat="49.27538" lon="1.09393">
        <ele>96.1</ele>
        <time>2017-04-09T06:50:00Z</time>
      </trkpt>
      <trkpt lat="49.27546" lon="1.09401">
        <ele>93.4</ele>
        <time>2017-04-09T06:50:03Z</time>
      </trkpt>
      <trkpt lat="49.27555" lon="1.09411">
        <ele>91.2</ele>
        <time>2017-04-09T06:50:06Z</time>
      </trkpt>
      <trkpt lat="49.27562" lon="1.09419">
        <ele>89.9</ele>
        <time>2017-04-09T06:50:08Z</time>
      </trkpt>
      <trkpt lat="49.2757" lon="1.0943">
        <ele>88.4</ele>
        <time>2017-04-09T06:50:11Z</time>
      </trkpt>
      <trkpt lat="49.27578" lon="1.09439">
        <ele>87.6</ele>
        <time>2017-04-09T06:50:13Z</time>
      </trkpt>
      <trkpt lat="49.27586" lon="1.09447">
        <ele>86.9</ele>
        <time>2017-04-09T06:50:15Z</time>
      </trkpt>
      <trkpt lat="49.27596" lon="1.09461">
        <ele>86.1</ele>
        <time>2017-04-09T06:50:18Z</time>
      </trkpt>
      <trkpt lat="49.27605" lon="1.0947">
        <ele>85.7</ele>
        <time>2017-04-09T06:50:20Z</time>
      </trkpt>
      <trkpt lat="49.27616" lon="1.0948">
        <ele>85.4</ele>
        <time>2017-04-09T06:50:22Z</time>
      </trkpt>
      <trkpt lat="49.27625" lon="1.0949">
        <ele>85.1</ele>
        <time>2017-04-09T06:50:24Z</time>
      </trkpt>
      <trkpt lat="49.27636" lon="1.09501">
        <ele>84.9</ele>
        <time>2017-04-09T06:50:26Z</time>
      </trkpt>
      <trkpt lat="49.27647" lon="1.09512">
        <ele>84.7</ele>
        <time>2017-04-09T06:50:28Z</time>
      </trkpt>
      <trkpt lat="49.27658" lon="1.09524">
        <ele>84.6</ele>
        <time>2017-04-09T06:50:30Z</time>
      </trkpt>
      <trkpt lat="49.27668" lon="1.09535">
        <ele>84.4</ele>
        <time>2017-04-09T06:50:32Z</time>
      </trkpt>
      <trkpt lat="49.27678" lon="1.09548">
        <ele>84.3</ele>
        <time>2017-04-09T06:50:34Z</time>
      </trkpt>
      <trkpt lat="49.27688" lon="1.0956">
        <ele>84.3</ele>
        <time>2017-04-09T06:50:36Z</time>
      </trkpt>
      <trkpt lat="49.27698" lon="1.09572">
        <ele>84.2</ele>
        <time>2017-04-09T06:50:38Z</time>
      </trkpt>
      <trkpt lat="49.27708" lon="1.09583">
        <ele>84.1</ele>
        <time>2017-04-09T06:50:40Z</time>
      </trkpt>
      <trkpt lat="49.27717" lon="1.09595">
        <ele>84</ele>
        <time>2017-04-09T06:50:42Z</time>
      </trkpt>
      <trkpt lat="49.27727" lon="1.09607">
        <ele>84</ele>
        <time>2017-04-09T06:50:44Z</time>
      </trkpt>
      <trkpt lat="49.27737" lon="1.0962">
        <ele>83.9</ele>
        <time>2017-04-09T06:50:46Z</time>
      </trkpt>
      <trkpt lat="49.27747" lon="1.09631">
        <ele>83.9</ele>
        <time>2017-04-09T06:50:48Z</time>
      </trkpt>
      <trkpt lat="49.27756" lon="1.09642">
        <ele>83.9</ele>
        <time>2017-04-09T06:50:50Z</time>
      </trkpt>
      <trkpt lat="49.27763" lon="1.09653">
        <ele>83.8</ele>
        <time>2017-04-09T06:50:52Z</time>
      </trkpt>
      <trkpt lat="49.27773" lon="1.09664">
        <ele>83.8</ele>
        <time>2017-04-09T06:50:54Z</time>
      </trkpt>
      <trkpt lat="49.27781" lon="1.09675">
        <ele>83.8</ele>
        <time>2017-04-09T06:50:56Z</time>
      </trkpt>
      <trkpt lat="49.2779" lon="1.09686">
        <ele>83.8</ele>
        <time>2017-04-09T06:50:58Z</time>
      </trkpt>
      <trkpt lat="49.278" lon="1.09698">
        <ele>83.7</ele>
        <time>2017-04-09T06:51:00Z</time>
      </trkpt>
      <trkpt lat="49.27809" lon="1.0971">
        <ele>83.7</ele>
        <time>2017-04-09T06:51:02Z</time>
      </trkpt>
      <trkpt lat="49.27819" lon="1.09721">
        <ele>83.7</ele>
        <time>2017-04-09T06:51:04Z</time>
      </trkpt>
      <trkpt lat="49.27828" lon="1.09733">
        <ele>83.7</ele>
        <time>2017-04-09T06:51:06Z</time>
      </trkpt>
      <trkpt lat="49.27839" lon="1.09745">
        <ele>83.7</ele>
        <time>2017-04-09T06:51:08Z</time>
      </trkpt>
      <trkpt lat="49.27849" lon="1.09757">
        <ele>83.7</ele>
        <time>2017-04-09T06:51:10Z</time>
      </trkpt>
      <trkpt lat="49.27858" lon="1.09769">
        <ele>83.6</ele>
        <time>2017-04-09T06:51:12Z</time>
      </trkpt>
      <trkpt lat="49.27866" lon="1.09781">
        <ele>83.6</ele>
        <time>2017-04-09T06:51:14Z</time>
      </trkpt>
      <trkpt lat="49.27868" lon="1.09797">
        <ele>83.6</ele>
        <time>2017-04-09T06:51:17Z</time>
      </trkpt>
      <trkpt lat="49.27857" lon="1.09804">
        <ele>83.5</ele>
        <time>2017-04-09T06:51:21Z</time>
      </trkpt>
      <trkpt lat="49.27848" lon="1.09808">
        <ele>83.4</ele>
        <time>2017-04-09T06:51:24Z</time>
      </trkpt>
      <trkpt lat="49.27837" lon="1.09813">
        <ele>83.5</ele>
        <time>2017-04-09T06:51:28Z</time>
      </trkpt>
      <trkpt lat="49.27825" lon="1.09817">
        <ele>84</ele>
        <time>2017-04-09T06:51:32Z</time>
      </trkpt>
      <trkpt lat="49.27813" lon="1.09818">
        <ele>84.6</ele>
        <time>2017-04-09T06:51:36Z</time>
      </trkpt>
      <trkpt lat="49.27802" lon="1.09818">
        <ele>85.3</ele>
        <time>2017-04-09T06:51:40Z</time>
      </trkpt>
      <trkpt lat="49.27791" lon="1.09821">
        <ele>86.1</ele>
        <time>2017-04-09T06:51:44Z</time>
      </trkpt>
      <trkpt lat="49.27781" lon="1.09822">
        <ele>87</ele>
        <time>2017-04-09T06:51:48Z</time>
      </trkpt>
      <trkpt lat="49.2777" lon="1.09823">
        <ele>87.9</ele>
        <time>2017-04-09T06:51:52Z</time>
      </trkpt>
      <trkpt lat="49.2776" lon="1.09823">
        <ele>88.9</ele>
        <time>2017-04-09T06:51:56Z</time>
      </trkpt>
      <trkpt lat="49.2775" lon="1.0982">
        <ele>89.9</ele>
        <time>2017-04-09T06:52:00Z</time>
      </trkpt>
      <trkpt lat="49.2774" lon="1.09816">
        <ele>90.9</ele>
        <time>2017-04-09T06:52:04Z</time>
      </trkpt>
      <trkpt lat="49.2773" lon="1.09811">
        <ele>92</ele>
        <time>2017-04-09T06:52:08Z</time>
      </trkpt>
      <trkpt lat="49.2772" lon="1.09808">
        <ele>93</ele>
        <time>2017-04-09T06:52:12Z</time>
      </trkpt>
      <trkpt lat="49.2771" lon="1.09805">
        <ele>94</ele>
        <time>2017-04-09T06:52:16Z</time>
      </trkpt>
      <trkpt lat="49.277" lon="1.09802">
        <ele>95.1</ele>
        <time>2017-04-09T06:52:20Z</time>
      </trkpt>
      <trkpt lat="49.2769" lon="1.09801">
        <ele>96.1</ele>
        <time>2017-04-09T06:52:24Z</time>
      </trkpt>
      <trkpt lat="49.2768" lon="1.098">
        <ele>97</ele>
        <time>2017-04-09T06:52:28Z</time>
      </trkpt>
      <trkpt lat="49.2767" lon="1.09799">
        <ele>98.1</ele>
        <time>2017-04-09T06:52:32Z</time>
      </trkpt>
      <trkpt lat="49.27659" lon="1.098">
        <ele>99.2</ele>
        <time>2017-04-09T06:52:36Z</time>
      </trkpt>
      <trkpt lat="49.27648" lon="1.09801">
        <ele>100.5</ele>
        <time>2017-04-09T06:52:41Z</time>
      </trkpt>
      <trkpt lat="49.27637" lon="1.09803">
        <ele>102.1</ele>
        <time>2017-04-09T06:52:46Z</time>
      </trkpt>
      <trkpt lat="49.27627" lon="1.09803">
        <ele>103.2</ele>
        <time>2017-04-09T06:52:50Z</time>
      </trkpt>
      <trkpt lat="49.27617" lon="1.09804">
        <ele>104.3</ele>
        <time>2017-04-09T06:52:54Z</time>
      </trkpt>
      <trkpt lat="49.27607" lon="1.09805">
        <ele>105.3</ele>
        <time>2017-04-09T06:52:58Z</time>
      </trkpt>
      <trkpt lat="49.27598" lon="1.09807">
        <ele>106.3</ele>
        <time>2017-04-09T06:53:02Z</time>
      </trkpt>
      <trkpt lat="49.27589" lon="1.09812">
        <ele>107.3</ele>
        <time>2017-04-09T06:53:06Z</time>
      </trkpt>
      <trkpt lat="49.2758" lon="1.09816">
        <ele>108.3</ele>
        <time>2017-04-09T06:53:10Z</time>
      </trkpt>
      <trkpt lat="49.27571" lon="1.09822">
        <ele>109.3</ele>
        <time>2017-04-09T06:53:14Z</time>
      </trkpt>
      <trkpt lat="49.2756" lon="1.09828">
        <ele>110.6</ele>
        <time>2017-04-09T06:53:19Z</time>
      </trkpt>
      <trkpt lat="49.27551" lon="1.09835">
        <ele>111.5</ele>
        <time>2017-04-09T06:53:23Z</time>
      </trkpt>
      <trkpt lat="49.27542" lon="1.09842">
        <ele>112.7</ele>
        <time>2017-04-09T06:53:28Z</time>
      </trkpt>
      <trkpt lat="49.27532" lon="1.09847">
        <ele>113.6</ele>
        <time>2017-04-09T06:53:32Z</time>
      </trkpt>
      <trkpt lat="49.27523" lon="1.09852">
        <ele>114.5</ele>
        <time>2017-04-09T06:53:36Z</time>
      </trkpt>
      <trkpt lat="49.27512" lon="1.09858">
        <ele>115.6</ele>
        <time>2017-04-09T06:53:40Z</time>
      </trkpt>
      <trkpt lat="49.27504" lon="1.09866">
        <ele>116.2</ele>
        <time>2017-04-09T06:53:43Z</time>
      </trkpt>
      <trkpt lat="49.27495" lon="1.09871">
        <ele>116.8</ele>
        <time>2017-04-09T06:53:46Z</time>
      </trkpt>
      <trkpt lat="49.27486" lon="1.09876">
        <ele>117.5</ele>
        <time>2017-04-09T06:53:49Z</time>
      </trkpt>
      <trkpt lat="49.27477" lon="1.09882">
        <ele>118.1</ele>
        <time>2017-04-09T06:53:52Z</time>
      </trkpt>
      <trkpt lat="49.27467" lon="1.09889">
        <ele>118.6</ele>
        <time>2017-04-09T06:53:55Z</time>
      </trkpt>
      <trkpt lat="49.27469" lon="1.09907">
        <ele>119.4</ele>
        <time>2017-04-09T06:54:00Z</time>
      </trkpt>
      <trkpt lat="49.27475" lon="1.0992">
        <ele>119.8</ele>
        <time>2017-04-09T06:54:04Z</time>
      </trkpt>
      <trkpt lat="49.27482" lon="1.0993">
        <ele>120.1</ele>
        <time>2017-04-09T06:54:07Z</time>
      </trkpt>
      <trkpt lat="49.27489" lon="1.09941">
        <ele>120.5</ele>
        <time>2017-04-09T06:54:10Z</time>
      </trkpt>
      <trkpt lat="49.275" lon="1.09951">
        <ele>120.9</ele>
        <time>2017-04-09T06:54:13Z</time>
      </trkpt>
      <trkpt lat="49.27508" lon="1.09963">
        <ele>121.4</ele>
        <time>2017-04-09T06:54:17Z</time>
      </trkpt>
      <trkpt lat="49.27517" lon="1.0997">
        <ele>121.6</ele>
        <time>2017-04-09T06:54:19Z</time>
      </trkpt>
      <trkpt lat="49.27525" lon="1.09981">
        <ele>121.8</ele>
        <time>2017-04-09T06:54:22Z</time>
      </trkpt>
      <trkpt lat="49.27531" lon="1.09991">
        <ele>122</ele>
        <time>2017-04-09T06:54:25Z</time>
      </trkpt>
      <trkpt lat="49.27538" lon="1.1">
        <ele>122.1</ele>
        <time>2017-04-09T06:54:28Z</time>
      </trkpt>
      <trkpt lat="49.27546" lon="1.1001">
        <ele>122.3</ele>
        <time>2017-04-09T06:54:31Z</time>
      </trkpt>
      <trkpt lat="49.27555" lon="1.10021">
        <ele>122.5</ele>
        <time>2017-04-09T06:54:34Z</time>
      </trkpt>
      <trkpt lat="49.27564" lon="1.10033">
        <ele>122.7</ele>
        <time>2017-04-09T06:54:37Z</time>
      </trkpt>
      <trkpt lat="49.27572" lon="1.10043">
        <ele>122.8</ele>
        <time>2017-04-09T06:54:40Z</time>
      </trkpt>
      <trkpt lat="49.2758" lon="1.1005">
        <ele>123</ele>
        <time>2017-04-09T06:54:42Z</time>
      </trkpt>
      <trkpt lat="49.2759" lon="1.10063">
        <ele>123.2</ele>
        <time>2017-04-09T06:54:45Z</time>
      </trkpt>
      <trkpt lat="49.27596" lon="1.10074">
        <ele>123.4</ele>
        <time>2017-04-09T06:54:47Z</time>
      </trkpt>
      <trkpt lat="49.27603" lon="1.10082">
        <ele>123.5</ele>
        <time>2017-04-09T06:54:49Z</time>
      </trkpt>
      <trkpt lat="49.27612" lon="1.10091">
        <ele>123.6</ele>
        <time>2017-04-09T06:54:51Z</time>
      </trkpt>
      <trkpt lat="49.27622" lon="1.10104">
        <ele>123.7</ele>
        <time>2017-04-09T06:54:54Z</time>
      </trkpt>
      <trkpt lat="49.27632" lon="1.10118">
        <ele>123.7</ele>
        <time>2017-04-09T06:54:57Z</time>
      </trkpt>
      <trkpt lat="49.27642" lon="1.10131">
        <ele>123.8</ele>
        <time>2017-04-09T06:55:00Z</time>
      </trkpt>
      <trkpt lat="49.27651" lon="1.10143">
        <ele>123.8</ele>
        <time>2017-04-09T06:55:03Z</time>
      </trkpt>
      <trkpt lat="49.27659" lon="1.10152">
        <ele>123.8</ele>
        <time>2017-04-09T06:55:05Z</time>
      </trkpt>
      <trkpt lat="49.27667" lon="1.10162">
        <ele>123.8</ele>
        <time>2017-04-09T06:55:07Z</time>
      </trkpt>
      <trkpt lat="49.27674" lon="1.10171">
        <ele>123.9</ele>
        <time>2017-04-09T06:55:09Z</time>
      </trkpt>
      <trkpt lat="49.27681" lon="1.10181">
        <ele>123.9</ele>
        <time>2017-04-09T06:55:11Z</time>
      </trkpt>
      <trkpt lat="49.27689" lon="1.1019">
        <ele>123.9</ele>
        <time>2017-04-09T06:55:13Z</time>
      </trkpt>
      <trkpt lat="49.27696" lon="1.102">
        <ele>123.9</ele>
        <time>2017-04-09T06:55:15Z</time>
      </trkpt>
      <trkpt lat="49.27705" lon="1.10211">
        <ele>123.9</ele>
        <time>2017-04-09T06:55:17Z</time>
      </trkpt>
      <trkpt lat="49.27714" lon="1.10222">
        <ele>123.9</ele>
        <time>2017-04-09T06:55:19Z</time>
      </trkpt>
      <trkpt lat="49.27722" lon="1.10232">
        <ele>123.8</ele>
        <time>2017-04-09T06:55:21Z</time>
      </trkpt>
      <trkpt lat="49.27729" lon="1.10242">
        <ele>123.8</ele>
        <time>2017-04-09T06:55:23Z</time>
      </trkpt>
      <trkpt lat="49.27737" lon="1.10251">
        <ele>123.8</ele>
        <time>2017-04-09T06:55:25Z</time>
      </trkpt>
      <trkpt lat="49.27746" lon="1.10262">
        <ele>123.6</ele>
        <time>2017-04-09T06:55:27Z</time>
      </trkpt>
      <trkpt lat="49.27755" lon="1.10272">
        <ele>123.4</ele>
        <time>2017-04-09T06:55:29Z</time>
      </trkpt>
      <trkpt lat="49.27763" lon="1.10284">
        <ele>123.2</ele>
        <time>2017-04-09T06:55:31Z</time>
      </trkpt>
      <trkpt lat="49.27771" lon="1.10296">
        <ele>123</ele>
        <time>2017-04-09T06:55:33Z</time>
      </trkpt>
      <trkpt lat="49.27778" lon="1.10306">
        <ele>122.8</ele>
        <time>2017-04-09T06:55:35Z</time>
      </trkpt>
      <trkpt lat="49.27785" lon="1.10315">
        <ele>122.5</ele>
        <time>2017-04-09T06:55:37Z</time>
      </trkpt>
      <trkpt lat="49.27793" lon="1.10325">
        <ele>122.4</ele>
        <time>2017-04-09T06:55:39Z</time>
      </trkpt>
      <trkpt lat="49.27802" lon="1.10335">
        <ele>122.4</ele>
        <time>2017-04-09T06:55:41Z</time>
      </trkpt>
      <trkpt lat="49.2781" lon="1.10345">
        <ele>122.2</ele>
        <time>2017-04-09T06:55:43Z</time>
      </trkpt>
      <trkpt lat="49.27816" lon="1.10356">
        <ele>122.1</ele>
        <time>2017-04-09T06:55:45Z</time>
      </trkpt>
      <trkpt lat="49.27818" lon="1.1037">
        <ele>121.9</ele>
        <time>2017-04-09T06:55:47Z</time>
      </trkpt>
      <trkpt lat="49.27815" lon="1.10383">
        <ele>121.7</ele>
        <time>2017-04-09T06:55:49Z</time>
      </trkpt>
      <trkpt lat="49.27813" lon="1.10397">
        <ele>121.7</ele>
        <time>2017-04-09T06:55:51Z</time>
      </trkpt>
      <trkpt lat="49.27812" lon="1.10412">
        <ele>121.7</ele>
        <time>2017-04-09T06:55:53Z</time>
      </trkpt>
      <trkpt lat="49.2781" lon="1.10427">
        <ele>121.7</ele>
        <time>2017-04-09T06:55:55Z</time>
      </trkpt>
      <trkpt lat="49.27808" lon="1.10442">
        <ele>121.7</ele>
        <time>2017-04-09T06:55:57Z</time>
      </trkpt>
      <trkpt lat="49.27807" lon="1.10458">
        <ele>121.8</ele>
        <time>2017-04-09T06:55:59Z</time>
      </trkpt>
      <trkpt lat="49.27806" lon="1.10474">
        <ele>121.8</ele>
        <time>2017-04-09T06:56:01Z</time>
      </trkpt>
      <trkpt lat="49.27804" lon="1.1049">
        <ele>121.9</ele>
        <time>2017-04-09T06:56:03Z</time>
      </trkpt>
      <trkpt lat="49.27802" lon="1.10506">
        <ele>121.9</ele>
        <time>2017-04-09T06:56:05Z</time>
      </trkpt>
      <trkpt lat="49.27801" lon="1.10523">
        <ele>122</ele>
        <time>2017-04-09T06:56:07Z</time>
      </trkpt>
      <trkpt lat="49.27799" lon="1.1054">
        <ele>122.1</ele>
        <time>2017-04-09T06:56:09Z</time>
      </trkpt>
      <trkpt lat="49.27797" lon="1.10558">
        <ele>122.2</ele>
        <time>2017-04-09T06:56:11Z</time>
      </trkpt>
      <trkpt lat="49.27796" lon="1.10576">
        <ele>122.2</ele>
        <time>2017-04-09T06:56:13Z</time>
      </trkpt>
      <trkpt lat="49.27794" lon="1.10593">
        <ele>122.3</ele>
        <time>2017-04-09T06:56:15Z</time>
      </trkpt>
      <trkpt lat="49.27793" lon="1.10611">
        <ele>122.3</ele>
        <time>2017-04-09T06:56:17Z</time>
      </trkpt>
      <trkpt lat="49.27791" lon="1.10628">
        <ele>122.3</ele>
        <time>2017-04-09T06:56:19Z</time>
      </trkpt>
      <trkpt lat="49.27789" lon="1.10644">
        <ele>122.3</ele>
        <time>2017-04-09T06:56:21Z</time>
      </trkpt>
      <trkpt lat="49.27782" lon="1.10655">
        <ele>122.3</ele>
        <time>2017-04-09T06:56:23Z</time>
      </trkpt>
      <trkpt lat="49.27773" lon="1.10655">
        <ele>122.3</ele>
        <time>2017-04-09T06:56:25Z</time>
      </trkpt>
      <trkpt lat="49.27764" lon="1.10648">
        <ele>122.3</ele>
        <time>2017-04-09T06:56:27Z</time>
      </trkpt>
      <trkpt lat="49.27755" lon="1.1064">
        <ele>122.2</ele>
        <time>2017-04-09T06:56:29Z</time>
      </trkpt>
      <trkpt lat="49.27743" lon="1.10635">
        <ele>122.2</ele>
        <time>2017-04-09T06:56:32Z</time>
      </trkpt>
      <trkpt lat="49.27732" lon="1.10641">
        <ele>122.1</ele>
        <time>2017-04-09T06:56:34Z</time>
      </trkpt>
      <trkpt lat="49.27723" lon="1.10646">
        <ele>122.1</ele>
        <time>2017-04-09T06:56:36Z</time>
      </trkpt>
      <trkpt lat="49.27711" lon="1.10653">
        <ele>122.1</ele>
        <time>2017-04-09T06:56:38Z</time>
      </trkpt>
      <trkpt lat="49.27701" lon="1.10658">
        <ele>122</ele>
        <time>2017-04-09T06:56:40Z</time>
      </trkpt>
      <trkpt lat="49.2769" lon="1.10663">
        <ele>122</ele>
        <time>2017-04-09T06:56:42Z</time>
      </trkpt>
      <trkpt lat="49.27679" lon="1.10669">
        <ele>121.9</ele>
        <time>2017-04-09T06:56:44Z</time>
      </trkpt>
      <trkpt lat="49.2767" lon="1.10673">
        <ele>121.9</ele>
        <time>2017-04-09T06:56:46Z</time>
      </trkpt>
      <trkpt lat="49.27657" lon="1.10679">
        <ele>121.8</ele>
        <time>2017-04-09T06:56:49Z</time>
      </trkpt>
      <trkpt lat="49.27648" lon="1.10684">
        <ele>121.7</ele>
        <time>2017-04-09T06:56:51Z</time>
      </trkpt>
      <trkpt lat="49.2764" lon="1.10688">
        <ele>121.6</ele>
        <time>2017-04-09T06:56:53Z</time>
      </trkpt>
      <trkpt lat="49.27627" lon="1.10694">
        <ele>121.4</ele>
        <time>2017-04-09T06:56:56Z</time>
      </trkpt>
      <trkpt lat="49.27615" lon="1.107">
        <ele>121.2</ele>
        <time>2017-04-09T06:56:59Z</time>
      </trkpt>
      <trkpt lat="49.27606" lon="1.10706">
        <ele>121.1</ele>
        <time>2017-04-09T06:57:01Z</time>
      </trkpt>
      <trkpt lat="49.27596" lon="1.1071">
        <ele>120.9</ele>
        <time>2017-04-09T06:57:03Z</time>
      </trkpt>
      <trkpt lat="49.27587" lon="1.10715">
        <ele>120.7</ele>
        <time>2017-04-09T06:57:05Z</time>
      </trkpt>
      <trkpt lat="49.27576" lon="1.10722">
        <ele>120.5</ele>
        <time>2017-04-09T06:57:08Z</time>
      </trkpt>
      <trkpt lat="49.27567" lon="1.10729">
        <ele>120.3</ele>
        <time>2017-04-09T06:57:10Z</time>
      </trkpt>
      <trkpt lat="49.27555" lon="1.10738">
        <ele>120.2</ele>
        <time>2017-04-09T06:57:13Z</time>
      </trkpt>
      <trkpt lat="49.27544" lon="1.10745">
        <ele>120.2</ele>
        <time>2017-04-09T06:57:15Z</time>
      </trkpt>
      <trkpt lat="49.27533" lon="1.10751">
        <ele>120.3</ele>
        <time>2017-04-09T06:57:17Z</time>
      </trkpt>
      <trkpt lat="49.27524" lon="1.10757">
        <ele>120.3</ele>
        <time>2017-04-09T06:57:19Z</time>
      </trkpt>
      <trkpt lat="49.27515" lon="1.10762">
        <ele>120.4</ele>
        <time>2017-04-09T06:57:21Z</time>
      </trkpt>
      <trkpt lat="49.27506" lon="1.10766">
        <ele>120.4</ele>
        <time>2017-04-09T06:57:23Z</time>
      </trkpt>
      <trkpt lat="49.27497" lon="1.10772">
        <ele>120.5</ele>
        <time>2017-04-09T06:57:25Z</time>
      </trkpt>
      <trkpt lat="49.27485" lon="1.1078">
        <ele>120.5</ele>
        <time>2017-04-09T06:57:28Z</time>
      </trkpt>
      <trkpt lat="49.27475" lon="1.10792">
        <ele>120.7</ele>
        <time>2017-04-09T06:57:31Z</time>
      </trkpt>
      <trkpt lat="49.27472" lon="1.10807">
        <ele>120.8</ele>
        <time>2017-04-09T06:57:34Z</time>
      </trkpt>
      <trkpt lat="49.27472" lon="1.10821">
        <ele>120.9</ele>
        <time>2017-04-09T06:57:36Z</time>
      </trkpt>
      <trkpt lat="49.27474" lon="1.10836">
        <ele>121</ele>
        <time>2017-04-09T06:57:38Z</time>
      </trkpt>
      <trkpt lat="49.27471" lon="1.1085">
        <ele>121.1</ele>
        <time>2017-04-09T06:57:40Z</time>
      </trkpt>
      <trkpt lat="49.27475" lon="1.10869">
        <ele>121.2</ele>
        <time>2017-04-09T06:57:43Z</time>
      </trkpt>
      <trkpt lat="49.27481" lon="1.10882">
        <ele>121.2</ele>
        <time>2017-04-09T06:57:45Z</time>
      </trkpt>
      <trkpt lat="49.27484" lon="1.10898">
        <ele>121.2</ele>
        <time>2017-04-09T06:57:47Z</time>
      </trkpt>
      <trkpt lat="49.27488" lon="1.10911">
        <ele>121.3</ele>
        <time>2017-04-09T06:57:49Z</time>
      </trkpt>
      <trkpt lat="49.27494" lon="1.1093">
        <ele>121.3</ele>
        <time>2017-04-09T06:57:51Z</time>
      </trkpt>
      <trkpt lat="49.27499" lon="1.1095">
        <ele>121.3</ele>
        <time>2017-04-09T06:57:53Z</time>
      </trkpt>
      <trkpt lat="49.27502" lon="1.10965">
        <ele>121.4</ele>
        <time>2017-04-09T06:57:55Z</time>
      </trkpt>
      <trkpt lat="49.27508" lon="1.1098">
        <ele>121.4</ele>
        <time>2017-04-09T06:57:57Z</time>
      </trkpt>
      <trkpt lat="49.2751" lon="1.10996">
        <ele>121.4</ele>
        <time>2017-04-09T06:57:59Z</time>
      </trkpt>
      <trkpt lat="49.27512" lon="1.11014">
        <ele>121.4</ele>
        <time>2017-04-09T06:58:01Z</time>
      </trkpt>
      <trkpt lat="49.27515" lon="1.11027">
        <ele>121.4</ele>
        <time>2017-04-09T06:58:03Z</time>
      </trkpt>
      <trkpt lat="49.27521" lon="1.1104">
        <ele>121.3</ele>
        <time>2017-04-09T06:58:05Z</time>
      </trkpt>
      <trkpt lat="49.27529" lon="1.11054">
        <ele>121.3</ele>
        <time>2017-04-09T06:58:07Z</time>
      </trkpt>
      <trkpt lat="49.27539" lon="1.11068">
        <ele>121.3</ele>
        <time>2017-04-09T06:58:09Z</time>
      </trkpt>
      <trkpt lat="49.27549" lon="1.11079">
        <ele>121.2</ele>
        <time>2017-04-09T06:58:11Z</time>
      </trkpt>
      <trkpt lat="49.27559" lon="1.1109">
        <ele>121.1</ele>
        <time>2017-04-09T06:58:13Z</time>
      </trkpt>
      <trkpt lat="49.27568" lon="1.11104">
        <ele>121</ele>
        <time>2017-04-09T06:58:15Z</time>
      </trkpt>
      <trkpt lat="49.27577" lon="1.11116">
        <ele>120.7</ele>
        <time>2017-04-09T06:58:17Z</time>
      </trkpt>
      <trkpt lat="49.27585" lon="1.11129">
        <ele>120.4</ele>
        <time>2017-04-09T06:58:19Z</time>
      </trkpt>
      <trkpt lat="49.27594" lon="1.11141">
        <ele>120.1</ele>
        <time>2017-04-09T06:58:21Z</time>
      </trkpt>
      <trkpt lat="49.27603" lon="1.11154">
        <ele>119.7</ele>
        <time>2017-04-09T06:58:23Z</time>
      </trkpt>
      <trkpt lat="49.27613" lon="1.11169">
        <ele>119.2</ele>
        <time>2017-04-09T06:58:25Z</time>
      </trkpt>
      <trkpt lat="49.27625" lon="1.11183">
        <ele>118.7</ele>
        <time>2017-04-09T06:58:27Z</time>
      </trkpt>
      <trkpt lat="49.27635" lon="1.11198">
        <ele>118.1</ele>
        <time>2017-04-09T06:58:29Z</time>
      </trkpt>
      <trkpt lat="49.27642" lon="1.11206">
        <ele>117.7</ele>
        <time>2017-04-09T06:58:30Z</time>
      </trkpt>
      <trkpt lat="49.27659" lon="1.11225">
        <ele>116.8</ele>
        <time>2017-04-09T06:58:32Z</time>
      </trkpt>
      <trkpt lat="49.27666" lon="1.11234">
        <ele>116.3</ele>
        <time>2017-04-09T06:58:33Z</time>
      </trkpt>
      <trkpt lat="49.2768" lon="1.11245">
        <ele>115.7</ele>
        <time>2017-04-09T06:58:34Z</time>
      </trkpt>
      <trkpt lat="49.27688" lon="1.11255">
        <ele>115.2</ele>
        <time>2017-04-09T06:58:35Z</time>
      </trkpt>
      <trkpt lat="49.27696" lon="1.11264">
        <ele>114.6</ele>
        <time>2017-04-09T06:58:36Z</time>
      </trkpt>
      <trkpt lat="49.27703" lon="1.11273">
        <ele>114</ele>
        <time>2017-04-09T06:58:37Z</time>
      </trkpt>
      <trkpt lat="49.27711" lon="1.11282">
        <ele>113.4</ele>
        <time>2017-04-09T06:58:38Z</time>
      </trkpt>
      <trkpt lat="49.27719" lon="1.11292">
        <ele>112.7</ele>
        <time>2017-04-09T06:58:39Z</time>
      </trkpt>
      <trkpt lat="49.27727" lon="1.11302">
        <ele>112</ele>
        <time>2017-04-09T06:58:40Z</time>
      </trkpt>
      <trkpt lat="49.27738" lon="1.11313">
        <ele>111.3</ele>
        <time>2017-04-09T06:58:41Z</time>
      </trkpt>
      <trkpt lat="49.27747" lon="1.11323">
        <ele>110.6</ele>
        <time>2017-04-09T06:58:42Z</time>
      </trkpt>
      <trkpt lat="49.27756" lon="1.11333">
        <ele>109.9</ele>
        <time>2017-04-09T06:58:43Z</time>
      </trkpt>
      <trkpt lat="49.27765" lon="1.11344">
        <ele>109.1</ele>
        <time>2017-04-09T06:58:44Z</time>
      </trkpt>
      <trkpt lat="49.27774" lon="1.11355">
        <ele>108.2</ele>
        <time>2017-04-09T06:58:45Z</time>
      </trkpt>
      <trkpt lat="49.27783" lon="1.11365">
        <ele>107.3</ele>
        <time>2017-04-09T06:58:46Z</time>
      </trkpt>
      <trkpt lat="49.27792" lon="1.11376">
        <ele>106.4</ele>
        <time>2017-04-09T06:58:47Z</time>
      </trkpt>
      <trkpt lat="49.27801" lon="1.11386">
        <ele>105.5</ele>
        <time>2017-04-09T06:58:48Z</time>
      </trkpt>
      <trkpt lat="49.2781" lon="1.11396">
        <ele>104.6</ele>
        <time>2017-04-09T06:58:49Z</time>
      </trkpt>
      <trkpt lat="49.27817" lon="1.11406">
        <ele>103.7</ele>
        <time>2017-04-09T06:58:50Z</time>
      </trkpt>
      <trkpt lat="49.2783" lon="1.11424">
        <ele>102</ele>
        <time>2017-04-09T06:58:52Z</time>
      </trkpt>
      <trkpt lat="49.2784" lon="1.11442">
        <ele>100.4</ele>
        <time>2017-04-09T06:58:54Z</time>
      </trkpt>
      <trkpt lat="49.27854" lon="1.11458">
        <ele>98.9</ele>
        <time>2017-04-09T06:58:56Z</time>
      </trkpt>
      <trkpt lat="49.27868" lon="1.11473">
        <ele>97.4</ele>
        <time>2017-04-09T06:58:58Z</time>
      </trkpt>
      <trkpt lat="49.27876" lon="1.11481">
        <ele>96.7</ele>
        <time>2017-04-09T06:58:59Z</time>
      </trkpt>
      <trkpt lat="49.27891" lon="1.11498">
        <ele>95.3</ele>
        <time>2017-04-09T06:59:01Z</time>
      </trkpt>
      <trkpt lat="49.27901" lon="1.11507">
        <ele>94.5</ele>
        <time>2017-04-09T06:59:02Z</time>
      </trkpt>
      <trkpt lat="49.27909" lon="1.11516">
        <ele>93.9</ele>
        <time>2017-04-09T06:59:03Z</time>
      </trkpt>
      <trkpt lat="49.27917" lon="1.11525">
        <ele>93.1</ele>
        <time>2017-04-09T06:59:04Z</time>
      </trkpt>
      <trkpt lat="49.27928" lon="1.11535">
        <ele>92.4</ele>
        <time>2017-04-09T06:59:05Z</time>
      </trkpt>
      <trkpt lat="49.27937" lon="1.11544">
        <ele>91.6</ele>
        <time>2017-04-09T06:59:06Z</time>
      </trkpt>
      <trkpt lat="49.27945" lon="1.11554">
        <ele>90.9</ele>
        <time>2017-04-09T06:59:07Z</time>
      </trkpt>
      <trkpt lat="49.27953" lon="1.11563">
        <ele>90</ele>
        <time>2017-04-09T06:59:08Z</time>
      </trkpt>
      <trkpt lat="49.27961" lon="1.11572">
        <ele>89.1</ele>
        <time>2017-04-09T06:59:09Z</time>
      </trkpt>
      <trkpt lat="49.27968" lon="1.11581">
        <ele>88.4</ele>
        <time>2017-04-09T06:59:10Z</time>
      </trkpt>
      <trkpt lat="49.27975" lon="1.1159">
        <ele>87.6</ele>
        <time>2017-04-09T06:59:11Z</time>
      </trkpt>
      <trkpt lat="49.27987" lon="1.11607">
        <ele>86.3</ele>
        <time>2017-04-09T06:59:13Z</time>
      </trkpt>
      <trkpt lat="49.27997" lon="1.11621">
        <ele>85.1</ele>
        <time>2017-04-09T06:59:15Z</time>
      </trkpt>
      <trkpt lat="49.28009" lon="1.11634">
        <ele>84.1</ele>
        <time>2017-04-09T06:59:17Z</time>
      </trkpt>
      <trkpt lat="49.28018" lon="1.11645">
        <ele>83.2</ele>
        <time>2017-04-09T06:59:19Z</time>
      </trkpt>
      <trkpt lat="49.28026" lon="1.11657">
        <ele>82.5</ele>
        <time>2017-04-09T06:59:21Z</time>
      </trkpt>
      <trkpt lat="49.28035" lon="1.11667">
        <ele>81.9</ele>
        <time>2017-04-09T06:59:23Z</time>
      </trkpt>
      <trkpt lat="49.28045" lon="1.1168">
        <ele>81.2</ele>
        <time>2017-04-09T06:59:26Z</time>
      </trkpt>
      <trkpt lat="49.28056" lon="1.11694">
        <ele>80.6</ele>
        <time>2017-04-09T06:59:29Z</time>
      </trkpt>
      <trkpt lat="49.28067" lon="1.11704">
        <ele>80.1</ele>
        <time>2017-04-09T06:59:31Z</time>
      </trkpt>
      <trkpt lat="49.28073" lon="1.11716">
        <ele>79.5</ele>
        <time>2017-04-09T06:59:33Z</time>
      </trkpt>
      <trkpt lat="49.28073" lon="1.11731">
        <ele>79</ele>
        <time>2017-04-09T06:59:35Z</time>
      </trkpt>
      <trkpt lat="49.28073" lon="1.11749">
        <ele>78.3</ele>
        <time>2017-04-09T06:59:38Z</time>
      </trkpt>
      <trkpt lat="49.28075" lon="1.11764">
        <ele>77.9</ele>
        <time>2017-04-09T06:59:40Z</time>
      </trkpt>
      <trkpt lat="49.28075" lon="1.1178">
        <ele>77.7</ele>
        <time>2017-04-09T06:59:42Z</time>
      </trkpt>
      <trkpt lat="49.28072" lon="1.118">
        <ele>77.5</ele>
        <time>2017-04-09T06:59:45Z</time>
      </trkpt>
      <trkpt lat="49.28071" lon="1.11816">
        <ele>77.5</ele>
        <time>2017-04-09T06:59:48Z</time>
      </trkpt>
      <trkpt lat="49.2807" lon="1.11831">
        <ele>77.6</ele>
        <time>2017-04-09T06:59:51Z</time>
      </trkpt>
      <trkpt lat="49.28071" lon="1.11845">
        <ele>77.9</ele>
        <time>2017-04-09T06:59:54Z</time>
      </trkpt>
      <trkpt lat="49.28069" lon="1.1186">
        <ele>78.5</ele>
        <time>2017-04-09T06:59:58Z</time>
      </trkpt>
      <trkpt lat="49.28068" lon="1.11878">
        <ele>79.2</ele>
        <time>2017-04-09T07:00:02Z</time>
      </trkpt>
      <trkpt lat="49.28066" lon="1.11891">
        <ele>79.9</ele>
        <time>2017-04-09T07:00:05Z</time>
      </trkpt>
      <trkpt lat="49.28063" lon="1.11908">
        <ele>80.9</ele>
        <time>2017-04-09T07:00:09Z</time>
      </trkpt>
      <trkpt lat="49.28061" lon="1.11924">
        <ele>82</ele>
        <time>2017-04-09T07:00:13Z</time>
      </trkpt>
      <trkpt lat="49.2806" lon="1.11941">
        <ele>83.1</ele>
        <time>2017-04-09T07:00:17Z</time>
      </trkpt>
      <trkpt lat="49.28061" lon="1.11957">
        <ele>84.2</ele>
        <time>2017-04-09T07:00:21Z</time>
      </trkpt>
      <trkpt lat="49.28062" lon="1.11973">
        <ele>85.3</ele>
        <time>2017-04-09T07:00:25Z</time>
      </trkpt>
      <trkpt lat="49.28057" lon="1.11988">
        <ele>86.2</ele>
        <time>2017-04-09T07:00:28Z</time>
      </trkpt>
      <trkpt lat="49.28056" lon="1.12002">
        <ele>86.9</ele>
        <time>2017-04-09T07:00:31Z</time>
      </trkpt>
      <trkpt lat="49.28055" lon="1.12016">
        <ele>87.6</ele>
        <time>2017-04-09T07:00:34Z</time>
      </trkpt>
      <trkpt lat="49.28051" lon="1.12029">
        <ele>88.1</ele>
        <time>2017-04-09T07:00:37Z</time>
      </trkpt>
      <trkpt lat="49.2804" lon="1.12037">
        <ele>89.1</ele>
        <time>2017-04-09T07:00:42Z</time>
      </trkpt>
      <trkpt lat="49.28031" lon="1.12043">
        <ele>90.2</ele>
        <time>2017-04-09T07:00:47Z</time>
      </trkpt>
      <trkpt lat="49.28022" lon="1.12048">
        <ele>91.5</ele>
        <time>2017-04-09T07:00:52Z</time>
      </trkpt>
      <trkpt lat="49.28013" lon="1.12046">
        <ele>92.8</ele>
        <time>2017-04-09T07:00:57Z</time>
      </trkpt>
      <trkpt lat="49.28003" lon="1.12045">
        <ele>94.1</ele>
        <time>2017-04-09T07:01:02Z</time>
      </trkpt>
      <trkpt lat="49.27993" lon="1.12045">
        <ele>95.6</ele>
        <time>2017-04-09T07:01:07Z</time>
      </trkpt>
      <trkpt lat="49.27984" lon="1.12043">
        <ele>97.1</ele>
        <time>2017-04-09T07:01:12Z</time>
      </trkpt>
      <trkpt lat="49.27974" lon="1.12042">
        <ele>98.5</ele>
        <time>2017-04-09T07:01:17Z</time>
      </trkpt>
      <trkpt lat="49.27964" lon="1.1204">
        <ele>99.9</ele>
        <time>2017-04-09T07:01:22Z</time>
      </trkpt>
      <trkpt lat="49.27955" lon="1.12038">
        <ele>100.9</ele>
        <time>2017-04-09T07:01:26Z</time>
      </trkpt>
      <trkpt lat="49.27944" lon="1.12035">
        <ele>102.2</ele>
        <time>2017-04-09T07:01:31Z</time>
      </trkpt>
      <trkpt lat="49.27933" lon="1.12032">
        <ele>103.6</ele>
        <time>2017-04-09T07:01:36Z</time>
      </trkpt>
      <trkpt lat="49.27923" lon="1.12029">
        <ele>105</ele>
        <time>2017-04-09T07:01:41Z</time>
      </trkpt>
      <trkpt lat="49.27912" lon="1.12027">
        <ele>106.4</ele>
        <time>2017-04-09T07:01:46Z</time>
      </trkpt>
      <trkpt lat="49.27903" lon="1.12024">
        <ele>107.6</ele>
        <time>2017-04-09T07:01:50Z</time>
      </trkpt>
      <trkpt lat="49.27891" lon="1.1202">
        <ele>108.6</ele>
        <time>2017-04-09T07:01:54Z</time>
      </trkpt>
      <trkpt lat="49.27881" lon="1.12016">
        <ele>109.3</ele>
        <time>2017-04-09T07:01:57Z</time>
      </trkpt>
      <trkpt lat="49.27871" lon="1.12013">
        <ele>109.9</ele>
        <time>2017-04-09T07:02:00Z</time>
      </trkpt>
      <trkpt lat="49.2786" lon="1.1201">
        <ele>110.5</ele>
        <time>2017-04-09T07:02:03Z</time>
      </trkpt>
      <trkpt lat="49.2785" lon="1.12007">
        <ele>111.1</ele>
        <time>2017-04-09T07:02:06Z</time>
      </trkpt>
      <trkpt lat="49.27839" lon="1.12004">
        <ele>111.6</ele>
        <time>2017-04-09T07:02:09Z</time>
      </trkpt>
      <trkpt lat="49.27828" lon="1.12002">
        <ele>112.1</ele>
        <time>2017-04-09T07:02:12Z</time>
      </trkpt>
      <trkpt lat="49.27817" lon="1.11999">
        <ele>112.5</ele>
        <time>2017-04-09T07:02:15Z</time>
      </trkpt>
      <trkpt lat="49.27805" lon="1.11996">
        <ele>113</ele>
        <time>2017-04-09T07:02:18Z</time>
      </trkpt>
      <trkpt lat="49.27795" lon="1.11994">
        <ele>113.4</ele>
        <time>2017-04-09T07:02:21Z</time>
      </trkpt>
      <trkpt lat="49.27786" lon="1.11991">
        <ele>113.7</ele>
        <time>2017-04-09T07:02:24Z</time>
      </trkpt>
      <trkpt lat="49.27777" lon="1.11988">
        <ele>114.1</ele>
        <time>2017-04-09T07:02:27Z</time>
      </trkpt>
      <trkpt lat="49.27768" lon="1.11986">
        <ele>114.5</ele>
        <time>2017-04-09T07:02:30Z</time>
      </trkpt>
      <trkpt lat="49.27758" lon="1.11983">
        <ele>114.9</ele>
        <time>2017-04-09T07:02:33Z</time>
      </trkpt>
      <trkpt lat="49.27748" lon="1.1198">
        <ele>115.2</ele>
        <time>2017-04-09T07:02:36Z</time>
      </trkpt>
      <trkpt lat="49.27738" lon="1.11976">
        <ele>115.5</ele>
        <time>2017-04-09T07:02:39Z</time>
      </trkpt>
      <trkpt lat="49.27728" lon="1.11975">
        <ele>115.8</ele>
        <time>2017-04-09T07:02:42Z</time>
      </trkpt>
      <trkpt lat="49.27717" lon="1.11973">
        <ele>116</ele>
        <time>2017-04-09T07:02:45Z</time>
      </trkpt>
      <trkpt lat="49.27707" lon="1.11971">
        <ele>116.2</ele>
        <time>2017-04-09T07:02:48Z</time>
      </trkpt>
      <trkpt lat="49.27696" lon="1.11969">
        <ele>116.4</ele>
        <time>2017-04-09T07:02:51Z</time>
      </trkpt>
      <trkpt lat="49.27685" lon="1.11968">
        <ele>116.6</ele>
        <time>2017-04-09T07:02:54Z</time>
      </trkpt>
      <trkpt lat="49.27675" lon="1.1197">
        <ele>116.8</ele>
        <time>2017-04-09T07:02:57Z</time>
      </trkpt>
      <trkpt lat="49.27665" lon="1.11973">
        <ele>117</ele>
        <time>2017-04-09T07:03:00Z</time>
      </trkpt>
      <trkpt lat="49.27656" lon="1.1197">
        <ele>117.2</ele>
        <time>2017-04-09T07:03:03Z</time>
      </trkpt>
      <trkpt lat="49.27657" lon="1.11951">
        <ele>117.3</ele>
        <time>2017-04-09T07:03:07Z</time>
      </trkpt>
      <trkpt lat="49.27658" lon="1.11936">
        <ele>117.4</ele>
        <time>2017-04-09T07:03:10Z</time>
      </trkpt>
      <trkpt lat="49.2766" lon="1.11918">
        <ele>117.5</ele>
        <time>2017-04-09T07:03:13Z</time>
      </trkpt>
      <trkpt lat="49.27662" lon="1.11898">
        <ele>117.6</ele>
        <time>2017-04-09T07:03:16Z</time>
      </trkpt>
      <trkpt lat="49.27663" lon="1.11883">
        <ele>117.5</ele>
        <time>2017-04-09T07:03:18Z</time>
      </trkpt>
      <trkpt lat="49.27664" lon="1.11865">
        <ele>117.3</ele>
        <time>2017-04-09T07:03:20Z</time>
      </trkpt>
      <trkpt lat="49.27666" lon="1.11845">
        <ele>117.2</ele>
        <time>2017-04-09T07:03:22Z</time>
      </trkpt>
      <trkpt lat="49.27668" lon="1.11824">
        <ele>116.7</ele>
        <time>2017-04-09T07:03:24Z</time>
      </trkpt>
      <trkpt lat="49.27671" lon="1.11802">
        <ele>116</ele>
        <time>2017-04-09T07:03:26Z</time>
      </trkpt>
      <trkpt lat="49.27673" lon="1.11785">
        <ele>115.2</ele>
        <time>2017-04-09T07:03:28Z</time>
      </trkpt>
      <trkpt lat="49.27675" lon="1.11771">
        <ele>114.3</ele>
        <time>2017-04-09T07:03:30Z</time>
      </trkpt>
      <trkpt lat="49.27677" lon="1.11756">
        <ele>113.1</ele>
        <time>2017-04-09T07:03:32Z</time>
      </trkpt>
      <trkpt lat="49.27679" lon="1.11739">
        <ele>111.7</ele>
        <time>2017-04-09T07:03:34Z</time>
      </trkpt>
      <trkpt lat="49.27679" lon="1.11721">
        <ele>110</ele>
        <time>2017-04-09T07:03:36Z</time>
      </trkpt>
      <trkpt lat="49.27681" lon="1.117">
        <ele>108</ele>
        <time>2017-04-09T07:03:38Z</time>
      </trkpt>
      <trkpt lat="49.27682" lon="1.11679">
        <ele>105.7</ele>
        <time>2017-04-09T07:03:40Z</time>
      </trkpt>
      <trkpt lat="49.27686" lon="1.11652">
        <ele>103.5</ele>
        <time>2017-04-09T07:03:42Z</time>
      </trkpt>
      <trkpt lat="49.2769" lon="1.11629">
        <ele>101.2</ele>
        <time>2017-04-09T07:03:44Z</time>
      </trkpt>
      <trkpt lat="49.27684" lon="1.11617">
        <ele>98.1</ele>
        <time>2017-04-09T07:03:47Z</time>
      </trkpt>
      <trkpt lat="49.27674" lon="1.11624">
        <ele>95.6</ele>
        <time>2017-04-09T07:03:50Z</time>
      </trkpt>
      <trkpt lat="49.27666" lon="1.11632">
        <ele>94.2</ele>
        <time>2017-04-09T07:03:52Z</time>
      </trkpt>
      <trkpt lat="49.27657" lon="1.1164">
        <ele>92.9</ele>
        <time>2017-04-09T07:03:54Z</time>
      </trkpt>
      <trkpt lat="49.27649" lon="1.11649">
        <ele>91.8</ele>
        <time>2017-04-09T07:03:56Z</time>
      </trkpt>
      <trkpt lat="49.2764" lon="1.11657">
        <ele>90.8</ele>
        <time>2017-04-09T07:03:58Z</time>
      </trkpt>
      <trkpt lat="49.27632" lon="1.11665">
        <ele>90.1</ele>
        <time>2017-04-09T07:04:00Z</time>
      </trkpt>
      <trkpt lat="49.27623" lon="1.11673">
        <ele>89.5</ele>
        <time>2017-04-09T07:04:02Z</time>
      </trkpt>
      <trkpt lat="49.27611" lon="1.1168">
        <ele>88.7</ele>
        <time>2017-04-09T07:04:05Z</time>
      </trkpt>
      <trkpt lat="49.27602" lon="1.11685">
        <ele>88.4</ele>
        <time>2017-04-09T07:04:07Z</time>
      </trkpt>
      <trkpt lat="49.27593" lon="1.11688">
        <ele>88.2</ele>
        <time>2017-04-09T07:04:09Z</time>
      </trkpt>
      <trkpt lat="49.27584" lon="1.1169">
        <ele>87.9</ele>
        <time>2017-04-09T07:04:11Z</time>
      </trkpt>
      <trkpt lat="49.27571" lon="1.1169">
        <ele>87.7</ele>
        <time>2017-04-09T07:04:14Z</time>
      </trkpt>
      <trkpt lat="49.27557" lon="1.11692">
        <ele>87.6</ele>
        <time>2017-04-09T07:04:17Z</time>
      </trkpt>
      <trkpt lat="49.27544" lon="1.11695">
        <ele>87.6</ele>
        <time>2017-04-09T07:04:20Z</time>
      </trkpt>
      <trkpt lat="49.27532" lon="1.11701">
        <ele>87.7</ele>
        <time>2017-04-09T07:04:23Z</time>
      </trkpt>
      <trkpt lat="49.27519" lon="1.11708">
        <ele>87.9</ele>
        <time>2017-04-09T07:04:26Z</time>
      </trkpt>
      <trkpt lat="49.27508" lon="1.11715">
        <ele>88.2</ele>
        <time>2017-04-09T07:04:29Z</time>
      </trkpt>
      <trkpt lat="49.27497" lon="1.11726">
        <ele>88.5</ele>
        <time>2017-04-09T07:04:32Z</time>
      </trkpt>
      <trkpt lat="49.27489" lon="1.11738">
        <ele>88.8</ele>
        <time>2017-04-09T07:04:35Z</time>
      </trkpt>
      <trkpt lat="49.27482" lon="1.11752">
        <ele>89.2</ele>
        <time>2017-04-09T07:04:38Z</time>
      </trkpt>
      <trkpt lat="49.27475" lon="1.11767">
        <ele>89.7</ele>
        <time>2017-04-09T07:04:41Z</time>
      </trkpt>
      <trkpt lat="49.27468" lon="1.1178">
        <ele>90.1</ele>
        <time>2017-04-09T07:04:44Z</time>
      </trkpt>
      <trkpt lat="49.27461" lon="1.11793">
        <ele>90.5</ele>
        <time>2017-04-09T07:04:47Z</time>
      </trkpt>
      <trkpt lat="49.27455" lon="1.11805">
        <ele>90.9</ele>
        <time>2017-04-09T07:04:50Z</time>
      </trkpt>
      <trkpt lat="49.27449" lon="1.1182">
        <ele>91.3</ele>
        <time>2017-04-09T07:04:53Z</time>
      </trkpt>
      <trkpt lat="49.27443" lon="1.11835">
        <ele>91.8</ele>
        <time>2017-04-09T07:04:56Z</time>
      </trkpt>
      <trkpt lat="49.27439" lon="1.11852">
        <ele>92.4</ele>
        <time>2017-04-09T07:04:59Z</time>
      </trkpt>
      <trkpt lat="49.27434" lon="1.11872">
        <ele>93</ele>
        <time>2017-04-09T07:05:02Z</time>
      </trkpt>
      <trkpt lat="49.27431" lon="1.11889">
        <ele>93.5</ele>
        <time>2017-04-09T07:05:05Z</time>
      </trkpt>
      <trkpt lat="49.27428" lon="1.11905">
        <ele>94.1</ele>
        <time>2017-04-09T07:05:08Z</time>
      </trkpt>
      <trkpt lat="49.27425" lon="1.11921">
        <ele>94.8</ele>
        <time>2017-04-09T07:05:11Z</time>
      </trkpt>
      <trkpt lat="49.27422" lon="1.11937">
        <ele>95.4</ele>
        <time>2017-04-09T07:05:14Z</time>
      </trkpt>
      <trkpt lat="49.27419" lon="1.11951">
        <ele>96.1</ele>
        <time>2017-04-09T07:05:17Z</time>
      </trkpt>
      <trkpt lat="49.27415" lon="1.11965">
        <ele>96.7</ele>
        <time>2017-04-09T07:05:20Z</time>
      </trkpt>
      <trkpt lat="49.27411" lon="1.11978">
        <ele>97.3</ele>
        <time>2017-04-09T07:05:23Z</time>
      </trkpt>
      <trkpt lat="49.27406" lon="1.11994">
        <ele>98.1</ele>
        <time>2017-04-09T07:05:27Z</time>
      </trkpt>
      <trkpt lat="49.27401" lon="1.12007">
        <ele>98.8</ele>
        <time>2017-04-09T07:05:30Z</time>
      </trkpt>
      <trkpt lat="49.27396" lon="1.1202">
        <ele>99.5</ele>
        <time>2017-04-09T07:05:33Z</time>
      </trkpt>
      <trkpt lat="49.27392" lon="1.12033">
        <ele>100.2</ele>
        <time>2017-04-09T07:05:36Z</time>
      </trkpt>
      <trkpt lat="49.27388" lon="1.12046">
        <ele>100.9</ele>
        <time>2017-04-09T07:05:39Z</time>
      </trkpt>
      <trkpt lat="49.27382" lon="1.12061">
        <ele>101.8</ele>
        <time>2017-04-09T07:05:43Z</time>
      </trkpt>
      <trkpt lat="49.27376" lon="1.12077">
        <ele>102.7</ele>
        <time>2017-04-09T07:05:47Z</time>
      </trkpt>
      <trkpt lat="49.2737" lon="1.12093">
        <ele>103.6</ele>
        <time>2017-04-09T07:05:51Z</time>
      </trkpt>
      <trkpt lat="49.27365" lon="1.12106">
        <ele>104.3</ele>
        <time>2017-04-09T07:05:54Z</time>
      </trkpt>
      <trkpt lat="49.27359" lon="1.12118">
        <ele>104.9</ele>
        <time>2017-04-09T07:05:57Z</time>
      </trkpt>
      <trkpt lat="49.27351" lon="1.12132">
        <ele>105.8</ele>
        <time>2017-04-09T07:06:01Z</time>
      </trkpt>
      <trkpt lat="49.27344" lon="1.12145">
        <ele>106.7</ele>
        <time>2017-04-09T07:06:05Z</time>
      </trkpt>
      <trkpt lat="49.27339" lon="1.12156">
        <ele>107.4</ele>
        <time>2017-04-09T07:06:08Z</time>
      </trkpt>
      <trkpt lat="49.27333" lon="1.12167">
        <ele>108</ele>
        <time>2017-04-09T07:06:11Z</time>
      </trkpt>
      <trkpt lat="49.27325" lon="1.12182">
        <ele>108.5</ele>
        <time>2017-04-09T07:06:14Z</time>
      </trkpt>
      <trkpt lat="49.27318" lon="1.12194">
        <ele>109.1</ele>
        <time>2017-04-09T07:06:17Z</time>
      </trkpt>
      <trkpt lat="49.27311" lon="1.12208">
        <ele>109.6</ele>
        <time>2017-04-09T07:06:20Z</time>
      </trkpt>
      <trkpt lat="49.27304" lon="1.1222">
        <ele>110.1</ele>
        <time>2017-04-09T07:06:23Z</time>
      </trkpt>
      <trkpt lat="49.27297" lon="1.12236">
        <ele>110.7</ele>
        <time>2017-04-09T07:06:26Z</time>
      </trkpt>
      <trkpt lat="49.27291" lon="1.12252">
        <ele>111.3</ele>
        <time>2017-04-09T07:06:29Z</time>
      </trkpt>
      <trkpt lat="49.27287" lon="1.12265">
        <ele>111.6</ele>
        <time>2017-04-09T07:06:31Z</time>
      </trkpt>
      <trkpt lat="49.27284" lon="1.12283">
        <ele>112.2</ele>
        <time>2017-04-09T07:06:34Z</time>
      </trkpt>
      <trkpt lat="49.27281" lon="1.12301">
        <ele>112.7</ele>
        <time>2017-04-09T07:06:37Z</time>
      </trkpt>
      <trkpt lat="49.27279" lon="1.12319">
        <ele>113.3</ele>
        <time>2017-04-09T07:06:40Z</time>
      </trkpt>
      <trkpt lat="49.27276" lon="1.12336">
        <ele>113.7</ele>
        <time>2017-04-09T07:06:43Z</time>
      </trkpt>
      <trkpt lat="49.27273" lon="1.12352">
        <ele>114.3</ele>
        <time>2017-04-09T07:06:46Z</time>
      </trkpt>
      <trkpt lat="49.27269" lon="1.12367">
        <ele>114.8</ele>
        <time>2017-04-09T07:06:49Z</time>
      </trkpt>
      <trkpt lat="49.27266" lon="1.12383">
        <ele>115.2</ele>
        <time>2017-04-09T07:06:52Z</time>
      </trkpt>
      <trkpt lat="49.27262" lon="1.12399">
        <ele>115.5</ele>
        <time>2017-04-09T07:06:55Z</time>
      </trkpt>
      <trkpt lat="49.27259" lon="1.12416">
        <ele>115.9</ele>
        <time>2017-04-09T07:06:58Z</time>
      </trkpt>
      <trkpt lat="49.27255" lon="1.12433">
        <ele>116.2</ele>
        <time>2017-04-09T07:07:01Z</time>
      </trkpt>
      <trkpt lat="49.27251" lon="1.12448">
        <ele>116.6</ele>
        <time>2017-04-09T07:07:04Z</time>
      </trkpt>
      <trkpt lat="49.27247" lon="1.12464">
        <ele>117.1</ele>
        <time>2017-04-09T07:07:07Z</time>
      </trkpt>
      <trkpt lat="49.27244" lon="1.12483">
        <ele>117.5</ele>
        <time>2017-04-09T07:07:10Z</time>
      </trkpt>
      <trkpt lat="49.27243" lon="1.12498">
        <ele>118</ele>
        <time>2017-04-09T07:07:15Z</time>
      </trkpt>
      <trkpt lat="49.27239" lon="1.12515">
        <ele>118.5</ele>
        <time>2017-04-09T07:07:23Z</time>
      </trkpt>
      <trkpt lat="49.27237" lon="1.12531">
        <ele>118.7</ele>
        <time>2017-04-09T07:07:26Z</time>
      </trkpt>
      <trkpt lat="49.27234" lon="1.12546">
        <ele>118.8</ele>
        <time>2017-04-09T07:07:29Z</time>
      </trkpt>
      <trkpt lat="49.27229" lon="1.1256">
        <ele>118.9</ele>
        <time>2017-04-09T07:07:32Z</time>
      </trkpt>
      <trkpt lat="49.27223" lon="1.12577">
        <ele>119.1</ele>
        <time>2017-04-09T07:07:35Z</time>
      </trkpt>
      <trkpt lat="49.27219" lon="1.1259">
        <ele>119.1</ele>
        <time>2017-04-09T07:07:37Z</time>
      </trkpt>
      <trkpt lat="49.27215" lon="1.12604">
        <ele>119.3</ele>
        <time>2017-04-09T07:07:39Z</time>
      </trkpt>
      <trkpt lat="49.27211" lon="1.12616">
        <ele>119.5</ele>
        <time>2017-04-09T07:07:41Z</time>
      </trkpt>
      <trkpt lat="49.27208" lon="1.12636">
        <ele>119.8</ele>
        <time>2017-04-09T07:07:44Z</time>
      </trkpt>
      <trkpt lat="49.27205" lon="1.12656">
        <ele>120.2</ele>
        <time>2017-04-09T07:07:47Z</time>
      </trkpt>
      <trkpt lat="49.27203" lon="1.12676">
        <ele>120.5</ele>
        <time>2017-04-09T07:07:50Z</time>
      </trkpt>
      <trkpt lat="49.27202" lon="1.1269">
        <ele>120.7</ele>
        <time>2017-04-09T07:07:52Z</time>
      </trkpt>
      <trkpt lat="49.27199" lon="1.12711">
        <ele>121</ele>
        <time>2017-04-09T07:07:55Z</time>
      </trkpt>
      <trkpt lat="49.27199" lon="1.12725">
        <ele>121.2</ele>
        <time>2017-04-09T07:07:57Z</time>
      </trkpt>
      <trkpt lat="49.27196" lon="1.12743">
        <ele>121.4</ele>
        <time>2017-04-09T07:07:59Z</time>
      </trkpt>
      <trkpt lat="49.27195" lon="1.12758">
        <ele>121.6</ele>
        <time>2017-04-09T07:08:01Z</time>
      </trkpt>
      <trkpt lat="49.27193" lon="1.12774">
        <ele>121.7</ele>
        <time>2017-04-09T07:08:03Z</time>
      </trkpt>
      <trkpt lat="49.27192" lon="1.12789">
        <ele>121.9</ele>
        <time>2017-04-09T07:08:05Z</time>
      </trkpt>
      <trkpt lat="49.27191" lon="1.12804">
        <ele>122.1</ele>
        <time>2017-04-09T07:08:07Z</time>
      </trkpt>
      <trkpt lat="49.2719" lon="1.12819">
        <ele>122.2</ele>
        <time>2017-04-09T07:08:09Z</time>
      </trkpt>
      <trkpt lat="49.27189" lon="1.12834">
        <ele>122.4</ele>
        <time>2017-04-09T07:08:11Z</time>
      </trkpt>
      <trkpt lat="49.27188" lon="1.1285">
        <ele>122.5</ele>
        <time>2017-04-09T07:08:13Z</time>
      </trkpt>
      <trkpt lat="49.27185" lon="1.12867">
        <ele>122.7</ele>
        <time>2017-04-09T07:08:15Z</time>
      </trkpt>
      <trkpt lat="49.27181" lon="1.12881">
        <ele>122.8</ele>
        <time>2017-04-09T07:08:17Z</time>
      </trkpt>
      <trkpt lat="49.27177" lon="1.12894">
        <ele>122.9</ele>
        <time>2017-04-09T07:08:19Z</time>
      </trkpt>
      <trkpt lat="49.2717" lon="1.12913">
        <ele>123.2</ele>
        <time>2017-04-09T07:08:22Z</time>
      </trkpt>
      <trkpt lat="49.27165" lon="1.1293">
        <ele>123.4</ele>
        <time>2017-04-09T07:08:25Z</time>
      </trkpt>
      <trkpt lat="49.27161" lon="1.12945">
        <ele>123.5</ele>
        <time>2017-04-09T07:08:28Z</time>
      </trkpt>
      <trkpt lat="49.27154" lon="1.12961">
        <ele>123.7</ele>
        <time>2017-04-09T07:08:31Z</time>
      </trkpt>
      <trkpt lat="49.27148" lon="1.12978">
        <ele>123.9</ele>
        <time>2017-04-09T07:08:34Z</time>
      </trkpt>
      <trkpt lat="49.27144" lon="1.12991">
        <ele>124</ele>
        <time>2017-04-09T07:08:36Z</time>
      </trkpt>
      <trkpt lat="49.27141" lon="1.13009">
        <ele>124.1</ele>
        <time>2017-04-09T07:08:38Z</time>
      </trkpt>
      <trkpt lat="49.27139" lon="1.13024">
        <ele>124.2</ele>
        <time>2017-04-09T07:08:40Z</time>
      </trkpt>
      <trkpt lat="49.27136" lon="1.13043">
        <ele>124.3</ele>
        <time>2017-04-09T07:08:42Z</time>
      </trkpt>
      <trkpt lat="49.27134" lon="1.13059">
        <ele>124.4</ele>
        <time>2017-04-09T07:08:44Z</time>
      </trkpt>
      <trkpt lat="49.27132" lon="1.13075">
        <ele>124.5</ele>
        <time>2017-04-09T07:08:46Z</time>
      </trkpt>
      <trkpt lat="49.27131" lon="1.13094">
        <ele>124.7</ele>
        <time>2017-04-09T07:08:49Z</time>
      </trkpt>
      <trkpt lat="49.27129" lon="1.1311">
        <ele>124.8</ele>
        <time>2017-04-09T07:08:51Z</time>
      </trkpt>
      <trkpt lat="49.27127" lon="1.13126">
        <ele>124.9</ele>
        <time>2017-04-09T07:08:53Z</time>
      </trkpt>
      <trkpt lat="49.27125" lon="1.13144">
        <ele>124.9</ele>
        <time>2017-04-09T07:08:55Z</time>
      </trkpt>
      <trkpt lat="49.27122" lon="1.13162">
        <ele>125.1</ele>
        <time>2017-04-09T07:08:57Z</time>
      </trkpt>
      <trkpt lat="49.27119" lon="1.1318">
        <ele>125.2</ele>
        <time>2017-04-09T07:08:59Z</time>
      </trkpt>
      <trkpt lat="49.27117" lon="1.13197">
        <ele>125.3</ele>
        <time>2017-04-09T07:09:01Z</time>
      </trkpt>
      <trkpt lat="49.27113" lon="1.13217">
        <ele>125.4</ele>
        <time>2017-04-09T07:09:03Z</time>
      </trkpt>
      <trkpt lat="49.27112" lon="1.13236">
        <ele>125.4</ele>
        <time>2017-04-09T07:09:05Z</time>
      </trkpt>
      <trkpt lat="49.27109" lon="1.13254">
        <ele>125.5</ele>
        <time>2017-04-09T07:09:07Z</time>
      </trkpt>
      <trkpt lat="49.27107" lon="1.13272">
        <ele>125.6</ele>
        <time>2017-04-09T07:09:09Z</time>
      </trkpt>
      <trkpt lat="49.27105" lon="1.1329">
        <ele>125.6</ele>
        <time>2017-04-09T07:09:11Z</time>
      </trkpt>
      <trkpt lat="49.27102" lon="1.13307">
        <ele>125.7</ele>
        <time>2017-04-09T07:09:13Z</time>
      </trkpt>
      <trkpt lat="49.271" lon="1.13323">
        <ele>125.7</ele>
        <time>2017-04-09T07:09:15Z</time>
      </trkpt>
      <trkpt lat="49.27099" lon="1.13339">
        <ele>125.8</ele>
        <time>2017-04-09T07:09:17Z</time>
      </trkpt>
      <trkpt lat="49.27097" lon="1.13354">
        <ele>125.8</ele>
        <time>2017-04-09T07:09:19Z</time>
      </trkpt>
      <trkpt lat="49.27094" lon="1.13368">
        <ele>125.9</ele>
        <time>2017-04-09T07:09:21Z</time>
      </trkpt>
      <trkpt lat="49.27087" lon="1.13379">
        <ele>126</ele>
        <time>2017-04-09T07:09:23Z</time>
      </trkpt>
      <trkpt lat="49.27079" lon="1.13387">
        <ele>126.1</ele>
        <time>2017-04-09T07:09:25Z</time>
      </trkpt>
      <trkpt lat="49.27068" lon="1.13395">
        <ele>126.3</ele>
        <time>2017-04-09T07:09:28Z</time>
      </trkpt>
      <trkpt lat="49.2706" lon="1.13403">
        <ele>126.4</ele>
        <time>2017-04-09T07:09:30Z</time>
      </trkpt>
      <trkpt lat="49.27052" lon="1.13409">
        <ele>126.5</ele>
        <time>2017-04-09T07:09:32Z</time>
      </trkpt>
      <trkpt lat="49.27043" lon="1.13417">
        <ele>126.7</ele>
        <time>2017-04-09T07:09:34Z</time>
      </trkpt>
      <trkpt lat="49.27034" lon="1.13423">
        <ele>126.8</ele>
        <time>2017-04-09T07:09:36Z</time>
      </trkpt>
      <trkpt lat="49.27023" lon="1.13431">
        <ele>127</ele>
        <time>2017-04-09T07:09:39Z</time>
      </trkpt>
      <trkpt lat="49.27014" lon="1.13435">
        <ele>127.1</ele>
        <time>2017-04-09T07:09:41Z</time>
      </trkpt>
      <trkpt lat="49.27005" lon="1.13441">
        <ele>127.3</ele>
        <time>2017-04-09T07:09:43Z</time>
      </trkpt>
      <trkpt lat="49.26994" lon="1.13445">
        <ele>127.5</ele>
        <time>2017-04-09T07:09:45Z</time>
      </trkpt>
      <trkpt lat="49.26984" lon="1.1345">
        <ele>127.7</ele>
        <time>2017-04-09T07:09:47Z</time>
      </trkpt>
      <trkpt lat="49.26973" lon="1.13455">
        <ele>127.9</ele>
        <time>2017-04-09T07:09:49Z</time>
      </trkpt>
      <trkpt lat="49.26963" lon="1.13459">
        <ele>128</ele>
        <time>2017-04-09T07:09:51Z</time>
      </trkpt>
      <trkpt lat="49.26952" lon="1.13463">
        <ele>128.2</ele>
        <time>2017-04-09T07:09:53Z</time>
      </trkpt>
      <trkpt lat="49.26942" lon="1.13465">
        <ele>128.3</ele>
        <time>2017-04-09T07:09:55Z</time>
      </trkpt>
      <trkpt lat="49.26931" lon="1.13467">
        <ele>128.4</ele>
        <time>2017-04-09T07:09:57Z</time>
      </trkpt>
      <trkpt lat="49.26919" lon="1.13467">
        <ele>128.5</ele>
        <time>2017-04-09T07:09:59Z</time>
      </trkpt>
      <trkpt lat="49.26906" lon="1.13466">
        <ele>128.6</ele>
        <time>2017-04-09T07:10:01Z</time>
      </trkpt>
      <trkpt lat="49.26894" lon="1.13462">
        <ele>128.7</ele>
        <time>2017-04-09T07:10:03Z</time>
      </trkpt>
      <trkpt lat="49.26883" lon="1.13458">
        <ele>128.8</ele>
        <time>2017-04-09T07:10:05Z</time>
      </trkpt>
      <trkpt lat="49.26872" lon="1.13454">
        <ele>128.9</ele>
        <time>2017-04-09T07:10:07Z</time>
      </trkpt>
      <trkpt lat="49.26861" lon="1.1345">
        <ele>128.9</ele>
        <time>2017-04-09T07:10:09Z</time>
      </trkpt>
      <trkpt lat="49.26851" lon="1.13445">
        <ele>129</ele>
        <time>2017-04-09T07:10:11Z</time>
      </trkpt>
      <trkpt lat="49.26839" lon="1.13441">
        <ele>129</ele>
        <time>2017-04-09T07:10:13Z</time>
      </trkpt>
      <trkpt lat="49.26828" lon="1.13436">
        <ele>129</ele>
        <time>2017-04-09T07:10:15Z</time>
      </trkpt>
      <trkpt lat="49.26817" lon="1.13431">
        <ele>129.1</ele>
        <time>2017-04-09T07:10:17Z</time>
      </trkpt>
      <trkpt lat="49.26804" lon="1.13425">
        <ele>129.1</ele>
        <time>2017-04-09T07:10:19Z</time>
      </trkpt>
      <trkpt lat="49.26792" lon="1.13418">
        <ele>129.1</ele>
        <time>2017-04-09T07:10:21Z</time>
      </trkpt>
      <trkpt lat="49.26779" lon="1.13414">
        <ele>129.2</ele>
        <time>2017-04-09T07:10:23Z</time>
      </trkpt>
      <trkpt lat="49.26767" lon="1.13409">
        <ele>129.2</ele>
        <time>2017-04-09T07:10:25Z</time>
      </trkpt>
      <trkpt lat="49.26755" lon="1.13403">
        <ele>129.2</ele>
        <time>2017-04-09T07:10:27Z</time>
      </trkpt>
      <trkpt lat="49.26742" lon="1.13396">
        <ele>129.2</ele>
        <time>2017-04-09T07:10:29Z</time>
      </trkpt>
      <trkpt lat="49.26728" lon="1.13391">
        <ele>129.2</ele>
        <time>2017-04-09T07:10:31Z</time>
      </trkpt>
      <trkpt lat="49.26715" lon="1.13385">
        <ele>129.1</ele>
        <time>2017-04-09T07:10:33Z</time>
      </trkpt>
      <trkpt lat="49.26702" lon="1.13379">
        <ele>129.1</ele>
        <time>2017-04-09T07:10:35Z</time>
      </trkpt>
      <trkpt lat="49.2669" lon="1.13373">
        <ele>129.1</ele>
        <time>2017-04-09T07:10:37Z</time>
      </trkpt>
      <trkpt lat="49.26676" lon="1.13367">
        <ele>129</ele>
        <time>2017-04-09T07:10:39Z</time>
      </trkpt>
      <trkpt lat="49.26662" lon="1.13361">
        <ele>129</ele>
        <time>2017-04-09T07:10:41Z</time>
      </trkpt>
      <trkpt lat="49.26649" lon="1.13355">
        <ele>129</ele>
        <time>2017-04-09T07:10:43Z</time>
      </trkpt>
      <trkpt lat="49.26634" lon="1.13348">
        <ele>128.9</ele>
        <time>2017-04-09T07:10:45Z</time>
      </trkpt>
      <trkpt lat="49.26619" lon="1.13341">
        <ele>128.9</ele>
        <time>2017-04-09T07:10:47Z</time>
      </trkpt>
      <trkpt lat="49.26603" lon="1.13333">
        <ele>128.7</ele>
        <time>2017-04-09T07:10:49Z</time>
      </trkpt>
      <trkpt lat="49.26589" lon="1.13327">
        <ele>128.6</ele>
        <time>2017-04-09T07:10:51Z</time>
      </trkpt>
      <trkpt lat="49.26573" lon="1.13319">
        <ele>128.4</ele>
        <time>2017-04-09T07:10:53Z</time>
      </trkpt>
      <trkpt lat="49.26558" lon="1.13312">
        <ele>128.2</ele>
        <time>2017-04-09T07:10:55Z</time>
      </trkpt>
      <trkpt lat="49.26543" lon="1.13307">
        <ele>128</ele>
        <time>2017-04-09T07:10:57Z</time>
      </trkpt>
      <trkpt lat="49.26527" lon="1.13302">
        <ele>127.7</ele>
        <time>2017-04-09T07:10:59Z</time>
      </trkpt>
      <trkpt lat="49.26512" lon="1.13295">
        <ele>127.4</ele>
        <time>2017-04-09T07:11:01Z</time>
      </trkpt>
      <trkpt lat="49.26497" lon="1.13287">
        <ele>127.2</ele>
        <time>2017-04-09T07:11:03Z</time>
      </trkpt>
      <trkpt lat="49.26483" lon="1.1328">
        <ele>126.9</ele>
        <time>2017-04-09T07:11:05Z</time>
      </trkpt>
      <trkpt lat="49.26468" lon="1.13272">
        <ele>126.7</ele>
        <time>2017-04-09T07:11:07Z</time>
      </trkpt>
      <trkpt lat="49.26454" lon="1.13266">
        <ele>126.5</ele>
        <time>2017-04-09T07:11:09Z</time>
      </trkpt>
      <trkpt lat="49.26441" lon="1.13259">
        <ele>126.2</ele>
        <time>2017-04-09T07:11:11Z</time>
      </trkpt>
      <trkpt lat="49.26427" lon="1.13255">
        <ele>126</ele>
        <time>2017-04-09T07:11:13Z</time>
      </trkpt>
      <trkpt lat="49.26415" lon="1.13251">
        <ele>125.7</ele>
        <time>2017-04-09T07:11:15Z</time>
      </trkpt>
      <trkpt lat="49.26406" lon="1.13246">
        <ele>125.5</ele>
        <time>2017-04-09T07:11:17Z</time>
      </trkpt>
      <trkpt lat="49.26397" lon="1.1324">
        <ele>125.3</ele>
        <time>2017-04-09T07:11:19Z</time>
      </trkpt>
      <trkpt lat="49.26388" lon="1.13236">
        <ele>124.9</ele>
        <time>2017-04-09T07:11:21Z</time>
      </trkpt>
      <trkpt lat="49.26379" lon="1.13232">
        <ele>124.6</ele>
        <time>2017-04-09T07:11:23Z</time>
      </trkpt>
      <trkpt lat="49.2637" lon="1.13228">
        <ele>124.2</ele>
        <time>2017-04-09T07:11:25Z</time>
      </trkpt>
      <trkpt lat="49.26357" lon="1.13223">
        <ele>123.8</ele>
        <time>2017-04-09T07:11:28Z</time>
      </trkpt>
      <trkpt lat="49.26345" lon="1.13217">
        <ele>123.4</ele>
        <time>2017-04-09T07:11:31Z</time>
      </trkpt>
      <trkpt lat="49.26332" lon="1.13211">
        <ele>123.2</ele>
        <time>2017-04-09T07:11:34Z</time>
      </trkpt>
      <trkpt lat="49.26323" lon="1.13207">
        <ele>123</ele>
        <time>2017-04-09T07:11:36Z</time>
      </trkpt>
      <trkpt lat="49.26315" lon="1.13203">
        <ele>122.9</ele>
        <time>2017-04-09T07:11:38Z</time>
      </trkpt>
      <trkpt lat="49.26302" lon="1.13198">
        <ele>122.4</ele>
        <time>2017-04-09T07:11:41Z</time>
      </trkpt>
      <trkpt lat="49.2629" lon="1.13192">
        <ele>122.1</ele>
        <time>2017-04-09T07:11:44Z</time>
      </trkpt>
      <trkpt lat="49.26277" lon="1.13187">
        <ele>121.9</ele>
        <time>2017-04-09T07:11:47Z</time>
      </trkpt>
      <trkpt lat="49.26268" lon="1.13182">
        <ele>121.7</ele>
        <time>2017-04-09T07:11:49Z</time>
      </trkpt>
      <trkpt lat="49.26258" lon="1.13178">
        <ele>121.6</ele>
        <time>2017-04-09T07:11:51Z</time>
      </trkpt>
      <trkpt lat="49.26248" lon="1.13173">
        <ele>121.5</ele>
        <time>2017-04-09T07:11:53Z</time>
      </trkpt>
      <trkpt lat="49.26237" lon="1.13169">
        <ele>121.4</ele>
        <time>2017-04-09T07:11:55Z</time>
      </trkpt>
      <trkpt lat="49.26226" lon="1.13167">
        <ele>121.3</ele>
        <time>2017-04-09T07:11:57Z</time>
      </trkpt>
      <trkpt lat="49.26216" lon="1.13162">
        <ele>121.2</ele>
        <time>2017-04-09T07:11:59Z</time>
      </trkpt>
      <trkpt lat="49.26204" lon="1.13156">
        <ele>121.1</ele>
        <time>2017-04-09T07:12:02Z</time>
      </trkpt>
      <trkpt lat="49.26195" lon="1.13149">
        <ele>120.9</ele>
        <time>2017-04-09T07:12:06Z</time>
      </trkpt>
      <trkpt lat="49.26186" lon="1.13142">
        <ele>120.6</ele>
        <time>2017-04-09T07:12:11Z</time>
      </trkpt>
      <trkpt lat="49.26175" lon="1.13137">
        <ele>120.5</ele>
        <time>2017-04-09T07:12:15Z</time>
      </trkpt>
      <trkpt lat="49.26163" lon="1.13131">
        <ele>120.4</ele>
        <time>2017-04-09T07:12:18Z</time>
      </trkpt>
      <trkpt lat="49.26154" lon="1.13128">
        <ele>120.4</ele>
        <time>2017-04-09T07:12:20Z</time>
      </trkpt>
      <trkpt lat="49.26145" lon="1.13124">
        <ele>120.3</ele>
        <time>2017-04-09T07:12:22Z</time>
      </trkpt>
      <trkpt lat="49.26135" lon="1.13119">
        <ele>120.4</ele>
        <time>2017-04-09T07:12:24Z</time>
      </trkpt>
      <trkpt lat="49.26125" lon="1.13114">
        <ele>120.4</ele>
        <time>2017-04-09T07:12:26Z</time>
      </trkpt>
      <trkpt lat="49.26115" lon="1.1311">
        <ele>120.5</ele>
        <time>2017-04-09T07:12:28Z</time>
      </trkpt>
      <trkpt lat="49.26105" lon="1.13107">
        <ele>120.7</ele>
        <time>2017-04-09T07:12:30Z</time>
      </trkpt>
      <trkpt lat="49.26095" lon="1.13104">
        <ele>120.8</ele>
        <time>2017-04-09T07:12:32Z</time>
      </trkpt>
      <trkpt lat="49.26084" lon="1.131">
        <ele>120.9</ele>
        <time>2017-04-09T07:12:34Z</time>
      </trkpt>
      <trkpt lat="49.26075" lon="1.13095">
        <ele>121</ele>
        <time>2017-04-09T07:12:36Z</time>
      </trkpt>
      <trkpt lat="49.26066" lon="1.1309">
        <ele>121.2</ele>
        <time>2017-04-09T07:12:38Z</time>
      </trkpt>
      <trkpt lat="49.26057" lon="1.13084">
        <ele>121.2</ele>
        <time>2017-04-09T07:12:40Z</time>
      </trkpt>
      <trkpt lat="49.26049" lon="1.13078">
        <ele>121.3</ele>
        <time>2017-04-09T07:12:42Z</time>
      </trkpt>
      <trkpt lat="49.2604" lon="1.13072">
        <ele>121.4</ele>
        <time>2017-04-09T07:12:44Z</time>
      </trkpt>
      <trkpt lat="49.26028" lon="1.13066">
        <ele>121.4</ele>
        <time>2017-04-09T07:12:47Z</time>
      </trkpt>
      <trkpt lat="49.26014" lon="1.13063">
        <ele>121.4</ele>
        <time>2017-04-09T07:12:50Z</time>
      </trkpt>
      <trkpt lat="49.26006" lon="1.1306">
        <ele>121.4</ele>
        <time>2017-04-09T07:12:52Z</time>
      </trkpt>
      <trkpt lat="49.25996" lon="1.13057">
        <ele>121.5</ele>
        <time>2017-04-09T07:12:54Z</time>
      </trkpt>
      <trkpt lat="49.25987" lon="1.13052">
        <ele>121.5</ele>
        <time>2017-04-09T07:12:56Z</time>
      </trkpt>
      <trkpt lat="49.25979" lon="1.13048">
        <ele>121.6</ele>
        <time>2017-04-09T07:12:58Z</time>
      </trkpt>
      <trkpt lat="49.2597" lon="1.13042">
        <ele>121.6</ele>
        <time>2017-04-09T07:13:00Z</time>
      </trkpt>
      <trkpt lat="49.25962" lon="1.13037">
        <ele>121.6</ele>
        <time>2017-04-09T07:13:02Z</time>
      </trkpt>
      <trkpt lat="49.25952" lon="1.13032">
        <ele>121.6</ele>
        <time>2017-04-09T07:13:04Z</time>
      </trkpt>
      <trkpt lat="49.25944" lon="1.13028">
        <ele>121.6</ele>
        <time>2017-04-09T07:13:06Z</time>
      </trkpt>
      <trkpt lat="49.25931" lon="1.13025">
        <ele>121.6</ele>
        <time>2017-04-09T07:13:09Z</time>
      </trkpt>
      <trkpt lat="49.25917" lon="1.13021">
        <ele>121.6</ele>
        <time>2017-04-09T07:13:12Z</time>
      </trkpt>
      <trkpt lat="49.25908" lon="1.13017">
        <ele>121.7</ele>
        <time>2017-04-09T07:13:14Z</time>
      </trkpt>
      <trkpt lat="49.25898" lon="1.13013">
        <ele>121.7</ele>
        <time>2017-04-09T07:13:16Z</time>
      </trkpt>
      <trkpt lat="49.25888" lon="1.13007">
        <ele>121.8</ele>
        <time>2017-04-09T07:13:18Z</time>
      </trkpt>
      <trkpt lat="49.25879" lon="1.13001">
        <ele>121.8</ele>
        <time>2017-04-09T07:13:20Z</time>
      </trkpt>
      <trkpt lat="49.25866" lon="1.12997">
        <ele>121.8</ele>
        <time>2017-04-09T07:13:23Z</time>
      </trkpt>
      <trkpt lat="49.25857" lon="1.12994">
        <ele>121.7</ele>
        <time>2017-04-09T07:13:25Z</time>
      </trkpt>
      <trkpt lat="49.25848" lon="1.12992">
        <ele>121.6</ele>
        <time>2017-04-09T07:13:27Z</time>
      </trkpt>
      <trkpt lat="49.25835" lon="1.12989">
        <ele>121.5</ele>
        <time>2017-04-09T07:13:30Z</time>
      </trkpt>
      <trkpt lat="49.25824" lon="1.12984">
        <ele>121.4</ele>
        <time>2017-04-09T07:13:33Z</time>
      </trkpt>
      <trkpt lat="49.25811" lon="1.12976">
        <ele>121.3</ele>
        <time>2017-04-09T07:13:36Z</time>
      </trkpt>
      <trkpt lat="49.25802" lon="1.12971">
        <ele>121.2</ele>
        <time>2017-04-09T07:13:38Z</time>
      </trkpt>
      <trkpt lat="49.25792" lon="1.12967">
        <ele>121.2</ele>
        <time>2017-04-09T07:13:40Z</time>
      </trkpt>
      <trkpt lat="49.25781" lon="1.12963">
        <ele>121.1</ele>
        <time>2017-04-09T07:13:43Z</time>
      </trkpt>
      <trkpt lat="49.2577" lon="1.12956">
        <ele>121</ele>
        <time>2017-04-09T07:13:46Z</time>
      </trkpt>
      <trkpt lat="49.25759" lon="1.12949">
        <ele>120.9</ele>
        <time>2017-04-09T07:13:49Z</time>
      </trkpt>
      <trkpt lat="49.25746" lon="1.12943">
        <ele>120.8</ele>
        <time>2017-04-09T07:13:52Z</time>
      </trkpt>
      <trkpt lat="49.25735" lon="1.12935">
        <ele>120.7</ele>
        <time>2017-04-09T07:13:55Z</time>
      </trkpt>
      <trkpt lat="49.25724" lon="1.12927">
        <ele>120.7</ele>
        <time>2017-04-09T07:13:58Z</time>
      </trkpt>
      <trkpt lat="49.25715" lon="1.12922">
        <ele>120.6</ele>
        <time>2017-04-09T07:14:00Z</time>
      </trkpt>
      <trkpt lat="49.25706" lon="1.12918">
        <ele>120.5</ele>
        <time>2017-04-09T07:14:02Z</time>
      </trkpt>
      <trkpt lat="49.25697" lon="1.12915">
        <ele>120.4</ele>
        <time>2017-04-09T07:14:04Z</time>
      </trkpt>
      <trkpt lat="49.25688" lon="1.1291">
        <ele>120.3</ele>
        <time>2017-04-09T07:14:06Z</time>
      </trkpt>
      <trkpt lat="49.25678" lon="1.12905">
        <ele>120.2</ele>
        <time>2017-04-09T07:14:08Z</time>
      </trkpt>
      <trkpt lat="49.25668" lon="1.12901">
        <ele>120.1</ele>
        <time>2017-04-09T07:14:10Z</time>
      </trkpt>
      <trkpt lat="49.25659" lon="1.12897">
        <ele>120</ele>
        <time>2017-04-09T07:14:12Z</time>
      </trkpt>
      <trkpt lat="49.2565" lon="1.12896">
        <ele>119.8</ele>
        <time>2017-04-09T07:14:14Z</time>
      </trkpt>
      <trkpt lat="49.2564" lon="1.12892">
        <ele>119.7</ele>
        <time>2017-04-09T07:14:16Z</time>
      </trkpt>
      <trkpt lat="49.25631" lon="1.12886">
        <ele>119.4</ele>
        <time>2017-04-09T07:14:18Z</time>
      </trkpt>
      <trkpt lat="49.25622" lon="1.12883">
        <ele>119.2</ele>
        <time>2017-04-09T07:14:20Z</time>
      </trkpt>
      <trkpt lat="49.25613" lon="1.12879">
        <ele>119</ele>
        <time>2017-04-09T07:14:22Z</time>
      </trkpt>
      <trkpt lat="49.256" lon="1.12875">
        <ele>118.8</ele>
        <time>2017-04-09T07:14:25Z</time>
      </trkpt>
      <trkpt lat="49.25592" lon="1.12888">
        <ele>118.6</ele>
        <time>2017-04-09T07:14:28Z</time>
      </trkpt>
      <trkpt lat="49.25588" lon="1.12907">
        <ele>118.3</ele>
        <time>2017-04-09T07:14:31Z</time>
      </trkpt>
      <trkpt lat="49.25585" lon="1.12921">
        <ele>118.2</ele>
        <time>2017-04-09T07:14:33Z</time>
      </trkpt>
      <trkpt lat="49.25582" lon="1.1294">
        <ele>118.1</ele>
        <time>2017-04-09T07:14:36Z</time>
      </trkpt>
      <trkpt lat="49.2558" lon="1.12953">
        <ele>117.9</ele>
        <time>2017-04-09T07:14:38Z</time>
      </trkpt>
      <trkpt lat="49.25577" lon="1.12967">
        <ele>117.8</ele>
        <time>2017-04-09T07:14:40Z</time>
      </trkpt>
      <trkpt lat="49.25575" lon="1.1298">
        <ele>117.7</ele>
        <time>2017-04-09T07:14:42Z</time>
      </trkpt>
      <trkpt lat="49.25572" lon="1.12995">
        <ele>117.6</ele>
        <time>2017-04-09T07:14:44Z</time>
      </trkpt>
      <trkpt lat="49.25569" lon="1.1301">
        <ele>117.6</ele>
        <time>2017-04-09T07:14:46Z</time>
      </trkpt>
      <trkpt lat="49.25565" lon="1.13027">
        <ele>117.6</ele>
        <time>2017-04-09T07:14:48Z</time>
      </trkpt>
      <trkpt lat="49.25562" lon="1.13044">
        <ele>117.6</ele>
        <time>2017-04-09T07:14:50Z</time>
      </trkpt>
      <trkpt lat="49.25558" lon="1.1306">
        <ele>117.7</ele>
        <time>2017-04-09T07:14:52Z</time>
      </trkpt>
      <trkpt lat="49.25555" lon="1.13077">
        <ele>117.7</ele>
        <time>2017-04-09T07:14:54Z</time>
      </trkpt>
      <trkpt lat="49.25552" lon="1.13092">
        <ele>117.7</ele>
        <time>2017-04-09T07:14:56Z</time>
      </trkpt>
      <trkpt lat="49.25549" lon="1.13108">
        <ele>117.7</ele>
        <time>2017-04-09T07:14:58Z</time>
      </trkpt>
      <trkpt lat="49.25545" lon="1.13126">
        <ele>117.7</ele>
        <time>2017-04-09T07:15:00Z</time>
      </trkpt>
      <trkpt lat="49.25543" lon="1.13142">
        <ele>117.8</ele>
        <time>2017-04-09T07:15:02Z</time>
      </trkpt>
      <trkpt lat="49.2554" lon="1.1316">
        <ele>117.9</ele>
        <time>2017-04-09T07:15:04Z</time>
      </trkpt>
      <trkpt lat="49.25536" lon="1.13177">
        <ele>118</ele>
        <time>2017-04-09T07:15:06Z</time>
      </trkpt>
      <trkpt lat="49.25532" lon="1.13194">
        <ele>118</ele>
        <time>2017-04-09T07:15:08Z</time>
      </trkpt>
      <trkpt lat="49.2553" lon="1.13211">
        <ele>118.1</ele>
        <time>2017-04-09T07:15:10Z</time>
      </trkpt>
      <trkpt lat="49.25526" lon="1.13228">
        <ele>118.2</ele>
        <time>2017-04-09T07:15:12Z</time>
      </trkpt>
      <trkpt lat="49.25524" lon="1.13244">
        <ele>118.2</ele>
        <time>2017-04-09T07:15:14Z</time>
      </trkpt>
      <trkpt lat="49.25522" lon="1.1326">
        <ele>118.3</ele>
        <time>2017-04-09T07:15:16Z</time>
      </trkpt>
      <trkpt lat="49.25517" lon="1.13274">
        <ele>118.4</ele>
        <time>2017-04-09T07:15:18Z</time>
      </trkpt>
      <trkpt lat="49.25508" lon="1.13278">
        <ele>118.4</ele>
        <time>2017-04-09T07:15:20Z</time>
      </trkpt>
      <trkpt lat="49.25497" lon="1.13274">
        <ele>118.5</ele>
        <time>2017-04-09T07:15:22Z</time>
      </trkpt>
      <trkpt lat="49.25486" lon="1.1327">
        <ele>118.5</ele>
        <time>2017-04-09T07:15:24Z</time>
      </trkpt>
      <trkpt lat="49.25473" lon="1.13266">
        <ele>118.5</ele>
        <time>2017-04-09T07:15:26Z</time>
      </trkpt>
      <trkpt lat="49.25459" lon="1.1326">
        <ele>118.5</ele>
        <time>2017-04-09T07:15:28Z</time>
      </trkpt>
      <trkpt lat="49.25446" lon="1.13257">
        <ele>118.4</ele>
        <time>2017-04-09T07:15:30Z</time>
      </trkpt>
      <trkpt lat="49.25434" lon="1.13253">
        <ele>118.2</ele>
        <time>2017-04-09T07:15:32Z</time>
      </trkpt>
      <trkpt lat="49.25422" lon="1.13249">
        <ele>118.1</ele>
        <time>2017-04-09T07:15:34Z</time>
      </trkpt>
      <trkpt lat="49.25411" lon="1.13245">
        <ele>118</ele>
        <time>2017-04-09T07:15:36Z</time>
      </trkpt>
      <trkpt lat="49.25398" lon="1.1324">
        <ele>117.9</ele>
        <time>2017-04-09T07:15:38Z</time>
      </trkpt>
      <trkpt lat="49.25384" lon="1.13233">
        <ele>117.7</ele>
        <time>2017-04-09T07:15:40Z</time>
      </trkpt>
      <trkpt lat="49.2537" lon="1.13227">
        <ele>117.5</ele>
        <time>2017-04-09T07:15:42Z</time>
      </trkpt>
      <trkpt lat="49.25357" lon="1.13221">
        <ele>117.2</ele>
        <time>2017-04-09T07:15:44Z</time>
      </trkpt>
      <trkpt lat="49.25345" lon="1.13218">
        <ele>116.8</ele>
        <time>2017-04-09T07:15:46Z</time>
      </trkpt>
      <trkpt lat="49.25341" lon="1.13231">
        <ele>116</ele>
        <time>2017-04-09T07:15:50Z</time>
      </trkpt>
      <trkpt lat="49.25337" lon="1.13245">
        <ele>115.5</ele>
        <time>2017-04-09T07:15:53Z</time>
      </trkpt>
      <trkpt lat="49.25333" lon="1.13258">
        <ele>115.3</ele>
        <time>2017-04-09T07:15:55Z</time>
      </trkpt>
      <trkpt lat="49.25329" lon="1.13276">
        <ele>114.9</ele>
        <time>2017-04-09T07:15:58Z</time>
      </trkpt>
      <trkpt lat="49.25325" lon="1.1329">
        <ele>114.7</ele>
        <time>2017-04-09T07:16:00Z</time>
      </trkpt>
      <trkpt lat="49.25322" lon="1.13307">
        <ele>114.5</ele>
        <time>2017-04-09T07:16:03Z</time>
      </trkpt>
      <trkpt lat="49.2532" lon="1.13326">
        <ele>114.3</ele>
        <time>2017-04-09T07:16:06Z</time>
      </trkpt>
      <trkpt lat="49.25317" lon="1.1334">
        <ele>114.1</ele>
        <time>2017-04-09T07:16:09Z</time>
      </trkpt>
      <trkpt lat="49.25317" lon="1.13355">
        <ele>114</ele>
        <time>2017-04-09T07:16:12Z</time>
      </trkpt>
      <trkpt lat="49.25316" lon="1.13371">
        <ele>114</ele>
        <time>2017-04-09T07:16:15Z</time>
      </trkpt>
      <trkpt lat="49.25313" lon="1.13385">
        <ele>113.9</ele>
        <time>2017-04-09T07:16:17Z</time>
      </trkpt>
      <trkpt lat="49.25311" lon="1.13399">
        <ele>113.9</ele>
        <time>2017-04-09T07:16:19Z</time>
      </trkpt>
      <trkpt lat="49.25308" lon="1.13413">
        <ele>114</ele>
        <time>2017-04-09T07:16:21Z</time>
      </trkpt>
      <trkpt lat="49.25304" lon="1.1343">
        <ele>114</ele>
        <time>2017-04-09T07:16:24Z</time>
      </trkpt>
      <trkpt lat="49.25301" lon="1.13447">
        <ele>114.1</ele>
        <time>2017-04-09T07:16:27Z</time>
      </trkpt>
      <trkpt lat="49.25301" lon="1.13462">
        <ele>114.3</ele>
        <time>2017-04-09T07:16:31Z</time>
      </trkpt>
      <trkpt lat="49.25295" lon="1.1348">
        <ele>114.5</ele>
        <time>2017-04-09T07:16:34Z</time>
      </trkpt>
      <trkpt lat="49.25289" lon="1.13493">
        <ele>114.6</ele>
        <time>2017-04-09T07:16:36Z</time>
      </trkpt>
      <trkpt lat="49.25286" lon="1.13512">
        <ele>114.7</ele>
        <time>2017-04-09T07:16:39Z</time>
      </trkpt>
      <trkpt lat="49.25281" lon="1.1353">
        <ele>114.8</ele>
        <time>2017-04-09T07:16:42Z</time>
      </trkpt>
      <trkpt lat="49.25278" lon="1.13547">
        <ele>114.9</ele>
        <time>2017-04-09T07:16:45Z</time>
      </trkpt>
      <trkpt lat="49.25273" lon="1.13571">
        <ele>115</ele>
        <time>2017-04-09T07:16:49Z</time>
      </trkpt>
      <trkpt lat="49.2527" lon="1.13591">
        <ele>115</ele>
        <time>2017-04-09T07:16:52Z</time>
      </trkpt>
      <trkpt lat="49.25266" lon="1.13613">
        <ele>115</ele>
        <time>2017-04-09T07:16:55Z</time>
      </trkpt>
      <trkpt lat="49.25263" lon="1.1363">
        <ele>115</ele>
        <time>2017-04-09T07:16:57Z</time>
      </trkpt>
      <trkpt lat="49.2526" lon="1.13645">
        <ele>115</ele>
        <time>2017-04-09T07:16:59Z</time>
      </trkpt>
      <trkpt lat="49.25258" lon="1.1366">
        <ele>114.9</ele>
        <time>2017-04-09T07:17:01Z</time>
      </trkpt>
      <trkpt lat="49.25255" lon="1.13675">
        <ele>114.9</ele>
        <time>2017-04-09T07:17:03Z</time>
      </trkpt>
      <trkpt lat="49.25253" lon="1.1369">
        <ele>114.9</ele>
        <time>2017-04-09T07:17:05Z</time>
      </trkpt>
      <trkpt lat="49.25249" lon="1.13708">
        <ele>114.9</ele>
        <time>2017-04-09T07:17:07Z</time>
      </trkpt>
      <trkpt lat="49.25246" lon="1.1373">
        <ele>114.8</ele>
        <time>2017-04-09T07:17:10Z</time>
      </trkpt>
      <trkpt lat="49.25245" lon="1.13748">
        <ele>114.7</ele>
        <time>2017-04-09T07:17:13Z</time>
      </trkpt>
      <trkpt lat="49.25246" lon="1.13763">
        <ele>114.6</ele>
        <time>2017-04-09T07:17:15Z</time>
      </trkpt>
      <trkpt lat="49.25244" lon="1.13778">
        <ele>114.3</ele>
        <time>2017-04-09T07:17:17Z</time>
      </trkpt>
      <trkpt lat="49.2524" lon="1.13793">
        <ele>114</ele>
        <time>2017-04-09T07:17:19Z</time>
      </trkpt>
      <trkpt lat="49.25235" lon="1.13807">
        <ele>113.8</ele>
        <time>2017-04-09T07:17:21Z</time>
      </trkpt>
      <trkpt lat="49.25232" lon="1.13824">
        <ele>113.5</ele>
        <time>2017-04-09T07:17:23Z</time>
      </trkpt>
      <trkpt lat="49.2523" lon="1.13841">
        <ele>113.3</ele>
        <time>2017-04-09T07:17:25Z</time>
      </trkpt>
      <trkpt lat="49.25222" lon="1.13859">
        <ele>113.1</ele>
        <time>2017-04-09T07:17:27Z</time>
      </trkpt>
      <trkpt lat="49.25219" lon="1.13874">
        <ele>113</ele>
        <time>2017-04-09T07:17:29Z</time>
      </trkpt>
      <trkpt lat="49.25217" lon="1.13888">
        <ele>112.8</ele>
        <time>2017-04-09T07:17:32Z</time>
      </trkpt>
      <trkpt lat="49.25214" lon="1.13902">
        <ele>112.7</ele>
        <time>2017-04-09T07:17:34Z</time>
      </trkpt>
      <trkpt lat="49.25211" lon="1.13923">
        <ele>112.5</ele>
        <time>2017-04-09T07:17:37Z</time>
      </trkpt>
      <trkpt lat="49.25206" lon="1.13937">
        <ele>112.4</ele>
        <time>2017-04-09T07:17:40Z</time>
      </trkpt>
      <trkpt lat="49.25201" lon="1.13952">
        <ele>112.3</ele>
        <time>2017-04-09T07:17:42Z</time>
      </trkpt>
      <trkpt lat="49.25195" lon="1.13967">
        <ele>112</ele>
        <time>2017-04-09T07:17:45Z</time>
      </trkpt>
      <trkpt lat="49.25187" lon="1.13978">
        <ele>111.8</ele>
        <time>2017-04-09T07:17:47Z</time>
      </trkpt>
      <trkpt lat="49.2518" lon="1.13991">
        <ele>111.5</ele>
        <time>2017-04-09T07:17:50Z</time>
      </trkpt>
      <trkpt lat="49.25172" lon="1.14003">
        <ele>111.3</ele>
        <time>2017-04-09T07:17:52Z</time>
      </trkpt>
      <trkpt lat="49.25164" lon="1.14015">
        <ele>111</ele>
        <time>2017-04-09T07:17:54Z</time>
      </trkpt>
      <trkpt lat="49.25157" lon="1.14025">
        <ele>110.6</ele>
        <time>2017-04-09T07:17:56Z</time>
      </trkpt>
      <trkpt lat="49.25148" lon="1.14038">
        <ele>110.3</ele>
        <time>2017-04-09T07:17:58Z</time>
      </trkpt>
      <trkpt lat="49.25139" lon="1.14051">
        <ele>110</ele>
        <time>2017-04-09T07:18:00Z</time>
      </trkpt>
      <trkpt lat="49.25133" lon="1.14062">
        <ele>109.8</ele>
        <time>2017-04-09T07:18:02Z</time>
      </trkpt>
      <trkpt lat="49.25127" lon="1.14074">
        <ele>109.5</ele>
        <time>2017-04-09T07:18:04Z</time>
      </trkpt>
      <trkpt lat="49.2512" lon="1.14088">
        <ele>109.2</ele>
        <time>2017-04-09T07:18:06Z</time>
      </trkpt>
      <trkpt lat="49.25111" lon="1.14106">
        <ele>108.8</ele>
        <time>2017-04-09T07:18:08Z</time>
      </trkpt>
      <trkpt lat="49.25103" lon="1.14128">
        <ele>108.4</ele>
        <time>2017-04-09T07:18:10Z</time>
      </trkpt>
      <trkpt lat="49.25099" lon="1.14148">
        <ele>108</ele>
        <time>2017-04-09T07:18:12Z</time>
      </trkpt>
      <trkpt lat="49.25093" lon="1.1417">
        <ele>107.6</ele>
        <time>2017-04-09T07:18:14Z</time>
      </trkpt>
      <trkpt lat="49.25093" lon="1.14188">
        <ele>107.1</ele>
        <time>2017-04-09T07:18:16Z</time>
      </trkpt>
      <trkpt lat="49.25091" lon="1.14209">
        <ele>106.6</ele>
        <time>2017-04-09T07:18:18Z</time>
      </trkpt>
      <trkpt lat="49.25088" lon="1.14228">
        <ele>106.2</ele>
        <time>2017-04-09T07:18:20Z</time>
      </trkpt>
      <trkpt lat="49.25088" lon="1.14245">
        <ele>105.9</ele>
        <time>2017-04-09T07:18:22Z</time>
      </trkpt>
      <trkpt lat="49.25092" lon="1.14262">
        <ele>105.5</ele>
        <time>2017-04-09T07:18:24Z</time>
      </trkpt>
      <trkpt lat="49.25095" lon="1.14275">
        <ele>105.3</ele>
        <time>2017-04-09T07:18:26Z</time>
      </trkpt>
      <trkpt lat="49.25096" lon="1.14292">
        <ele>105.1</ele>
        <time>2017-04-09T07:18:28Z</time>
      </trkpt>
      <trkpt lat="49.25098" lon="1.14308">
        <ele>105</ele>
        <time>2017-04-09T07:18:30Z</time>
      </trkpt>
      <trkpt lat="49.251" lon="1.14327">
        <ele>105</ele>
        <time>2017-04-09T07:18:33Z</time>
      </trkpt>
      <trkpt lat="49.25103" lon="1.14341">
        <ele>105</ele>
        <time>2017-04-09T07:18:35Z</time>
      </trkpt>
      <trkpt lat="49.25103" lon="1.14357">
        <ele>105</ele>
        <time>2017-04-09T07:18:37Z</time>
      </trkpt>
      <trkpt lat="49.25104" lon="1.14373">
        <ele>105</ele>
        <time>2017-04-09T07:18:39Z</time>
      </trkpt>
      <trkpt lat="49.25105" lon="1.14388">
        <ele>105</ele>
        <time>2017-04-09T07:18:41Z</time>
      </trkpt>
      <trkpt lat="49.25107" lon="1.14402">
        <ele>105</ele>
        <time>2017-04-09T07:18:43Z</time>
      </trkpt>
      <trkpt lat="49.25108" lon="1.14423">
        <ele>105</ele>
        <time>2017-04-09T07:18:46Z</time>
      </trkpt>
      <trkpt lat="49.25109" lon="1.14438">
        <ele>104.9</ele>
        <time>2017-04-09T07:18:48Z</time>
      </trkpt>
      <trkpt lat="49.2511" lon="1.14453">
        <ele>104.9</ele>
        <time>2017-04-09T07:18:50Z</time>
      </trkpt>
      <trkpt lat="49.2511" lon="1.1447">
        <ele>104.9</ele>
        <time>2017-04-09T07:18:52Z</time>
      </trkpt>
      <trkpt lat="49.25109" lon="1.14488">
        <ele>104.8</ele>
        <time>2017-04-09T07:18:54Z</time>
      </trkpt>
      <trkpt lat="49.25109" lon="1.14503">
        <ele>104.8</ele>
        <time>2017-04-09T07:18:56Z</time>
      </trkpt>
      <trkpt lat="49.2511" lon="1.14521">
        <ele>104.8</ele>
        <time>2017-04-09T07:18:58Z</time>
      </trkpt>
      <trkpt lat="49.25109" lon="1.14538">
        <ele>104.8</ele>
        <time>2017-04-09T07:19:00Z</time>
      </trkpt>
      <trkpt lat="49.25109" lon="1.14555">
        <ele>104.8</ele>
        <time>2017-04-09T07:19:02Z</time>
      </trkpt>
      <trkpt lat="49.25109" lon="1.14575">
        <ele>104.8</ele>
        <time>2017-04-09T07:19:05Z</time>
      </trkpt>
      <trkpt lat="49.25108" lon="1.14593">
        <ele>104.7</ele>
        <time>2017-04-09T07:19:07Z</time>
      </trkpt>
      <trkpt lat="49.25108" lon="1.14611">
        <ele>104.6</ele>
        <time>2017-04-09T07:19:09Z</time>
      </trkpt>
      <trkpt lat="49.25105" lon="1.1463">
        <ele>104.5</ele>
        <time>2017-04-09T07:19:12Z</time>
      </trkpt>
      <trkpt lat="49.25097" lon="1.1464">
        <ele>104.2</ele>
        <time>2017-04-09T07:19:15Z</time>
      </trkpt>
      <trkpt lat="49.25086" lon="1.14634">
        <ele>103.6</ele>
        <time>2017-04-09T07:19:18Z</time>
      </trkpt>
      <trkpt lat="49.25076" lon="1.14632">
        <ele>103</ele>
        <time>2017-04-09T07:19:20Z</time>
      </trkpt>
      <trkpt lat="49.25067" lon="1.1463">
        <ele>102</ele>
        <time>2017-04-09T07:19:22Z</time>
      </trkpt>
      <trkpt lat="49.25057" lon="1.14629">
        <ele>100.9</ele>
        <time>2017-04-09T07:19:24Z</time>
      </trkpt>
      <trkpt lat="49.25046" lon="1.14625">
        <ele>99.6</ele>
        <time>2017-04-09T07:19:26Z</time>
      </trkpt>
      <trkpt lat="49.25034" lon="1.14621">
        <ele>98.1</ele>
        <time>2017-04-09T07:19:28Z</time>
      </trkpt>
      <trkpt lat="49.25024" lon="1.14618">
        <ele>96.4</ele>
        <time>2017-04-09T07:19:30Z</time>
      </trkpt>
      <trkpt lat="49.25013" lon="1.14616">
        <ele>94.4</ele>
        <time>2017-04-09T07:19:32Z</time>
      </trkpt>
      <trkpt lat="49.25002" lon="1.14612">
        <ele>92.3</ele>
        <time>2017-04-09T07:19:34Z</time>
      </trkpt>
      <trkpt lat="49.24987" lon="1.14607">
        <ele>90</ele>
        <time>2017-04-09T07:19:36Z</time>
      </trkpt>
      <trkpt lat="49.24974" lon="1.146">
        <ele>87.6</ele>
        <time>2017-04-09T07:19:38Z</time>
      </trkpt>
      <trkpt lat="49.24962" lon="1.14595">
        <ele>85</ele>
        <time>2017-04-09T07:19:40Z</time>
      </trkpt>
      <trkpt lat="49.2495" lon="1.14594">
        <ele>82.2</ele>
        <time>2017-04-09T07:19:42Z</time>
      </trkpt>
      <trkpt lat="49.24938" lon="1.14587">
        <ele>78.2</ele>
        <time>2017-04-09T07:19:45Z</time>
      </trkpt>
      <trkpt lat="49.24926" lon="1.1458">
        <ele>74.2</ele>
        <time>2017-04-09T07:19:48Z</time>
      </trkpt>
      <trkpt lat="49.24918" lon="1.14574">
        <ele>71.7</ele>
        <time>2017-04-09T07:19:50Z</time>
      </trkpt>
      <trkpt lat="49.24906" lon="1.14572">
        <ele>69.5</ele>
        <time>2017-04-09T07:19:52Z</time>
      </trkpt>
      <trkpt lat="49.24895" lon="1.14571">
        <ele>67.5</ele>
        <time>2017-04-09T07:19:54Z</time>
      </trkpt>
      <trkpt lat="49.24885" lon="1.14568">
        <ele>65.6</ele>
        <time>2017-04-09T07:19:56Z</time>
      </trkpt>
      <trkpt lat="49.24874" lon="1.14565">
        <ele>63.9</ele>
        <time>2017-04-09T07:19:58Z</time>
      </trkpt>
      <trkpt lat="49.24863" lon="1.14562">
        <ele>62.4</ele>
        <time>2017-04-09T07:20:00Z</time>
      </trkpt>
      <trkpt lat="49.24853" lon="1.14559">
        <ele>61.1</ele>
        <time>2017-04-09T07:20:02Z</time>
      </trkpt>
      <trkpt lat="49.24841" lon="1.14552">
        <ele>59.5</ele>
        <time>2017-04-09T07:20:05Z</time>
      </trkpt>
      <trkpt lat="49.24832" lon="1.14547">
        <ele>58.3</ele>
        <time>2017-04-09T07:20:08Z</time>
      </trkpt>
      <trkpt lat="49.2482" lon="1.14542">
        <ele>57</ele>
        <time>2017-04-09T07:20:12Z</time>
      </trkpt>
      <trkpt lat="49.24809" lon="1.14538">
        <ele>56.3</ele>
        <time>2017-04-09T07:20:16Z</time>
      </trkpt>
      <trkpt lat="49.24798" lon="1.14534">
        <ele>56.2</ele>
        <time>2017-04-09T07:20:20Z</time>
      </trkpt>
      <trkpt lat="49.24789" lon="1.14529">
        <ele>56.3</ele>
        <time>2017-04-09T07:20:23Z</time>
      </trkpt>
      <trkpt lat="49.24779" lon="1.14523">
        <ele>56.7</ele>
        <time>2017-04-09T07:20:27Z</time>
      </trkpt>
      <trkpt lat="49.2477" lon="1.14519">
        <ele>57.3</ele>
        <time>2017-04-09T07:20:31Z</time>
      </trkpt>
      <trkpt lat="49.24761" lon="1.14514">
        <ele>58.3</ele>
        <time>2017-04-09T07:20:36Z</time>
      </trkpt>
      <trkpt lat="49.24754" lon="1.14503">
        <ele>59.5</ele>
        <time>2017-04-09T07:20:41Z</time>
      </trkpt>
      <trkpt lat="49.24754" lon="1.14488">
        <ele>60.6</ele>
        <time>2017-04-09T07:20:46Z</time>
      </trkpt>
      <trkpt lat="49.24752" lon="1.14474">
        <ele>61.8</ele>
        <time>2017-04-09T07:20:51Z</time>
      </trkpt>
      <trkpt lat="49.24747" lon="1.14461">
        <ele>63.9</ele>
        <time>2017-04-09T07:21:02Z</time>
      </trkpt>
      <trkpt lat="49.24738" lon="1.14455">
        <ele>65.3</ele>
        <time>2017-04-09T07:21:08Z</time>
      </trkpt>
      <trkpt lat="49.24737" lon="1.14438">
        <ele>66.6</ele>
        <time>2017-04-09T07:21:14Z</time>
      </trkpt>
      <trkpt lat="49.24736" lon="1.14422">
        <ele>67.3</ele>
        <time>2017-04-09T07:21:18Z</time>
      </trkpt>
      <trkpt lat="49.24735" lon="1.14406">
        <ele>67.7</ele>
        <time>2017-04-09T07:21:21Z</time>
      </trkpt>
      <trkpt lat="49.24734" lon="1.1439">
        <ele>68.1</ele>
        <time>2017-04-09T07:21:24Z</time>
      </trkpt>
      <trkpt lat="49.24732" lon="1.14373">
        <ele>68.5</ele>
        <time>2017-04-09T07:21:27Z</time>
      </trkpt>
      <trkpt lat="49.24731" lon="1.14355">
        <ele>68.9</ele>
        <time>2017-04-09T07:21:30Z</time>
      </trkpt>
      <trkpt lat="49.2473" lon="1.14336">
        <ele>69.3</ele>
        <time>2017-04-09T07:21:33Z</time>
      </trkpt>
      <trkpt lat="49.24729" lon="1.14316">
        <ele>69.6</ele>
        <time>2017-04-09T07:21:36Z</time>
      </trkpt>
      <trkpt lat="49.24728" lon="1.14302">
        <ele>69.7</ele>
        <time>2017-04-09T07:21:38Z</time>
      </trkpt>
      <trkpt lat="49.24726" lon="1.14282">
        <ele>69.9</ele>
        <time>2017-04-09T07:21:41Z</time>
      </trkpt>
      <trkpt lat="49.24725" lon="1.14268">
        <ele>70.1</ele>
        <time>2017-04-09T07:21:43Z</time>
      </trkpt>
      <trkpt lat="49.24724" lon="1.14254">
        <ele>70.2</ele>
        <time>2017-04-09T07:21:45Z</time>
      </trkpt>
      <trkpt lat="49.24723" lon="1.14239">
        <ele>70.4</ele>
        <time>2017-04-09T07:21:47Z</time>
      </trkpt>
      <trkpt lat="49.24722" lon="1.14226">
        <ele>70.6</ele>
        <time>2017-04-09T07:21:49Z</time>
      </trkpt>
      <trkpt lat="49.24721" lon="1.14211">
        <ele>70.8</ele>
        <time>2017-04-09T07:21:51Z</time>
      </trkpt>
      <trkpt lat="49.2472" lon="1.14197">
        <ele>71</ele>
        <time>2017-04-09T07:21:53Z</time>
      </trkpt>
      <trkpt lat="49.2472" lon="1.14177">
        <ele>71.2</ele>
        <time>2017-04-09T07:21:56Z</time>
      </trkpt>
      <trkpt lat="49.24719" lon="1.14162">
        <ele>71.4</ele>
        <time>2017-04-09T07:21:58Z</time>
      </trkpt>
      <trkpt lat="49.24718" lon="1.14142">
        <ele>71.7</ele>
        <time>2017-04-09T07:22:01Z</time>
      </trkpt>
      <trkpt lat="49.24717" lon="1.14127">
        <ele>71.9</ele>
        <time>2017-04-09T07:22:03Z</time>
      </trkpt>
      <trkpt lat="49.24717" lon="1.14112">
        <ele>72</ele>
        <time>2017-04-09T07:22:05Z</time>
      </trkpt>
      <trkpt lat="49.24718" lon="1.14098">
        <ele>72.2</ele>
        <time>2017-04-09T07:22:07Z</time>
      </trkpt>
      <trkpt lat="49.24719" lon="1.14081">
        <ele>72.3</ele>
        <time>2017-04-09T07:22:09Z</time>
      </trkpt>
      <trkpt lat="49.2472" lon="1.14066">
        <ele>72.4</ele>
        <time>2017-04-09T07:22:11Z</time>
      </trkpt>
      <trkpt lat="49.24722" lon="1.14052">
        <ele>72.6</ele>
        <time>2017-04-09T07:22:13Z</time>
      </trkpt>
      <trkpt lat="49.24722" lon="1.14036">
        <ele>72.8</ele>
        <time>2017-04-09T07:22:15Z</time>
      </trkpt>
      <trkpt lat="49.24724" lon="1.14021">
        <ele>72.9</ele>
        <time>2017-04-09T07:22:17Z</time>
      </trkpt>
      <trkpt lat="49.24725" lon="1.14005">
        <ele>73.1</ele>
        <time>2017-04-09T07:22:19Z</time>
      </trkpt>
      <trkpt lat="49.24727" lon="1.13991">
        <ele>73.3</ele>
        <time>2017-04-09T07:22:21Z</time>
      </trkpt>
      <trkpt lat="49.24729" lon="1.13975">
        <ele>73.5</ele>
        <time>2017-04-09T07:22:23Z</time>
      </trkpt>
      <trkpt lat="49.2473" lon="1.13961">
        <ele>73.6</ele>
        <time>2017-04-09T07:22:25Z</time>
      </trkpt>
      <trkpt lat="49.24731" lon="1.13946">
        <ele>73.8</ele>
        <time>2017-04-09T07:22:27Z</time>
      </trkpt>
      <trkpt lat="49.24733" lon="1.1393">
        <ele>73.9</ele>
        <time>2017-04-09T07:22:29Z</time>
      </trkpt>
      <trkpt lat="49.24734" lon="1.13916">
        <ele>74.1</ele>
        <time>2017-04-09T07:22:31Z</time>
      </trkpt>
      <trkpt lat="49.24738" lon="1.139">
        <ele>74.4</ele>
        <time>2017-04-09T07:22:34Z</time>
      </trkpt>
      <trkpt lat="49.24747" lon="1.13891">
        <ele>74.7</ele>
        <time>2017-04-09T07:22:37Z</time>
      </trkpt>
      <trkpt lat="49.24756" lon="1.13879">
        <ele>74.8</ele>
        <time>2017-04-09T07:22:39Z</time>
      </trkpt>
      <trkpt lat="49.24761" lon="1.13862">
        <ele>74.7</ele>
        <time>2017-04-09T07:22:41Z</time>
      </trkpt>
      <trkpt lat="49.24767" lon="1.13844">
        <ele>74.5</ele>
        <time>2017-04-09T07:22:43Z</time>
      </trkpt>
      <trkpt lat="49.24778" lon="1.13835">
        <ele>74.2</ele>
        <time>2017-04-09T07:22:45Z</time>
      </trkpt>
      <trkpt lat="49.24789" lon="1.13836">
        <ele>73.8</ele>
        <time>2017-04-09T07:22:47Z</time>
      </trkpt>
      <trkpt lat="49.24803" lon="1.1384">
        <ele>73.5</ele>
        <time>2017-04-09T07:22:49Z</time>
      </trkpt>
      <trkpt lat="49.24815" lon="1.13846">
        <ele>73.1</ele>
        <time>2017-04-09T07:22:51Z</time>
      </trkpt>
      <trkpt lat="49.24825" lon="1.1385">
        <ele>72.8</ele>
        <time>2017-04-09T07:22:53Z</time>
      </trkpt>
      <trkpt lat="49.24834" lon="1.13844">
        <ele>72.4</ele>
        <time>2017-04-09T07:22:55Z</time>
      </trkpt>
      <trkpt lat="49.24844" lon="1.13841">
        <ele>72</ele>
        <time>2017-04-09T07:22:57Z</time>
      </trkpt>
      <trkpt lat="49.24856" lon="1.13837">
        <ele>71.5</ele>
        <time>2017-04-09T07:23:00Z</time>
      </trkpt>
      <trkpt lat="49.24868" lon="1.13828">
        <ele>71.1</ele>
        <time>2017-04-09T07:23:03Z</time>
      </trkpt>
      <trkpt lat="49.24879" lon="1.13821">
        <ele>70.8</ele>
        <time>2017-04-09T07:23:05Z</time>
      </trkpt>
      <trkpt lat="49.24889" lon="1.13809">
        <ele>70.6</ele>
        <time>2017-04-09T07:23:07Z</time>
      </trkpt>
      <trkpt lat="49.249" lon="1.13798">
        <ele>70.3</ele>
        <time>2017-04-09T07:23:09Z</time>
      </trkpt>
      <trkpt lat="49.24908" lon="1.13791">
        <ele>70.1</ele>
        <time>2017-04-09T07:23:11Z</time>
      </trkpt>
      <trkpt lat="49.24914" lon="1.13777">
        <ele>69.6</ele>
        <time>2017-04-09T07:23:15Z</time>
      </trkpt>
      <trkpt lat="49.24923" lon="1.1377">
        <ele>68.9</ele>
        <time>2017-04-09T07:23:23Z</time>
      </trkpt>
      <trkpt lat="49.24932" lon="1.13759">
        <ele>68.6</ele>
        <time>2017-04-09T07:23:26Z</time>
      </trkpt>
      <trkpt lat="49.2494" lon="1.13742">
        <ele>68.4</ele>
        <time>2017-04-09T07:23:29Z</time>
      </trkpt>
      <trkpt lat="49.24944" lon="1.1373">
        <ele>68.2</ele>
        <time>2017-04-09T07:23:31Z</time>
      </trkpt>
      <trkpt lat="49.24946" lon="1.1371">
        <ele>68.1</ele>
        <time>2017-04-09T07:23:33Z</time>
      </trkpt>
      <trkpt lat="49.24949" lon="1.1369">
        <ele>67.9</ele>
        <time>2017-04-09T07:23:35Z</time>
      </trkpt>
      <trkpt lat="49.2495" lon="1.13675">
        <ele>67.5</ele>
        <time>2017-04-09T07:23:37Z</time>
      </trkpt>
      <trkpt lat="49.24944" lon="1.13656">
        <ele>67.1</ele>
        <time>2017-04-09T07:23:39Z</time>
      </trkpt>
      <trkpt lat="49.24939" lon="1.13639">
        <ele>66.7</ele>
        <time>2017-04-09T07:23:41Z</time>
      </trkpt>
      <trkpt lat="49.24932" lon="1.13621">
        <ele>66.4</ele>
        <time>2017-04-09T07:23:43Z</time>
      </trkpt>
      <trkpt lat="49.24925" lon="1.13604">
        <ele>66.1</ele>
        <time>2017-04-09T07:23:45Z</time>
      </trkpt>
      <trkpt lat="49.2492" lon="1.13589">
        <ele>65.8</ele>
        <time>2017-04-09T07:23:47Z</time>
      </trkpt>
      <trkpt lat="49.24913" lon="1.13573">
        <ele>65.6</ele>
        <time>2017-04-09T07:23:49Z</time>
      </trkpt>
      <trkpt lat="49.24906" lon="1.13555">
        <ele>65.3</ele>
        <time>2017-04-09T07:23:51Z</time>
      </trkpt>
      <trkpt lat="49.24899" lon="1.13539">
        <ele>65.1</ele>
        <time>2017-04-09T07:23:53Z</time>
      </trkpt>
      <trkpt lat="49.2489" lon="1.13523">
        <ele>64.9</ele>
        <time>2017-04-09T07:23:55Z</time>
      </trkpt>
      <trkpt lat="49.24884" lon="1.13509">
        <ele>64.7</ele>
        <time>2017-04-09T07:23:57Z</time>
      </trkpt>
      <trkpt lat="49.24877" lon="1.13493">
        <ele>64.5</ele>
        <time>2017-04-09T07:23:59Z</time>
      </trkpt>
      <trkpt lat="49.2487" lon="1.13479">
        <ele>64.4</ele>
        <time>2017-04-09T07:24:01Z</time>
      </trkpt>
      <trkpt lat="49.24866" lon="1.13464">
        <ele>64.3</ele>
        <time>2017-04-09T07:24:03Z</time>
      </trkpt>
      <trkpt lat="49.2486" lon="1.13449">
        <ele>64.2</ele>
        <time>2017-04-09T07:24:05Z</time>
      </trkpt>
      <trkpt lat="49.24859" lon="1.13434">
        <ele>64.1</ele>
        <time>2017-04-09T07:24:07Z</time>
      </trkpt>
      <trkpt lat="49.2486" lon="1.13417">
        <ele>64.2</ele>
        <time>2017-04-09T07:24:10Z</time>
      </trkpt>
      <trkpt lat="49.24857" lon="1.13396">
        <ele>64.3</ele>
        <time>2017-04-09T07:24:13Z</time>
      </trkpt>
      <trkpt lat="49.24855" lon="1.13382">
        <ele>64.3</ele>
        <time>2017-04-09T07:24:15Z</time>
      </trkpt>
      <trkpt lat="49.24851" lon="1.13365">
        <ele>64.3</ele>
        <time>2017-04-09T07:24:18Z</time>
      </trkpt>
      <trkpt lat="49.24845" lon="1.13354">
        <ele>64.3</ele>
        <time>2017-04-09T07:24:21Z</time>
      </trkpt>
      <trkpt lat="49.24842" lon="1.13339">
        <ele>64.5</ele>
        <time>2017-04-09T07:24:24Z</time>
      </trkpt>
      <trkpt lat="49.24846" lon="1.13326">
        <ele>64.7</ele>
        <time>2017-04-09T07:24:27Z</time>
      </trkpt>
      <trkpt lat="49.24848" lon="1.13312">
        <ele>64.9</ele>
        <time>2017-04-09T07:24:30Z</time>
      </trkpt>
      <trkpt lat="49.24849" lon="1.13297">
        <ele>65</ele>
        <time>2017-04-09T07:24:33Z</time>
      </trkpt>
      <trkpt lat="49.24852" lon="1.13279">
        <ele>65.2</ele>
        <time>2017-04-09T07:24:36Z</time>
      </trkpt>
      <trkpt lat="49.24855" lon="1.13262">
        <ele>65.3</ele>
        <time>2017-04-09T07:24:39Z</time>
      </trkpt>
      <trkpt lat="49.24856" lon="1.13239">
        <ele>65.3</ele>
        <time>2017-04-09T07:24:42Z</time>
      </trkpt>
      <trkpt lat="49.24853" lon="1.13226">
        <ele>65.4</ele>
        <time>2017-04-09T07:24:44Z</time>
      </trkpt>
      <trkpt lat="49.24843" lon="1.13218">
        <ele>65.7</ele>
        <time>2017-04-09T07:24:47Z</time>
      </trkpt>
      <trkpt lat="49.24834" lon="1.13208">
        <ele>66.3</ele>
        <time>2017-04-09T07:24:52Z</time>
      </trkpt>
      <trkpt lat="49.24824" lon="1.13201">
        <ele>67.4</ele>
        <time>2017-04-09T07:24:58Z</time>
      </trkpt>
      <trkpt lat="49.24815" lon="1.13196">
        <ele>68.6</ele>
        <time>2017-04-09T07:25:03Z</time>
      </trkpt>
      <trkpt lat="49.24806" lon="1.13189">
        <ele>70.1</ele>
        <time>2017-04-09T07:25:10Z</time>
      </trkpt>
      <trkpt lat="49.24798" lon="1.13184">
        <ele>71.6</ele>
        <time>2017-04-09T07:25:16Z</time>
      </trkpt>
      <trkpt lat="49.24789" lon="1.13179">
        <ele>73.4</ele>
        <time>2017-04-09T07:25:23Z</time>
      </trkpt>
      <trkpt lat="49.24782" lon="1.13171">
        <ele>77.3</ele>
        <time>2017-04-09T07:25:39Z</time>
      </trkpt>
      <trkpt lat="49.24773" lon="1.13166">
        <ele>80.8</ele>
        <time>2017-04-09T07:25:56Z</time>
      </trkpt>
      <trkpt lat="49.24764" lon="1.1316">
        <ele>82</ele>
        <time>2017-04-09T07:26:03Z</time>
      </trkpt>
      <trkpt lat="49.24755" lon="1.13157">
        <ele>83.9</ele>
        <time>2017-04-09T07:26:10Z</time>
      </trkpt>
      <trkpt lat="49.24746" lon="1.13154">
        <ele>85.9</ele>
        <time>2017-04-09T07:26:17Z</time>
      </trkpt>
      <trkpt lat="49.24737" lon="1.13149">
        <ele>88.3</ele>
        <time>2017-04-09T07:26:25Z</time>
      </trkpt>
      <trkpt lat="49.24727" lon="1.13145">
        <ele>90</ele>
        <time>2017-04-09T07:26:31Z</time>
      </trkpt>
      <trkpt lat="49.24718" lon="1.13141">
        <ele>91.7</ele>
        <time>2017-04-09T07:26:37Z</time>
      </trkpt>
      <trkpt lat="49.24709" lon="1.13136">
        <ele>93.1</ele>
        <time>2017-04-09T07:26:43Z</time>
      </trkpt>
      <trkpt lat="49.247" lon="1.13132">
        <ele>94.1</ele>
        <time>2017-04-09T07:26:48Z</time>
      </trkpt>
      <trkpt lat="49.2469" lon="1.13128">
        <ele>95.4</ele>
        <time>2017-04-09T07:26:54Z</time>
      </trkpt>
      <trkpt lat="49.24682" lon="1.13124">
        <ele>96.2</ele>
        <time>2017-04-09T07:26:58Z</time>
      </trkpt>
      <trkpt lat="49.24672" lon="1.13119">
        <ele>97</ele>
        <time>2017-04-09T07:27:02Z</time>
      </trkpt>
      <trkpt lat="49.24662" lon="1.13114">
        <ele>97.7</ele>
        <time>2017-04-09T07:27:06Z</time>
      </trkpt>
      <trkpt lat="49.24652" lon="1.13109">
        <ele>98.5</ele>
        <time>2017-04-09T07:27:10Z</time>
      </trkpt>
      <trkpt lat="49.24643" lon="1.13106">
        <ele>99</ele>
        <time>2017-04-09T07:27:13Z</time>
      </trkpt>
      <trkpt lat="49.24633" lon="1.13102">
        <ele>99.5</ele>
        <time>2017-04-09T07:27:16Z</time>
      </trkpt>
      <trkpt lat="49.24624" lon="1.13097">
        <ele>99.9</ele>
        <time>2017-04-09T07:27:19Z</time>
      </trkpt>
      <trkpt lat="49.24615" lon="1.13092">
        <ele>100.5</ele>
        <time>2017-04-09T07:27:22Z</time>
      </trkpt>
      <trkpt lat="49.24606" lon="1.13087">
        <ele>100.9</ele>
        <time>2017-04-09T07:27:25Z</time>
      </trkpt>
      <trkpt lat="49.24596" lon="1.13083">
        <ele>101.4</ele>
        <time>2017-04-09T07:27:28Z</time>
      </trkpt>
      <trkpt lat="49.24586" lon="1.13078">
        <ele>101.8</ele>
        <time>2017-04-09T07:27:31Z</time>
      </trkpt>
      <trkpt lat="49.24576" lon="1.13073">
        <ele>102.3</ele>
        <time>2017-04-09T07:27:34Z</time>
      </trkpt>
      <trkpt lat="49.24566" lon="1.13068">
        <ele>102.8</ele>
        <time>2017-04-09T07:27:37Z</time>
      </trkpt>
      <trkpt lat="49.24556" lon="1.13063">
        <ele>103.1</ele>
        <time>2017-04-09T07:27:40Z</time>
      </trkpt>
      <trkpt lat="49.24545" lon="1.13058">
        <ele>103.5</ele>
        <time>2017-04-09T07:27:43Z</time>
      </trkpt>
      <trkpt lat="49.24535" lon="1.13054">
        <ele>103.9</ele>
        <time>2017-04-09T07:27:46Z</time>
      </trkpt>
      <trkpt lat="49.24524" lon="1.13049">
        <ele>104.2</ele>
        <time>2017-04-09T07:27:49Z</time>
      </trkpt>
      <trkpt lat="49.24515" lon="1.13045">
        <ele>104.6</ele>
        <time>2017-04-09T07:27:52Z</time>
      </trkpt>
      <trkpt lat="49.24504" lon="1.13041">
        <ele>105</ele>
        <time>2017-04-09T07:27:56Z</time>
      </trkpt>
      <trkpt lat="49.24495" lon="1.13041">
        <ele>105.9</ele>
        <time>2017-04-09T07:28:08Z</time>
      </trkpt>
      <trkpt lat="49.24488" lon="1.13032">
        <ele>106.7</ele>
        <time>2017-04-09T07:28:38Z</time>
      </trkpt>
      <trkpt lat="49.24479" lon="1.13026">
        <ele>106.7</ele>
        <time>2017-04-09T07:33:24Z</time>
      </trkpt>
      <trkpt lat="49.24469" lon="1.13025">
        <ele>106.7</ele>
        <time>2017-04-09T07:34:38Z</time>
      </trkpt>
      <trkpt lat="49.24458" lon="1.13021">
        <ele>106.7</ele>
        <time>2017-04-09T07:34:43Z</time>
      </trkpt>
      <trkpt lat="49.24449" lon="1.13016">
        <ele>106.7</ele>
        <time>2017-04-09T07:34:46Z</time>
      </trkpt>
      <trkpt lat="49.24438" lon="1.13011">
        <ele>106.7</ele>
        <time>2017-04-09T07:34:49Z</time>
      </trkpt>
      <trkpt lat="49.24427" lon="1.13006">
        <ele>106.7</ele>
        <time>2017-04-09T07:34:52Z</time>
      </trkpt>
      <trkpt lat="49.24417" lon="1.13002">
        <ele>106.8</ele>
        <time>2017-04-09T07:34:55Z</time>
      </trkpt>
      <trkpt lat="49.24405" lon="1.12996">
        <ele>106.9</ele>
        <time>2017-04-09T07:34:58Z</time>
      </trkpt>
      <trkpt lat="49.24393" lon="1.1299">
        <ele>107</ele>
        <time>2017-04-09T07:35:01Z</time>
      </trkpt>
      <trkpt lat="49.24382" lon="1.12983">
        <ele>107.2</ele>
        <time>2017-04-09T07:35:04Z</time>
      </trkpt>
      <trkpt lat="49.2437" lon="1.12979">
        <ele>107.4</ele>
        <time>2017-04-09T07:35:07Z</time>
      </trkpt>
      <trkpt lat="49.24357" lon="1.12975">
        <ele>107.7</ele>
        <time>2017-04-09T07:35:10Z</time>
      </trkpt>
      <trkpt lat="49.24347" lon="1.12967">
        <ele>107.9</ele>
        <time>2017-04-09T07:35:13Z</time>
      </trkpt>
      <trkpt lat="49.24336" lon="1.12961">
        <ele>108.1</ele>
        <time>2017-04-09T07:35:16Z</time>
      </trkpt>
      <trkpt lat="49.24326" lon="1.12957">
        <ele>108.3</ele>
        <time>2017-04-09T07:35:19Z</time>
      </trkpt>
      <trkpt lat="49.24315" lon="1.12952">
        <ele>108.5</ele>
        <time>2017-04-09T07:35:22Z</time>
      </trkpt>
      <trkpt lat="49.24302" lon="1.12949">
        <ele>108.8</ele>
        <time>2017-04-09T07:35:25Z</time>
      </trkpt>
      <trkpt lat="49.24292" lon="1.12944">
        <ele>109</ele>
        <time>2017-04-09T07:35:28Z</time>
      </trkpt>
      <trkpt lat="49.24282" lon="1.12938">
        <ele>109.1</ele>
        <time>2017-04-09T07:35:31Z</time>
      </trkpt>
      <trkpt lat="49.24272" lon="1.12933">
        <ele>109.4</ele>
        <time>2017-04-09T07:35:34Z</time>
      </trkpt>
      <trkpt lat="49.2426" lon="1.12928">
        <ele>109.6</ele>
        <time>2017-04-09T07:35:37Z</time>
      </trkpt>
      <trkpt lat="49.2425" lon="1.12923">
        <ele>109.9</ele>
        <time>2017-04-09T07:35:40Z</time>
      </trkpt>
      <trkpt lat="49.24239" lon="1.12919">
        <ele>110.1</ele>
        <time>2017-04-09T07:35:43Z</time>
      </trkpt>
      <trkpt lat="49.24227" lon="1.12914">
        <ele>110.4</ele>
        <time>2017-04-09T07:35:46Z</time>
      </trkpt>
      <trkpt lat="49.24215" lon="1.12909">
        <ele>110.7</ele>
        <time>2017-04-09T07:35:49Z</time>
      </trkpt>
      <trkpt lat="49.24205" lon="1.12902">
        <ele>111.2</ele>
        <time>2017-04-09T07:35:52Z</time>
      </trkpt>
      <trkpt lat="49.24194" lon="1.12899">
        <ele>111.5</ele>
        <time>2017-04-09T07:35:55Z</time>
      </trkpt>
      <trkpt lat="49.24184" lon="1.12895">
        <ele>111.8</ele>
        <time>2017-04-09T07:35:58Z</time>
      </trkpt>
      <trkpt lat="49.24173" lon="1.12889">
        <ele>112.1</ele>
        <time>2017-04-09T07:36:01Z</time>
      </trkpt>
      <trkpt lat="49.24161" lon="1.12884">
        <ele>112.4</ele>
        <time>2017-04-09T07:36:04Z</time>
      </trkpt>
      <trkpt lat="49.2415" lon="1.12876">
        <ele>112.6</ele>
        <time>2017-04-09T07:36:07Z</time>
      </trkpt>
      <trkpt lat="49.24138" lon="1.1287">
        <ele>112.8</ele>
        <time>2017-04-09T07:36:10Z</time>
      </trkpt>
      <trkpt lat="49.24126" lon="1.12864">
        <ele>113</ele>
        <time>2017-04-09T07:36:13Z</time>
      </trkpt>
      <trkpt lat="49.24114" lon="1.12857">
        <ele>113.2</ele>
        <time>2017-04-09T07:36:16Z</time>
      </trkpt>
      <trkpt lat="49.24102" lon="1.1285">
        <ele>113.4</ele>
        <time>2017-04-09T07:36:19Z</time>
      </trkpt>
      <trkpt lat="49.24092" lon="1.12848">
        <ele>113.5</ele>
        <time>2017-04-09T07:36:21Z</time>
      </trkpt>
      <trkpt lat="49.24084" lon="1.12846">
        <ele>113.7</ele>
        <time>2017-04-09T07:36:23Z</time>
      </trkpt>
      <trkpt lat="49.24075" lon="1.12843">
        <ele>113.8</ele>
        <time>2017-04-09T07:36:25Z</time>
      </trkpt>
      <trkpt lat="49.24063" lon="1.12839">
        <ele>114</ele>
        <time>2017-04-09T07:36:28Z</time>
      </trkpt>
      <trkpt lat="49.24052" lon="1.12834">
        <ele>114.1</ele>
        <time>2017-04-09T07:36:31Z</time>
      </trkpt>
      <trkpt lat="49.24042" lon="1.1283">
        <ele>114.3</ele>
        <time>2017-04-09T07:36:33Z</time>
      </trkpt>
      <trkpt lat="49.24032" lon="1.12827">
        <ele>114.4</ele>
        <time>2017-04-09T07:36:35Z</time>
      </trkpt>
      <trkpt lat="49.24022" lon="1.12822">
        <ele>114.4</ele>
        <time>2017-04-09T07:36:37Z</time>
      </trkpt>
      <trkpt lat="49.24012" lon="1.12818">
        <ele>114.5</ele>
        <time>2017-04-09T07:36:39Z</time>
      </trkpt>
      <trkpt lat="49.24002" lon="1.12814">
        <ele>114.6</ele>
        <time>2017-04-09T07:36:41Z</time>
      </trkpt>
      <trkpt lat="49.23992" lon="1.12809">
        <ele>114.6</ele>
        <time>2017-04-09T07:36:43Z</time>
      </trkpt>
      <trkpt lat="49.23981" lon="1.12804">
        <ele>114.7</ele>
        <time>2017-04-09T07:36:45Z</time>
      </trkpt>
      <trkpt lat="49.23971" lon="1.12798">
        <ele>114.7</ele>
        <time>2017-04-09T07:36:47Z</time>
      </trkpt>
      <trkpt lat="49.23962" lon="1.12791">
        <ele>114.8</ele>
        <time>2017-04-09T07:36:49Z</time>
      </trkpt>
      <trkpt lat="49.23952" lon="1.12785">
        <ele>114.8</ele>
        <time>2017-04-09T07:36:51Z</time>
      </trkpt>
      <trkpt lat="49.23942" lon="1.12782">
        <ele>114.9</ele>
        <time>2017-04-09T07:36:53Z</time>
      </trkpt>
      <trkpt lat="49.23933" lon="1.12778">
        <ele>114.9</ele>
        <time>2017-04-09T07:36:55Z</time>
      </trkpt>
      <trkpt lat="49.23923" lon="1.12771">
        <ele>114.9</ele>
        <time>2017-04-09T07:36:57Z</time>
      </trkpt>
      <trkpt lat="49.23914" lon="1.12768">
        <ele>114.9</ele>
        <time>2017-04-09T07:36:59Z</time>
      </trkpt>
      <trkpt lat="49.23905" lon="1.12764">
        <ele>114.9</ele>
        <time>2017-04-09T07:37:01Z</time>
      </trkpt>
      <trkpt lat="49.23895" lon="1.1276">
        <ele>114.9</ele>
        <time>2017-04-09T07:37:03Z</time>
      </trkpt>
      <trkpt lat="49.23885" lon="1.12756">
        <ele>114.9</ele>
        <time>2017-04-09T07:37:05Z</time>
      </trkpt>
      <trkpt lat="49.23876" lon="1.12753">
        <ele>114.9</ele>
        <time>2017-04-09T07:37:07Z</time>
      </trkpt>
      <trkpt lat="49.23867" lon="1.1275">
        <ele>114.8</ele>
        <time>2017-04-09T07:37:09Z</time>
      </trkpt>
      <trkpt lat="49.23854" lon="1.12741">
        <ele>114.8</ele>
        <time>2017-04-09T07:37:11Z</time>
      </trkpt>
      <trkpt lat="49.23844" lon="1.12733">
        <ele>114.7</ele>
        <time>2017-04-09T07:37:13Z</time>
      </trkpt>
      <trkpt lat="49.23833" lon="1.12728">
        <ele>114.5</ele>
        <time>2017-04-09T07:37:15Z</time>
      </trkpt>
      <trkpt lat="49.23821" lon="1.12725">
        <ele>114.2</ele>
        <time>2017-04-09T07:37:17Z</time>
      </trkpt>
      <trkpt lat="49.23811" lon="1.12723">
        <ele>114</ele>
        <time>2017-04-09T07:37:19Z</time>
      </trkpt>
      <trkpt lat="49.23801" lon="1.12715">
        <ele>113.7</ele>
        <time>2017-04-09T07:37:21Z</time>
      </trkpt>
      <trkpt lat="49.2379" lon="1.12712">
        <ele>113.5</ele>
        <time>2017-04-09T07:37:23Z</time>
      </trkpt>
      <trkpt lat="49.23779" lon="1.1271">
        <ele>113.3</ele>
        <time>2017-04-09T07:37:25Z</time>
      </trkpt>
      <trkpt lat="49.23769" lon="1.12706">
        <ele>113.2</ele>
        <time>2017-04-09T07:37:27Z</time>
      </trkpt>
      <trkpt lat="49.23759" lon="1.12703">
        <ele>113</ele>
        <time>2017-04-09T07:37:29Z</time>
      </trkpt>
      <trkpt lat="49.23749" lon="1.12695">
        <ele>112.8</ele>
        <time>2017-04-09T07:37:31Z</time>
      </trkpt>
      <trkpt lat="49.2374" lon="1.12686">
        <ele>112.6</ele>
        <time>2017-04-09T07:37:33Z</time>
      </trkpt>
      <trkpt lat="49.2373" lon="1.12682">
        <ele>112.3</ele>
        <time>2017-04-09T07:37:35Z</time>
      </trkpt>
      <trkpt lat="49.23721" lon="1.1268">
        <ele>112.1</ele>
        <time>2017-04-09T07:37:37Z</time>
      </trkpt>
      <trkpt lat="49.23715" lon="1.12663">
        <ele>111.8</ele>
        <time>2017-04-09T07:37:40Z</time>
      </trkpt>
      <trkpt lat="49.23714" lon="1.12649">
        <ele>111.6</ele>
        <time>2017-04-09T07:37:42Z</time>
      </trkpt>
      <trkpt lat="49.23713" lon="1.12628">
        <ele>111.3</ele>
        <time>2017-04-09T07:37:45Z</time>
      </trkpt>
      <trkpt lat="49.23708" lon="1.12611">
        <ele>111.1</ele>
        <time>2017-04-09T07:37:47Z</time>
      </trkpt>
      <trkpt lat="49.23707" lon="1.12596">
        <ele>110.9</ele>
        <time>2017-04-09T07:37:49Z</time>
      </trkpt>
      <trkpt lat="49.23705" lon="1.12582">
        <ele>110.8</ele>
        <time>2017-04-09T07:37:51Z</time>
      </trkpt>
      <trkpt lat="49.23705" lon="1.12566">
        <ele>110.6</ele>
        <time>2017-04-09T07:37:53Z</time>
      </trkpt>
      <trkpt lat="49.23702" lon="1.12551">
        <ele>110.5</ele>
        <time>2017-04-09T07:37:55Z</time>
      </trkpt>
      <trkpt lat="49.237" lon="1.12535">
        <ele>110.4</ele>
        <time>2017-04-09T07:37:57Z</time>
      </trkpt>
      <trkpt lat="49.23696" lon="1.12518">
        <ele>110.3</ele>
        <time>2017-04-09T07:38:00Z</time>
      </trkpt>
      <trkpt lat="49.23695" lon="1.12503">
        <ele>110.2</ele>
        <time>2017-04-09T07:38:03Z</time>
      </trkpt>
      <trkpt lat="49.23695" lon="1.12486">
        <ele>110</ele>
        <time>2017-04-09T07:38:07Z</time>
      </trkpt>
      <trkpt lat="49.23697" lon="1.12469">
        <ele>109.9</ele>
        <time>2017-04-09T07:38:10Z</time>
      </trkpt>
      <trkpt lat="49.23694" lon="1.12451">
        <ele>109.8</ele>
        <time>2017-04-09T07:38:13Z</time>
      </trkpt>
      <trkpt lat="49.23689" lon="1.12438">
        <ele>109.7</ele>
        <time>2017-04-09T07:38:15Z</time>
      </trkpt>
      <trkpt lat="49.23687" lon="1.12424">
        <ele>109.7</ele>
        <time>2017-04-09T07:38:17Z</time>
      </trkpt>
      <trkpt lat="49.23685" lon="1.12409">
        <ele>109.7</ele>
        <time>2017-04-09T07:38:19Z</time>
      </trkpt>
      <trkpt lat="49.23682" lon="1.12394">
        <ele>109.6</ele>
        <time>2017-04-09T07:38:21Z</time>
      </trkpt>
      <trkpt lat="49.2368" lon="1.12379">
        <ele>109.6</ele>
        <time>2017-04-09T07:38:23Z</time>
      </trkpt>
      <trkpt lat="49.23677" lon="1.12364">
        <ele>109.6</ele>
        <time>2017-04-09T07:38:25Z</time>
      </trkpt>
      <trkpt lat="49.23675" lon="1.12349">
        <ele>109.6</ele>
        <time>2017-04-09T07:38:27Z</time>
      </trkpt>
      <trkpt lat="49.23673" lon="1.12333">
        <ele>109.6</ele>
        <time>2017-04-09T07:38:29Z</time>
      </trkpt>
      <trkpt lat="49.2367" lon="1.12317">
        <ele>109.6</ele>
        <time>2017-04-09T07:38:31Z</time>
      </trkpt>
      <trkpt lat="49.23667" lon="1.12301">
        <ele>109.7</ele>
        <time>2017-04-09T07:38:33Z</time>
      </trkpt>
      <trkpt lat="49.23664" lon="1.12285">
        <ele>109.7</ele>
        <time>2017-04-09T07:38:35Z</time>
      </trkpt>
      <trkpt lat="49.23661" lon="1.12268">
        <ele>109.8</ele>
        <time>2017-04-09T07:38:37Z</time>
      </trkpt>
      <trkpt lat="49.23659" lon="1.12251">
        <ele>109.9</ele>
        <time>2017-04-09T07:38:39Z</time>
      </trkpt>
      <trkpt lat="49.23656" lon="1.12234">
        <ele>110</ele>
        <time>2017-04-09T07:38:41Z</time>
      </trkpt>
      <trkpt lat="49.23653" lon="1.12218">
        <ele>110.1</ele>
        <time>2017-04-09T07:38:43Z</time>
      </trkpt>
      <trkpt lat="49.2365" lon="1.12201">
        <ele>110.2</ele>
        <time>2017-04-09T07:38:45Z</time>
      </trkpt>
      <trkpt lat="49.23646" lon="1.12184">
        <ele>110.3</ele>
        <time>2017-04-09T07:38:47Z</time>
      </trkpt>
      <trkpt lat="49.23643" lon="1.12167">
        <ele>110.4</ele>
        <time>2017-04-09T07:38:49Z</time>
      </trkpt>
      <trkpt lat="49.2364" lon="1.1215">
        <ele>110.5</ele>
        <time>2017-04-09T07:38:51Z</time>
      </trkpt>
      <trkpt lat="49.23637" lon="1.12133">
        <ele>110.6</ele>
        <time>2017-04-09T07:38:53Z</time>
      </trkpt>
      <trkpt lat="49.23634" lon="1.12116">
        <ele>110.7</ele>
        <time>2017-04-09T07:38:55Z</time>
      </trkpt>
      <trkpt lat="49.23631" lon="1.12098">
        <ele>110.8</ele>
        <time>2017-04-09T07:38:57Z</time>
      </trkpt>
      <trkpt lat="49.23627" lon="1.1208">
        <ele>110.9</ele>
        <time>2017-04-09T07:38:59Z</time>
      </trkpt>
      <trkpt lat="49.2362" lon="1.12064">
        <ele>111</ele>
        <time>2017-04-09T07:39:01Z</time>
      </trkpt>
      <trkpt lat="49.23614" lon="1.1205">
        <ele>111.1</ele>
        <time>2017-04-09T07:39:03Z</time>
      </trkpt>
      <trkpt lat="49.23606" lon="1.12039">
        <ele>111.1</ele>
        <time>2017-04-09T07:39:05Z</time>
      </trkpt>
      <trkpt lat="49.23593" lon="1.1203">
        <ele>111.2</ele>
        <time>2017-04-09T07:39:08Z</time>
      </trkpt>
      <trkpt lat="49.23583" lon="1.12024">
        <ele>111.2</ele>
        <time>2017-04-09T07:39:10Z</time>
      </trkpt>
      <trkpt lat="49.23575" lon="1.12016">
        <ele>111.2</ele>
        <time>2017-04-09T07:39:12Z</time>
      </trkpt>
      <trkpt lat="49.23567" lon="1.1201">
        <ele>111.2</ele>
        <time>2017-04-09T07:39:14Z</time>
      </trkpt>
      <trkpt lat="49.23555" lon="1.12">
        <ele>111.2</ele>
        <time>2017-04-09T07:39:16Z</time>
      </trkpt>
      <trkpt lat="49.23545" lon="1.11987">
        <ele>111.1</ele>
        <time>2017-04-09T07:39:18Z</time>
      </trkpt>
      <trkpt lat="49.23538" lon="1.11971">
        <ele>111</ele>
        <time>2017-04-09T07:39:20Z</time>
      </trkpt>
      <trkpt lat="49.23533" lon="1.11951">
        <ele>110.8</ele>
        <time>2017-04-09T07:39:22Z</time>
      </trkpt>
      <trkpt lat="49.23531" lon="1.11932">
        <ele>110.5</ele>
        <time>2017-04-09T07:39:24Z</time>
      </trkpt>
      <trkpt lat="49.23529" lon="1.11912">
        <ele>110.3</ele>
        <time>2017-04-09T07:39:26Z</time>
      </trkpt>
      <trkpt lat="49.23528" lon="1.11893">
        <ele>110</ele>
        <time>2017-04-09T07:39:28Z</time>
      </trkpt>
      <trkpt lat="49.23524" lon="1.11876">
        <ele>109.8</ele>
        <time>2017-04-09T07:39:30Z</time>
      </trkpt>
      <trkpt lat="49.23518" lon="1.11856">
        <ele>109.6</ele>
        <time>2017-04-09T07:39:32Z</time>
      </trkpt>
      <trkpt lat="49.23511" lon="1.11836">
        <ele>109.3</ele>
        <time>2017-04-09T07:39:34Z</time>
      </trkpt>
      <trkpt lat="49.23503" lon="1.11815">
        <ele>108.9</ele>
        <time>2017-04-09T07:39:36Z</time>
      </trkpt>
      <trkpt lat="49.23494" lon="1.11793">
        <ele>108.5</ele>
        <time>2017-04-09T07:39:38Z</time>
      </trkpt>
      <trkpt lat="49.23486" lon="1.11772">
        <ele>108</ele>
        <time>2017-04-09T07:39:40Z</time>
      </trkpt>
      <trkpt lat="49.23477" lon="1.11757">
        <ele>107.4</ele>
        <time>2017-04-09T07:39:42Z</time>
      </trkpt>
      <trkpt lat="49.23465" lon="1.11755">
        <ele>106.5</ele>
        <time>2017-04-09T07:39:44Z</time>
      </trkpt>
      <trkpt lat="49.23456" lon="1.11756">
        <ele>106.1</ele>
        <time>2017-04-09T07:39:45Z</time>
      </trkpt>
      <trkpt lat="49.23447" lon="1.11758">
        <ele>105.7</ele>
        <time>2017-04-09T07:39:46Z</time>
      </trkpt>
      <trkpt lat="49.23431" lon="1.11763">
        <ele>104.8</ele>
        <time>2017-04-09T07:39:48Z</time>
      </trkpt>
      <trkpt lat="49.23415" lon="1.11771">
        <ele>103.5</ele>
        <time>2017-04-09T07:39:50Z</time>
      </trkpt>
      <trkpt lat="49.23406" lon="1.11781">
        <ele>102.1</ele>
        <time>2017-04-09T07:39:52Z</time>
      </trkpt>
      <trkpt lat="49.23408" lon="1.11799">
        <ele>100.1</ele>
        <time>2017-04-09T07:39:55Z</time>
      </trkpt>
      <trkpt lat="49.23411" lon="1.11812">
        <ele>98.9</ele>
        <time>2017-04-09T07:39:57Z</time>
      </trkpt>
      <trkpt lat="49.23416" lon="1.11826">
        <ele>97.9</ele>
        <time>2017-04-09T07:39:59Z</time>
      </trkpt>
      <trkpt lat="49.23422" lon="1.11841">
        <ele>97</ele>
        <time>2017-04-09T07:40:01Z</time>
      </trkpt>
      <trkpt lat="49.23426" lon="1.11859">
        <ele>96.2</ele>
        <time>2017-04-09T07:40:03Z</time>
      </trkpt>
      <trkpt lat="49.23428" lon="1.11878">
        <ele>95.4</ele>
        <time>2017-04-09T07:40:05Z</time>
      </trkpt>
      <trkpt lat="49.23428" lon="1.11897">
        <ele>94.7</ele>
        <time>2017-04-09T07:40:07Z</time>
      </trkpt>
      <trkpt lat="49.23425" lon="1.11919">
        <ele>94</ele>
        <time>2017-04-09T07:40:09Z</time>
      </trkpt>
      <trkpt lat="49.23421" lon="1.11939">
        <ele>93.3</ele>
        <time>2017-04-09T07:40:11Z</time>
      </trkpt>
      <trkpt lat="49.23417" lon="1.11964">
        <ele>92.7</ele>
        <time>2017-04-09T07:40:13Z</time>
      </trkpt>
      <trkpt lat="49.23412" lon="1.11987">
        <ele>92</ele>
        <time>2017-04-09T07:40:15Z</time>
      </trkpt>
      <trkpt lat="49.23408" lon="1.12011">
        <ele>91.2</ele>
        <time>2017-04-09T07:40:17Z</time>
      </trkpt>
      <trkpt lat="49.23404" lon="1.12036">
        <ele>90.5</ele>
        <time>2017-04-09T07:40:19Z</time>
      </trkpt>
      <trkpt lat="49.234" lon="1.12061">
        <ele>89.8</ele>
        <time>2017-04-09T07:40:21Z</time>
      </trkpt>
      <trkpt lat="49.23398" lon="1.12084">
        <ele>89</ele>
        <time>2017-04-09T07:40:23Z</time>
      </trkpt>
      <trkpt lat="49.23395" lon="1.12109">
        <ele>88.4</ele>
        <time>2017-04-09T07:40:25Z</time>
      </trkpt>
      <trkpt lat="49.23393" lon="1.12134">
        <ele>87.7</ele>
        <time>2017-04-09T07:40:27Z</time>
      </trkpt>
      <trkpt lat="49.2339" lon="1.12157">
        <ele>87</ele>
        <time>2017-04-09T07:40:29Z</time>
      </trkpt>
      <trkpt lat="49.23389" lon="1.1217">
        <ele>86.6</ele>
        <time>2017-04-09T07:40:30Z</time>
      </trkpt>
      <trkpt lat="49.23386" lon="1.12195">
        <ele>86</ele>
        <time>2017-04-09T07:40:32Z</time>
      </trkpt>
      <trkpt lat="49.23384" lon="1.12218">
        <ele>85.4</ele>
        <time>2017-04-09T07:40:34Z</time>
      </trkpt>
      <trkpt lat="49.23379" lon="1.12241">
        <ele>84.8</ele>
        <time>2017-04-09T07:40:36Z</time>
      </trkpt>
      <trkpt lat="49.23376" lon="1.12261">
        <ele>84.2</ele>
        <time>2017-04-09T07:40:38Z</time>
      </trkpt>
      <trkpt lat="49.23371" lon="1.12287">
        <ele>83.7</ele>
        <time>2017-04-09T07:40:40Z</time>
      </trkpt>
      <trkpt lat="49.23368" lon="1.12313">
        <ele>83.2</ele>
        <time>2017-04-09T07:40:42Z</time>
      </trkpt>
      <trkpt lat="49.23366" lon="1.12337">
        <ele>82.6</ele>
        <time>2017-04-09T07:40:44Z</time>
      </trkpt>
      <trkpt lat="49.23365" lon="1.12363">
        <ele>81.9</ele>
        <time>2017-04-09T07:40:46Z</time>
      </trkpt>
      <trkpt lat="49.23363" lon="1.12386">
        <ele>81.2</ele>
        <time>2017-04-09T07:40:48Z</time>
      </trkpt>
      <trkpt lat="49.2336" lon="1.12409">
        <ele>80.7</ele>
        <time>2017-04-09T07:40:50Z</time>
      </trkpt>
      <trkpt lat="49.23356" lon="1.12432">
        <ele>80</ele>
        <time>2017-04-09T07:40:52Z</time>
      </trkpt>
      <trkpt lat="49.23356" lon="1.12453">
        <ele>79.4</ele>
        <time>2017-04-09T07:40:54Z</time>
      </trkpt>
      <trkpt lat="49.23352" lon="1.12467">
        <ele>78</ele>
        <time>2017-04-09T07:40:58Z</time>
      </trkpt>
      <trkpt lat="49.2334" lon="1.12466">
        <ele>76.7</ele>
        <time>2017-04-09T07:41:02Z</time>
      </trkpt>
      <trkpt lat="49.23329" lon="1.12464">
        <ele>75.6</ele>
        <time>2017-04-09T07:41:06Z</time>
      </trkpt>
      <trkpt lat="49.2332" lon="1.12464">
        <ele>74.9</ele>
        <time>2017-04-09T07:41:12Z</time>
      </trkpt>
      <trkpt lat="49.23311" lon="1.12464">
        <ele>75.2</ele>
        <time>2017-04-09T07:41:19Z</time>
      </trkpt>
      <trkpt lat="49.23301" lon="1.12462">
        <ele>76.3</ele>
        <time>2017-04-09T07:41:26Z</time>
      </trkpt>
      <trkpt lat="49.23292" lon="1.12459">
        <ele>79.1</ele>
        <time>2017-04-09T07:41:36Z</time>
      </trkpt>
      <trkpt lat="49.23282" lon="1.12456">
        <ele>81.6</ele>
        <time>2017-04-09T07:41:44Z</time>
      </trkpt>
      <trkpt lat="49.23272" lon="1.12453">
        <ele>84.5</ele>
        <time>2017-04-09T07:41:53Z</time>
      </trkpt>
      <trkpt lat="49.23262" lon="1.1245">
        <ele>86.4</ele>
        <time>2017-04-09T07:42:00Z</time>
      </trkpt>
      <trkpt lat="49.23253" lon="1.1245">
        <ele>88.6</ele>
        <time>2017-04-09T07:42:07Z</time>
      </trkpt>
      <trkpt lat="49.23243" lon="1.12448">
        <ele>90.4</ele>
        <time>2017-04-09T07:42:13Z</time>
      </trkpt>
      <trkpt lat="49.23233" lon="1.12445">
        <ele>92.2</ele>
        <time>2017-04-09T07:42:20Z</time>
      </trkpt>
      <trkpt lat="49.23223" lon="1.12443">
        <ele>93.6</ele>
        <time>2017-04-09T07:42:26Z</time>
      </trkpt>
      <trkpt lat="49.23213" lon="1.12439">
        <ele>94.7</ele>
        <time>2017-04-09T07:42:31Z</time>
      </trkpt>
      <trkpt lat="49.23202" lon="1.12437">
        <ele>95.5</ele>
        <time>2017-04-09T07:42:36Z</time>
      </trkpt>
      <trkpt lat="49.23192" lon="1.12435">
        <ele>96.3</ele>
        <time>2017-04-09T07:42:40Z</time>
      </trkpt>
      <trkpt lat="49.23181" lon="1.12433">
        <ele>96.9</ele>
        <time>2017-04-09T07:42:43Z</time>
      </trkpt>
      <trkpt lat="49.23171" lon="1.12431">
        <ele>97.5</ele>
        <time>2017-04-09T07:42:47Z</time>
      </trkpt>
      <trkpt lat="49.23161" lon="1.12428">
        <ele>97.9</ele>
        <time>2017-04-09T07:42:50Z</time>
      </trkpt>
      <trkpt lat="49.2315" lon="1.12426">
        <ele>98.3</ele>
        <time>2017-04-09T07:42:53Z</time>
      </trkpt>
      <trkpt lat="49.23141" lon="1.12421">
        <ele>98.5</ele>
        <time>2017-04-09T07:42:55Z</time>
      </trkpt>
      <trkpt lat="49.23139" lon="1.12406">
        <ele>98.7</ele>
        <time>2017-04-09T07:42:58Z</time>
      </trkpt>
      <trkpt lat="49.23141" lon="1.1239">
        <ele>98.8</ele>
        <time>2017-04-09T07:43:01Z</time>
      </trkpt>
      <trkpt lat="49.23136" lon="1.12373">
        <ele>99</ele>
        <time>2017-04-09T07:43:04Z</time>
      </trkpt>
      <trkpt lat="49.2313" lon="1.12363">
        <ele>99.2</ele>
        <time>2017-04-09T07:43:07Z</time>
      </trkpt>
      <trkpt lat="49.23119" lon="1.12347">
        <ele>99.3</ele>
        <time>2017-04-09T07:43:09Z</time>
      </trkpt>
      <trkpt lat="49.23113" lon="1.12333">
        <ele>99.5</ele>
        <time>2017-04-09T07:43:12Z</time>
      </trkpt>
      <trkpt lat="49.23107" lon="1.12322">
        <ele>99.6</ele>
        <time>2017-04-09T07:43:15Z</time>
      </trkpt>
      <trkpt lat="49.231" lon="1.12314">
        <ele>99.7</ele>
        <time>2017-04-09T07:43:17Z</time>
      </trkpt>
      <trkpt lat="49.23092" lon="1.12304">
        <ele>99.8</ele>
        <time>2017-04-09T07:43:19Z</time>
      </trkpt>
      <trkpt lat="49.23082" lon="1.12297">
        <ele>99.8</ele>
        <time>2017-04-09T07:43:22Z</time>
      </trkpt>
      <trkpt lat="49.23071" lon="1.12295">
        <ele>99.8</ele>
        <time>2017-04-09T07:43:24Z</time>
      </trkpt>
      <trkpt lat="49.23062" lon="1.12292">
        <ele>99.5</ele>
        <time>2017-04-09T07:43:26Z</time>
      </trkpt>
      <trkpt lat="49.23051" lon="1.12277">
        <ele>98.9</ele>
        <time>2017-04-09T07:43:29Z</time>
      </trkpt>
      <trkpt lat="49.23046" lon="1.12261">
        <ele>98.3</ele>
        <time>2017-04-09T07:43:32Z</time>
      </trkpt>
      <trkpt lat="49.2304" lon="1.12245">
        <ele>98.1</ele>
        <time>2017-04-09T07:43:34Z</time>
      </trkpt>
      <trkpt lat="49.23042" lon="1.12227">
        <ele>97.9</ele>
        <time>2017-04-09T07:43:37Z</time>
      </trkpt>
      <trkpt lat="49.23044" lon="1.12212">
        <ele>97.9</ele>
        <time>2017-04-09T07:43:40Z</time>
      </trkpt>
      <trkpt lat="49.23046" lon="1.12196">
        <ele>98.1</ele>
        <time>2017-04-09T07:43:43Z</time>
      </trkpt>
      <trkpt lat="49.23047" lon="1.12177">
        <ele>98.6</ele>
        <time>2017-04-09T07:43:47Z</time>
      </trkpt>
      <trkpt lat="49.23047" lon="1.1216">
        <ele>99.1</ele>
        <time>2017-04-09T07:43:50Z</time>
      </trkpt>
      <trkpt lat="49.23047" lon="1.12146">
        <ele>99.7</ele>
        <time>2017-04-09T07:43:53Z</time>
      </trkpt>
      <trkpt lat="49.2305" lon="1.12131">
        <ele>100.2</ele>
        <time>2017-04-09T07:43:56Z</time>
      </trkpt>
      <trkpt lat="49.23051" lon="1.12116">
        <ele>100.8</ele>
        <time>2017-04-09T07:43:59Z</time>
      </trkpt>
      <trkpt lat="49.23054" lon="1.12102">
        <ele>101.4</ele>
        <time>2017-04-09T07:44:02Z</time>
      </trkpt>
      <trkpt lat="49.23055" lon="1.12088">
        <ele>102</ele>
        <time>2017-04-09T07:44:05Z</time>
      </trkpt>
      <trkpt lat="49.23059" lon="1.12076">
        <ele>102.7</ele>
        <time>2017-04-09T07:44:08Z</time>
      </trkpt>
      <trkpt lat="49.23062" lon="1.1206">
        <ele>103.4</ele>
        <time>2017-04-09T07:44:11Z</time>
      </trkpt>
      <trkpt lat="49.23063" lon="1.12041">
        <ele>104.1</ele>
        <time>2017-04-09T07:44:15Z</time>
      </trkpt>
      <trkpt lat="49.23066" lon="1.12027">
        <ele>104.5</ele>
        <time>2017-04-09T07:44:18Z</time>
      </trkpt>
      <trkpt lat="49.23069" lon="1.12012">
        <ele>105</ele>
        <time>2017-04-09T07:44:21Z</time>
      </trkpt>
      <trkpt lat="49.23073" lon="1.11999">
        <ele>105.4</ele>
        <time>2017-04-09T07:44:24Z</time>
      </trkpt>
      <trkpt lat="49.23073" lon="1.11983">
        <ele>105.9</ele>
        <time>2017-04-09T07:44:27Z</time>
      </trkpt>
      <trkpt lat="49.23076" lon="1.11966">
        <ele>106.3</ele>
        <time>2017-04-09T07:44:30Z</time>
      </trkpt>
      <trkpt lat="49.23077" lon="1.11949">
        <ele>106.6</ele>
        <time>2017-04-09T07:44:33Z</time>
      </trkpt>
      <trkpt lat="49.23076" lon="1.11935">
        <ele>106.9</ele>
        <time>2017-04-09T07:44:36Z</time>
      </trkpt>
      <trkpt lat="49.23079" lon="1.1192">
        <ele>107.3</ele>
        <time>2017-04-09T07:44:39Z</time>
      </trkpt>
      <trkpt lat="49.23082" lon="1.11903">
        <ele>107.6</ele>
        <time>2017-04-09T07:44:42Z</time>
      </trkpt>
      <trkpt lat="49.23084" lon="1.11888">
        <ele>108</ele>
        <time>2017-04-09T07:44:45Z</time>
      </trkpt>
      <trkpt lat="49.23074" lon="1.11881">
        <ele>108.5</ele>
        <time>2017-04-09T07:44:49Z</time>
      </trkpt>
      <trkpt lat="49.23065" lon="1.11889">
        <ele>108.7</ele>
        <time>2017-04-09T07:44:52Z</time>
      </trkpt>
      <trkpt lat="49.23054" lon="1.11899">
        <ele>109</ele>
        <time>2017-04-09T07:44:55Z</time>
      </trkpt>
      <trkpt lat="49.23046" lon="1.11906">
        <ele>109.1</ele>
        <time>2017-04-09T07:44:57Z</time>
      </trkpt>
      <trkpt lat="49.23036" lon="1.11915">
        <ele>109.2</ele>
        <time>2017-04-09T07:44:59Z</time>
      </trkpt>
      <trkpt lat="49.23027" lon="1.11921">
        <ele>109.3</ele>
        <time>2017-04-09T07:45:01Z</time>
      </trkpt>
      <trkpt lat="49.23018" lon="1.11926">
        <ele>109.3</ele>
        <time>2017-04-09T07:45:03Z</time>
      </trkpt>
      <trkpt lat="49.23007" lon="1.1193">
        <ele>109.4</ele>
        <time>2017-04-09T07:45:05Z</time>
      </trkpt>
      <trkpt lat="49.22997" lon="1.11933">
        <ele>109.4</ele>
        <time>2017-04-09T07:45:08Z</time>
      </trkpt>
      <trkpt lat="49.22987" lon="1.11932">
        <ele>109.3</ele>
        <time>2017-04-09T07:45:10Z</time>
      </trkpt>
      <trkpt lat="49.22976" lon="1.11933">
        <ele>109.2</ele>
        <time>2017-04-09T07:45:12Z</time>
      </trkpt>
      <trkpt lat="49.22964" lon="1.11935">
        <ele>109</ele>
        <time>2017-04-09T07:45:14Z</time>
      </trkpt>
      <trkpt lat="49.22952" lon="1.1194">
        <ele>108.5</ele>
        <time>2017-04-09T07:45:16Z</time>
      </trkpt>
      <trkpt lat="49.22943" lon="1.11943">
        <ele>108.1</ele>
        <time>2017-04-09T07:45:18Z</time>
      </trkpt>
      <trkpt lat="49.22926" lon="1.11951">
        <ele>106.9</ele>
        <time>2017-04-09T07:45:21Z</time>
      </trkpt>
      <trkpt lat="49.22906" lon="1.11962">
        <ele>105.9</ele>
        <time>2017-04-09T07:45:23Z</time>
      </trkpt>
      <trkpt lat="49.22898" lon="1.11969">
        <ele>105.4</ele>
        <time>2017-04-09T07:45:24Z</time>
      </trkpt>
      <trkpt lat="49.22887" lon="1.11985">
        <ele>104.6</ele>
        <time>2017-04-09T07:45:26Z</time>
      </trkpt>
      <trkpt lat="49.22881" lon="1.11999">
        <ele>103.6</ele>
        <time>2017-04-09T07:45:28Z</time>
      </trkpt>
      <trkpt lat="49.22875" lon="1.12017">
        <ele>102.6</ele>
        <time>2017-04-09T07:45:30Z</time>
      </trkpt>
      <trkpt lat="49.22865" lon="1.12036">
        <ele>101.3</ele>
        <time>2017-04-09T07:45:32Z</time>
      </trkpt>
      <trkpt lat="49.22859" lon="1.1205">
        <ele>99.9</ele>
        <time>2017-04-09T07:45:34Z</time>
      </trkpt>
      <trkpt lat="49.22859" lon="1.12069">
        <ele>98.2</ele>
        <time>2017-04-09T07:45:36Z</time>
      </trkpt>
      <trkpt lat="49.22855" lon="1.12089">
        <ele>96.4</ele>
        <time>2017-04-09T07:45:38Z</time>
      </trkpt>
      <trkpt lat="49.22853" lon="1.12107">
        <ele>94.5</ele>
        <time>2017-04-09T07:45:40Z</time>
      </trkpt>
      <trkpt lat="49.22853" lon="1.12127">
        <ele>92.4</ele>
        <time>2017-04-09T07:45:42Z</time>
      </trkpt>
      <trkpt lat="49.22853" lon="1.12151">
        <ele>90.4</ele>
        <time>2017-04-09T07:45:44Z</time>
      </trkpt>
      <trkpt lat="49.22852" lon="1.12177">
        <ele>88.2</ele>
        <time>2017-04-09T07:45:46Z</time>
      </trkpt>
      <trkpt lat="49.22851" lon="1.12192">
        <ele>86.9</ele>
        <time>2017-04-09T07:45:47Z</time>
      </trkpt>
      <trkpt lat="49.2285" lon="1.12221">
        <ele>84.6</ele>
        <time>2017-04-09T07:45:49Z</time>
      </trkpt>
      <trkpt lat="49.22846" lon="1.12236">
        <ele>83.5</ele>
        <time>2017-04-09T07:45:50Z</time>
      </trkpt>
      <trkpt lat="49.22841" lon="1.12261">
        <ele>81.3</ele>
        <time>2017-04-09T07:45:52Z</time>
      </trkpt>
      <trkpt lat="49.22837" lon="1.12281">
        <ele>79.1</ele>
        <time>2017-04-09T07:45:54Z</time>
      </trkpt>
      <trkpt lat="49.22829" lon="1.1229">
        <ele>76.3</ele>
        <time>2017-04-09T07:45:57Z</time>
      </trkpt>
      <trkpt lat="49.22817" lon="1.1229">
        <ele>73.9</ele>
        <time>2017-04-09T07:46:00Z</time>
      </trkpt>
      <trkpt lat="49.22808" lon="1.12291">
        <ele>72.5</ele>
        <time>2017-04-09T07:46:02Z</time>
      </trkpt>
      <trkpt lat="49.22796" lon="1.12292">
        <ele>70.7</ele>
        <time>2017-04-09T07:46:05Z</time>
      </trkpt>
      <trkpt lat="49.22785" lon="1.12289">
        <ele>69.3</ele>
        <time>2017-04-09T07:46:08Z</time>
      </trkpt>
      <trkpt lat="49.22773" lon="1.12286">
        <ele>67.9</ele>
        <time>2017-04-09T07:46:12Z</time>
      </trkpt>
      <trkpt lat="49.22764" lon="1.12283">
        <ele>67.2</ele>
        <time>2017-04-09T07:46:16Z</time>
      </trkpt>
      <trkpt lat="49.22755" lon="1.12282">
        <ele>67</ele>
        <time>2017-04-09T07:46:21Z</time>
      </trkpt>
      <trkpt lat="49.22745" lon="1.12278">
        <ele>67.5</ele>
        <time>2017-04-09T07:46:26Z</time>
      </trkpt>
      <trkpt lat="49.22735" lon="1.12275">
        <ele>68.4</ele>
        <time>2017-04-09T07:46:31Z</time>
      </trkpt>
      <trkpt lat="49.22725" lon="1.12272">
        <ele>69.1</ele>
        <time>2017-04-09T07:46:35Z</time>
      </trkpt>
      <trkpt lat="49.22716" lon="1.1227">
        <ele>70.5</ele>
        <time>2017-04-09T07:46:41Z</time>
      </trkpt>
      <trkpt lat="49.22707" lon="1.12268">
        <ele>71.9</ele>
        <time>2017-04-09T07:46:47Z</time>
      </trkpt>
      <trkpt lat="49.22698" lon="1.12264">
        <ele>73.3</ele>
        <time>2017-04-09T07:46:53Z</time>
      </trkpt>
      <trkpt lat="49.22689" lon="1.12261">
        <ele>74.8</ele>
        <time>2017-04-09T07:46:59Z</time>
      </trkpt>
      <trkpt lat="49.22678" lon="1.12257">
        <ele>76.6</ele>
        <time>2017-04-09T07:47:07Z</time>
      </trkpt>
      <trkpt lat="49.2267" lon="1.12255">
        <ele>78</ele>
        <time>2017-04-09T07:47:13Z</time>
      </trkpt>
      <trkpt lat="49.22661" lon="1.12252">
        <ele>79.5</ele>
        <time>2017-04-09T07:47:19Z</time>
      </trkpt>
      <trkpt lat="49.22652" lon="1.12249">
        <ele>81.1</ele>
        <time>2017-04-09T07:47:25Z</time>
      </trkpt>
      <trkpt lat="49.22642" lon="1.12244">
        <ele>83</ele>
        <time>2017-04-09T07:47:32Z</time>
      </trkpt>
      <trkpt lat="49.22633" lon="1.12241">
        <ele>85.4</ele>
        <time>2017-04-09T07:47:41Z</time>
      </trkpt>
      <trkpt lat="49.22624" lon="1.12239">
        <ele>87</ele>
        <time>2017-04-09T07:47:47Z</time>
      </trkpt>
      <trkpt lat="49.22615" lon="1.12235">
        <ele>89.2</ele>
        <time>2017-04-09T07:47:55Z</time>
      </trkpt>
      <trkpt lat="49.22607" lon="1.12229">
        <ele>91.1</ele>
        <time>2017-04-09T07:48:02Z</time>
      </trkpt>
      <trkpt lat="49.22598" lon="1.12227">
        <ele>93.1</ele>
        <time>2017-04-09T07:48:09Z</time>
      </trkpt>
      <trkpt lat="49.22588" lon="1.12223">
        <ele>95.7</ele>
        <time>2017-04-09T07:48:18Z</time>
      </trkpt>
      <trkpt lat="49.22579" lon="1.12219">
        <ele>97.8</ele>
        <time>2017-04-09T07:48:25Z</time>
      </trkpt>
      <trkpt lat="49.2257" lon="1.12215">
        <ele>99.2</ele>
        <time>2017-04-09T07:48:30Z</time>
      </trkpt>
      <trkpt lat="49.2256" lon="1.12211">
        <ele>100.8</ele>
        <time>2017-04-09T07:48:36Z</time>
      </trkpt>
      <trkpt lat="49.2255" lon="1.12208">
        <ele>102.9</ele>
        <time>2017-04-09T07:48:44Z</time>
      </trkpt>
      <trkpt lat="49.22541" lon="1.12205">
        <ele>104.3</ele>
        <time>2017-04-09T07:48:49Z</time>
      </trkpt>
      <trkpt lat="49.22532" lon="1.12201">
        <ele>105.8</ele>
        <time>2017-04-09T07:48:56Z</time>
      </trkpt>
      <trkpt lat="49.22522" lon="1.12197">
        <ele>107.5</ele>
        <time>2017-04-09T07:49:03Z</time>
      </trkpt>
      <trkpt lat="49.22513" lon="1.12194">
        <ele>108.9</ele>
        <time>2017-04-09T07:49:09Z</time>
      </trkpt>
      <trkpt lat="49.22503" lon="1.1219">
        <ele>110.8</ele>
        <time>2017-04-09T07:49:17Z</time>
      </trkpt>
      <trkpt lat="49.22494" lon="1.12185">
        <ele>112.8</ele>
        <time>2017-04-09T07:49:25Z</time>
      </trkpt>
      <trkpt lat="49.22484" lon="1.12181">
        <ele>113.9</ele>
        <time>2017-04-09T07:49:30Z</time>
      </trkpt>
      <trkpt lat="49.22475" lon="1.12177">
        <ele>114.9</ele>
        <time>2017-04-09T07:49:35Z</time>
      </trkpt>
      <trkpt lat="49.22465" lon="1.12173">
        <ele>116.4</ele>
        <time>2017-04-09T07:49:42Z</time>
      </trkpt>
      <trkpt lat="49.22455" lon="1.12168">
        <ele>117.7</ele>
        <time>2017-04-09T07:49:48Z</time>
      </trkpt>
      <trkpt lat="49.22446" lon="1.12163">
        <ele>118.7</ele>
        <time>2017-04-09T07:49:53Z</time>
      </trkpt>
      <trkpt lat="49.22436" lon="1.1216">
        <ele>119.5</ele>
        <time>2017-04-09T07:49:57Z</time>
      </trkpt>
      <trkpt lat="49.22424" lon="1.12154">
        <ele>120.4</ele>
        <time>2017-04-09T07:50:02Z</time>
      </trkpt>
      <trkpt lat="49.22413" lon="1.1215">
        <ele>120.8</ele>
        <time>2017-04-09T07:50:05Z</time>
      </trkpt>
      <trkpt lat="49.22402" lon="1.12146">
        <ele>121.2</ele>
        <time>2017-04-09T07:50:08Z</time>
      </trkpt>
      <trkpt lat="49.22389" lon="1.12139">
        <ele>121.5</ele>
        <time>2017-04-09T07:50:11Z</time>
      </trkpt>
      <trkpt lat="49.2238" lon="1.12137">
        <ele>121.7</ele>
        <time>2017-04-09T07:50:13Z</time>
      </trkpt>
      <trkpt lat="49.22369" lon="1.12136">
        <ele>121.8</ele>
        <time>2017-04-09T07:50:15Z</time>
      </trkpt>
      <trkpt lat="49.22359" lon="1.12131">
        <ele>122</ele>
        <time>2017-04-09T07:50:17Z</time>
      </trkpt>
      <trkpt lat="49.2235" lon="1.12126">
        <ele>122.1</ele>
        <time>2017-04-09T07:50:19Z</time>
      </trkpt>
      <trkpt lat="49.22338" lon="1.12122">
        <ele>122.3</ele>
        <time>2017-04-09T07:50:22Z</time>
      </trkpt>
      <trkpt lat="49.22327" lon="1.12119">
        <ele>122.3</ele>
        <time>2017-04-09T07:50:24Z</time>
      </trkpt>
      <trkpt lat="49.22315" lon="1.12113">
        <ele>122.4</ele>
        <time>2017-04-09T07:50:27Z</time>
      </trkpt>
      <trkpt lat="49.22306" lon="1.12111">
        <ele>122.4</ele>
        <time>2017-04-09T07:50:29Z</time>
      </trkpt>
      <trkpt lat="49.22296" lon="1.12108">
        <ele>122.5</ele>
        <time>2017-04-09T07:50:31Z</time>
      </trkpt>
      <trkpt lat="49.22286" lon="1.12103">
        <ele>122.5</ele>
        <time>2017-04-09T07:50:33Z</time>
      </trkpt>
      <trkpt lat="49.22276" lon="1.12097">
        <ele>122.5</ele>
        <time>2017-04-09T07:50:35Z</time>
      </trkpt>
      <trkpt lat="49.22266" lon="1.12092">
        <ele>122.5</ele>
        <time>2017-04-09T07:50:37Z</time>
      </trkpt>
      <trkpt lat="49.22254" lon="1.12088">
        <ele>122.5</ele>
        <time>2017-04-09T07:50:39Z</time>
      </trkpt>
      <trkpt lat="49.22245" lon="1.12083">
        <ele>122.6</ele>
        <time>2017-04-09T07:50:41Z</time>
      </trkpt>
      <trkpt lat="49.22236" lon="1.12082">
        <ele>122.6</ele>
        <time>2017-04-09T07:50:43Z</time>
      </trkpt>
      <trkpt lat="49.2223" lon="1.12096">
        <ele>122.6</ele>
        <time>2017-04-09T07:50:46Z</time>
      </trkpt>
      <trkpt lat="49.22227" lon="1.12112">
        <ele>122.6</ele>
        <time>2017-04-09T07:50:48Z</time>
      </trkpt>
      <trkpt lat="49.22224" lon="1.12128">
        <ele>122.6</ele>
        <time>2017-04-09T07:50:50Z</time>
      </trkpt>
      <trkpt lat="49.22221" lon="1.12143">
        <ele>122.5</ele>
        <time>2017-04-09T07:50:52Z</time>
      </trkpt>
      <trkpt lat="49.22218" lon="1.12159">
        <ele>122.4</ele>
        <time>2017-04-09T07:50:54Z</time>
      </trkpt>
      <trkpt lat="49.22214" lon="1.12175">
        <ele>122.3</ele>
        <time>2017-04-09T07:50:56Z</time>
      </trkpt>
      <trkpt lat="49.22211" lon="1.1219">
        <ele>122.2</ele>
        <time>2017-04-09T07:50:58Z</time>
      </trkpt>
      <trkpt lat="49.22208" lon="1.12206">
        <ele>122.2</ele>
        <time>2017-04-09T07:51:00Z</time>
      </trkpt>
      <trkpt lat="49.22206" lon="1.12224">
        <ele>122.1</ele>
        <time>2017-04-09T07:51:02Z</time>
      </trkpt>
      <trkpt lat="49.22203" lon="1.12243">
        <ele>122</ele>
        <time>2017-04-09T07:51:04Z</time>
      </trkpt>
      <trkpt lat="49.22199" lon="1.12262">
        <ele>121.8</ele>
        <time>2017-04-09T07:51:06Z</time>
      </trkpt>
      <trkpt lat="49.22196" lon="1.12281">
        <ele>121.6</ele>
        <time>2017-04-09T07:51:08Z</time>
      </trkpt>
      <trkpt lat="49.22193" lon="1.12302">
        <ele>121.4</ele>
        <time>2017-04-09T07:51:10Z</time>
      </trkpt>
      <trkpt lat="49.22191" lon="1.12321">
        <ele>121.2</ele>
        <time>2017-04-09T07:51:12Z</time>
      </trkpt>
      <trkpt lat="49.22189" lon="1.12344">
        <ele>120.9</ele>
        <time>2017-04-09T07:51:14Z</time>
      </trkpt>
      <trkpt lat="49.22185" lon="1.12367">
        <ele>120.6</ele>
        <time>2017-04-09T07:51:16Z</time>
      </trkpt>
      <trkpt lat="49.22182" lon="1.12389">
        <ele>120.3</ele>
        <time>2017-04-09T07:51:18Z</time>
      </trkpt>
      <trkpt lat="49.22179" lon="1.12411">
        <ele>120</ele>
        <time>2017-04-09T07:51:20Z</time>
      </trkpt>
      <trkpt lat="49.22176" lon="1.12432">
        <ele>119.7</ele>
        <time>2017-04-09T07:51:22Z</time>
      </trkpt>
      <trkpt lat="49.22176" lon="1.12453">
        <ele>119.5</ele>
        <time>2017-04-09T07:51:24Z</time>
      </trkpt>
      <trkpt lat="49.22177" lon="1.12475">
        <ele>119.2</ele>
        <time>2017-04-09T07:51:26Z</time>
      </trkpt>
      <trkpt lat="49.22178" lon="1.12497">
        <ele>118.8</ele>
        <time>2017-04-09T07:51:28Z</time>
      </trkpt>
      <trkpt lat="49.22179" lon="1.12518">
        <ele>118.5</ele>
        <time>2017-04-09T07:51:30Z</time>
      </trkpt>
      <trkpt lat="49.22179" lon="1.1254">
        <ele>118.2</ele>
        <time>2017-04-09T07:51:32Z</time>
      </trkpt>
      <trkpt lat="49.22179" lon="1.1256">
        <ele>117.9</ele>
        <time>2017-04-09T07:51:34Z</time>
      </trkpt>
      <trkpt lat="49.22181" lon="1.12579">
        <ele>117.6</ele>
        <time>2017-04-09T07:51:36Z</time>
      </trkpt>
      <trkpt lat="49.22181" lon="1.12593">
        <ele>117.3</ele>
        <time>2017-04-09T07:51:38Z</time>
      </trkpt>
      <trkpt lat="49.22183" lon="1.12607">
        <ele>116.6</ele>
        <time>2017-04-09T07:51:42Z</time>
      </trkpt>
      <trkpt lat="49.22184" lon="1.12628">
        <ele>116</ele>
        <time>2017-04-09T07:51:45Z</time>
      </trkpt>
      <trkpt lat="49.22185" lon="1.12646">
        <ele>115.7</ele>
        <time>2017-04-09T07:51:47Z</time>
      </trkpt>
      <trkpt lat="49.22185" lon="1.12667">
        <ele>115.3</ele>
        <time>2017-04-09T07:51:49Z</time>
      </trkpt>
      <trkpt lat="49.22186" lon="1.1269">
        <ele>115</ele>
        <time>2017-04-09T07:51:51Z</time>
      </trkpt>
      <trkpt lat="49.22188" lon="1.12714">
        <ele>114.4</ele>
        <time>2017-04-09T07:51:53Z</time>
      </trkpt>
      <trkpt lat="49.2219" lon="1.1274">
        <ele>113.8</ele>
        <time>2017-04-09T07:51:55Z</time>
      </trkpt>
      <trkpt lat="49.22193" lon="1.12765">
        <ele>113.2</ele>
        <time>2017-04-09T07:51:57Z</time>
      </trkpt>
      <trkpt lat="49.22197" lon="1.12781">
        <ele>112.4</ele>
        <time>2017-04-09T07:51:59Z</time>
      </trkpt>
      <trkpt lat="49.22203" lon="1.12801">
        <ele>111.3</ele>
        <time>2017-04-09T07:52:02Z</time>
      </trkpt>
      <trkpt lat="49.2221" lon="1.12821">
        <ele>110.6</ele>
        <time>2017-04-09T07:52:04Z</time>
      </trkpt>
      <trkpt lat="49.22218" lon="1.12841">
        <ele>109.9</ele>
        <time>2017-04-09T07:52:06Z</time>
      </trkpt>
      <trkpt lat="49.22228" lon="1.12858">
        <ele>109.1</ele>
        <time>2017-04-09T07:52:08Z</time>
      </trkpt>
      <trkpt lat="49.22235" lon="1.12877">
        <ele>108.4</ele>
        <time>2017-04-09T07:52:10Z</time>
      </trkpt>
      <trkpt lat="49.22244" lon="1.12896">
        <ele>107.6</ele>
        <time>2017-04-09T07:52:12Z</time>
      </trkpt>
      <trkpt lat="49.22253" lon="1.12912">
        <ele>106.9</ele>
        <time>2017-04-09T07:52:14Z</time>
      </trkpt>
      <trkpt lat="49.22264" lon="1.12922">
        <ele>106.2</ele>
        <time>2017-04-09T07:52:16Z</time>
      </trkpt>
      <trkpt lat="49.22274" lon="1.12931">
        <ele>105.4</ele>
        <time>2017-04-09T07:52:19Z</time>
      </trkpt>
      <trkpt lat="49.22282" lon="1.12939">
        <ele>105</ele>
        <time>2017-04-09T07:52:22Z</time>
      </trkpt>
      <trkpt lat="49.22291" lon="1.12944">
        <ele>104.9</ele>
        <time>2017-04-09T07:52:26Z</time>
      </trkpt>
      <trkpt lat="49.22301" lon="1.1295">
        <ele>105.2</ele>
        <time>2017-04-09T07:52:30Z</time>
      </trkpt>
      <trkpt lat="49.22312" lon="1.12954">
        <ele>105.7</ele>
        <time>2017-04-09T07:52:34Z</time>
      </trkpt>
      <trkpt lat="49.22324" lon="1.1296">
        <ele>106.4</ele>
        <time>2017-04-09T07:52:38Z</time>
      </trkpt>
      <trkpt lat="49.22333" lon="1.12965">
        <ele>107.1</ele>
        <time>2017-04-09T07:52:41Z</time>
      </trkpt>
      <trkpt lat="49.22343" lon="1.1297">
        <ele>107.6</ele>
        <time>2017-04-09T07:52:44Z</time>
      </trkpt>
      <trkpt lat="49.22353" lon="1.12974">
        <ele>108</ele>
        <time>2017-04-09T07:52:47Z</time>
      </trkpt>
      <trkpt lat="49.22362" lon="1.12979">
        <ele>108.4</ele>
        <time>2017-04-09T07:52:50Z</time>
      </trkpt>
      <trkpt lat="49.22372" lon="1.12984">
        <ele>108.8</ele>
        <time>2017-04-09T07:52:53Z</time>
      </trkpt>
      <trkpt lat="49.22382" lon="1.1299">
        <ele>109.2</ele>
        <time>2017-04-09T07:52:56Z</time>
      </trkpt>
      <trkpt lat="49.22393" lon="1.12998">
        <ele>109.6</ele>
        <time>2017-04-09T07:52:59Z</time>
      </trkpt>
      <trkpt lat="49.22402" lon="1.13004">
        <ele>109.8</ele>
        <time>2017-04-09T07:53:01Z</time>
      </trkpt>
      <trkpt lat="49.22412" lon="1.13011">
        <ele>110.1</ele>
        <time>2017-04-09T07:53:04Z</time>
      </trkpt>
      <trkpt lat="49.2242" lon="1.13018">
        <ele>110.2</ele>
        <time>2017-04-09T07:53:06Z</time>
      </trkpt>
      <trkpt lat="49.22428" lon="1.1303">
        <ele>110.3</ele>
        <time>2017-04-09T07:53:08Z</time>
      </trkpt>
      <trkpt lat="49.22435" lon="1.13042">
        <ele>110.5</ele>
        <time>2017-04-09T07:53:10Z</time>
      </trkpt>
      <trkpt lat="49.22442" lon="1.13058">
        <ele>110.6</ele>
        <time>2017-04-09T07:53:12Z</time>
      </trkpt>
      <trkpt lat="49.22448" lon="1.13077">
        <ele>110.5</ele>
        <time>2017-04-09T07:53:14Z</time>
      </trkpt>
      <trkpt lat="49.22451" lon="1.13096">
        <ele>110.5</ele>
        <time>2017-04-09T07:53:16Z</time>
      </trkpt>
      <trkpt lat="49.22454" lon="1.13115">
        <ele>110.5</ele>
        <time>2017-04-09T07:53:18Z</time>
      </trkpt>
      <trkpt lat="49.22458" lon="1.13137">
        <ele>110.4</ele>
        <time>2017-04-09T07:53:20Z</time>
      </trkpt>
      <trkpt lat="49.22463" lon="1.13156">
        <ele>110.3</ele>
        <time>2017-04-09T07:53:22Z</time>
      </trkpt>
      <trkpt lat="49.22467" lon="1.13175">
        <ele>110.2</ele>
        <time>2017-04-09T07:53:24Z</time>
      </trkpt>
      <trkpt lat="49.22468" lon="1.13195">
        <ele>110.1</ele>
        <time>2017-04-09T07:53:26Z</time>
      </trkpt>
      <trkpt lat="49.22469" lon="1.13215">
        <ele>109.9</ele>
        <time>2017-04-09T07:53:28Z</time>
      </trkpt>
      <trkpt lat="49.22471" lon="1.13235">
        <ele>109.8</ele>
        <time>2017-04-09T07:53:30Z</time>
      </trkpt>
      <trkpt lat="49.22474" lon="1.13256">
        <ele>109.7</ele>
        <time>2017-04-09T07:53:32Z</time>
      </trkpt>
      <trkpt lat="49.22476" lon="1.13277">
        <ele>109.5</ele>
        <time>2017-04-09T07:53:34Z</time>
      </trkpt>
      <trkpt lat="49.22476" lon="1.13295">
        <ele>109.4</ele>
        <time>2017-04-09T07:53:36Z</time>
      </trkpt>
      <trkpt lat="49.22479" lon="1.13313">
        <ele>109.3</ele>
        <time>2017-04-09T07:53:38Z</time>
      </trkpt>
      <trkpt lat="49.22481" lon="1.13332">
        <ele>109.1</ele>
        <time>2017-04-09T07:53:40Z</time>
      </trkpt>
      <trkpt lat="49.22481" lon="1.13351">
        <ele>108.9</ele>
        <time>2017-04-09T07:53:42Z</time>
      </trkpt>
      <trkpt lat="49.22482" lon="1.13369">
        <ele>108.7</ele>
        <time>2017-04-09T07:53:44Z</time>
      </trkpt>
      <trkpt lat="49.22484" lon="1.13387">
        <ele>108.5</ele>
        <time>2017-04-09T07:53:46Z</time>
      </trkpt>
      <trkpt lat="49.22485" lon="1.13406">
        <ele>108.3</ele>
        <time>2017-04-09T07:53:48Z</time>
      </trkpt>
      <trkpt lat="49.22486" lon="1.13424">
        <ele>108.2</ele>
        <time>2017-04-09T07:53:50Z</time>
      </trkpt>
      <trkpt lat="49.22487" lon="1.13443">
        <ele>108</ele>
        <time>2017-04-09T07:53:52Z</time>
      </trkpt>
      <trkpt lat="49.22488" lon="1.1346">
        <ele>107.8</ele>
        <time>2017-04-09T07:53:54Z</time>
      </trkpt>
      <trkpt lat="49.22487" lon="1.13478">
        <ele>107.6</ele>
        <time>2017-04-09T07:53:56Z</time>
      </trkpt>
      <trkpt lat="49.22487" lon="1.13496">
        <ele>107.4</ele>
        <time>2017-04-09T07:53:58Z</time>
      </trkpt>
      <trkpt lat="49.22486" lon="1.13514">
        <ele>107.3</ele>
        <time>2017-04-09T07:54:00Z</time>
      </trkpt>
      <trkpt lat="49.22487" lon="1.13533">
        <ele>107.1</ele>
        <time>2017-04-09T07:54:02Z</time>
      </trkpt>
      <trkpt lat="49.22488" lon="1.13551">
        <ele>106.9</ele>
        <time>2017-04-09T07:54:04Z</time>
      </trkpt>
      <trkpt lat="49.2249" lon="1.13567">
        <ele>106.7</ele>
        <time>2017-04-09T07:54:06Z</time>
      </trkpt>
      <trkpt lat="49.22494" lon="1.13584">
        <ele>106.4</ele>
        <time>2017-04-09T07:54:08Z</time>
      </trkpt>
      <trkpt lat="49.22501" lon="1.13598">
        <ele>106.1</ele>
        <time>2017-04-09T07:54:10Z</time>
      </trkpt>
      <trkpt lat="49.22506" lon="1.13614">
        <ele>105.8</ele>
        <time>2017-04-09T07:54:12Z</time>
      </trkpt>
      <trkpt lat="49.2251" lon="1.1363">
        <ele>105.3</ele>
        <time>2017-04-09T07:54:14Z</time>
      </trkpt>
      <trkpt lat="49.22512" lon="1.1365">
        <ele>105</ele>
        <time>2017-04-09T07:54:16Z</time>
      </trkpt>
      <trkpt lat="49.22514" lon="1.13676">
        <ele>104.4</ele>
        <time>2017-04-09T07:54:18Z</time>
      </trkpt>
      <trkpt lat="49.22514" lon="1.13697">
        <ele>103.9</ele>
        <time>2017-04-09T07:54:20Z</time>
      </trkpt>
      <trkpt lat="49.22515" lon="1.13716">
        <ele>103.4</ele>
        <time>2017-04-09T07:54:22Z</time>
      </trkpt>
      <trkpt lat="49.22518" lon="1.13736">
        <ele>102.8</ele>
        <time>2017-04-09T07:54:24Z</time>
      </trkpt>
      <trkpt lat="49.22524" lon="1.13748">
        <ele>102.3</ele>
        <time>2017-04-09T07:54:26Z</time>
      </trkpt>
      <trkpt lat="49.22526" lon="1.1377">
        <ele>101.8</ele>
        <time>2017-04-09T07:54:28Z</time>
      </trkpt>
      <trkpt lat="49.22531" lon="1.1379">
        <ele>101.2</ele>
        <time>2017-04-09T07:54:30Z</time>
      </trkpt>
      <trkpt lat="49.22535" lon="1.13813">
        <ele>100.6</ele>
        <time>2017-04-09T07:54:32Z</time>
      </trkpt>
      <trkpt lat="49.22537" lon="1.13829">
        <ele>100.2</ele>
        <time>2017-04-09T07:54:33Z</time>
      </trkpt>
      <trkpt lat="49.22542" lon="1.13855">
        <ele>99.5</ele>
        <time>2017-04-09T07:54:35Z</time>
      </trkpt>
      <trkpt lat="49.22545" lon="1.1388">
        <ele>98.7</ele>
        <time>2017-04-09T07:54:37Z</time>
      </trkpt>
      <trkpt lat="49.2255" lon="1.139">
        <ele>97.9</ele>
        <time>2017-04-09T07:54:39Z</time>
      </trkpt>
      <trkpt lat="49.22556" lon="1.13925">
        <ele>97.1</ele>
        <time>2017-04-09T07:54:41Z</time>
      </trkpt>
      <trkpt lat="49.22562" lon="1.13949">
        <ele>96.3</ele>
        <time>2017-04-09T07:54:43Z</time>
      </trkpt>
      <trkpt lat="49.22567" lon="1.13974">
        <ele>95.2</ele>
        <time>2017-04-09T07:54:45Z</time>
      </trkpt>
      <trkpt lat="49.22574" lon="1.13998">
        <ele>94.3</ele>
        <time>2017-04-09T07:54:47Z</time>
      </trkpt>
      <trkpt lat="49.22584" lon="1.14021">
        <ele>93.3</ele>
        <time>2017-04-09T07:54:49Z</time>
      </trkpt>
      <trkpt lat="49.22597" lon="1.14031">
        <ele>92.3</ele>
        <time>2017-04-09T07:54:51Z</time>
      </trkpt>
      <trkpt lat="49.22605" lon="1.14038">
        <ele>91.8</ele>
        <time>2017-04-09T07:54:52Z</time>
      </trkpt>
      <trkpt lat="49.22613" lon="1.14043">
        <ele>91.3</ele>
        <time>2017-04-09T07:54:53Z</time>
      </trkpt>
      <trkpt lat="49.22622" lon="1.1405">
        <ele>90.7</ele>
        <time>2017-04-09T07:54:54Z</time>
      </trkpt>
      <trkpt lat="49.22631" lon="1.14055">
        <ele>90.1</ele>
        <time>2017-04-09T07:54:55Z</time>
      </trkpt>
      <trkpt lat="49.22641" lon="1.1406">
        <ele>89.5</ele>
        <time>2017-04-09T07:54:56Z</time>
      </trkpt>
      <trkpt lat="49.22651" lon="1.14067">
        <ele>89</ele>
        <time>2017-04-09T07:54:57Z</time>
      </trkpt>
      <trkpt lat="49.2266" lon="1.14072">
        <ele>88.3</ele>
        <time>2017-04-09T07:54:58Z</time>
      </trkpt>
      <trkpt lat="49.22676" lon="1.14081">
        <ele>87.1</ele>
        <time>2017-04-09T07:55:00Z</time>
      </trkpt>
      <trkpt lat="49.22689" lon="1.14092">
        <ele>85.6</ele>
        <time>2017-04-09T07:55:02Z</time>
      </trkpt>
      <trkpt lat="49.227" lon="1.141">
        <ele>84.1</ele>
        <time>2017-04-09T07:55:04Z</time>
      </trkpt>
      <trkpt lat="49.22712" lon="1.14106">
        <ele>82.7</ele>
        <time>2017-04-09T07:55:06Z</time>
      </trkpt>
      <trkpt lat="49.22724" lon="1.14114">
        <ele>81.2</ele>
        <time>2017-04-09T07:55:08Z</time>
      </trkpt>
      <trkpt lat="49.22739" lon="1.14122">
        <ele>79.6</ele>
        <time>2017-04-09T07:55:10Z</time>
      </trkpt>
      <trkpt lat="49.22752" lon="1.14127">
        <ele>78</ele>
        <time>2017-04-09T07:55:12Z</time>
      </trkpt>
      <trkpt lat="49.22761" lon="1.14132">
        <ele>76.3</ele>
        <time>2017-04-09T07:55:14Z</time>
      </trkpt>
      <trkpt lat="49.2277" lon="1.14135">
        <ele>74.5</ele>
        <time>2017-04-09T07:55:16Z</time>
      </trkpt>
      <trkpt lat="49.22778" lon="1.14144">
        <ele>72.6</ele>
        <time>2017-04-09T07:55:18Z</time>
      </trkpt>
      <trkpt lat="49.22788" lon="1.14151">
        <ele>69.5</ele>
        <time>2017-04-09T07:55:21Z</time>
      </trkpt>
      <trkpt lat="49.228" lon="1.1416">
        <ele>67.5</ele>
        <time>2017-04-09T07:55:23Z</time>
      </trkpt>
      <trkpt lat="49.22811" lon="1.14169">
        <ele>65.4</ele>
        <time>2017-04-09T07:55:25Z</time>
      </trkpt>
      <trkpt lat="49.22825" lon="1.14184">
        <ele>63.4</ele>
        <time>2017-04-09T07:55:27Z</time>
      </trkpt>
      <trkpt lat="49.22832" lon="1.14201">
        <ele>61.3</ele>
        <time>2017-04-09T07:55:29Z</time>
      </trkpt>
      <trkpt lat="49.22835" lon="1.1422">
        <ele>59.4</ele>
        <time>2017-04-09T07:55:31Z</time>
      </trkpt>
      <trkpt lat="49.22843" lon="1.14234">
        <ele>57.4</ele>
        <time>2017-04-09T07:55:33Z</time>
      </trkpt>
      <trkpt lat="49.22852" lon="1.14243">
        <ele>55.5</ele>
        <time>2017-04-09T07:55:35Z</time>
      </trkpt>
      <trkpt lat="49.22862" lon="1.1424">
        <ele>52.4</ele>
        <time>2017-04-09T07:55:39Z</time>
      </trkpt>
      <trkpt lat="49.22869" lon="1.14232">
        <ele>50.6</ele>
        <time>2017-04-09T07:55:42Z</time>
      </trkpt>
      <trkpt lat="49.22878" lon="1.14221">
        <ele>49.2</ele>
        <time>2017-04-09T07:55:45Z</time>
      </trkpt>
      <trkpt lat="49.22887" lon="1.14212">
        <ele>48.4</ele>
        <time>2017-04-09T07:55:47Z</time>
      </trkpt>
      <trkpt lat="49.22894" lon="1.14199">
        <ele>47.4</ele>
        <time>2017-04-09T07:55:50Z</time>
      </trkpt>
      <trkpt lat="49.22901" lon="1.14191">
        <ele>46.9</ele>
        <time>2017-04-09T07:55:52Z</time>
      </trkpt>
      <trkpt lat="49.22913" lon="1.14184">
        <ele>46.3</ele>
        <time>2017-04-09T07:55:55Z</time>
      </trkpt>
      <trkpt lat="49.22925" lon="1.1418">
        <ele>45.9</ele>
        <time>2017-04-09T07:55:58Z</time>
      </trkpt>
      <trkpt lat="49.22936" lon="1.14182">
        <ele>45.7</ele>
        <time>2017-04-09T07:56:00Z</time>
      </trkpt>
      <trkpt lat="49.22945" lon="1.14186">
        <ele>45.6</ele>
        <time>2017-04-09T07:56:03Z</time>
      </trkpt>
      <trkpt lat="49.22955" lon="1.14189">
        <ele>45.5</ele>
        <time>2017-04-09T07:56:05Z</time>
      </trkpt>
      <trkpt lat="49.22967" lon="1.14192">
        <ele>45.5</ele>
        <time>2017-04-09T07:56:08Z</time>
      </trkpt>
      <trkpt lat="49.22978" lon="1.14194">
        <ele>45.5</ele>
        <time>2017-04-09T07:56:10Z</time>
      </trkpt>
      <trkpt lat="49.22988" lon="1.14197">
        <ele>45.5</ele>
        <time>2017-04-09T07:56:12Z</time>
      </trkpt>
      <trkpt lat="49.22998" lon="1.14199">
        <ele>45.5</ele>
        <time>2017-04-09T07:56:14Z</time>
      </trkpt>
      <trkpt lat="49.23009" lon="1.142">
        <ele>45.5</ele>
        <time>2017-04-09T07:56:16Z</time>
      </trkpt>
      <trkpt lat="49.23021" lon="1.14198">
        <ele>45.6</ele>
        <time>2017-04-09T07:56:18Z</time>
      </trkpt>
      <trkpt lat="49.23033" lon="1.14192">
        <ele>45.7</ele>
        <time>2017-04-09T07:56:20Z</time>
      </trkpt>
      <trkpt lat="49.23043" lon="1.14186">
        <ele>45.7</ele>
        <time>2017-04-09T07:56:22Z</time>
      </trkpt>
      <trkpt lat="49.23052" lon="1.14178">
        <ele>45.7</ele>
        <time>2017-04-09T07:56:24Z</time>
      </trkpt>
      <trkpt lat="49.23063" lon="1.1417">
        <ele>45.7</ele>
        <time>2017-04-09T07:56:26Z</time>
      </trkpt>
      <trkpt lat="49.23076" lon="1.14163">
        <ele>45.7</ele>
        <time>2017-04-09T07:56:28Z</time>
      </trkpt>
      <trkpt lat="49.23086" lon="1.14158">
        <ele>45.7</ele>
        <time>2017-04-09T07:56:30Z</time>
      </trkpt>
      <trkpt lat="49.23098" lon="1.14155">
        <ele>45.8</ele>
        <time>2017-04-09T07:56:32Z</time>
      </trkpt>
      <trkpt lat="49.23109" lon="1.14148">
        <ele>45.9</ele>
        <time>2017-04-09T07:56:34Z</time>
      </trkpt>
      <trkpt lat="49.23119" lon="1.1414">
        <ele>46.1</ele>
        <time>2017-04-09T07:56:36Z</time>
      </trkpt>
      <trkpt lat="49.23127" lon="1.14129">
        <ele>46.2</ele>
        <time>2017-04-09T07:56:38Z</time>
      </trkpt>
      <trkpt lat="49.23138" lon="1.14117">
        <ele>46.3</ele>
        <time>2017-04-09T07:56:40Z</time>
      </trkpt>
      <trkpt lat="49.23147" lon="1.14104">
        <ele>46.4</ele>
        <time>2017-04-09T07:56:42Z</time>
      </trkpt>
      <trkpt lat="49.23159" lon="1.1409">
        <ele>46.4</ele>
        <time>2017-04-09T07:56:44Z</time>
      </trkpt>
      <trkpt lat="49.23169" lon="1.14073">
        <ele>46.4</ele>
        <time>2017-04-09T07:56:46Z</time>
      </trkpt>
      <trkpt lat="49.23178" lon="1.14058">
        <ele>46.3</ele>
        <time>2017-04-09T07:56:48Z</time>
      </trkpt>
      <trkpt lat="49.23187" lon="1.14039">
        <ele>46.2</ele>
        <time>2017-04-09T07:56:50Z</time>
      </trkpt>
      <trkpt lat="49.23195" lon="1.14021">
        <ele>46.1</ele>
        <time>2017-04-09T07:56:52Z</time>
      </trkpt>
      <trkpt lat="49.232" lon="1.14">
        <ele>45.9</ele>
        <time>2017-04-09T07:56:54Z</time>
      </trkpt>
      <trkpt lat="49.23204" lon="1.13979">
        <ele>45.8</ele>
        <time>2017-04-09T07:56:56Z</time>
      </trkpt>
      <trkpt lat="49.23206" lon="1.13959">
        <ele>45.7</ele>
        <time>2017-04-09T07:56:58Z</time>
      </trkpt>
      <trkpt lat="49.23208" lon="1.13939">
        <ele>45.6</ele>
        <time>2017-04-09T07:57:00Z</time>
      </trkpt>
      <trkpt lat="49.23209" lon="1.1392">
        <ele>45.5</ele>
        <time>2017-04-09T07:57:02Z</time>
      </trkpt>
      <trkpt lat="49.23209" lon="1.13901">
        <ele>45.4</ele>
        <time>2017-04-09T07:57:04Z</time>
      </trkpt>
      <trkpt lat="49.23212" lon="1.13882">
        <ele>45.3</ele>
        <time>2017-04-09T07:57:06Z</time>
      </trkpt>
      <trkpt lat="49.23212" lon="1.13865">
        <ele>45.2</ele>
        <time>2017-04-09T07:57:08Z</time>
      </trkpt>
      <trkpt lat="49.23211" lon="1.13846">
        <ele>45.2</ele>
        <time>2017-04-09T07:57:10Z</time>
      </trkpt>
      <trkpt lat="49.23206" lon="1.13828">
        <ele>45.1</ele>
        <time>2017-04-09T07:57:12Z</time>
      </trkpt>
      <trkpt lat="49.23204" lon="1.13811">
        <ele>45.1</ele>
        <time>2017-04-09T07:57:14Z</time>
      </trkpt>
      <trkpt lat="49.23199" lon="1.13793">
        <ele>45</ele>
        <time>2017-04-09T07:57:16Z</time>
      </trkpt>
      <trkpt lat="49.23195" lon="1.13768">
        <ele>45</ele>
        <time>2017-04-09T07:57:19Z</time>
      </trkpt>
      <trkpt lat="49.23193" lon="1.13751">
        <ele>45</ele>
        <time>2017-04-09T07:57:21Z</time>
      </trkpt>
      <trkpt lat="49.23194" lon="1.13734">
        <ele>45.1</ele>
        <time>2017-04-09T07:57:23Z</time>
      </trkpt>
      <trkpt lat="49.23186" lon="1.13716">
        <ele>45.1</ele>
        <time>2017-04-09T07:57:25Z</time>
      </trkpt>
      <trkpt lat="49.23177" lon="1.1369">
        <ele>45</ele>
        <time>2017-04-09T07:57:28Z</time>
      </trkpt>
      <trkpt lat="49.23164" lon="1.13655">
        <ele>45</ele>
        <time>2017-04-09T07:57:32Z</time>
      </trkpt>
      <trkpt lat="49.23155" lon="1.13627">
        <ele>45.5</ele>
        <time>2017-04-09T07:57:35Z</time>
      </trkpt>
      <trkpt lat="49.23149" lon="1.13609">
        <ele>45</ele>
        <time>2017-04-09T07:57:37Z</time>
      </trkpt>
      <trkpt lat="49.23142" lon="1.13581">
        <ele>45.8</ele>
        <time>2017-04-09T07:57:40Z</time>
      </trkpt>
      <trkpt lat="49.23137" lon="1.13563">
        <ele>45.9</ele>
        <time>2017-04-09T07:57:42Z</time>
      </trkpt>
      <trkpt lat="49.23133" lon="1.13544">
        <ele>45.9</ele>
        <time>2017-04-09T07:57:44Z</time>
      </trkpt>
      <trkpt lat="49.23128" lon="1.13525">
        <ele>46</ele>
        <time>2017-04-09T07:57:46Z</time>
      </trkpt>
      <trkpt lat="49.23123" lon="1.13507">
        <ele>46.1</ele>
        <time>2017-04-09T07:57:48Z</time>
      </trkpt>
      <trkpt lat="49.23119" lon="1.13489">
        <ele>46.2</ele>
        <time>2017-04-09T07:57:50Z</time>
      </trkpt>
      <trkpt lat="49.23115" lon="1.13471">
        <ele>46.3</ele>
        <time>2017-04-09T07:57:52Z</time>
      </trkpt>
      <trkpt lat="49.23113" lon="1.13452">
        <ele>46.5</ele>
        <time>2017-04-09T07:57:54Z</time>
      </trkpt>
      <trkpt lat="49.23111" lon="1.13433">
        <ele>46.6</ele>
        <time>2017-04-09T07:57:56Z</time>
      </trkpt>
      <trkpt lat="49.23109" lon="1.13405">
        <ele>46</ele>
        <time>2017-04-09T07:57:59Z</time>
      </trkpt>
      <trkpt lat="49.23107" lon="1.13379">
        <ele>46.8</ele>
        <time>2017-04-09T07:58:02Z</time>
      </trkpt>
      <trkpt lat="49.23103" lon="1.13365">
        <ele>46.9</ele>
        <time>2017-04-09T07:58:04Z</time>
      </trkpt>
      <trkpt lat="49.23097" lon="1.13352">
        <ele>47.1</ele>
        <time>2017-04-09T07:58:08Z</time>
      </trkpt>
      <trkpt lat="49.23087" lon="1.13353">
        <ele>47.2</ele>
        <time>2017-04-09T07:58:12Z</time>
      </trkpt>
      <trkpt lat="49.23077" lon="1.13346">
        <ele>47.3</ele>
        <time>2017-04-09T07:58:15Z</time>
      </trkpt>
      <trkpt lat="49.23067" lon="1.13343">
        <ele>47.7</ele>
        <time>2017-04-09T07:58:21Z</time>
      </trkpt>
      <trkpt lat="49.23058" lon="1.13337">
        <ele>49</ele>
        <time>2017-04-09T07:58:28Z</time>
      </trkpt>
      <trkpt lat="49.23049" lon="1.13332">
        <ele>50.9</ele>
        <time>2017-04-09T07:58:35Z</time>
      </trkpt>
      <trkpt lat="49.23038" lon="1.13329">
        <ele>53.3</ele>
        <time>2017-04-09T07:58:43Z</time>
      </trkpt>
      <trkpt lat="49.23028" lon="1.13323">
        <ele>56.5</ele>
        <time>2017-04-09T07:58:54Z</time>
      </trkpt>
      <trkpt lat="49.23019" lon="1.13318">
        <ele>59</ele>
        <time>2017-04-09T07:59:03Z</time>
      </trkpt>
      <trkpt lat="49.23011" lon="1.13309">
        <ele>62</ele>
        <time>2017-04-09T07:59:15Z</time>
      </trkpt>
      <trkpt lat="49.23002" lon="1.13306">
        <ele>64</ele>
        <time>2017-04-09T07:59:23Z</time>
      </trkpt>
      <trkpt lat="49.22993" lon="1.13303">
        <ele>68.4</ele>
        <time>2017-04-09T07:59:41Z</time>
      </trkpt>
      <trkpt lat="49.22983" lon="1.13301">
        <ele>70.9</ele>
        <time>2017-04-09T07:59:51Z</time>
      </trkpt>
      <trkpt lat="49.22973" lon="1.13298">
        <ele>73.4</ele>
        <time>2017-04-09T08:00:02Z</time>
      </trkpt>
      <trkpt lat="49.22963" lon="1.13297">
        <ele>76.8</ele>
        <time>2017-04-09T08:00:17Z</time>
      </trkpt>
      <trkpt lat="49.22954" lon="1.13295">
        <ele>79.7</ele>
        <time>2017-04-09T08:00:30Z</time>
      </trkpt>
      <trkpt lat="49.22945" lon="1.13292">
        <ele>81.9</ele>
        <time>2017-04-09T08:00:40Z</time>
      </trkpt>
      <trkpt lat="49.22937" lon="1.13286">
        <ele>84.4</ele>
        <time>2017-04-09T08:00:53Z</time>
      </trkpt>
      <trkpt lat="49.22926" lon="1.1328">
        <ele>85.7</ele>
        <time>2017-04-09T08:01:01Z</time>
      </trkpt>
      <trkpt lat="49.22917" lon="1.13275">
        <ele>86.9</ele>
        <time>2017-04-09T08:01:07Z</time>
      </trkpt>
      <trkpt lat="49.22908" lon="1.1327">
        <ele>87.6</ele>
        <time>2017-04-09T08:01:11Z</time>
      </trkpt>
      <trkpt lat="49.22899" lon="1.13265">
        <ele>88.5</ele>
        <time>2017-04-09T08:01:16Z</time>
      </trkpt>
      <trkpt lat="49.22886" lon="1.13259">
        <ele>89.4</ele>
        <time>2017-04-09T08:01:21Z</time>
      </trkpt>
      <trkpt lat="49.22876" lon="1.13255">
        <ele>90.1</ele>
        <time>2017-04-09T08:01:25Z</time>
      </trkpt>
      <trkpt lat="49.22866" lon="1.13248">
        <ele>90.7</ele>
        <time>2017-04-09T08:01:29Z</time>
      </trkpt>
      <trkpt lat="49.22856" lon="1.13242">
        <ele>91.1</ele>
        <time>2017-04-09T08:01:32Z</time>
      </trkpt>
      <trkpt lat="49.22845" lon="1.13238">
        <ele>91.6</ele>
        <time>2017-04-09T08:01:36Z</time>
      </trkpt>
      <trkpt lat="49.22834" lon="1.13231">
        <ele>92</ele>
        <time>2017-04-09T08:01:39Z</time>
      </trkpt>
      <trkpt lat="49.22825" lon="1.13225">
        <ele>92.2</ele>
        <time>2017-04-09T08:01:41Z</time>
      </trkpt>
      <trkpt lat="49.22813" lon="1.13218">
        <ele>92.4</ele>
        <time>2017-04-09T08:01:43Z</time>
      </trkpt>
      <trkpt lat="49.22803" lon="1.13214">
        <ele>92.5</ele>
        <time>2017-04-09T08:01:45Z</time>
      </trkpt>
      <trkpt lat="49.22792" lon="1.13209">
        <ele>92.7</ele>
        <time>2017-04-09T08:01:47Z</time>
      </trkpt>
      <trkpt lat="49.22781" lon="1.13204">
        <ele>92.8</ele>
        <time>2017-04-09T08:01:49Z</time>
      </trkpt>
      <trkpt lat="49.22773" lon="1.13194">
        <ele>92.7</ele>
        <time>2017-04-09T08:01:51Z</time>
      </trkpt>
      <trkpt lat="49.22772" lon="1.13179">
        <ele>92.5</ele>
        <time>2017-04-09T08:01:53Z</time>
      </trkpt>
      <trkpt lat="49.22773" lon="1.13165">
        <ele>92.3</ele>
        <time>2017-04-09T08:01:55Z</time>
      </trkpt>
      <trkpt lat="49.22774" lon="1.13149">
        <ele>92.1</ele>
        <time>2017-04-09T08:01:57Z</time>
      </trkpt>
      <trkpt lat="49.22774" lon="1.13133">
        <ele>92</ele>
        <time>2017-04-09T08:01:59Z</time>
      </trkpt>
      <trkpt lat="49.22775" lon="1.13117">
        <ele>92</ele>
        <time>2017-04-09T08:02:01Z</time>
      </trkpt>
      <trkpt lat="49.22775" lon="1.13102">
        <ele>92.1</ele>
        <time>2017-04-09T08:02:03Z</time>
      </trkpt>
      <trkpt lat="49.22776" lon="1.13088">
        <ele>92.1</ele>
        <time>2017-04-09T08:02:05Z</time>
      </trkpt>
      <trkpt lat="49.22776" lon="1.13069">
        <ele>92.3</ele>
        <time>2017-04-09T08:02:08Z</time>
      </trkpt>
      <trkpt lat="49.22776" lon="1.13052">
        <ele>92.4</ele>
        <time>2017-04-09T08:02:11Z</time>
      </trkpt>
      <trkpt lat="49.22776" lon="1.13034">
        <ele>92.6</ele>
        <time>2017-04-09T08:02:14Z</time>
      </trkpt>
      <trkpt lat="49.22776" lon="1.13014">
        <ele>92.9</ele>
        <time>2017-04-09T08:02:17Z</time>
      </trkpt>
      <trkpt lat="49.22777" lon="1.12994">
        <ele>93.2</ele>
        <time>2017-04-09T08:02:20Z</time>
      </trkpt>
      <trkpt lat="49.22777" lon="1.12974">
        <ele>93.4</ele>
        <time>2017-04-09T08:02:23Z</time>
      </trkpt>
      <trkpt lat="49.22778" lon="1.12955">
        <ele>93.6</ele>
        <time>2017-04-09T08:02:26Z</time>
      </trkpt>
      <trkpt lat="49.2278" lon="1.12935">
        <ele>93.8</ele>
        <time>2017-04-09T08:02:29Z</time>
      </trkpt>
      <trkpt lat="49.22793" lon="1.12929">
        <ele>93</ele>
        <time>2017-04-09T08:02:33Z</time>
      </trkpt>
      <trkpt lat="49.22803" lon="1.12933">
        <ele>93.9</ele>
        <time>2017-04-09T08:02:36Z</time>
      </trkpt>
      <trkpt lat="49.22812" lon="1.12936">
        <ele>93.7</ele>
        <time>2017-04-09T08:02:39Z</time>
      </trkpt>
      <trkpt lat="49.22822" lon="1.12937">
        <ele>93.4</ele>
        <time>2017-04-09T08:02:41Z</time>
      </trkpt>
      <trkpt lat="49.22831" lon="1.12921">
        <ele>92.9</ele>
        <time>2017-04-09T08:02:44Z</time>
      </trkpt>
      <trkpt lat="49.22834" lon="1.12907">
        <ele>92.4</ele>
        <time>2017-04-09T08:02:46Z</time>
      </trkpt>
      <trkpt lat="49.22837" lon="1.12892">
        <ele>91.9</ele>
        <time>2017-04-09T08:02:48Z</time>
      </trkpt>
      <trkpt lat="49.22837" lon="1.12873">
        <ele>91.4</ele>
        <time>2017-04-09T08:02:50Z</time>
      </trkpt>
      <trkpt lat="49.22838" lon="1.12855">
        <ele>90.9</ele>
        <time>2017-04-09T08:02:52Z</time>
      </trkpt>
      <trkpt lat="49.22838" lon="1.12837">
        <ele>90.3</ele>
        <time>2017-04-09T08:02:54Z</time>
      </trkpt>
      <trkpt lat="49.22836" lon="1.12815">
        <ele>89.7</ele>
        <time>2017-04-09T08:02:56Z</time>
      </trkpt>
      <trkpt lat="49.22836" lon="1.12792">
        <ele>89</ele>
        <time>2017-04-09T08:02:58Z</time>
      </trkpt>
      <trkpt lat="49.22836" lon="1.1277">
        <ele>88.3</ele>
        <time>2017-04-09T08:03:00Z</time>
      </trkpt>
      <trkpt lat="49.22833" lon="1.12749">
        <ele>87.4</ele>
        <time>2017-04-09T08:03:02Z</time>
      </trkpt>
      <trkpt lat="49.22836" lon="1.12725">
        <ele>86.6</ele>
        <time>2017-04-09T08:03:04Z</time>
      </trkpt>
      <trkpt lat="49.22841" lon="1.12709">
        <ele>85.5</ele>
        <time>2017-04-09T08:03:06Z</time>
      </trkpt>
      <trkpt lat="49.22851" lon="1.12702">
        <ele>83.7</ele>
        <time>2017-04-09T08:03:09Z</time>
      </trkpt>
      <trkpt lat="49.22859" lon="1.12712">
        <ele>81.8</ele>
        <time>2017-04-09T08:03:12Z</time>
      </trkpt>
      <trkpt lat="49.22865" lon="1.12725">
        <ele>80.6</ele>
        <time>2017-04-09T08:03:14Z</time>
      </trkpt>
      <trkpt lat="49.22874" lon="1.12738">
        <ele>79.5</ele>
        <time>2017-04-09T08:03:16Z</time>
      </trkpt>
      <trkpt lat="49.22883" lon="1.12752">
        <ele>78.3</ele>
        <time>2017-04-09T08:03:18Z</time>
      </trkpt>
      <trkpt lat="49.22893" lon="1.12769">
        <ele>77.2</ele>
        <time>2017-04-09T08:03:20Z</time>
      </trkpt>
      <trkpt lat="49.22902" lon="1.12786">
        <ele>76.2</ele>
        <time>2017-04-09T08:03:22Z</time>
      </trkpt>
      <trkpt lat="49.22913" lon="1.12802">
        <ele>75.2</ele>
        <time>2017-04-09T08:03:24Z</time>
      </trkpt>
      <trkpt lat="49.22922" lon="1.12821">
        <ele>74.1</ele>
        <time>2017-04-09T08:03:26Z</time>
      </trkpt>
      <trkpt lat="49.22932" lon="1.12839">
        <ele>73.1</ele>
        <time>2017-04-09T08:03:28Z</time>
      </trkpt>
      <trkpt lat="49.22943" lon="1.12859">
        <ele>71.9</ele>
        <time>2017-04-09T08:03:30Z</time>
      </trkpt>
      <trkpt lat="49.22954" lon="1.12881">
        <ele>70.6</ele>
        <time>2017-04-09T08:03:32Z</time>
      </trkpt>
      <trkpt lat="49.22963" lon="1.129">
        <ele>69.4</ele>
        <time>2017-04-09T08:03:34Z</time>
      </trkpt>
      <trkpt lat="49.22973" lon="1.12917">
        <ele>68.1</ele>
        <time>2017-04-09T08:03:36Z</time>
      </trkpt>
      <trkpt lat="49.22984" lon="1.12933">
        <ele>66.8</ele>
        <time>2017-04-09T08:03:38Z</time>
      </trkpt>
      <trkpt lat="49.22994" lon="1.1295">
        <ele>65.5</ele>
        <time>2017-04-09T08:03:40Z</time>
      </trkpt>
      <trkpt lat="49.23003" lon="1.12969">
        <ele>64.3</ele>
        <time>2017-04-09T08:03:42Z</time>
      </trkpt>
      <trkpt lat="49.23011" lon="1.12987">
        <ele>63.2</ele>
        <time>2017-04-09T08:03:44Z</time>
      </trkpt>
      <trkpt lat="49.2302" lon="1.13004">
        <ele>62.2</ele>
        <time>2017-04-09T08:03:46Z</time>
      </trkpt>
      <trkpt lat="49.2303" lon="1.1302">
        <ele>61.3</ele>
        <time>2017-04-09T08:03:48Z</time>
      </trkpt>
      <trkpt lat="49.23042" lon="1.13033">
        <ele>60.4</ele>
        <time>2017-04-09T08:03:50Z</time>
      </trkpt>
      <trkpt lat="49.23055" lon="1.13044">
        <ele>59.7</ele>
        <time>2017-04-09T08:03:52Z</time>
      </trkpt>
      <trkpt lat="49.23068" lon="1.13052">
        <ele>59</ele>
        <time>2017-04-09T08:03:54Z</time>
      </trkpt>
      <trkpt lat="49.2308" lon="1.13059">
        <ele>58</ele>
        <time>2017-04-09T08:03:56Z</time>
      </trkpt>
      <trkpt lat="49.23099" lon="1.13069">
        <ele>57.6</ele>
        <time>2017-04-09T08:03:59Z</time>
      </trkpt>
      <trkpt lat="49.2311" lon="1.13071">
        <ele>57.1</ele>
        <time>2017-04-09T08:04:01Z</time>
      </trkpt>
      <trkpt lat="49.23119" lon="1.13068">
        <ele>56.5</ele>
        <time>2017-04-09T08:04:03Z</time>
      </trkpt>
      <trkpt lat="49.23132" lon="1.13075">
        <ele>55.6</ele>
        <time>2017-04-09T08:04:06Z</time>
      </trkpt>
      <trkpt lat="49.23141" lon="1.13081">
        <ele>54.9</ele>
        <time>2017-04-09T08:04:09Z</time>
      </trkpt>
      <trkpt lat="49.23152" lon="1.13089">
        <ele>54.1</ele>
        <time>2017-04-09T08:04:13Z</time>
      </trkpt>
      <trkpt lat="49.23161" lon="1.13089">
        <ele>53.6</ele>
        <time>2017-04-09T08:04:16Z</time>
      </trkpt>
      <trkpt lat="49.23172" lon="1.1309">
        <ele>53.1</ele>
        <time>2017-04-09T08:04:20Z</time>
      </trkpt>
      <trkpt lat="49.23182" lon="1.13095">
        <ele>52.8</ele>
        <time>2017-04-09T08:04:24Z</time>
      </trkpt>
      <trkpt lat="49.23191" lon="1.13098">
        <ele>53.1</ele>
        <time>2017-04-09T08:04:28Z</time>
      </trkpt>
      <trkpt lat="49.232" lon="1.13102">
        <ele>54</ele>
        <time>2017-04-09T08:04:33Z</time>
      </trkpt>
      <trkpt lat="49.23211" lon="1.13107">
        <ele>55.5</ele>
        <time>2017-04-09T08:04:39Z</time>
      </trkpt>
      <trkpt lat="49.2322" lon="1.1311">
        <ele>56.7</ele>
        <time>2017-04-09T08:04:44Z</time>
      </trkpt>
      <trkpt lat="49.23229" lon="1.13114">
        <ele>57.4</ele>
        <time>2017-04-09T08:04:48Z</time>
      </trkpt>
      <trkpt lat="49.23245" lon="1.13122">
        <ele>57.5</ele>
        <time>2017-04-09T08:04:51Z</time>
      </trkpt>
      <trkpt lat="49.23256" lon="1.13128">
        <ele>57.3</ele>
        <time>2017-04-09T08:04:53Z</time>
      </trkpt>
      <trkpt lat="49.23265" lon="1.13136">
        <ele>56.9</ele>
        <time>2017-04-09T08:05:01Z</time>
      </trkpt>
      <trkpt lat="49.23274" lon="1.13143">
        <ele>57.6</ele>
        <time>2017-04-09T08:05:10Z</time>
      </trkpt>
      <trkpt lat="49.23283" lon="1.13147">
        <ele>59.2</ele>
        <time>2017-04-09T08:05:18Z</time>
      </trkpt>
      <trkpt lat="49.23292" lon="1.13149">
        <ele>61.3</ele>
        <time>2017-04-09T08:05:27Z</time>
      </trkpt>
      <trkpt lat="49.23302" lon="1.13153">
        <ele>63.3</ele>
        <time>2017-04-09T08:05:36Z</time>
      </trkpt>
      <trkpt lat="49.23312" lon="1.13157">
        <ele>65.5</ele>
        <time>2017-04-09T08:05:45Z</time>
      </trkpt>
      <trkpt lat="49.23321" lon="1.13162">
        <ele>67.6</ele>
        <time>2017-04-09T08:05:54Z</time>
      </trkpt>
      <trkpt lat="49.23329" lon="1.13166">
        <ele>69.6</ele>
        <time>2017-04-09T08:06:02Z</time>
      </trkpt>
      <trkpt lat="49.23338" lon="1.1317">
        <ele>71.6</ele>
        <time>2017-04-09T08:06:10Z</time>
      </trkpt>
      <trkpt lat="49.23348" lon="1.13173">
        <ele>74</ele>
        <time>2017-04-09T08:06:19Z</time>
      </trkpt>
      <trkpt lat="49.23357" lon="1.13178">
        <ele>76.4</ele>
        <time>2017-04-09T08:06:28Z</time>
      </trkpt>
      <trkpt lat="49.23366" lon="1.13183">
        <ele>78.5</ele>
        <time>2017-04-09T08:06:36Z</time>
      </trkpt>
      <trkpt lat="49.23375" lon="1.13187">
        <ele>80.6</ele>
        <time>2017-04-09T08:06:44Z</time>
      </trkpt>
      <trkpt lat="49.23383" lon="1.13192">
        <ele>82.9</ele>
        <time>2017-04-09T08:06:53Z</time>
      </trkpt>
      <trkpt lat="49.23392" lon="1.13197">
        <ele>85.7</ele>
        <time>2017-04-09T08:07:04Z</time>
      </trkpt>
      <trkpt lat="49.23401" lon="1.13202">
        <ele>87.7</ele>
        <time>2017-04-09T08:07:11Z</time>
      </trkpt>
      <trkpt lat="49.2341" lon="1.13205">
        <ele>89.6</ele>
        <time>2017-04-09T08:07:19Z</time>
      </trkpt>
      <trkpt lat="49.2342" lon="1.1321">
        <ele>91.7</ele>
        <time>2017-04-09T08:07:28Z</time>
      </trkpt>
      <trkpt lat="49.2343" lon="1.13213">
        <ele>93.4</ele>
        <time>2017-04-09T08:07:36Z</time>
      </trkpt>
      <trkpt lat="49.23439" lon="1.13216">
        <ele>94.8</ele>
        <time>2017-04-09T08:07:43Z</time>
      </trkpt>
      <trkpt lat="49.23448" lon="1.13222">
        <ele>96.2</ele>
        <time>2017-04-09T08:07:50Z</time>
      </trkpt>
      <trkpt lat="49.23457" lon="1.13227">
        <ele>97.3</ele>
        <time>2017-04-09T08:07:55Z</time>
      </trkpt>
      <trkpt lat="49.23467" lon="1.1323">
        <ele>98</ele>
        <time>2017-04-09T08:07:59Z</time>
      </trkpt>
      <trkpt lat="49.23476" lon="1.13235">
        <ele>98.7</ele>
        <time>2017-04-09T08:08:03Z</time>
      </trkpt>
      <trkpt lat="49.23486" lon="1.1324">
        <ele>99.6</ele>
        <time>2017-04-09T08:08:08Z</time>
      </trkpt>
      <trkpt lat="49.23495" lon="1.13244">
        <ele>100.3</ele>
        <time>2017-04-09T08:08:12Z</time>
      </trkpt>
      <trkpt lat="49.23504" lon="1.13248">
        <ele>101</ele>
        <time>2017-04-09T08:08:16Z</time>
      </trkpt>
      <trkpt lat="49.23514" lon="1.13252">
        <ele>101.6</ele>
        <time>2017-04-09T08:08:20Z</time>
      </trkpt>
      <trkpt lat="49.23524" lon="1.13256">
        <ele>102.2</ele>
        <time>2017-04-09T08:08:24Z</time>
      </trkpt>
      <trkpt lat="49.23535" lon="1.13261">
        <ele>102.9</ele>
        <time>2017-04-09T08:08:28Z</time>
      </trkpt>
      <trkpt lat="49.23544" lon="1.13265">
        <ele>103.4</ele>
        <time>2017-04-09T08:08:31Z</time>
      </trkpt>
      <trkpt lat="49.23554" lon="1.13269">
        <ele>103.8</ele>
        <time>2017-04-09T08:08:34Z</time>
      </trkpt>
      <trkpt lat="49.23564" lon="1.13274">
        <ele>104.2</ele>
        <time>2017-04-09T08:08:37Z</time>
      </trkpt>
      <trkpt lat="49.23575" lon="1.13278">
        <ele>104.7</ele>
        <time>2017-04-09T08:08:40Z</time>
      </trkpt>
      <trkpt lat="49.23585" lon="1.13283">
        <ele>105.1</ele>
        <time>2017-04-09T08:08:43Z</time>
      </trkpt>
      <trkpt lat="49.23595" lon="1.13288">
        <ele>105.5</ele>
        <time>2017-04-09T08:08:46Z</time>
      </trkpt>
      <trkpt lat="49.23605" lon="1.13292">
        <ele>105.9</ele>
        <time>2017-04-09T08:08:49Z</time>
      </trkpt>
      <trkpt lat="49.23616" lon="1.13297">
        <ele>106.3</ele>
        <time>2017-04-09T08:08:52Z</time>
      </trkpt>
      <trkpt lat="49.23627" lon="1.13301">
        <ele>106.6</ele>
        <time>2017-04-09T08:08:55Z</time>
      </trkpt>
      <trkpt lat="49.23637" lon="1.13306">
        <ele>106.9</ele>
        <time>2017-04-09T08:08:58Z</time>
      </trkpt>
      <trkpt lat="49.23647" lon="1.13312">
        <ele>107.2</ele>
        <time>2017-04-09T08:09:01Z</time>
      </trkpt>
      <trkpt lat="49.23656" lon="1.13323">
        <ele>107.5</ele>
        <time>2017-04-09T08:09:04Z</time>
      </trkpt>
      <trkpt lat="49.23658" lon="1.13341">
        <ele>107.9</ele>
        <time>2017-04-09T08:09:07Z</time>
      </trkpt>
      <trkpt lat="49.23655" lon="1.1336">
        <ele>108.1</ele>
        <time>2017-04-09T08:09:10Z</time>
      </trkpt>
      <trkpt lat="49.23653" lon="1.1338">
        <ele>108.4</ele>
        <time>2017-04-09T08:09:13Z</time>
      </trkpt>
      <trkpt lat="49.23651" lon="1.13394">
        <ele>108.5</ele>
        <time>2017-04-09T08:09:15Z</time>
      </trkpt>
      <trkpt lat="49.23649" lon="1.13408">
        <ele>108.6</ele>
        <time>2017-04-09T08:09:17Z</time>
      </trkpt>
      <trkpt lat="49.23647" lon="1.13422">
        <ele>108.7</ele>
        <time>2017-04-09T08:09:19Z</time>
      </trkpt>
      <trkpt lat="49.23645" lon="1.13437">
        <ele>108.8</ele>
        <time>2017-04-09T08:09:21Z</time>
      </trkpt>
      <trkpt lat="49.23643" lon="1.13453">
        <ele>108.9</ele>
        <time>2017-04-09T08:09:23Z</time>
      </trkpt>
      <trkpt lat="49.23641" lon="1.13468">
        <ele>109</ele>
        <time>2017-04-09T08:09:25Z</time>
      </trkpt>
      <trkpt lat="49.23639" lon="1.13484">
        <ele>109.1</ele>
        <time>2017-04-09T08:09:27Z</time>
      </trkpt>
      <trkpt lat="49.23637" lon="1.13501">
        <ele>109.1</ele>
        <time>2017-04-09T08:09:29Z</time>
      </trkpt>
      <trkpt lat="49.23635" lon="1.13518">
        <ele>109.2</ele>
        <time>2017-04-09T08:09:31Z</time>
      </trkpt>
      <trkpt lat="49.23633" lon="1.13534">
        <ele>109.2</ele>
        <time>2017-04-09T08:09:33Z</time>
      </trkpt>
      <trkpt lat="49.23631" lon="1.1355">
        <ele>109.3</ele>
        <time>2017-04-09T08:09:35Z</time>
      </trkpt>
      <trkpt lat="49.23628" lon="1.13567">
        <ele>109.3</ele>
        <time>2017-04-09T08:09:37Z</time>
      </trkpt>
      <trkpt lat="49.23625" lon="1.13582">
        <ele>109.3</ele>
        <time>2017-04-09T08:09:39Z</time>
      </trkpt>
      <trkpt lat="49.23622" lon="1.13598">
        <ele>109.4</ele>
        <time>2017-04-09T08:09:41Z</time>
      </trkpt>
      <trkpt lat="49.23619" lon="1.13616">
        <ele>109.4</ele>
        <time>2017-04-09T08:09:43Z</time>
      </trkpt>
      <trkpt lat="49.23615" lon="1.13633">
        <ele>109.4</ele>
        <time>2017-04-09T08:09:45Z</time>
      </trkpt>
      <trkpt lat="49.23613" lon="1.13648">
        <ele>109.4</ele>
        <time>2017-04-09T08:09:47Z</time>
      </trkpt>
      <trkpt lat="49.2361" lon="1.13663">
        <ele>109.4</ele>
        <time>2017-04-09T08:09:49Z</time>
      </trkpt>
      <trkpt lat="49.23607" lon="1.13678">
        <ele>109.4</ele>
        <time>2017-04-09T08:09:51Z</time>
      </trkpt>
      <trkpt lat="49.23603" lon="1.13694">
        <ele>109.4</ele>
        <time>2017-04-09T08:09:53Z</time>
      </trkpt>
      <trkpt lat="49.23599" lon="1.13712">
        <ele>109.3</ele>
        <time>2017-04-09T08:09:55Z</time>
      </trkpt>
      <trkpt lat="49.23596" lon="1.1373">
        <ele>109.3</ele>
        <time>2017-04-09T08:09:57Z</time>
      </trkpt>
      <trkpt lat="49.23592" lon="1.13746">
        <ele>109.2</ele>
        <time>2017-04-09T08:09:59Z</time>
      </trkpt>
      <trkpt lat="49.23589" lon="1.13763">
        <ele>109.1</ele>
        <time>2017-04-09T08:10:01Z</time>
      </trkpt>
      <trkpt lat="49.23587" lon="1.13781">
        <ele>109</ele>
        <time>2017-04-09T08:10:03Z</time>
      </trkpt>
      <trkpt lat="49.23585" lon="1.138">
        <ele>108.9</ele>
        <time>2017-04-09T08:10:05Z</time>
      </trkpt>
      <trkpt lat="49.23583" lon="1.13818">
        <ele>108.8</ele>
        <time>2017-04-09T08:10:07Z</time>
      </trkpt>
      <trkpt lat="49.23578" lon="1.13834">
        <ele>108.7</ele>
        <time>2017-04-09T08:10:09Z</time>
      </trkpt>
      <trkpt lat="49.23574" lon="1.13853">
        <ele>108.7</ele>
        <time>2017-04-09T08:10:11Z</time>
      </trkpt>
      <trkpt lat="49.23571" lon="1.1387">
        <ele>108.6</ele>
        <time>2017-04-09T08:10:13Z</time>
      </trkpt>
      <trkpt lat="49.23568" lon="1.13889">
        <ele>108.5</ele>
        <time>2017-04-09T08:10:15Z</time>
      </trkpt>
      <trkpt lat="49.23564" lon="1.13908">
        <ele>108.5</ele>
        <time>2017-04-09T08:10:17Z</time>
      </trkpt>
      <trkpt lat="49.2356" lon="1.13927">
        <ele>108.4</ele>
        <time>2017-04-09T08:10:19Z</time>
      </trkpt>
      <trkpt lat="49.23556" lon="1.13945">
        <ele>108.4</ele>
        <time>2017-04-09T08:10:21Z</time>
      </trkpt>
      <trkpt lat="49.23553" lon="1.13962">
        <ele>108.3</ele>
        <time>2017-04-09T08:10:23Z</time>
      </trkpt>
      <trkpt lat="49.23549" lon="1.1398">
        <ele>108.3</ele>
        <time>2017-04-09T08:10:25Z</time>
      </trkpt>
      <trkpt lat="49.23546" lon="1.13996">
        <ele>108.3</ele>
        <time>2017-04-09T08:10:27Z</time>
      </trkpt>
      <trkpt lat="49.23543" lon="1.14012">
        <ele>108.2</ele>
        <time>2017-04-09T08:10:29Z</time>
      </trkpt>
      <trkpt lat="49.2354" lon="1.14029">
        <ele>108.2</ele>
        <time>2017-04-09T08:10:31Z</time>
      </trkpt>
      <trkpt lat="49.23537" lon="1.14046">
        <ele>108.2</ele>
        <time>2017-04-09T08:10:33Z</time>
      </trkpt>
      <trkpt lat="49.23533" lon="1.14063">
        <ele>108.1</ele>
        <time>2017-04-09T08:10:35Z</time>
      </trkpt>
      <trkpt lat="49.2353" lon="1.1408">
        <ele>108.1</ele>
        <time>2017-04-09T08:10:37Z</time>
      </trkpt>
      <trkpt lat="49.23527" lon="1.14096">
        <ele>108.1</ele>
        <time>2017-04-09T08:10:39Z</time>
      </trkpt>
      <trkpt lat="49.23525" lon="1.14118">
        <ele>108</ele>
        <time>2017-04-09T08:10:42Z</time>
      </trkpt>
      <trkpt lat="49.23522" lon="1.14133">
        <ele>108</ele>
        <time>2017-04-09T08:10:44Z</time>
      </trkpt>
      <trkpt lat="49.2352" lon="1.14148">
        <ele>108</ele>
        <time>2017-04-09T08:10:46Z</time>
      </trkpt>
      <trkpt lat="49.23518" lon="1.14164">
        <ele>108</ele>
        <time>2017-04-09T08:10:48Z</time>
      </trkpt>
      <trkpt lat="49.23515" lon="1.14181">
        <ele>108</ele>
        <time>2017-04-09T08:10:50Z</time>
      </trkpt>
      <trkpt lat="49.2351" lon="1.14199">
        <ele>108</ele>
        <time>2017-04-09T08:10:52Z</time>
      </trkpt>
      <trkpt lat="49.23502" lon="1.14217">
        <ele>108</ele>
        <time>2017-04-09T08:10:54Z</time>
      </trkpt>
      <trkpt lat="49.23499" lon="1.14234">
        <ele>108</ele>
        <time>2017-04-09T08:10:56Z</time>
      </trkpt>
      <trkpt lat="49.23506" lon="1.14249">
        <ele>108.1</ele>
        <time>2017-04-09T08:10:59Z</time>
      </trkpt>
      <trkpt lat="49.23515" lon="1.14253">
        <ele>108.1</ele>
        <time>2017-04-09T08:11:01Z</time>
      </trkpt>
      <trkpt lat="49.23526" lon="1.14259">
        <ele>108.1</ele>
        <time>2017-04-09T08:11:04Z</time>
      </trkpt>
      <trkpt lat="49.23535" lon="1.14263">
        <ele>108</ele>
        <time>2017-04-09T08:11:07Z</time>
      </trkpt>
      <trkpt lat="49.23545" lon="1.14267">
        <ele>108</ele>
        <time>2017-04-09T08:11:09Z</time>
      </trkpt>
      <trkpt lat="49.23558" lon="1.14274">
        <ele>107.9</ele>
        <time>2017-04-09T08:11:11Z</time>
      </trkpt>
      <trkpt lat="49.23569" lon="1.14282">
        <ele>107.8</ele>
        <time>2017-04-09T08:11:14Z</time>
      </trkpt>
      <trkpt lat="49.23582" lon="1.14289">
        <ele>107.7</ele>
        <time>2017-04-09T08:11:17Z</time>
      </trkpt>
      <trkpt lat="49.23594" lon="1.14293">
        <ele>107.6</ele>
        <time>2017-04-09T08:11:19Z</time>
      </trkpt>
      <trkpt lat="49.23609" lon="1.143">
        <ele>107.4</ele>
        <time>2017-04-09T08:11:22Z</time>
      </trkpt>
      <trkpt lat="49.2362" lon="1.14305">
        <ele>107.4</ele>
        <time>2017-04-09T08:11:24Z</time>
      </trkpt>
      <trkpt lat="49.2363" lon="1.14312">
        <ele>107.3</ele>
        <time>2017-04-09T08:11:27Z</time>
      </trkpt>
      <trkpt lat="49.23639" lon="1.14319">
        <ele>107.2</ele>
        <time>2017-04-09T08:11:29Z</time>
      </trkpt>
      <trkpt lat="49.23648" lon="1.14326">
        <ele>107.2</ele>
        <time>2017-04-09T08:11:31Z</time>
      </trkpt>
      <trkpt lat="49.23657" lon="1.1433">
        <ele>107.1</ele>
        <time>2017-04-09T08:11:33Z</time>
      </trkpt>
      <trkpt lat="49.23666" lon="1.14333">
        <ele>107.1</ele>
        <time>2017-04-09T08:11:35Z</time>
      </trkpt>
      <trkpt lat="49.23677" lon="1.14339">
        <ele>107</ele>
        <time>2017-04-09T08:11:37Z</time>
      </trkpt>
      <trkpt lat="49.23686" lon="1.14344">
        <ele>107</ele>
        <time>2017-04-09T08:11:39Z</time>
      </trkpt>
      <trkpt lat="49.23695" lon="1.14349">
        <ele>107</ele>
        <time>2017-04-09T08:11:41Z</time>
      </trkpt>
      <trkpt lat="49.23704" lon="1.14355">
        <ele>107</ele>
        <time>2017-04-09T08:11:43Z</time>
      </trkpt>
      <trkpt lat="49.23714" lon="1.14359">
        <ele>106.9</ele>
        <time>2017-04-09T08:11:45Z</time>
      </trkpt>
      <trkpt lat="49.23724" lon="1.14362">
        <ele>106.9</ele>
        <time>2017-04-09T08:11:47Z</time>
      </trkpt>
      <trkpt lat="49.23735" lon="1.14368">
        <ele>106.9</ele>
        <time>2017-04-09T08:11:50Z</time>
      </trkpt>
      <trkpt lat="49.23744" lon="1.14371">
        <ele>106.9</ele>
        <time>2017-04-09T08:11:52Z</time>
      </trkpt>
      <trkpt lat="49.23753" lon="1.14375">
        <ele>106.9</ele>
        <time>2017-04-09T08:11:54Z</time>
      </trkpt>
      <trkpt lat="49.23762" lon="1.1438">
        <ele>106.9</ele>
        <time>2017-04-09T08:11:56Z</time>
      </trkpt>
      <trkpt lat="49.23772" lon="1.14385">
        <ele>106.9</ele>
        <time>2017-04-09T08:11:59Z</time>
      </trkpt>
      <trkpt lat="49.23784" lon="1.14392">
        <ele>106.9</ele>
        <time>2017-04-09T08:12:02Z</time>
      </trkpt>
      <trkpt lat="49.23797" lon="1.14399">
        <ele>107</ele>
        <time>2017-04-09T08:12:05Z</time>
      </trkpt>
      <trkpt lat="49.23805" lon="1.14403">
        <ele>107.1</ele>
        <time>2017-04-09T08:12:07Z</time>
      </trkpt>
      <trkpt lat="49.23818" lon="1.14409">
        <ele>107.3</ele>
        <time>2017-04-09T08:12:10Z</time>
      </trkpt>
      <trkpt lat="49.23831" lon="1.14415">
        <ele>107.5</ele>
        <time>2017-04-09T08:12:13Z</time>
      </trkpt>
      <trkpt lat="49.23843" lon="1.14422">
        <ele>107.6</ele>
        <time>2017-04-09T08:12:16Z</time>
      </trkpt>
      <trkpt lat="49.23852" lon="1.14426">
        <ele>107.6</ele>
        <time>2017-04-09T08:12:18Z</time>
      </trkpt>
      <trkpt lat="49.23861" lon="1.14431">
        <ele>107.7</ele>
        <time>2017-04-09T08:12:20Z</time>
      </trkpt>
      <trkpt lat="49.2387" lon="1.14434">
        <ele>107.8</ele>
        <time>2017-04-09T08:12:22Z</time>
      </trkpt>
      <trkpt lat="49.23881" lon="1.14438">
        <ele>107.9</ele>
        <time>2017-04-09T08:12:24Z</time>
      </trkpt>
      <trkpt lat="49.23894" lon="1.14443">
        <ele>108.1</ele>
        <time>2017-04-09T08:12:27Z</time>
      </trkpt>
      <trkpt lat="49.23903" lon="1.14447">
        <ele>108.2</ele>
        <time>2017-04-09T08:12:29Z</time>
      </trkpt>
      <trkpt lat="49.23914" lon="1.14451">
        <ele>108.5</ele>
        <time>2017-04-09T08:12:32Z</time>
      </trkpt>
      <trkpt lat="49.23924" lon="1.14453">
        <ele>108.7</ele>
        <time>2017-04-09T08:12:34Z</time>
      </trkpt>
      <trkpt lat="49.23933" lon="1.14457">
        <ele>108.8</ele>
        <time>2017-04-09T08:12:36Z</time>
      </trkpt>
      <trkpt lat="49.23944" lon="1.1446">
        <ele>108.9</ele>
        <time>2017-04-09T08:12:38Z</time>
      </trkpt>
      <trkpt lat="49.23954" lon="1.14463">
        <ele>109</ele>
        <time>2017-04-09T08:12:40Z</time>
      </trkpt>
      <trkpt lat="49.23966" lon="1.14469">
        <ele>109.2</ele>
        <time>2017-04-09T08:12:43Z</time>
      </trkpt>
      <trkpt lat="49.23979" lon="1.14475">
        <ele>109.4</ele>
        <time>2017-04-09T08:12:46Z</time>
      </trkpt>
      <trkpt lat="49.23989" lon="1.14479">
        <ele>109.5</ele>
        <time>2017-04-09T08:12:48Z</time>
      </trkpt>
      <trkpt lat="49.24001" lon="1.14486">
        <ele>109.7</ele>
        <time>2017-04-09T08:12:51Z</time>
      </trkpt>
      <trkpt lat="49.24013" lon="1.1449">
        <ele>109.9</ele>
        <time>2017-04-09T08:12:54Z</time>
      </trkpt>
      <trkpt lat="49.24024" lon="1.14494">
        <ele>110.1</ele>
        <time>2017-04-09T08:12:57Z</time>
      </trkpt>
      <trkpt lat="49.24036" lon="1.145">
        <ele>110.3</ele>
        <time>2017-04-09T08:13:00Z</time>
      </trkpt>
      <trkpt lat="49.24047" lon="1.14505">
        <ele>110.4</ele>
        <time>2017-04-09T08:13:03Z</time>
      </trkpt>
      <trkpt lat="49.24057" lon="1.14512">
        <ele>110.6</ele>
        <time>2017-04-09T08:13:06Z</time>
      </trkpt>
      <trkpt lat="49.24067" lon="1.14515">
        <ele>110.6</ele>
        <time>2017-04-09T08:13:08Z</time>
      </trkpt>
      <trkpt lat="49.24079" lon="1.1452">
        <ele>110.8</ele>
        <time>2017-04-09T08:13:11Z</time>
      </trkpt>
      <trkpt lat="49.24089" lon="1.14525">
        <ele>110.8</ele>
        <time>2017-04-09T08:13:13Z</time>
      </trkpt>
      <trkpt lat="49.24101" lon="1.14529">
        <ele>110.9</ele>
        <time>2017-04-09T08:13:16Z</time>
      </trkpt>
      <trkpt lat="49.2411" lon="1.14533">
        <ele>111</ele>
        <time>2017-04-09T08:13:18Z</time>
      </trkpt>
      <trkpt lat="49.24122" lon="1.14538">
        <ele>111.1</ele>
        <time>2017-04-09T08:13:21Z</time>
      </trkpt>
      <trkpt lat="49.24132" lon="1.14543">
        <ele>111.1</ele>
        <time>2017-04-09T08:13:23Z</time>
      </trkpt>
      <trkpt lat="49.24142" lon="1.14548">
        <ele>111.1</ele>
        <time>2017-04-09T08:13:25Z</time>
      </trkpt>
      <trkpt lat="49.24152" lon="1.14552">
        <ele>111.2</ele>
        <time>2017-04-09T08:13:27Z</time>
      </trkpt>
      <trkpt lat="49.24162" lon="1.14557">
        <ele>111.2</ele>
        <time>2017-04-09T08:13:29Z</time>
      </trkpt>
      <trkpt lat="49.24171" lon="1.14566">
        <ele>111.2</ele>
        <time>2017-04-09T08:13:32Z</time>
      </trkpt>
      <trkpt lat="49.24175" lon="1.14584">
        <ele>111.1</ele>
        <time>2017-04-09T08:13:36Z</time>
      </trkpt>
      <trkpt lat="49.24173" lon="1.14604">
        <ele>111.1</ele>
        <time>2017-04-09T08:13:39Z</time>
      </trkpt>
      <trkpt lat="49.24171" lon="1.14619">
        <ele>111.1</ele>
        <time>2017-04-09T08:13:41Z</time>
      </trkpt>
      <trkpt lat="49.24169" lon="1.14636">
        <ele>111</ele>
        <time>2017-04-09T08:13:43Z</time>
      </trkpt>
      <trkpt lat="49.24167" lon="1.14655">
        <ele>111</ele>
        <time>2017-04-09T08:13:45Z</time>
      </trkpt>
      <trkpt lat="49.24166" lon="1.14672">
        <ele>110.9</ele>
        <time>2017-04-09T08:13:47Z</time>
      </trkpt>
      <trkpt lat="49.24164" lon="1.1469">
        <ele>110.9</ele>
        <time>2017-04-09T08:13:49Z</time>
      </trkpt>
      <trkpt lat="49.24163" lon="1.14707">
        <ele>110.7</ele>
        <time>2017-04-09T08:13:51Z</time>
      </trkpt>
      <trkpt lat="49.24161" lon="1.14722">
        <ele>110.5</ele>
        <time>2017-04-09T08:13:53Z</time>
      </trkpt>
      <trkpt lat="49.24159" lon="1.1474">
        <ele>110.4</ele>
        <time>2017-04-09T08:13:55Z</time>
      </trkpt>
      <trkpt lat="49.24155" lon="1.1476">
        <ele>110.2</ele>
        <time>2017-04-09T08:13:57Z</time>
      </trkpt>
      <trkpt lat="49.24153" lon="1.14779">
        <ele>110</ele>
        <time>2017-04-09T08:13:59Z</time>
      </trkpt>
      <trkpt lat="49.24149" lon="1.14798">
        <ele>109.8</ele>
        <time>2017-04-09T08:14:01Z</time>
      </trkpt>
      <trkpt lat="49.24144" lon="1.14819">
        <ele>109.4</ele>
        <time>2017-04-09T08:14:03Z</time>
      </trkpt>
      <trkpt lat="49.24141" lon="1.14839">
        <ele>109</ele>
        <time>2017-04-09T08:14:05Z</time>
      </trkpt>
      <trkpt lat="49.24137" lon="1.14859">
        <ele>108.7</ele>
        <time>2017-04-09T08:14:07Z</time>
      </trkpt>
      <trkpt lat="49.24134" lon="1.14878">
        <ele>108.5</ele>
        <time>2017-04-09T08:14:09Z</time>
      </trkpt>
      <trkpt lat="49.24131" lon="1.14899">
        <ele>107.9</ele>
        <time>2017-04-09T08:14:11Z</time>
      </trkpt>
      <trkpt lat="49.24128" lon="1.14921">
        <ele>107.5</ele>
        <time>2017-04-09T08:14:13Z</time>
      </trkpt>
      <trkpt lat="49.24125" lon="1.14943">
        <ele>107.1</ele>
        <time>2017-04-09T08:14:15Z</time>
      </trkpt>
      <trkpt lat="49.24122" lon="1.14965">
        <ele>106.7</ele>
        <time>2017-04-09T08:14:17Z</time>
      </trkpt>
      <trkpt lat="49.24117" lon="1.14988">
        <ele>106.4</ele>
        <time>2017-04-09T08:14:19Z</time>
      </trkpt>
      <trkpt lat="49.24113" lon="1.15012">
        <ele>106</ele>
        <time>2017-04-09T08:14:21Z</time>
      </trkpt>
      <trkpt lat="49.24108" lon="1.15036">
        <ele>105.7</ele>
        <time>2017-04-09T08:14:23Z</time>
      </trkpt>
      <trkpt lat="49.24104" lon="1.15058">
        <ele>105.3</ele>
        <time>2017-04-09T08:14:25Z</time>
      </trkpt>
      <trkpt lat="49.24101" lon="1.15079">
        <ele>104.7</ele>
        <time>2017-04-09T08:14:27Z</time>
      </trkpt>
      <trkpt lat="49.24097" lon="1.15094">
        <ele>104.1</ele>
        <time>2017-04-09T08:14:29Z</time>
      </trkpt>
      <trkpt lat="49.24089" lon="1.15098">
        <ele>103.4</ele>
        <time>2017-04-09T08:14:32Z</time>
      </trkpt>
      <trkpt lat="49.24079" lon="1.15093">
        <ele>102.7</ele>
        <time>2017-04-09T08:14:36Z</time>
      </trkpt>
      <trkpt lat="49.24069" lon="1.1509">
        <ele>102.3</ele>
        <time>2017-04-09T08:14:39Z</time>
      </trkpt>
      <trkpt lat="49.24058" lon="1.15087">
        <ele>102.2</ele>
        <time>2017-04-09T08:14:42Z</time>
      </trkpt>
      <trkpt lat="49.24049" lon="1.15084">
        <ele>102.1</ele>
        <time>2017-04-09T08:14:44Z</time>
      </trkpt>
      <trkpt lat="49.24037" lon="1.15078">
        <ele>102.1</ele>
        <time>2017-04-09T08:14:47Z</time>
      </trkpt>
      <trkpt lat="49.24025" lon="1.15074">
        <ele>102.2</ele>
        <time>2017-04-09T08:14:50Z</time>
      </trkpt>
      <trkpt lat="49.24013" lon="1.15069">
        <ele>102.3</ele>
        <time>2017-04-09T08:14:53Z</time>
      </trkpt>
      <trkpt lat="49.24" lon="1.15064">
        <ele>102.4</ele>
        <time>2017-04-09T08:14:56Z</time>
      </trkpt>
      <trkpt lat="49.2399" lon="1.1506">
        <ele>102.5</ele>
        <time>2017-04-09T08:14:58Z</time>
      </trkpt>
      <trkpt lat="49.23976" lon="1.15053">
        <ele>102.7</ele>
        <time>2017-04-09T08:15:01Z</time>
      </trkpt>
      <trkpt lat="49.23966" lon="1.15048">
        <ele>102.8</ele>
        <time>2017-04-09T08:15:03Z</time>
      </trkpt>
      <trkpt lat="49.23956" lon="1.15045">
        <ele>103</ele>
        <time>2017-04-09T08:15:05Z</time>
      </trkpt>
      <trkpt lat="49.23945" lon="1.15042">
        <ele>103.1</ele>
        <time>2017-04-09T08:15:07Z</time>
      </trkpt>
      <trkpt lat="49.23936" lon="1.15037">
        <ele>103.2</ele>
        <time>2017-04-09T08:15:09Z</time>
      </trkpt>
      <trkpt lat="49.23926" lon="1.15033">
        <ele>103.3</ele>
        <time>2017-04-09T08:15:11Z</time>
      </trkpt>
      <trkpt lat="49.23916" lon="1.15027">
        <ele>103.4</ele>
        <time>2017-04-09T08:15:13Z</time>
      </trkpt>
      <trkpt lat="49.23907" lon="1.15024">
        <ele>103.5</ele>
        <time>2017-04-09T08:15:15Z</time>
      </trkpt>
      <trkpt lat="49.23897" lon="1.1502">
        <ele>103.6</ele>
        <time>2017-04-09T08:15:17Z</time>
      </trkpt>
      <trkpt lat="49.23888" lon="1.15016">
        <ele>103.7</ele>
        <time>2017-04-09T08:15:19Z</time>
      </trkpt>
      <trkpt lat="49.23879" lon="1.15012">
        <ele>103.8</ele>
        <time>2017-04-09T08:15:21Z</time>
      </trkpt>
      <trkpt lat="49.23867" lon="1.15006">
        <ele>103.9</ele>
        <time>2017-04-09T08:15:24Z</time>
      </trkpt>
      <trkpt lat="49.23858" lon="1.15003">
        <ele>104</ele>
        <time>2017-04-09T08:15:26Z</time>
      </trkpt>
      <trkpt lat="49.23845" lon="1.14995">
        <ele>104.1</ele>
        <time>2017-04-09T08:15:29Z</time>
      </trkpt>
      <trkpt lat="49.23833" lon="1.14988">
        <ele>104.1</ele>
        <time>2017-04-09T08:15:32Z</time>
      </trkpt>
      <trkpt lat="49.23823" lon="1.14984">
        <ele>104.2</ele>
        <time>2017-04-09T08:15:34Z</time>
      </trkpt>
      <trkpt lat="49.23813" lon="1.1498">
        <ele>104.3</ele>
        <time>2017-04-09T08:15:36Z</time>
      </trkpt>
      <trkpt lat="49.23804" lon="1.14974">
        <ele>104.3</ele>
        <time>2017-04-09T08:15:38Z</time>
      </trkpt>
      <trkpt lat="49.23795" lon="1.14969">
        <ele>104.3</ele>
        <time>2017-04-09T08:15:40Z</time>
      </trkpt>
      <trkpt lat="49.23783" lon="1.14963">
        <ele>104.3</ele>
        <time>2017-04-09T08:15:43Z</time>
      </trkpt>
      <trkpt lat="49.23771" lon="1.14958">
        <ele>104.3</ele>
        <time>2017-04-09T08:15:45Z</time>
      </trkpt>
      <trkpt lat="49.2376" lon="1.14953">
        <ele>104.2</ele>
        <time>2017-04-09T08:15:47Z</time>
      </trkpt>
      <trkpt lat="49.23748" lon="1.1495">
        <ele>104.1</ele>
        <time>2017-04-09T08:15:49Z</time>
      </trkpt>
      <trkpt lat="49.23736" lon="1.14945">
        <ele>104</ele>
        <time>2017-04-09T08:15:51Z</time>
      </trkpt>
      <trkpt lat="49.23724" lon="1.14939">
        <ele>103.6</ele>
        <time>2017-04-09T08:15:53Z</time>
      </trkpt>
      <trkpt lat="49.23715" lon="1.14943">
        <ele>103.1</ele>
        <time>2017-04-09T08:15:55Z</time>
      </trkpt>
      <trkpt lat="49.23706" lon="1.14957">
        <ele>102.3</ele>
        <time>2017-04-09T08:15:58Z</time>
      </trkpt>
      <trkpt lat="49.23693" lon="1.1497">
        <ele>101.6</ele>
        <time>2017-04-09T08:16:01Z</time>
      </trkpt>
      <trkpt lat="49.23685" lon="1.14976">
        <ele>101.3</ele>
        <time>2017-04-09T08:16:02Z</time>
      </trkpt>
      <trkpt lat="49.23676" lon="1.14986">
        <ele>100.8</ele>
        <time>2017-04-09T08:16:04Z</time>
      </trkpt>
      <trkpt lat="49.23669" lon="1.14998">
        <ele>100.2</ele>
        <time>2017-04-09T08:16:06Z</time>
      </trkpt>
      <trkpt lat="49.23662" lon="1.15016">
        <ele>99.4</ele>
        <time>2017-04-09T08:16:08Z</time>
      </trkpt>
      <trkpt lat="49.23657" lon="1.15031">
        <ele>98.7</ele>
        <time>2017-04-09T08:16:10Z</time>
      </trkpt>
      <trkpt lat="49.23647" lon="1.15049">
        <ele>98</ele>
        <time>2017-04-09T08:16:12Z</time>
      </trkpt>
      <trkpt lat="49.2364" lon="1.15068">
        <ele>97.2</ele>
        <time>2017-04-09T08:16:14Z</time>
      </trkpt>
      <trkpt lat="49.23623" lon="1.15089">
        <ele>96.3</ele>
        <time>2017-04-09T08:16:16Z</time>
      </trkpt>
      <trkpt lat="49.23613" lon="1.15102">
        <ele>95.8</ele>
        <time>2017-04-09T08:16:17Z</time>
      </trkpt>
      <trkpt lat="49.23606" lon="1.15122">
        <ele>94.9</ele>
        <time>2017-04-09T08:16:19Z</time>
      </trkpt>
      <trkpt lat="49.23596" lon="1.15147">
        <ele>93.9</ele>
        <time>2017-04-09T08:16:21Z</time>
      </trkpt>
      <trkpt lat="49.23592" lon="1.15171">
        <ele>92.9</ele>
        <time>2017-04-09T08:16:23Z</time>
      </trkpt>
      <trkpt lat="49.23586" lon="1.15199">
        <ele>91.9</ele>
        <time>2017-04-09T08:16:25Z</time>
      </trkpt>
      <trkpt lat="49.23582" lon="1.15215">
        <ele>91.4</ele>
        <time>2017-04-09T08:16:26Z</time>
      </trkpt>
      <trkpt lat="49.23578" lon="1.15229">
        <ele>90.8</ele>
        <time>2017-04-09T08:16:27Z</time>
      </trkpt>
      <trkpt lat="49.23574" lon="1.15249">
        <ele>90.2</ele>
        <time>2017-04-09T08:16:28Z</time>
      </trkpt>
      <trkpt lat="49.23572" lon="1.15264">
        <ele>89.6</ele>
        <time>2017-04-09T08:16:29Z</time>
      </trkpt>
      <trkpt lat="49.23569" lon="1.15278">
        <ele>89</ele>
        <time>2017-04-09T08:16:30Z</time>
      </trkpt>
      <trkpt lat="49.23567" lon="1.15292">
        <ele>88.3</ele>
        <time>2017-04-09T08:16:31Z</time>
      </trkpt>
      <trkpt lat="49.23563" lon="1.15305">
        <ele>87.7</ele>
        <time>2017-04-09T08:16:32Z</time>
      </trkpt>
      <trkpt lat="49.23556" lon="1.15331">
        <ele>86.5</ele>
        <time>2017-04-09T08:16:34Z</time>
      </trkpt>
      <trkpt lat="49.23551" lon="1.15343">
        <ele>85.9</ele>
        <time>2017-04-09T08:16:35Z</time>
      </trkpt>
      <trkpt lat="49.23544" lon="1.15362">
        <ele>84.6</ele>
        <time>2017-04-09T08:16:37Z</time>
      </trkpt>
      <trkpt lat="49.23539" lon="1.15384">
        <ele>83.4</ele>
        <time>2017-04-09T08:16:39Z</time>
      </trkpt>
      <trkpt lat="49.23535" lon="1.15402">
        <ele>82.8</ele>
        <time>2017-04-09T08:16:40Z</time>
      </trkpt>
      <trkpt lat="49.2353" lon="1.15417">
        <ele>82.2</ele>
        <time>2017-04-09T08:16:41Z</time>
      </trkpt>
      <trkpt lat="49.23522" lon="1.15439">
        <ele>80.9</ele>
        <time>2017-04-09T08:16:43Z</time>
      </trkpt>
      <trkpt lat="49.23519" lon="1.15454">
        <ele>80.3</ele>
        <time>2017-04-09T08:16:44Z</time>
      </trkpt>
      <trkpt lat="49.23514" lon="1.15478">
        <ele>79.1</ele>
        <time>2017-04-09T08:16:46Z</time>
      </trkpt>
      <trkpt lat="49.23507" lon="1.15505">
        <ele>77.9</ele>
        <time>2017-04-09T08:16:48Z</time>
      </trkpt>
      <trkpt lat="49.23505" lon="1.15519">
        <ele>77.3</ele>
        <time>2017-04-09T08:16:49Z</time>
      </trkpt>
      <trkpt lat="49.23505" lon="1.15544">
        <ele>76</ele>
        <time>2017-04-09T08:16:51Z</time>
      </trkpt>
      <trkpt lat="49.23502" lon="1.15572">
        <ele>74.8</ele>
        <time>2017-04-09T08:16:53Z</time>
      </trkpt>
      <trkpt lat="49.235" lon="1.15598">
        <ele>73.6</ele>
        <time>2017-04-09T08:16:55Z</time>
      </trkpt>
      <trkpt lat="49.23498" lon="1.15613">
        <ele>73</ele>
        <time>2017-04-09T08:16:56Z</time>
      </trkpt>
      <trkpt lat="49.23495" lon="1.15638">
        <ele>71.8</ele>
        <time>2017-04-09T08:16:58Z</time>
      </trkpt>
      <trkpt lat="49.23494" lon="1.15662">
        <ele>70.6</ele>
        <time>2017-04-09T08:17:00Z</time>
      </trkpt>
      <trkpt lat="49.23493" lon="1.15683">
        <ele>69.3</ele>
        <time>2017-04-09T08:17:02Z</time>
      </trkpt>
      <trkpt lat="49.23491" lon="1.15696">
        <ele>66.7</ele>
        <time>2017-04-09T08:17:07Z</time>
      </trkpt>
      <trkpt lat="49.23483" lon="1.15685">
        <ele>62.3</ele>
        <time>2017-04-09T08:17:22Z</time>
      </trkpt>
      <trkpt lat="49.23473" lon="1.15681">
        <ele>61.7</ele>
        <time>2017-04-09T08:17:28Z</time>
      </trkpt>
      <trkpt lat="49.23464" lon="1.15681">
        <ele>61.7</ele>
        <time>2017-04-09T08:17:33Z</time>
      </trkpt>
      <trkpt lat="49.23455" lon="1.15679">
        <ele>62.4</ele>
        <time>2017-04-09T08:17:39Z</time>
      </trkpt>
      <trkpt lat="49.23446" lon="1.15675">
        <ele>63.9</ele>
        <time>2017-04-09T08:17:47Z</time>
      </trkpt>
      <trkpt lat="49.23437" lon="1.15672">
        <ele>66.2</ele>
        <time>2017-04-09T08:17:57Z</time>
      </trkpt>
      <trkpt lat="49.23428" lon="1.15669">
        <ele>70.1</ele>
        <time>2017-04-09T08:18:13Z</time>
      </trkpt>
      <trkpt lat="49.23419" lon="1.15666">
        <ele>73.1</ele>
        <time>2017-04-09T08:18:27Z</time>
      </trkpt>
      <trkpt lat="49.23409" lon="1.15662">
        <ele>77.1</ele>
        <time>2017-04-09T08:18:43Z</time>
      </trkpt>
      <trkpt lat="49.234" lon="1.15659">
        <ele>80</ele>
        <time>2017-04-09T08:18:56Z</time>
      </trkpt>
      <trkpt lat="49.23391" lon="1.15655">
        <ele>83.2</ele>
        <time>2017-04-09T08:19:10Z</time>
      </trkpt>
      <trkpt lat="49.23382" lon="1.1565">
        <ele>85.5</ele>
        <time>2017-04-09T08:19:20Z</time>
      </trkpt>
      <trkpt lat="49.23373" lon="1.15646">
        <ele>87.4</ele>
        <time>2017-04-09T08:19:29Z</time>
      </trkpt>
      <trkpt lat="49.23364" lon="1.15642">
        <ele>89.6</ele>
        <time>2017-04-09T08:19:41Z</time>
      </trkpt>
      <trkpt lat="49.23353" lon="1.15637">
        <ele>90.4</ele>
        <time>2017-04-09T08:19:46Z</time>
      </trkpt>
      <trkpt lat="49.23344" lon="1.15635">
        <ele>91</ele>
        <time>2017-04-09T08:19:50Z</time>
      </trkpt>
      <trkpt lat="49.23338" lon="1.15649">
        <ele>91.5</ele>
        <time>2017-04-09T08:19:54Z</time>
      </trkpt>
      <trkpt lat="49.23336" lon="1.15664">
        <ele>91.8</ele>
        <time>2017-04-09T08:19:57Z</time>
      </trkpt>
      <trkpt lat="49.23333" lon="1.15682">
        <ele>92.1</ele>
        <time>2017-04-09T08:20:00Z</time>
      </trkpt>
      <trkpt lat="49.23331" lon="1.15697">
        <ele>92.2</ele>
        <time>2017-04-09T08:20:02Z</time>
      </trkpt>
      <trkpt lat="49.23326" lon="1.15715">
        <ele>92.3</ele>
        <time>2017-04-09T08:20:04Z</time>
      </trkpt>
      <trkpt lat="49.23322" lon="1.1573">
        <ele>92.4</ele>
        <time>2017-04-09T08:20:06Z</time>
      </trkpt>
      <trkpt lat="49.2332" lon="1.15746">
        <ele>92.4</ele>
        <time>2017-04-09T08:20:08Z</time>
      </trkpt>
      <trkpt lat="49.23319" lon="1.15761">
        <ele>92.3</ele>
        <time>2017-04-09T08:20:10Z</time>
      </trkpt>
      <trkpt lat="49.23318" lon="1.15779">
        <ele>92</ele>
        <time>2017-04-09T08:20:13Z</time>
      </trkpt>
      <trkpt lat="49.23316" lon="1.15796">
        <ele>91.5</ele>
        <time>2017-04-09T08:20:16Z</time>
      </trkpt>
      <trkpt lat="49.23315" lon="1.15811">
        <ele>91.2</ele>
        <time>2017-04-09T08:20:18Z</time>
      </trkpt>
      <trkpt lat="49.23313" lon="1.15828">
        <ele>90.8</ele>
        <time>2017-04-09T08:20:20Z</time>
      </trkpt>
      <trkpt lat="49.23311" lon="1.15845">
        <ele>90.4</ele>
        <time>2017-04-09T08:20:22Z</time>
      </trkpt>
      <trkpt lat="49.23313" lon="1.15869">
        <ele>89.8</ele>
        <time>2017-04-09T08:20:24Z</time>
      </trkpt>
      <trkpt lat="49.23314" lon="1.15893">
        <ele>89.2</ele>
        <time>2017-04-09T08:20:26Z</time>
      </trkpt>
      <trkpt lat="49.23319" lon="1.15918">
        <ele>88.5</ele>
        <time>2017-04-09T08:20:28Z</time>
      </trkpt>
      <trkpt lat="49.23329" lon="1.15945">
        <ele>87.8</ele>
        <time>2017-04-09T08:20:30Z</time>
      </trkpt>
      <trkpt lat="49.23334" lon="1.15958">
        <ele>87.4</ele>
        <time>2017-04-09T08:20:31Z</time>
      </trkpt>
      <trkpt lat="49.23337" lon="1.15973">
        <ele>86.9</ele>
        <time>2017-04-09T08:20:32Z</time>
      </trkpt>
      <trkpt lat="49.23339" lon="1.15988">
        <ele>86.5</ele>
        <time>2017-04-09T08:20:33Z</time>
      </trkpt>
      <trkpt lat="49.23339" lon="1.16002">
        <ele>85.9</ele>
        <time>2017-04-09T08:20:34Z</time>
      </trkpt>
      <trkpt lat="49.23338" lon="1.1602">
        <ele>84.7</ele>
        <time>2017-04-09T08:20:36Z</time>
      </trkpt>
      <trkpt lat="49.23343" lon="1.16034">
        <ele>83.4</ele>
        <time>2017-04-09T08:20:38Z</time>
      </trkpt>
      <trkpt lat="49.23353" lon="1.1605">
        <ele>81.7</ele>
        <time>2017-04-09T08:20:41Z</time>
      </trkpt>
      <trkpt lat="49.23362" lon="1.16061">
        <ele>80.7</ele>
        <time>2017-04-09T08:20:43Z</time>
      </trkpt>
      <trkpt lat="49.23376" lon="1.16073">
        <ele>79.8</ele>
        <time>2017-04-09T08:20:45Z</time>
      </trkpt>
      <trkpt lat="49.23388" lon="1.16083">
        <ele>79</ele>
        <time>2017-04-09T08:20:47Z</time>
      </trkpt>
      <trkpt lat="49.23395" lon="1.16093">
        <ele>78.2</ele>
        <time>2017-04-09T08:20:49Z</time>
      </trkpt>
      <trkpt lat="49.23408" lon="1.16109">
        <ele>77.5</ele>
        <time>2017-04-09T08:20:51Z</time>
      </trkpt>
      <trkpt lat="49.23418" lon="1.16123">
        <ele>76.8</ele>
        <time>2017-04-09T08:20:53Z</time>
      </trkpt>
      <trkpt lat="49.23421" lon="1.16142">
        <ele>76</ele>
        <time>2017-04-09T08:20:55Z</time>
      </trkpt>
      <trkpt lat="49.23425" lon="1.16158">
        <ele>75</ele>
        <time>2017-04-09T08:20:57Z</time>
      </trkpt>
      <trkpt lat="49.23434" lon="1.16167">
        <ele>74</ele>
        <time>2017-04-09T08:20:59Z</time>
      </trkpt>
      <trkpt lat="49.23445" lon="1.16177">
        <ele>73.1</ele>
        <time>2017-04-09T08:21:01Z</time>
      </trkpt>
      <trkpt lat="49.23454" lon="1.16182">
        <ele>72.2</ele>
        <time>2017-04-09T08:21:03Z</time>
      </trkpt>
      <trkpt lat="49.23465" lon="1.16187">
        <ele>71.4</ele>
        <time>2017-04-09T08:21:05Z</time>
      </trkpt>
      <trkpt lat="49.23478" lon="1.16193">
        <ele>70.6</ele>
        <time>2017-04-09T08:21:07Z</time>
      </trkpt>
      <trkpt lat="49.2349" lon="1.16201">
        <ele>69.7</ele>
        <time>2017-04-09T08:21:09Z</time>
      </trkpt>
      <trkpt lat="49.23501" lon="1.16207">
        <ele>68.8</ele>
        <time>2017-04-09T08:21:11Z</time>
      </trkpt>
      <trkpt lat="49.23516" lon="1.16214">
        <ele>67.8</ele>
        <time>2017-04-09T08:21:13Z</time>
      </trkpt>
      <trkpt lat="49.23529" lon="1.16218">
        <ele>66.9</ele>
        <time>2017-04-09T08:21:15Z</time>
      </trkpt>
      <trkpt lat="49.23538" lon="1.16223">
        <ele>65.8</ele>
        <time>2017-04-09T08:21:17Z</time>
      </trkpt>
      <trkpt lat="49.23549" lon="1.16227">
        <ele>64</ele>
        <time>2017-04-09T08:21:20Z</time>
      </trkpt>
      <trkpt lat="49.23559" lon="1.16233">
        <ele>62.5</ele>
        <time>2017-04-09T08:21:22Z</time>
      </trkpt>
      <trkpt lat="49.2357" lon="1.16239">
        <ele>60.7</ele>
        <time>2017-04-09T08:21:24Z</time>
      </trkpt>
      <trkpt lat="49.23585" lon="1.16245">
        <ele>58.7</ele>
        <time>2017-04-09T08:21:26Z</time>
      </trkpt>
      <trkpt lat="49.23596" lon="1.16252">
        <ele>56.6</ele>
        <time>2017-04-09T08:21:28Z</time>
      </trkpt>
      <trkpt lat="49.23609" lon="1.16257">
        <ele>54.6</ele>
        <time>2017-04-09T08:21:30Z</time>
      </trkpt>
      <trkpt lat="49.23623" lon="1.16263">
        <ele>52.6</ele>
        <time>2017-04-09T08:21:32Z</time>
      </trkpt>
      <trkpt lat="49.23634" lon="1.1627">
        <ele>50.8</ele>
        <time>2017-04-09T08:21:34Z</time>
      </trkpt>
      <trkpt lat="49.23642" lon="1.16284">
        <ele>48.5</ele>
        <time>2017-04-09T08:21:37Z</time>
      </trkpt>
      <trkpt lat="49.23643" lon="1.16299">
        <ele>46.2</ele>
        <time>2017-04-09T08:21:40Z</time>
      </trkpt>
      <trkpt lat="49.23644" lon="1.16315">
        <ele>44.3</ele>
        <time>2017-04-09T08:21:43Z</time>
      </trkpt>
      <trkpt lat="49.23647" lon="1.16334">
        <ele>42.7</ele>
        <time>2017-04-09T08:21:46Z</time>
      </trkpt>
      <trkpt lat="49.23649" lon="1.16351">
        <ele>41.8</ele>
        <time>2017-04-09T08:21:48Z</time>
      </trkpt>
      <trkpt lat="49.23653" lon="1.16375">
        <ele>41</ele>
        <time>2017-04-09T08:21:50Z</time>
      </trkpt>
      <trkpt lat="49.23652" lon="1.164">
        <ele>40.3</ele>
        <time>2017-04-09T08:21:52Z</time>
      </trkpt>
      <trkpt lat="49.23654" lon="1.16419">
        <ele>39.5</ele>
        <time>2017-04-09T08:21:54Z</time>
      </trkpt>
      <trkpt lat="49.23651" lon="1.16444">
        <ele>38.9</ele>
        <time>2017-04-09T08:21:56Z</time>
      </trkpt>
      <trkpt lat="49.23656" lon="1.1646">
        <ele>37.8</ele>
        <time>2017-04-09T08:21:59Z</time>
      </trkpt>
      <trkpt lat="49.23666" lon="1.16468">
        <ele>37.2</ele>
        <time>2017-04-09T08:22:01Z</time>
      </trkpt>
      <trkpt lat="49.23677" lon="1.16476">
        <ele>36.6</ele>
        <time>2017-04-09T08:22:03Z</time>
      </trkpt>
      <trkpt lat="49.23688" lon="1.16487">
        <ele>36.1</ele>
        <time>2017-04-09T08:22:05Z</time>
      </trkpt>
      <trkpt lat="49.23698" lon="1.16494">
        <ele>35.6</ele>
        <time>2017-04-09T08:22:07Z</time>
      </trkpt>
      <trkpt lat="49.23708" lon="1.16508">
        <ele>35.1</ele>
        <time>2017-04-09T08:22:10Z</time>
      </trkpt>
      <trkpt lat="49.23716" lon="1.1652">
        <ele>34.6</ele>
        <time>2017-04-09T08:22:13Z</time>
      </trkpt>
      <trkpt lat="49.23724" lon="1.16523">
        <ele>34.5</ele>
        <time>2017-04-09T08:22:17Z</time>
      </trkpt>
      <trkpt lat="49.23734" lon="1.16526">
        <ele>34.7</ele>
        <time>2017-04-09T08:22:21Z</time>
      </trkpt>
      <trkpt lat="49.23744" lon="1.16528">
        <ele>35.3</ele>
        <time>2017-04-09T08:22:25Z</time>
      </trkpt>
      <trkpt lat="49.23756" lon="1.16533">
        <ele>35.9</ele>
        <time>2017-04-09T08:22:29Z</time>
      </trkpt>
      <trkpt lat="49.23766" lon="1.16537">
        <ele>36.5</ele>
        <time>2017-04-09T08:22:33Z</time>
      </trkpt>
      <trkpt lat="49.23777" lon="1.16538">
        <ele>36.8</ele>
        <time>2017-04-09T08:22:36Z</time>
      </trkpt>
      <trkpt lat="49.23789" lon="1.16539">
        <ele>37.3</ele>
        <time>2017-04-09T08:22:39Z</time>
      </trkpt>
      <trkpt lat="49.23799" lon="1.16541">
        <ele>37.7</ele>
        <time>2017-04-09T08:22:42Z</time>
      </trkpt>
      <trkpt lat="49.23808" lon="1.16541">
        <ele>38.2</ele>
        <time>2017-04-09T08:22:45Z</time>
      </trkpt>
      <trkpt lat="49.23818" lon="1.16545">
        <ele>38.8</ele>
        <time>2017-04-09T08:22:49Z</time>
      </trkpt>
      <trkpt lat="49.23826" lon="1.16537">
        <ele>39.7</ele>
        <time>2017-04-09T08:22:55Z</time>
      </trkpt>
      <trkpt lat="49.2383" lon="1.16522">
        <ele>40.7</ele>
        <time>2017-04-09T08:23:01Z</time>
      </trkpt>
      <trkpt lat="49.23831" lon="1.16508">
        <ele>41.7</ele>
        <time>2017-04-09T08:23:06Z</time>
      </trkpt>
      <trkpt lat="49.23834" lon="1.16494">
        <ele>42.7</ele>
        <time>2017-04-09T08:23:11Z</time>
      </trkpt>
      <trkpt lat="49.23837" lon="1.16479">
        <ele>44.1</ele>
        <time>2017-04-09T08:23:17Z</time>
      </trkpt>
      <trkpt lat="49.23841" lon="1.16466">
        <ele>45.5</ele>
        <time>2017-04-09T08:23:23Z</time>
      </trkpt>
      <trkpt lat="49.23845" lon="1.16452">
        <ele>46.9</ele>
        <time>2017-04-09T08:23:29Z</time>
      </trkpt>
      <trkpt lat="49.23847" lon="1.16438">
        <ele>48.1</ele>
        <time>2017-04-09T08:23:34Z</time>
      </trkpt>
      <trkpt lat="49.2385" lon="1.16424">
        <ele>49.2</ele>
        <time>2017-04-09T08:23:39Z</time>
      </trkpt>
      <trkpt lat="49.23853" lon="1.16409">
        <ele>50.8</ele>
        <time>2017-04-09T08:23:45Z</time>
      </trkpt>
      <trkpt lat="49.23857" lon="1.16394">
        <ele>52.3</ele>
        <time>2017-04-09T08:23:51Z</time>
      </trkpt>
      <trkpt lat="49.23859" lon="1.16378">
        <ele>53.9</ele>
        <time>2017-04-09T08:23:57Z</time>
      </trkpt>
      <trkpt lat="49.23862" lon="1.16364">
        <ele>55.2</ele>
        <time>2017-04-09T08:24:02Z</time>
      </trkpt>
      <trkpt lat="49.23865" lon="1.16349">
        <ele>56.6</ele>
        <time>2017-04-09T08:24:08Z</time>
      </trkpt>
      <trkpt lat="49.23867" lon="1.16334">
        <ele>57.9</ele>
        <time>2017-04-09T08:24:13Z</time>
      </trkpt>
      <trkpt lat="49.23869" lon="1.1632">
        <ele>59.1</ele>
        <time>2017-04-09T08:24:18Z</time>
      </trkpt>
      <trkpt lat="49.23871" lon="1.16305">
        <ele>60.3</ele>
        <time>2017-04-09T08:24:23Z</time>
      </trkpt>
      <trkpt lat="49.23873" lon="1.1629">
        <ele>61.5</ele>
        <time>2017-04-09T08:24:28Z</time>
      </trkpt>
      <trkpt lat="49.23875" lon="1.16275">
        <ele>62.6</ele>
        <time>2017-04-09T08:24:33Z</time>
      </trkpt>
      <trkpt lat="49.23879" lon="1.1626">
        <ele>63.7</ele>
        <time>2017-04-09T08:24:38Z</time>
      </trkpt>
      <trkpt lat="49.23883" lon="1.16245">
        <ele>64.8</ele>
        <time>2017-04-09T08:24:43Z</time>
      </trkpt>
      <trkpt lat="49.23887" lon="1.16231">
        <ele>65.9</ele>
        <time>2017-04-09T08:24:48Z</time>
      </trkpt>
      <trkpt lat="49.23889" lon="1.16216">
        <ele>67.1</ele>
        <time>2017-04-09T08:24:53Z</time>
      </trkpt>
      <trkpt lat="49.23893" lon="1.16202">
        <ele>68.2</ele>
        <time>2017-04-09T08:24:58Z</time>
      </trkpt>
      <trkpt lat="49.23896" lon="1.16188">
        <ele>68.9</ele>
        <time>2017-04-09T08:25:02Z</time>
      </trkpt>
      <trkpt lat="49.23898" lon="1.16175">
        <ele>69.8</ele>
        <time>2017-04-09T08:25:06Z</time>
      </trkpt>
      <trkpt lat="49.23901" lon="1.1616">
        <ele>70.6</ele>
        <time>2017-04-09T08:25:10Z</time>
      </trkpt>
      <trkpt lat="49.23904" lon="1.16146">
        <ele>71.5</ele>
        <time>2017-04-09T08:25:14Z</time>
      </trkpt>
      <trkpt lat="49.23907" lon="1.16133">
        <ele>72.3</ele>
        <time>2017-04-09T08:25:18Z</time>
      </trkpt>
      <trkpt lat="49.2391" lon="1.16116">
        <ele>73.3</ele>
        <time>2017-04-09T08:25:23Z</time>
      </trkpt>
      <trkpt lat="49.23913" lon="1.16103">
        <ele>74.2</ele>
        <time>2017-04-09T08:25:27Z</time>
      </trkpt>
      <trkpt lat="49.23916" lon="1.16088">
        <ele>75</ele>
        <time>2017-04-09T08:25:31Z</time>
      </trkpt>
      <trkpt lat="49.23918" lon="1.16074">
        <ele>75.9</ele>
        <time>2017-04-09T08:25:35Z</time>
      </trkpt>
      <trkpt lat="49.23921" lon="1.1606">
        <ele>76.8</ele>
        <time>2017-04-09T08:25:39Z</time>
      </trkpt>
      <trkpt lat="49.23924" lon="1.16046">
        <ele>77.7</ele>
        <time>2017-04-09T08:25:43Z</time>
      </trkpt>
      <trkpt lat="49.23926" lon="1.16032">
        <ele>78.6</ele>
        <time>2017-04-09T08:25:47Z</time>
      </trkpt>
      <trkpt lat="49.23929" lon="1.16018">
        <ele>79.6</ele>
        <time>2017-04-09T08:25:51Z</time>
      </trkpt>
      <trkpt lat="49.23932" lon="1.16004">
        <ele>80.5</ele>
        <time>2017-04-09T08:25:55Z</time>
      </trkpt>
      <trkpt lat="49.23934" lon="1.1599">
        <ele>81.4</ele>
        <time>2017-04-09T08:25:59Z</time>
      </trkpt>
      <trkpt lat="49.23937" lon="1.15976">
        <ele>82.3</ele>
        <time>2017-04-09T08:26:03Z</time>
      </trkpt>
      <trkpt lat="49.2394" lon="1.15962">
        <ele>83.2</ele>
        <time>2017-04-09T08:26:07Z</time>
      </trkpt>
      <trkpt lat="49.23942" lon="1.15948">
        <ele>84.1</ele>
        <time>2017-04-09T08:26:11Z</time>
      </trkpt>
      <trkpt lat="49.23945" lon="1.15934">
        <ele>85</ele>
        <time>2017-04-09T08:26:15Z</time>
      </trkpt>
      <trkpt lat="49.23947" lon="1.15921">
        <ele>85.9</ele>
        <time>2017-04-09T08:26:19Z</time>
      </trkpt>
      <trkpt lat="49.23957" lon="1.15917">
        <ele>87.1</ele>
        <time>2017-04-09T08:26:25Z</time>
      </trkpt>
      <trkpt lat="49.23966" lon="1.1592">
        <ele>87.6</ele>
        <time>2017-04-09T08:26:28Z</time>
      </trkpt>
      <trkpt lat="49.23976" lon="1.15923">
        <ele>88.1</ele>
        <time>2017-04-09T08:26:31Z</time>
      </trkpt>
      <trkpt lat="49.23986" lon="1.15928">
        <ele>88.5</ele>
        <time>2017-04-09T08:26:34Z</time>
      </trkpt>
      <trkpt lat="49.23998" lon="1.15932">
        <ele>88.8</ele>
        <time>2017-04-09T08:26:37Z</time>
      </trkpt>
      <trkpt lat="49.24008" lon="1.15935">
        <ele>89</ele>
        <time>2017-04-09T08:26:39Z</time>
      </trkpt>
      <trkpt lat="49.24016" lon="1.15938">
        <ele>89.1</ele>
        <time>2017-04-09T08:26:41Z</time>
      </trkpt>
      <trkpt lat="49.24026" lon="1.15941">
        <ele>89.2</ele>
        <time>2017-04-09T08:26:43Z</time>
      </trkpt>
      <trkpt lat="49.2404" lon="1.15947">
        <ele>89.3</ele>
        <time>2017-04-09T08:26:46Z</time>
      </trkpt>
      <trkpt lat="49.2405" lon="1.15951">
        <ele>89.3</ele>
        <time>2017-04-09T08:26:48Z</time>
      </trkpt>
      <trkpt lat="49.24059" lon="1.15955">
        <ele>89.3</ele>
        <time>2017-04-09T08:26:50Z</time>
      </trkpt>
      <trkpt lat="49.24073" lon="1.15961">
        <ele>89.2</ele>
        <time>2017-04-09T08:26:53Z</time>
      </trkpt>
      <trkpt lat="49.24088" lon="1.15969">
        <ele>89.1</ele>
        <time>2017-04-09T08:26:56Z</time>
      </trkpt>
      <trkpt lat="49.24099" lon="1.15974">
        <ele>88.9</ele>
        <time>2017-04-09T08:26:58Z</time>
      </trkpt>
      <trkpt lat="49.24116" lon="1.15981">
        <ele>88.7</ele>
        <time>2017-04-09T08:27:00Z</time>
      </trkpt>
      <trkpt lat="49.2413" lon="1.15986">
        <ele>88.5</ele>
        <time>2017-04-09T08:27:02Z</time>
      </trkpt>
      <trkpt lat="49.24145" lon="1.15993">
        <ele>88.1</ele>
        <time>2017-04-09T08:27:04Z</time>
      </trkpt>
      <trkpt lat="49.24161" lon="1.16">
        <ele>87.8</ele>
        <time>2017-04-09T08:27:06Z</time>
      </trkpt>
      <trkpt lat="49.24176" lon="1.16008">
        <ele>87.4</ele>
        <time>2017-04-09T08:27:08Z</time>
      </trkpt>
      <trkpt lat="49.24185" lon="1.16011">
        <ele>87.1</ele>
        <time>2017-04-09T08:27:09Z</time>
      </trkpt>
      <trkpt lat="49.24203" lon="1.16017">
        <ele>86.5</ele>
        <time>2017-04-09T08:27:11Z</time>
      </trkpt>
      <trkpt lat="49.2422" lon="1.16024">
        <ele>85.8</ele>
        <time>2017-04-09T08:27:13Z</time>
      </trkpt>
      <trkpt lat="49.2423" lon="1.16028">
        <ele>85.5</ele>
        <time>2017-04-09T08:27:14Z</time>
      </trkpt>
      <trkpt lat="49.24239" lon="1.16032">
        <ele>85</ele>
        <time>2017-04-09T08:27:15Z</time>
      </trkpt>
      <trkpt lat="49.24255" lon="1.16038">
        <ele>83.9</ele>
        <time>2017-04-09T08:27:17Z</time>
      </trkpt>
      <trkpt lat="49.24268" lon="1.16043">
        <ele>82.8</ele>
        <time>2017-04-09T08:27:19Z</time>
      </trkpt>
      <trkpt lat="49.2428" lon="1.16048">
        <ele>81.5</ele>
        <time>2017-04-09T08:27:21Z</time>
      </trkpt>
      <trkpt lat="49.24291" lon="1.16053">
        <ele>79.9</ele>
        <time>2017-04-09T08:27:23Z</time>
      </trkpt>
      <trkpt lat="49.243" lon="1.16058">
        <ele>78.1</ele>
        <time>2017-04-09T08:27:25Z</time>
      </trkpt>
      <trkpt lat="49.24312" lon="1.16065">
        <ele>76.1</ele>
        <time>2017-04-09T08:27:27Z</time>
      </trkpt>
      <trkpt lat="49.24321" lon="1.1607">
        <ele>73.8</ele>
        <time>2017-04-09T08:27:29Z</time>
      </trkpt>
      <trkpt lat="49.24333" lon="1.16073">
        <ele>71.4</ele>
        <time>2017-04-09T08:27:31Z</time>
      </trkpt>
      <trkpt lat="49.24343" lon="1.16069">
        <ele>66.8</ele>
        <time>2017-04-09T08:27:35Z</time>
      </trkpt>
      <trkpt lat="49.24352" lon="1.16064">
        <ele>63.8</ele>
        <time>2017-04-09T08:27:38Z</time>
      </trkpt>
      <trkpt lat="49.24355" lon="1.16048">
        <ele>61.1</ele>
        <time>2017-04-09T08:27:41Z</time>
      </trkpt>
      <trkpt lat="49.2436" lon="1.16033">
        <ele>58.8</ele>
        <time>2017-04-09T08:27:44Z</time>
      </trkpt>
      <trkpt lat="49.24363" lon="1.16019">
        <ele>57.5</ele>
        <time>2017-04-09T08:27:46Z</time>
      </trkpt>
      <trkpt lat="49.24364" lon="1.15998">
        <ele>55.8</ele>
        <time>2017-04-09T08:27:49Z</time>
      </trkpt>
      <trkpt lat="49.24366" lon="1.15982">
        <ele>54.6</ele>
        <time>2017-04-09T08:27:52Z</time>
      </trkpt>
      <trkpt lat="49.24371" lon="1.15968">
        <ele>53.7</ele>
        <time>2017-04-09T08:27:55Z</time>
      </trkpt>
      <trkpt lat="49.24374" lon="1.15953">
        <ele>53</ele>
        <time>2017-04-09T08:27:58Z</time>
      </trkpt>
      <trkpt lat="49.24371" lon="1.15936">
        <ele>52.5</ele>
        <time>2017-04-09T08:28:01Z</time>
      </trkpt>
      <trkpt lat="49.2437" lon="1.1592">
        <ele>52.2</ele>
        <time>2017-04-09T08:28:04Z</time>
      </trkpt>
      <trkpt lat="49.24374" lon="1.15907">
        <ele>51.8</ele>
        <time>2017-04-09T08:28:07Z</time>
      </trkpt>
      <trkpt lat="49.24375" lon="1.15892">
        <ele>51.6</ele>
        <time>2017-04-09T08:28:10Z</time>
      </trkpt>
      <trkpt lat="49.24376" lon="1.15874">
        <ele>51.4</ele>
        <time>2017-04-09T08:28:13Z</time>
      </trkpt>
      <trkpt lat="49.2438" lon="1.1586">
        <ele>51.3</ele>
        <time>2017-04-09T08:28:16Z</time>
      </trkpt>
      <trkpt lat="49.24384" lon="1.15847">
        <ele>51.3</ele>
        <time>2017-04-09T08:28:19Z</time>
      </trkpt>
      <trkpt lat="49.24391" lon="1.15835">
        <ele>51.3</ele>
        <time>2017-04-09T08:28:24Z</time>
      </trkpt>
      <trkpt lat="49.24401" lon="1.15838">
        <ele>51</ele>
        <time>2017-04-09T08:28:27Z</time>
      </trkpt>
      <trkpt lat="49.2441" lon="1.15843">
        <ele>50.4</ele>
        <time>2017-04-09T08:28:29Z</time>
      </trkpt>
      <trkpt lat="49.24421" lon="1.15848">
        <ele>49.4</ele>
        <time>2017-04-09T08:28:31Z</time>
      </trkpt>
      <trkpt lat="49.24433" lon="1.15856">
        <ele>47.9</ele>
        <time>2017-04-09T08:28:33Z</time>
      </trkpt>
      <trkpt lat="49.24443" lon="1.15859">
        <ele>46.4</ele>
        <time>2017-04-09T08:28:35Z</time>
      </trkpt>
      <trkpt lat="49.24456" lon="1.15862">
        <ele>45</ele>
        <time>2017-04-09T08:28:37Z</time>
      </trkpt>
      <trkpt lat="49.24467" lon="1.15866">
        <ele>43.6</ele>
        <time>2017-04-09T08:28:39Z</time>
      </trkpt>
      <trkpt lat="49.24465" lon="1.15884">
        <ele>41.3</ele>
        <time>2017-04-09T08:28:43Z</time>
      </trkpt>
      <trkpt lat="49.24462" lon="1.15902">
        <ele>40</ele>
        <time>2017-04-09T08:28:46Z</time>
      </trkpt>
      <trkpt lat="49.24462" lon="1.15919">
        <ele>38.9</ele>
        <time>2017-04-09T08:28:49Z</time>
      </trkpt>
      <trkpt lat="49.24458" lon="1.15933">
        <ele>38.2</ele>
        <time>2017-04-09T08:28:51Z</time>
      </trkpt>
      <trkpt lat="49.24451" lon="1.15947">
        <ele>37.7</ele>
        <time>2017-04-09T08:28:53Z</time>
      </trkpt>
      <trkpt lat="49.24446" lon="1.15964">
        <ele>37.2</ele>
        <time>2017-04-09T08:28:55Z</time>
      </trkpt>
      <trkpt lat="49.24443" lon="1.15986">
        <ele>36.7</ele>
        <time>2017-04-09T08:28:57Z</time>
      </trkpt>
      <trkpt lat="49.24441" lon="1.16006">
        <ele>36.3</ele>
        <time>2017-04-09T08:28:59Z</time>
      </trkpt>
      <trkpt lat="49.24439" lon="1.16026">
        <ele>35.9</ele>
        <time>2017-04-09T08:29:01Z</time>
      </trkpt>
      <trkpt lat="49.24438" lon="1.16046">
        <ele>35.5</ele>
        <time>2017-04-09T08:29:03Z</time>
      </trkpt>
      <trkpt lat="49.24438" lon="1.16065">
        <ele>35.2</ele>
        <time>2017-04-09T08:29:05Z</time>
      </trkpt>
      <trkpt lat="49.24441" lon="1.16085">
        <ele>34.9</ele>
        <time>2017-04-09T08:29:07Z</time>
      </trkpt>
      <trkpt lat="49.24447" lon="1.16103">
        <ele>34.7</ele>
        <time>2017-04-09T08:29:09Z</time>
      </trkpt>
      <trkpt lat="49.24453" lon="1.16118">
        <ele>34.5</ele>
        <time>2017-04-09T08:29:11Z</time>
      </trkpt>
      <trkpt lat="49.24463" lon="1.16129">
        <ele>34.2</ele>
        <time>2017-04-09T08:29:14Z</time>
      </trkpt>
      <trkpt lat="49.24471" lon="1.1614">
        <ele>34</ele>
        <time>2017-04-09T08:29:20Z</time>
      </trkpt>
      <trkpt lat="49.24479" lon="1.16146">
        <ele>34.6</ele>
        <time>2017-04-09T08:29:27Z</time>
      </trkpt>
      <trkpt lat="49.24488" lon="1.16151">
        <ele>35.6</ele>
        <time>2017-04-09T08:29:34Z</time>
      </trkpt>
      <trkpt lat="49.24497" lon="1.16154">
        <ele>36.9</ele>
        <time>2017-04-09T08:29:42Z</time>
      </trkpt>
      <trkpt lat="49.24506" lon="1.1616">
        <ele>38.8</ele>
        <time>2017-04-09T08:29:50Z</time>
      </trkpt>
      <trkpt lat="49.24516" lon="1.16163">
        <ele>40.9</ele>
        <time>2017-04-09T08:29:58Z</time>
      </trkpt>
      <trkpt lat="49.24525" lon="1.16165">
        <ele>42.9</ele>
        <time>2017-04-09T08:30:05Z</time>
      </trkpt>
      <trkpt lat="49.24533" lon="1.16172">
        <ele>45.1</ele>
        <time>2017-04-09T08:30:12Z</time>
      </trkpt>
      <trkpt lat="49.24543" lon="1.16176">
        <ele>47.6</ele>
        <time>2017-04-09T08:30:21Z</time>
      </trkpt>
      <trkpt lat="49.24552" lon="1.16179">
        <ele>49.9</ele>
        <time>2017-04-09T08:30:30Z</time>
      </trkpt>
      <trkpt lat="49.24561" lon="1.16183">
        <ele>52.5</ele>
        <time>2017-04-09T08:30:40Z</time>
      </trkpt>
      <trkpt lat="49.2457" lon="1.16188">
        <ele>54.6</ele>
        <time>2017-04-09T08:30:48Z</time>
      </trkpt>
      <trkpt lat="49.24579" lon="1.16192">
        <ele>56.4</ele>
        <time>2017-04-09T08:30:56Z</time>
      </trkpt>
      <trkpt lat="49.24588" lon="1.16195">
        <ele>58.5</ele>
        <time>2017-04-09T08:31:04Z</time>
      </trkpt>
      <trkpt lat="49.24598" lon="1.16199">
        <ele>60.7</ele>
        <time>2017-04-09T08:31:12Z</time>
      </trkpt>
      <trkpt lat="49.24607" lon="1.16204">
        <ele>63.2</ele>
        <time>2017-04-09T08:31:21Z</time>
      </trkpt>
      <trkpt lat="49.24616" lon="1.16207">
        <ele>65.6</ele>
        <time>2017-04-09T08:31:30Z</time>
      </trkpt>
      <trkpt lat="49.24625" lon="1.16212">
        <ele>67.6</ele>
        <time>2017-04-09T08:31:38Z</time>
      </trkpt>
      <trkpt lat="49.24633" lon="1.16216">
        <ele>69.8</ele>
        <time>2017-04-09T08:31:47Z</time>
      </trkpt>
      <trkpt lat="49.24642" lon="1.16221">
        <ele>71.4</ele>
        <time>2017-04-09T08:31:54Z</time>
      </trkpt>
      <trkpt lat="49.24652" lon="1.16226">
        <ele>73.4</ele>
        <time>2017-04-09T08:32:02Z</time>
      </trkpt>
      <trkpt lat="49.24661" lon="1.16228">
        <ele>75.1</ele>
        <time>2017-04-09T08:32:09Z</time>
      </trkpt>
      <trkpt lat="49.2467" lon="1.16233">
        <ele>76.5</ele>
        <time>2017-04-09T08:32:15Z</time>
      </trkpt>
      <trkpt lat="49.24678" lon="1.16238">
        <ele>77.9</ele>
        <time>2017-04-09T08:32:21Z</time>
      </trkpt>
      <trkpt lat="49.24678" lon="1.16256">
        <ele>79</ele>
        <time>2017-04-09T08:32:27Z</time>
      </trkpt>
      <trkpt lat="49.24678" lon="1.16273">
        <ele>79.4</ele>
        <time>2017-04-09T08:32:30Z</time>
      </trkpt>
      <trkpt lat="49.24677" lon="1.16292">
        <ele>79.7</ele>
        <time>2017-04-09T08:32:33Z</time>
      </trkpt>
      <trkpt lat="49.24678" lon="1.16307">
        <ele>79.9</ele>
        <time>2017-04-09T08:32:35Z</time>
      </trkpt>
      <trkpt lat="49.24677" lon="1.16325">
        <ele>80</ele>
        <time>2017-04-09T08:32:37Z</time>
      </trkpt>
      <trkpt lat="49.24676" lon="1.16348">
        <ele>79.8</ele>
        <time>2017-04-09T08:32:39Z</time>
      </trkpt>
      <trkpt lat="49.24675" lon="1.16369">
        <ele>79.5</ele>
        <time>2017-04-09T08:32:41Z</time>
      </trkpt>
      <trkpt lat="49.24677" lon="1.16391">
        <ele>79.2</ele>
        <time>2017-04-09T08:32:43Z</time>
      </trkpt>
      <trkpt lat="49.24681" lon="1.16411">
        <ele>78.8</ele>
        <time>2017-04-09T08:32:45Z</time>
      </trkpt>
      <trkpt lat="49.24685" lon="1.16433">
        <ele>78.4</ele>
        <time>2017-04-09T08:32:47Z</time>
      </trkpt>
      <trkpt lat="49.24688" lon="1.16455">
        <ele>77.9</ele>
        <time>2017-04-09T08:32:49Z</time>
      </trkpt>
      <trkpt lat="49.2469" lon="1.16474">
        <ele>77.4</ele>
        <time>2017-04-09T08:32:51Z</time>
      </trkpt>
      <trkpt lat="49.24692" lon="1.16496">
        <ele>76.9</ele>
        <time>2017-04-09T08:32:53Z</time>
      </trkpt>
      <trkpt lat="49.24692" lon="1.16512">
        <ele>76.3</ele>
        <time>2017-04-09T08:32:55Z</time>
      </trkpt>
      <trkpt lat="49.24693" lon="1.16527">
        <ele>75.9</ele>
        <time>2017-04-09T08:32:56Z</time>
      </trkpt>
      <trkpt lat="49.24692" lon="1.16546">
        <ele>75.1</ele>
        <time>2017-04-09T08:32:58Z</time>
      </trkpt>
      <trkpt lat="49.24702" lon="1.16572">
        <ele>74.4</ele>
        <time>2017-04-09T08:33:00Z</time>
      </trkpt>
      <trkpt lat="49.24708" lon="1.16584">
        <ele>74</ele>
        <time>2017-04-09T08:33:01Z</time>
      </trkpt>
      <trkpt lat="49.24717" lon="1.16604">
        <ele>73.2</ele>
        <time>2017-04-09T08:33:03Z</time>
      </trkpt>
      <trkpt lat="49.24722" lon="1.16616">
        <ele>72.9</ele>
        <time>2017-04-09T08:33:04Z</time>
      </trkpt>
      <trkpt lat="49.24733" lon="1.16635">
        <ele>72.2</ele>
        <time>2017-04-09T08:33:06Z</time>
      </trkpt>
      <trkpt lat="49.24739" lon="1.16646">
        <ele>71.8</ele>
        <time>2017-04-09T08:33:07Z</time>
      </trkpt>
      <trkpt lat="49.24747" lon="1.16665">
        <ele>71.1</ele>
        <time>2017-04-09T08:33:09Z</time>
      </trkpt>
      <trkpt lat="49.24756" lon="1.16689">
        <ele>70.4</ele>
        <time>2017-04-09T08:33:11Z</time>
      </trkpt>
      <trkpt lat="49.24764" lon="1.16709">
        <ele>69.6</ele>
        <time>2017-04-09T08:33:13Z</time>
      </trkpt>
      <trkpt lat="49.24772" lon="1.16729">
        <ele>68.9</ele>
        <time>2017-04-09T08:33:15Z</time>
      </trkpt>
      <trkpt lat="49.24779" lon="1.1675">
        <ele>68.2</ele>
        <time>2017-04-09T08:33:17Z</time>
      </trkpt>
      <trkpt lat="49.24787" lon="1.16768">
        <ele>67.5</ele>
        <time>2017-04-09T08:33:19Z</time>
      </trkpt>
      <trkpt lat="49.24792" lon="1.16785">
        <ele>66.7</ele>
        <time>2017-04-09T08:33:21Z</time>
      </trkpt>
      <trkpt lat="49.24799" lon="1.16807">
        <ele>66.1</ele>
        <time>2017-04-09T08:33:23Z</time>
      </trkpt>
      <trkpt lat="49.24804" lon="1.16827">
        <ele>65.4</ele>
        <time>2017-04-09T08:33:25Z</time>
      </trkpt>
      <trkpt lat="49.24811" lon="1.16845">
        <ele>64.8</ele>
        <time>2017-04-09T08:33:27Z</time>
      </trkpt>
      <trkpt lat="49.24821" lon="1.16863">
        <ele>64.1</ele>
        <time>2017-04-09T08:33:29Z</time>
      </trkpt>
      <trkpt lat="49.24832" lon="1.16879">
        <ele>63.6</ele>
        <time>2017-04-09T08:33:31Z</time>
      </trkpt>
      <trkpt lat="49.24841" lon="1.16893">
        <ele>62.9</ele>
        <time>2017-04-09T08:33:33Z</time>
      </trkpt>
      <trkpt lat="49.24851" lon="1.16906">
        <ele>62.3</ele>
        <time>2017-04-09T08:33:35Z</time>
      </trkpt>
      <trkpt lat="49.24861" lon="1.1692">
        <ele>61.6</ele>
        <time>2017-04-09T08:33:37Z</time>
      </trkpt>
      <trkpt lat="49.24871" lon="1.16934">
        <ele>61.1</ele>
        <time>2017-04-09T08:33:39Z</time>
      </trkpt>
      <trkpt lat="49.24877" lon="1.16949">
        <ele>60.6</ele>
        <time>2017-04-09T08:33:41Z</time>
      </trkpt>
      <trkpt lat="49.24878" lon="1.16964">
        <ele>60</ele>
        <time>2017-04-09T08:33:43Z</time>
      </trkpt>
      <trkpt lat="49.2488" lon="1.16982">
        <ele>59.3</ele>
        <time>2017-04-09T08:33:45Z</time>
      </trkpt>
      <trkpt lat="49.24889" lon="1.16978">
        <ele>57</ele>
        <time>2017-04-09T08:33:52Z</time>
      </trkpt>
      <trkpt lat="49.24896" lon="1.16965">
        <ele>56.1</ele>
        <time>2017-04-09T08:33:56Z</time>
      </trkpt>
      <trkpt lat="49.24901" lon="1.16952">
        <ele>55.8</ele>
        <time>2017-04-09T08:33:59Z</time>
      </trkpt>
      <trkpt lat="49.24905" lon="1.16939">
        <ele>55.6</ele>
        <time>2017-04-09T08:34:02Z</time>
      </trkpt>
      <trkpt lat="49.24909" lon="1.16925">
        <ele>55.5</ele>
        <time>2017-04-09T08:34:05Z</time>
      </trkpt>
      <trkpt lat="49.24915" lon="1.1691">
        <ele>55.6</ele>
        <time>2017-04-09T08:34:09Z</time>
      </trkpt>
      <trkpt lat="49.2492" lon="1.16898">
        <ele>55.9</ele>
        <time>2017-04-09T08:34:12Z</time>
      </trkpt>
      <trkpt lat="49.24924" lon="1.1688">
        <ele>56.4</ele>
        <time>2017-04-09T08:34:16Z</time>
      </trkpt>
      <trkpt lat="49.24925" lon="1.16864">
        <ele>57</ele>
        <time>2017-04-09T08:34:20Z</time>
      </trkpt>
      <trkpt lat="49.24925" lon="1.16846">
        <ele>57.7</ele>
        <time>2017-04-09T08:34:24Z</time>
      </trkpt>
      <trkpt lat="49.24925" lon="1.1683">
        <ele>58.4</ele>
        <time>2017-04-09T08:34:28Z</time>
      </trkpt>
      <trkpt lat="49.24927" lon="1.16812">
        <ele>59.2</ele>
        <time>2017-04-09T08:34:32Z</time>
      </trkpt>
      <trkpt lat="49.24929" lon="1.16798">
        <ele>59.7</ele>
        <time>2017-04-09T08:34:35Z</time>
      </trkpt>
      <trkpt lat="49.24933" lon="1.16784">
        <ele>60.4</ele>
        <time>2017-04-09T08:34:39Z</time>
      </trkpt>
      <trkpt lat="49.24938" lon="1.16768">
        <ele>61.3</ele>
        <time>2017-04-09T08:34:43Z</time>
      </trkpt>
      <trkpt lat="49.24943" lon="1.16755">
        <ele>62.2</ele>
        <time>2017-04-09T08:34:47Z</time>
      </trkpt>
      <trkpt lat="49.24949" lon="1.16741">
        <ele>63.2</ele>
        <time>2017-04-09T08:34:52Z</time>
      </trkpt>
      <trkpt lat="49.24954" lon="1.16727">
        <ele>64.3</ele>
        <time>2017-04-09T08:34:57Z</time>
      </trkpt>
      <trkpt lat="49.24958" lon="1.16714">
        <ele>65.2</ele>
        <time>2017-04-09T08:35:01Z</time>
      </trkpt>
      <trkpt lat="49.24964" lon="1.16701">
        <ele>66.3</ele>
        <time>2017-04-09T08:35:06Z</time>
      </trkpt>
      <trkpt lat="49.2497" lon="1.16687">
        <ele>67.4</ele>
        <time>2017-04-09T08:35:11Z</time>
      </trkpt>
      <trkpt lat="49.24975" lon="1.16674">
        <ele>68.6</ele>
        <time>2017-04-09T08:35:16Z</time>
      </trkpt>
      <trkpt lat="49.24981" lon="1.16661">
        <ele>69.8</ele>
        <time>2017-04-09T08:35:21Z</time>
      </trkpt>
      <trkpt lat="49.24983" lon="1.16646">
        <ele>71</ele>
        <time>2017-04-09T08:35:26Z</time>
      </trkpt>
      <trkpt lat="49.24985" lon="1.16631">
        <ele>72.6</ele>
        <time>2017-04-09T08:35:32Z</time>
      </trkpt>
      <trkpt lat="49.24988" lon="1.16616">
        <ele>73.9</ele>
        <time>2017-04-09T08:35:37Z</time>
      </trkpt>
      <trkpt lat="49.2499" lon="1.16598">
        <ele>75.2</ele>
        <time>2017-04-09T08:35:42Z</time>
      </trkpt>
      <trkpt lat="49.24993" lon="1.16584">
        <ele>76.4</ele>
        <time>2017-04-09T08:35:47Z</time>
      </trkpt>
      <trkpt lat="49.24997" lon="1.1657">
        <ele>77.6</ele>
        <time>2017-04-09T08:35:52Z</time>
      </trkpt>
      <trkpt lat="49.25001" lon="1.16555">
        <ele>78.6</ele>
        <time>2017-04-09T08:35:56Z</time>
      </trkpt>
      <trkpt lat="49.25006" lon="1.16542">
        <ele>79.6</ele>
        <time>2017-04-09T08:36:00Z</time>
      </trkpt>
      <trkpt lat="49.25011" lon="1.16531">
        <ele>80.5</ele>
        <time>2017-04-09T08:36:04Z</time>
      </trkpt>
      <trkpt lat="49.25018" lon="1.16519">
        <ele>81.4</ele>
        <time>2017-04-09T08:36:08Z</time>
      </trkpt>
      <trkpt lat="49.25025" lon="1.16506">
        <ele>82.2</ele>
        <time>2017-04-09T08:36:12Z</time>
      </trkpt>
      <trkpt lat="49.25032" lon="1.16493">
        <ele>82.9</ele>
        <time>2017-04-09T08:36:16Z</time>
      </trkpt>
      <trkpt lat="49.25039" lon="1.16479">
        <ele>83.6</ele>
        <time>2017-04-09T08:36:20Z</time>
      </trkpt>
      <trkpt lat="49.25046" lon="1.16466">
        <ele>84.3</ele>
        <time>2017-04-09T08:36:24Z</time>
      </trkpt>
      <trkpt lat="49.25053" lon="1.16451">
        <ele>84.8</ele>
        <time>2017-04-09T08:36:28Z</time>
      </trkpt>
      <trkpt lat="49.25058" lon="1.16439">
        <ele>85.2</ele>
        <time>2017-04-09T08:36:31Z</time>
      </trkpt>
      <trkpt lat="49.25061" lon="1.16423">
        <ele>85.7</ele>
        <time>2017-04-09T08:36:34Z</time>
      </trkpt>
      <trkpt lat="49.25063" lon="1.16405">
        <ele>86.2</ele>
        <time>2017-04-09T08:36:38Z</time>
      </trkpt>
      <trkpt lat="49.25064" lon="1.16388">
        <ele>86.7</ele>
        <time>2017-04-09T08:36:41Z</time>
      </trkpt>
      <trkpt lat="49.25063" lon="1.1637">
        <ele>87.1</ele>
        <time>2017-04-09T08:36:44Z</time>
      </trkpt>
      <trkpt lat="49.25064" lon="1.16355">
        <ele>87.6</ele>
        <time>2017-04-09T08:36:47Z</time>
      </trkpt>
      <trkpt lat="49.25064" lon="1.16339">
        <ele>87.9</ele>
        <time>2017-04-09T08:36:50Z</time>
      </trkpt>
      <trkpt lat="49.25064" lon="1.16322">
        <ele>88.3</ele>
        <time>2017-04-09T08:36:53Z</time>
      </trkpt>
      <trkpt lat="49.25064" lon="1.16306">
        <ele>88.7</ele>
        <time>2017-04-09T08:36:56Z</time>
      </trkpt>
      <trkpt lat="49.25064" lon="1.16289">
        <ele>89.1</ele>
        <time>2017-04-09T08:36:59Z</time>
      </trkpt>
      <trkpt lat="49.25064" lon="1.16273">
        <ele>89.6</ele>
        <time>2017-04-09T08:37:02Z</time>
      </trkpt>
      <trkpt lat="49.25065" lon="1.16258">
        <ele>90</ele>
        <time>2017-04-09T08:37:05Z</time>
      </trkpt>
      <trkpt lat="49.25072" lon="1.16249">
        <ele>90.5</ele>
        <time>2017-04-09T08:37:08Z</time>
      </trkpt>
      <trkpt lat="49.25085" lon="1.16254">
        <ele>90.9</ele>
        <time>2017-04-09T08:37:11Z</time>
      </trkpt>
      <trkpt lat="49.25095" lon="1.1626">
        <ele>91</ele>
        <time>2017-04-09T08:37:13Z</time>
      </trkpt>
      <trkpt lat="49.25106" lon="1.16266">
        <ele>91.1</ele>
        <time>2017-04-09T08:37:15Z</time>
      </trkpt>
      <trkpt lat="49.25118" lon="1.16273">
        <ele>91</ele>
        <time>2017-04-09T08:37:17Z</time>
      </trkpt>
      <trkpt lat="49.25132" lon="1.1628">
        <ele>90.8</ele>
        <time>2017-04-09T08:37:19Z</time>
      </trkpt>
      <trkpt lat="49.25147" lon="1.16287">
        <ele>90.5</ele>
        <time>2017-04-09T08:37:21Z</time>
      </trkpt>
      <trkpt lat="49.25162" lon="1.16296">
        <ele>90</ele>
        <time>2017-04-09T08:37:23Z</time>
      </trkpt>
      <trkpt lat="49.2517" lon="1.16301">
        <ele>89.7</ele>
        <time>2017-04-09T08:37:24Z</time>
      </trkpt>
      <trkpt lat="49.25187" lon="1.1631">
        <ele>89</ele>
        <time>2017-04-09T08:37:26Z</time>
      </trkpt>
      <trkpt lat="49.25205" lon="1.16319">
        <ele>88.1</ele>
        <time>2017-04-09T08:37:28Z</time>
      </trkpt>
      <trkpt lat="49.25222" lon="1.16329">
        <ele>87.1</ele>
        <time>2017-04-09T08:37:30Z</time>
      </trkpt>
      <trkpt lat="49.2523" lon="1.16334">
        <ele>86.6</ele>
        <time>2017-04-09T08:37:31Z</time>
      </trkpt>
      <trkpt lat="49.25245" lon="1.16342">
        <ele>85.2</ele>
        <time>2017-04-09T08:37:33Z</time>
      </trkpt>
      <trkpt lat="49.25254" lon="1.16347">
        <ele>84.5</ele>
        <time>2017-04-09T08:37:34Z</time>
      </trkpt>
      <trkpt lat="49.25264" lon="1.16352">
        <ele>83.7</ele>
        <time>2017-04-09T08:37:35Z</time>
      </trkpt>
      <trkpt lat="49.25279" lon="1.16362">
        <ele>82</ele>
        <time>2017-04-09T08:37:37Z</time>
      </trkpt>
      <trkpt lat="49.25294" lon="1.16368">
        <ele>80.3</ele>
        <time>2017-04-09T08:37:39Z</time>
      </trkpt>
      <trkpt lat="49.25309" lon="1.16375">
        <ele>78.4</ele>
        <time>2017-04-09T08:37:41Z</time>
      </trkpt>
      <trkpt lat="49.25311" lon="1.1639">
        <ele>73.7</ele>
        <time>2017-04-09T08:37:46Z</time>
      </trkpt>
      <trkpt lat="49.25308" lon="1.16405">
        <ele>72.1</ele>
        <time>2017-04-09T08:37:48Z</time>
      </trkpt>
      <trkpt lat="49.25317" lon="1.16421">
        <ele>69</ele>
        <time>2017-04-09T08:37:50Z</time>
      </trkpt>
      <trkpt lat="49.25354" lon="1.16421">
        <ele>68.1</ele>
        <time>2017-04-09T08:37:53Z</time>
      </trkpt>
      <trkpt lat="49.2537" lon="1.16423">
        <ele>66.6</ele>
        <time>2017-04-09T08:37:55Z</time>
      </trkpt>
      <trkpt lat="49.25379" lon="1.16427">
        <ele>65.9</ele>
        <time>2017-04-09T08:37:56Z</time>
      </trkpt>
      <trkpt lat="49.25394" lon="1.16431">
        <ele>64.6</ele>
        <time>2017-04-09T08:37:58Z</time>
      </trkpt>
      <trkpt lat="49.25406" lon="1.16426">
        <ele>63.3</ele>
        <time>2017-04-09T08:38:00Z</time>
      </trkpt>
      <trkpt lat="49.25415" lon="1.16416">
        <ele>62.2</ele>
        <time>2017-04-09T08:38:02Z</time>
      </trkpt>
      <trkpt lat="49.25424" lon="1.16406">
        <ele>61.2</ele>
        <time>2017-04-09T08:38:04Z</time>
      </trkpt>
      <trkpt lat="49.25432" lon="1.16397">
        <ele>60.3</ele>
        <time>2017-04-09T08:38:06Z</time>
      </trkpt>
      <trkpt lat="49.25441" lon="1.16388">
        <ele>59.6</ele>
        <time>2017-04-09T08:38:08Z</time>
      </trkpt>
      <trkpt lat="49.25449" lon="1.1638">
        <ele>58.9</ele>
        <time>2017-04-09T08:38:10Z</time>
      </trkpt>
      <trkpt lat="49.25458" lon="1.16374">
        <ele>58.3</ele>
        <time>2017-04-09T08:38:12Z</time>
      </trkpt>
      <trkpt lat="49.25467" lon="1.16368">
        <ele>57.8</ele>
        <time>2017-04-09T08:38:14Z</time>
      </trkpt>
      <trkpt lat="49.25477" lon="1.16361">
        <ele>57.3</ele>
        <time>2017-04-09T08:38:16Z</time>
      </trkpt>
      <trkpt lat="49.25486" lon="1.16354">
        <ele>57</ele>
        <time>2017-04-09T08:38:18Z</time>
      </trkpt>
      <trkpt lat="49.25494" lon="1.16346">
        <ele>56.7</ele>
        <time>2017-04-09T08:38:20Z</time>
      </trkpt>
      <trkpt lat="49.25502" lon="1.16336">
        <ele>56.5</ele>
        <time>2017-04-09T08:38:22Z</time>
      </trkpt>
      <trkpt lat="49.2551" lon="1.16327">
        <ele>56.4</ele>
        <time>2017-04-09T08:38:24Z</time>
      </trkpt>
      <trkpt lat="49.25519" lon="1.16318">
        <ele>56.4</ele>
        <time>2017-04-09T08:38:26Z</time>
      </trkpt>
      <trkpt lat="49.25527" lon="1.16308">
        <ele>56.4</ele>
        <time>2017-04-09T08:38:28Z</time>
      </trkpt>
      <trkpt lat="49.25536" lon="1.16299">
        <ele>56.4</ele>
        <time>2017-04-09T08:38:30Z</time>
      </trkpt>
      <trkpt lat="49.25544" lon="1.16289">
        <ele>56.4</ele>
        <time>2017-04-09T08:38:32Z</time>
      </trkpt>
      <trkpt lat="49.25553" lon="1.16279">
        <ele>56.4</ele>
        <time>2017-04-09T08:38:34Z</time>
      </trkpt>
      <trkpt lat="49.25561" lon="1.16269">
        <ele>56.5</ele>
        <time>2017-04-09T08:38:36Z</time>
      </trkpt>
      <trkpt lat="49.25568" lon="1.16259">
        <ele>56.5</ele>
        <time>2017-04-09T08:38:38Z</time>
      </trkpt>
      <trkpt lat="49.25575" lon="1.16249">
        <ele>56.6</ele>
        <time>2017-04-09T08:38:40Z</time>
      </trkpt>
      <trkpt lat="49.25583" lon="1.1624">
        <ele>56.6</ele>
        <time>2017-04-09T08:38:42Z</time>
      </trkpt>
      <trkpt lat="49.25591" lon="1.16231">
        <ele>56.7</ele>
        <time>2017-04-09T08:38:44Z</time>
      </trkpt>
      <trkpt lat="49.25598" lon="1.16222">
        <ele>56.9</ele>
        <time>2017-04-09T08:38:46Z</time>
      </trkpt>
      <trkpt lat="49.25605" lon="1.16213">
        <ele>57.1</ele>
        <time>2017-04-09T08:38:48Z</time>
      </trkpt>
      <trkpt lat="49.25612" lon="1.16204">
        <ele>57.3</ele>
        <time>2017-04-09T08:38:50Z</time>
      </trkpt>
      <trkpt lat="49.2562" lon="1.16196">
        <ele>57.6</ele>
        <time>2017-04-09T08:38:52Z</time>
      </trkpt>
      <trkpt lat="49.25627" lon="1.16186">
        <ele>57.8</ele>
        <time>2017-04-09T08:38:54Z</time>
      </trkpt>
      <trkpt lat="49.25633" lon="1.16177">
        <ele>58</ele>
        <time>2017-04-09T08:38:56Z</time>
      </trkpt>
      <trkpt lat="49.25642" lon="1.16162">
        <ele>58.3</ele>
        <time>2017-04-09T08:38:59Z</time>
      </trkpt>
      <trkpt lat="49.25648" lon="1.16151">
        <ele>58.6</ele>
        <time>2017-04-09T08:39:01Z</time>
      </trkpt>
      <trkpt lat="49.25657" lon="1.16136">
        <ele>59</ele>
        <time>2017-04-09T08:39:04Z</time>
      </trkpt>
      <trkpt lat="49.25665" lon="1.16122">
        <ele>59.3</ele>
        <time>2017-04-09T08:39:07Z</time>
      </trkpt>
      <trkpt lat="49.25674" lon="1.16107">
        <ele>59.6</ele>
        <time>2017-04-09T08:39:10Z</time>
      </trkpt>
      <trkpt lat="49.25684" lon="1.16094">
        <ele>59.9</ele>
        <time>2017-04-09T08:39:13Z</time>
      </trkpt>
      <trkpt lat="49.25693" lon="1.1608">
        <ele>60.3</ele>
        <time>2017-04-09T08:39:16Z</time>
      </trkpt>
      <trkpt lat="49.25703" lon="1.16067">
        <ele>60.6</ele>
        <time>2017-04-09T08:39:19Z</time>
      </trkpt>
      <trkpt lat="49.25713" lon="1.16054">
        <ele>60.9</ele>
        <time>2017-04-09T08:39:22Z</time>
      </trkpt>
      <trkpt lat="49.25722" lon="1.16041">
        <ele>61.3</ele>
        <time>2017-04-09T08:39:25Z</time>
      </trkpt>
      <trkpt lat="49.25731" lon="1.16028">
        <ele>61.7</ele>
        <time>2017-04-09T08:39:28Z</time>
      </trkpt>
      <trkpt lat="49.2574" lon="1.16015">
        <ele>62</ele>
        <time>2017-04-09T08:39:31Z</time>
      </trkpt>
      <trkpt lat="49.25748" lon="1.16001">
        <ele>62.4</ele>
        <time>2017-04-09T08:39:34Z</time>
      </trkpt>
      <trkpt lat="49.25756" lon="1.15987">
        <ele>62.7</ele>
        <time>2017-04-09T08:39:37Z</time>
      </trkpt>
      <trkpt lat="49.25764" lon="1.15973">
        <ele>63</ele>
        <time>2017-04-09T08:39:40Z</time>
      </trkpt>
      <trkpt lat="49.2577" lon="1.15959">
        <ele>63.4</ele>
        <time>2017-04-09T08:39:43Z</time>
      </trkpt>
      <trkpt lat="49.25776" lon="1.15944">
        <ele>63.7</ele>
        <time>2017-04-09T08:39:46Z</time>
      </trkpt>
      <trkpt lat="49.25782" lon="1.1593">
        <ele>64.1</ele>
        <time>2017-04-09T08:39:49Z</time>
      </trkpt>
      <trkpt lat="49.25786" lon="1.15916">
        <ele>64.4</ele>
        <time>2017-04-09T08:39:52Z</time>
      </trkpt>
      <trkpt lat="49.25794" lon="1.15905">
        <ele>65.4</ele>
        <time>2017-04-09T08:39:57Z</time>
      </trkpt>
      <trkpt lat="49.25799" lon="1.15893">
        <ele>66.3</ele>
        <time>2017-04-09T08:40:01Z</time>
      </trkpt>
      <trkpt lat="49.25806" lon="1.15883">
        <ele>67.6</ele>
        <time>2017-04-09T08:40:06Z</time>
      </trkpt>
      <trkpt lat="49.25815" lon="1.15876">
        <ele>69</ele>
        <time>2017-04-09T08:40:11Z</time>
      </trkpt>
      <trkpt lat="49.25824" lon="1.1587">
        <ele>70.7</ele>
        <time>2017-04-09T08:40:17Z</time>
      </trkpt>
      <trkpt lat="49.25832" lon="1.15878">
        <ele>71.8</ele>
        <time>2017-04-09T08:40:21Z</time>
      </trkpt>
      <trkpt lat="49.2584" lon="1.15891">
        <ele>72.7</ele>
        <time>2017-04-09T08:40:25Z</time>
      </trkpt>
      <trkpt lat="49.25849" lon="1.15903">
        <ele>73.2</ele>
        <time>2017-04-09T08:40:28Z</time>
      </trkpt>
      <trkpt lat="49.25859" lon="1.1591">
        <ele>73.6</ele>
        <time>2017-04-09T08:40:31Z</time>
      </trkpt>
      <trkpt lat="49.25867" lon="1.15917">
        <ele>74.6</ele>
        <time>2017-04-09T08:40:38Z</time>
      </trkpt>
      <trkpt lat="49.25876" lon="1.15923">
        <ele>76.2</ele>
        <time>2017-04-09T08:40:46Z</time>
      </trkpt>
      <trkpt lat="49.25885" lon="1.15928">
        <ele>78.5</ele>
        <time>2017-04-09T08:40:55Z</time>
      </trkpt>
      <trkpt lat="49.25894" lon="1.15934">
        <ele>81.1</ele>
        <time>2017-04-09T08:41:04Z</time>
      </trkpt>
      <trkpt lat="49.25902" lon="1.15938">
        <ele>83.5</ele>
        <time>2017-04-09T08:41:13Z</time>
      </trkpt>
      <trkpt lat="49.25911" lon="1.15945">
        <ele>85.8</ele>
        <time>2017-04-09T08:41:22Z</time>
      </trkpt>
      <trkpt lat="49.2592" lon="1.15951">
        <ele>88.1</ele>
        <time>2017-04-09T08:41:31Z</time>
      </trkpt>
      <trkpt lat="49.25929" lon="1.15956">
        <ele>90.1</ele>
        <time>2017-04-09T08:41:39Z</time>
      </trkpt>
      <trkpt lat="49.25938" lon="1.15961">
        <ele>92.3</ele>
        <time>2017-04-09T08:41:48Z</time>
      </trkpt>
      <trkpt lat="49.25947" lon="1.15966">
        <ele>94.3</ele>
        <time>2017-04-09T08:41:57Z</time>
      </trkpt>
      <trkpt lat="49.25956" lon="1.15969">
        <ele>96.3</ele>
        <time>2017-04-09T08:42:05Z</time>
      </trkpt>
      <trkpt lat="49.25966" lon="1.15975">
        <ele>98.2</ele>
        <time>2017-04-09T08:42:13Z</time>
      </trkpt>
      <trkpt lat="49.25974" lon="1.1598">
        <ele>99.6</ele>
        <time>2017-04-09T08:42:20Z</time>
      </trkpt>
      <trkpt lat="49.25983" lon="1.15985">
        <ele>101</ele>
        <time>2017-04-09T08:42:27Z</time>
      </trkpt>
      <trkpt lat="49.25992" lon="1.15991">
        <ele>102.3</ele>
        <time>2017-04-09T08:42:33Z</time>
      </trkpt>
      <trkpt lat="49.26001" lon="1.15996">
        <ele>103.3</ele>
        <time>2017-04-09T08:42:38Z</time>
      </trkpt>
      <trkpt lat="49.26011" lon="1.16002">
        <ele>104.3</ele>
        <time>2017-04-09T08:42:43Z</time>
      </trkpt>
      <trkpt lat="49.2602" lon="1.16006">
        <ele>105.2</ele>
        <time>2017-04-09T08:42:48Z</time>
      </trkpt>
      <trkpt lat="49.2603" lon="1.16013">
        <ele>105.9</ele>
        <time>2017-04-09T08:42:52Z</time>
      </trkpt>
      <trkpt lat="49.26039" lon="1.16018">
        <ele>106.5</ele>
        <time>2017-04-09T08:42:56Z</time>
      </trkpt>
      <trkpt lat="49.2605" lon="1.16021">
        <ele>107.2</ele>
        <time>2017-04-09T08:43:00Z</time>
      </trkpt>
      <trkpt lat="49.26061" lon="1.16029">
        <ele>107.8</ele>
        <time>2017-04-09T08:43:04Z</time>
      </trkpt>
      <trkpt lat="49.2607" lon="1.16036">
        <ele>108.2</ele>
        <time>2017-04-09T08:43:07Z</time>
      </trkpt>
      <trkpt lat="49.26081" lon="1.16043">
        <ele>108.6</ele>
        <time>2017-04-09T08:43:10Z</time>
      </trkpt>
      <trkpt lat="49.26092" lon="1.16049">
        <ele>108.8</ele>
        <time>2017-04-09T08:43:13Z</time>
      </trkpt>
      <trkpt lat="49.26104" lon="1.16056">
        <ele>109.1</ele>
        <time>2017-04-09T08:43:16Z</time>
      </trkpt>
      <trkpt lat="49.26117" lon="1.16063">
        <ele>109.3</ele>
        <time>2017-04-09T08:43:19Z</time>
      </trkpt>
      <trkpt lat="49.26129" lon="1.1607">
        <ele>109.4</ele>
        <time>2017-04-09T08:43:22Z</time>
      </trkpt>
      <trkpt lat="49.26138" lon="1.16075">
        <ele>109.5</ele>
        <time>2017-04-09T08:43:24Z</time>
      </trkpt>
      <trkpt lat="49.26146" lon="1.1608">
        <ele>109.6</ele>
        <time>2017-04-09T08:43:26Z</time>
      </trkpt>
      <trkpt lat="49.26155" lon="1.16086">
        <ele>109.7</ele>
        <time>2017-04-09T08:43:28Z</time>
      </trkpt>
      <trkpt lat="49.26167" lon="1.16093">
        <ele>109.9</ele>
        <time>2017-04-09T08:43:31Z</time>
      </trkpt>
      <trkpt lat="49.26179" lon="1.16101">
        <ele>110</ele>
        <time>2017-04-09T08:43:34Z</time>
      </trkpt>
      <trkpt lat="49.26188" lon="1.16106">
        <ele>110.1</ele>
        <time>2017-04-09T08:43:36Z</time>
      </trkpt>
      <trkpt lat="49.26197" lon="1.16112">
        <ele>110.1</ele>
        <time>2017-04-09T08:43:38Z</time>
      </trkpt>
      <trkpt lat="49.26206" lon="1.16117">
        <ele>110.2</ele>
        <time>2017-04-09T08:43:40Z</time>
      </trkpt>
      <trkpt lat="49.26215" lon="1.16122">
        <ele>110.2</ele>
        <time>2017-04-09T08:43:42Z</time>
      </trkpt>
      <trkpt lat="49.26224" lon="1.16128">
        <ele>110.3</ele>
        <time>2017-04-09T08:43:44Z</time>
      </trkpt>
      <trkpt lat="49.26232" lon="1.16132">
        <ele>110.3</ele>
        <time>2017-04-09T08:43:46Z</time>
      </trkpt>
      <trkpt lat="49.26242" lon="1.16137">
        <ele>110.4</ele>
        <time>2017-04-09T08:43:48Z</time>
      </trkpt>
      <trkpt lat="49.26251" lon="1.16143">
        <ele>110.4</ele>
        <time>2017-04-09T08:43:50Z</time>
      </trkpt>
      <trkpt lat="49.2626" lon="1.16148">
        <ele>110.5</ele>
        <time>2017-04-09T08:43:52Z</time>
      </trkpt>
      <trkpt lat="49.26272" lon="1.16155">
        <ele>110.5</ele>
        <time>2017-04-09T08:43:55Z</time>
      </trkpt>
      <trkpt lat="49.26282" lon="1.1616">
        <ele>110.6</ele>
        <time>2017-04-09T08:43:57Z</time>
      </trkpt>
      <trkpt lat="49.2629" lon="1.16166">
        <ele>110.7</ele>
        <time>2017-04-09T08:43:59Z</time>
      </trkpt>
      <trkpt lat="49.263" lon="1.16171">
        <ele>110.7</ele>
        <time>2017-04-09T08:44:01Z</time>
      </trkpt>
      <trkpt lat="49.26309" lon="1.16176">
        <ele>110.8</ele>
        <time>2017-04-09T08:44:03Z</time>
      </trkpt>
      <trkpt lat="49.26318" lon="1.16182">
        <ele>110.9</ele>
        <time>2017-04-09T08:44:05Z</time>
      </trkpt>
      <trkpt lat="49.26327" lon="1.16187">
        <ele>111</ele>
        <time>2017-04-09T08:44:07Z</time>
      </trkpt>
      <trkpt lat="49.2634" lon="1.16195">
        <ele>111</ele>
        <time>2017-04-09T08:44:10Z</time>
      </trkpt>
      <trkpt lat="49.26349" lon="1.16202">
        <ele>111.1</ele>
        <time>2017-04-09T08:44:12Z</time>
      </trkpt>
      <trkpt lat="49.2636" lon="1.16205">
        <ele>111.1</ele>
        <time>2017-04-09T08:44:14Z</time>
      </trkpt>
      <trkpt lat="49.26371" lon="1.16207">
        <ele>111.1</ele>
        <time>2017-04-09T08:44:16Z</time>
      </trkpt>
      <trkpt lat="49.26382" lon="1.16203">
        <ele>111.1</ele>
        <time>2017-04-09T08:44:18Z</time>
      </trkpt>
      <trkpt lat="49.2639" lon="1.16193">
        <ele>111.1</ele>
        <time>2017-04-09T08:44:20Z</time>
      </trkpt>
      <trkpt lat="49.26398" lon="1.16182">
        <ele>111.1</ele>
        <time>2017-04-09T08:44:22Z</time>
      </trkpt>
      <trkpt lat="49.26405" lon="1.1617">
        <ele>111</ele>
        <time>2017-04-09T08:44:24Z</time>
      </trkpt>
      <trkpt lat="49.26409" lon="1.16155">
        <ele>111</ele>
        <time>2017-04-09T08:44:26Z</time>
      </trkpt>
      <trkpt lat="49.2641" lon="1.1614">
        <ele>111</ele>
        <time>2017-04-09T08:44:28Z</time>
      </trkpt>
      <trkpt lat="49.26409" lon="1.16125">
        <ele>111</ele>
        <time>2017-04-09T08:44:30Z</time>
      </trkpt>
      <trkpt lat="49.26408" lon="1.1611">
        <ele>111</ele>
        <time>2017-04-09T08:44:32Z</time>
      </trkpt>
      <trkpt lat="49.26407" lon="1.16095">
        <ele>111.1</ele>
        <time>2017-04-09T08:44:34Z</time>
      </trkpt>
      <trkpt lat="49.26406" lon="1.16079">
        <ele>111.2</ele>
        <time>2017-04-09T08:44:36Z</time>
      </trkpt>
      <trkpt lat="49.26405" lon="1.16064">
        <ele>111.2</ele>
        <time>2017-04-09T08:44:38Z</time>
      </trkpt>
      <trkpt lat="49.26405" lon="1.16049">
        <ele>111.3</ele>
        <time>2017-04-09T08:44:40Z</time>
      </trkpt>
      <trkpt lat="49.26404" lon="1.16033">
        <ele>111.4</ele>
        <time>2017-04-09T08:44:42Z</time>
      </trkpt>
      <trkpt lat="49.26403" lon="1.16017">
        <ele>111.6</ele>
        <time>2017-04-09T08:44:44Z</time>
      </trkpt>
      <trkpt lat="49.26402" lon="1.16">
        <ele>111.7</ele>
        <time>2017-04-09T08:44:46Z</time>
      </trkpt>
      <trkpt lat="49.26401" lon="1.15983">
        <ele>111.8</ele>
        <time>2017-04-09T08:44:48Z</time>
      </trkpt>
      <trkpt lat="49.26399" lon="1.15965">
        <ele>111.9</ele>
        <time>2017-04-09T08:44:50Z</time>
      </trkpt>
      <trkpt lat="49.26398" lon="1.15947">
        <ele>112.1</ele>
        <time>2017-04-09T08:44:52Z</time>
      </trkpt>
      <trkpt lat="49.26396" lon="1.15928">
        <ele>112.2</ele>
        <time>2017-04-09T08:44:54Z</time>
      </trkpt>
      <trkpt lat="49.26395" lon="1.15909">
        <ele>112.3</ele>
        <time>2017-04-09T08:44:56Z</time>
      </trkpt>
      <trkpt lat="49.26394" lon="1.15889">
        <ele>112.4</ele>
        <time>2017-04-09T08:44:58Z</time>
      </trkpt>
      <trkpt lat="49.26392" lon="1.15869">
        <ele>112.4</ele>
        <time>2017-04-09T08:45:00Z</time>
      </trkpt>
      <trkpt lat="49.2639" lon="1.15848">
        <ele>112.5</ele>
        <time>2017-04-09T08:45:02Z</time>
      </trkpt>
      <trkpt lat="49.26389" lon="1.15827">
        <ele>112.6</ele>
        <time>2017-04-09T08:45:04Z</time>
      </trkpt>
      <trkpt lat="49.26388" lon="1.15807">
        <ele>112.6</ele>
        <time>2017-04-09T08:45:06Z</time>
      </trkpt>
      <trkpt lat="49.26386" lon="1.15785">
        <ele>112.6</ele>
        <time>2017-04-09T08:45:08Z</time>
      </trkpt>
      <trkpt lat="49.26385" lon="1.15764">
        <ele>112.7</ele>
        <time>2017-04-09T08:45:10Z</time>
      </trkpt>
      <trkpt lat="49.26383" lon="1.15743">
        <ele>112.7</ele>
        <time>2017-04-09T08:45:12Z</time>
      </trkpt>
      <trkpt lat="49.26381" lon="1.15721">
        <ele>112.7</ele>
        <time>2017-04-09T08:45:14Z</time>
      </trkpt>
      <trkpt lat="49.2638" lon="1.157">
        <ele>112.7</ele>
        <time>2017-04-09T08:45:16Z</time>
      </trkpt>
      <trkpt lat="49.26378" lon="1.15678">
        <ele>112.6</ele>
        <time>2017-04-09T08:45:18Z</time>
      </trkpt>
      <trkpt lat="49.26377" lon="1.15653">
        <ele>112.4</ele>
        <time>2017-04-09T08:45:20Z</time>
      </trkpt>
      <trkpt lat="49.26375" lon="1.15629">
        <ele>112.2</ele>
        <time>2017-04-09T08:45:22Z</time>
      </trkpt>
      <trkpt lat="49.26373" lon="1.15608">
        <ele>111.9</ele>
        <time>2017-04-09T08:45:24Z</time>
      </trkpt>
      <trkpt lat="49.26371" lon="1.15585">
        <ele>111.5</ele>
        <time>2017-04-09T08:45:26Z</time>
      </trkpt>
      <trkpt lat="49.2637" lon="1.15565">
        <ele>111.2</ele>
        <time>2017-04-09T08:45:28Z</time>
      </trkpt>
      <trkpt lat="49.26369" lon="1.15544">
        <ele>111</ele>
        <time>2017-04-09T08:45:30Z</time>
      </trkpt>
      <trkpt lat="49.26367" lon="1.15524">
        <ele>110.7</ele>
        <time>2017-04-09T08:45:32Z</time>
      </trkpt>
      <trkpt lat="49.26366" lon="1.15504">
        <ele>110.5</ele>
        <time>2017-04-09T08:45:34Z</time>
      </trkpt>
      <trkpt lat="49.26364" lon="1.15484">
        <ele>110.3</ele>
        <time>2017-04-09T08:45:36Z</time>
      </trkpt>
      <trkpt lat="49.26362" lon="1.15465">
        <ele>110.2</ele>
        <time>2017-04-09T08:45:38Z</time>
      </trkpt>
      <trkpt lat="49.26361" lon="1.15446">
        <ele>110</ele>
        <time>2017-04-09T08:45:40Z</time>
      </trkpt>
      <trkpt lat="49.2636" lon="1.15427">
        <ele>109.9</ele>
        <time>2017-04-09T08:45:42Z</time>
      </trkpt>
      <trkpt lat="49.26358" lon="1.15409">
        <ele>109.8</ele>
        <time>2017-04-09T08:45:44Z</time>
      </trkpt>
      <trkpt lat="49.26357" lon="1.1539">
        <ele>109.7</ele>
        <time>2017-04-09T08:45:46Z</time>
      </trkpt>
      <trkpt lat="49.26355" lon="1.15372">
        <ele>109.6</ele>
        <time>2017-04-09T08:45:48Z</time>
      </trkpt>
      <trkpt lat="49.26354" lon="1.15353">
        <ele>109.6</ele>
        <time>2017-04-09T08:45:50Z</time>
      </trkpt>
      <trkpt lat="49.26353" lon="1.15334">
        <ele>109.6</ele>
        <time>2017-04-09T08:45:52Z</time>
      </trkpt>
      <trkpt lat="49.26352" lon="1.15316">
        <ele>109.7</ele>
        <time>2017-04-09T08:45:54Z</time>
      </trkpt>
      <trkpt lat="49.2635" lon="1.15298">
        <ele>109.7</ele>
        <time>2017-04-09T08:45:56Z</time>
      </trkpt>
      <trkpt lat="49.26348" lon="1.15279">
        <ele>109.7</ele>
        <time>2017-04-09T08:45:58Z</time>
      </trkpt>
      <trkpt lat="49.26347" lon="1.1526">
        <ele>109.7</ele>
        <time>2017-04-09T08:46:00Z</time>
      </trkpt>
      <trkpt lat="49.26346" lon="1.15242">
        <ele>109.8</ele>
        <time>2017-04-09T08:46:02Z</time>
      </trkpt>
      <trkpt lat="49.26344" lon="1.15221">
        <ele>109.8</ele>
        <time>2017-04-09T08:46:04Z</time>
      </trkpt>
      <trkpt lat="49.26343" lon="1.15201">
        <ele>109.8</ele>
        <time>2017-04-09T08:46:06Z</time>
      </trkpt>
      <trkpt lat="49.26342" lon="1.15183">
        <ele>109.7</ele>
        <time>2017-04-09T08:46:08Z</time>
      </trkpt>
      <trkpt lat="49.26341" lon="1.15163">
        <ele>109.7</ele>
        <time>2017-04-09T08:46:10Z</time>
      </trkpt>
      <trkpt lat="49.2634" lon="1.15147">
        <ele>109.5</ele>
        <time>2017-04-09T08:46:12Z</time>
      </trkpt>
      <trkpt lat="49.26338" lon="1.15124">
        <ele>109.4</ele>
        <time>2017-04-09T08:46:14Z</time>
      </trkpt>
      <trkpt lat="49.26336" lon="1.15103">
        <ele>109.3</ele>
        <time>2017-04-09T08:46:16Z</time>
      </trkpt>
      <trkpt lat="49.26334" lon="1.15082">
        <ele>109.1</ele>
        <time>2017-04-09T08:46:18Z</time>
      </trkpt>
      <trkpt lat="49.26333" lon="1.15061">
        <ele>109</ele>
        <time>2017-04-09T08:46:20Z</time>
      </trkpt>
      <trkpt lat="49.26331" lon="1.15042">
        <ele>108.8</ele>
        <time>2017-04-09T08:46:22Z</time>
      </trkpt>
      <trkpt lat="49.26339" lon="1.15032">
        <ele>108.2</ele>
        <time>2017-04-09T08:46:32Z</time>
      </trkpt>
      <trkpt lat="49.26348" lon="1.15032">
        <ele>108</ele>
        <time>2017-04-09T08:46:37Z</time>
      </trkpt>
      <trkpt lat="49.26358" lon="1.15038">
        <ele>107.8</ele>
        <time>2017-04-09T08:46:42Z</time>
      </trkpt>
      <trkpt lat="49.26368" lon="1.15044">
        <ele>107.9</ele>
        <time>2017-04-09T08:46:47Z</time>
      </trkpt>
      <trkpt lat="49.26377" lon="1.15047">
        <ele>108.1</ele>
        <time>2017-04-09T08:46:50Z</time>
      </trkpt>
      <trkpt lat="49.26389" lon="1.15053">
        <ele>108.4</ele>
        <time>2017-04-09T08:46:54Z</time>
      </trkpt>
      <trkpt lat="49.264" lon="1.15057">
        <ele>108.8</ele>
        <time>2017-04-09T08:46:57Z</time>
      </trkpt>
      <trkpt lat="49.26411" lon="1.1506">
        <ele>109.1</ele>
        <time>2017-04-09T08:47:00Z</time>
      </trkpt>
      <trkpt lat="49.26422" lon="1.15066">
        <ele>109.6</ele>
        <time>2017-04-09T08:47:04Z</time>
      </trkpt>
      <trkpt lat="49.26431" lon="1.15071">
        <ele>110</ele>
        <time>2017-04-09T08:47:07Z</time>
      </trkpt>
      <trkpt lat="49.26442" lon="1.15075">
        <ele>110.6</ele>
        <time>2017-04-09T08:47:11Z</time>
      </trkpt>
      <trkpt lat="49.26451" lon="1.15079">
        <ele>111</ele>
        <time>2017-04-09T08:47:14Z</time>
      </trkpt>
      <trkpt lat="49.26461" lon="1.15084">
        <ele>111.4</ele>
        <time>2017-04-09T08:47:17Z</time>
      </trkpt>
      <trkpt lat="49.26472" lon="1.15089">
        <ele>111.8</ele>
        <time>2017-04-09T08:47:20Z</time>
      </trkpt>
      <trkpt lat="49.26483" lon="1.15094">
        <ele>112.2</ele>
        <time>2017-04-09T08:47:23Z</time>
      </trkpt>
      <trkpt lat="49.26494" lon="1.15101">
        <ele>112.7</ele>
        <time>2017-04-09T08:47:26Z</time>
      </trkpt>
      <trkpt lat="49.26505" lon="1.15105">
        <ele>113.1</ele>
        <time>2017-04-09T08:47:29Z</time>
      </trkpt>
      <trkpt lat="49.26516" lon="1.15109">
        <ele>113.6</ele>
        <time>2017-04-09T08:47:33Z</time>
      </trkpt>
      <trkpt lat="49.26528" lon="1.15111">
        <ele>113.9</ele>
        <time>2017-04-09T08:47:36Z</time>
      </trkpt>
      <trkpt lat="49.26539" lon="1.15116">
        <ele>114.2</ele>
        <time>2017-04-09T08:47:39Z</time>
      </trkpt>
      <trkpt lat="49.2655" lon="1.15124">
        <ele>114.5</ele>
        <time>2017-04-09T08:47:42Z</time>
      </trkpt>
      <trkpt lat="49.26563" lon="1.15129">
        <ele>114.7</ele>
        <time>2017-04-09T08:47:45Z</time>
      </trkpt>
      <trkpt lat="49.26574" lon="1.15137">
        <ele>115</ele>
        <time>2017-04-09T08:47:48Z</time>
      </trkpt>
      <trkpt lat="49.26586" lon="1.15143">
        <ele>115.4</ele>
        <time>2017-04-09T08:47:51Z</time>
      </trkpt>
      <trkpt lat="49.26597" lon="1.1515">
        <ele>115.7</ele>
        <time>2017-04-09T08:47:54Z</time>
      </trkpt>
      <trkpt lat="49.26607" lon="1.15154">
        <ele>115.9</ele>
        <time>2017-04-09T08:47:57Z</time>
      </trkpt>
      <trkpt lat="49.2662" lon="1.15159">
        <ele>116.2</ele>
        <time>2017-04-09T08:48:00Z</time>
      </trkpt>
      <trkpt lat="49.26629" lon="1.15164">
        <ele>116.4</ele>
        <time>2017-04-09T08:48:02Z</time>
      </trkpt>
      <trkpt lat="49.2664" lon="1.1517">
        <ele>116.6</ele>
        <time>2017-04-09T08:48:05Z</time>
      </trkpt>
      <trkpt lat="49.26651" lon="1.15176">
        <ele>116.9</ele>
        <time>2017-04-09T08:48:08Z</time>
      </trkpt>
      <trkpt lat="49.26661" lon="1.15179">
        <ele>117.1</ele>
        <time>2017-04-09T08:48:10Z</time>
      </trkpt>
      <trkpt lat="49.26673" lon="1.15185">
        <ele>117.4</ele>
        <time>2017-04-09T08:48:13Z</time>
      </trkpt>
      <trkpt lat="49.26681" lon="1.1519">
        <ele>117.5</ele>
        <time>2017-04-09T08:48:15Z</time>
      </trkpt>
      <trkpt lat="49.26693" lon="1.15196">
        <ele>117.7</ele>
        <time>2017-04-09T08:48:18Z</time>
      </trkpt>
      <trkpt lat="49.26704" lon="1.15198">
        <ele>117.9</ele>
        <time>2017-04-09T08:48:21Z</time>
      </trkpt>
      <trkpt lat="49.26716" lon="1.15202">
        <ele>118.1</ele>
        <time>2017-04-09T08:48:24Z</time>
      </trkpt>
      <trkpt lat="49.26725" lon="1.15204">
        <ele>118.2</ele>
        <time>2017-04-09T08:48:26Z</time>
      </trkpt>
      <trkpt lat="49.26739" lon="1.1521">
        <ele>118.2</ele>
        <time>2017-04-09T08:48:29Z</time>
      </trkpt>
      <trkpt lat="49.26749" lon="1.15217">
        <ele>118.3</ele>
        <time>2017-04-09T08:48:32Z</time>
      </trkpt>
      <trkpt lat="49.2676" lon="1.15222">
        <ele>118.5</ele>
        <time>2017-04-09T08:48:35Z</time>
      </trkpt>
      <trkpt lat="49.26773" lon="1.15227">
        <ele>118.7</ele>
        <time>2017-04-09T08:48:38Z</time>
      </trkpt>
      <trkpt lat="49.26784" lon="1.15231">
        <ele>118.9</ele>
        <time>2017-04-09T08:48:41Z</time>
      </trkpt>
      <trkpt lat="49.26794" lon="1.15236">
        <ele>119</ele>
        <time>2017-04-09T08:48:44Z</time>
      </trkpt>
      <trkpt lat="49.26803" lon="1.15241">
        <ele>119.1</ele>
        <time>2017-04-09T08:48:47Z</time>
      </trkpt>
      <trkpt lat="49.26815" lon="1.15245">
        <ele>119.2</ele>
        <time>2017-04-09T08:48:50Z</time>
      </trkpt>
      <trkpt lat="49.26828" lon="1.15249">
        <ele>119.4</ele>
        <time>2017-04-09T08:48:53Z</time>
      </trkpt>
      <trkpt lat="49.2684" lon="1.15255">
        <ele>119.6</ele>
        <time>2017-04-09T08:48:56Z</time>
      </trkpt>
      <trkpt lat="49.26851" lon="1.1526">
        <ele>119.8</ele>
        <time>2017-04-09T08:48:59Z</time>
      </trkpt>
      <trkpt lat="49.26859" lon="1.15267">
        <ele>120</ele>
        <time>2017-04-09T08:49:01Z</time>
      </trkpt>
      <trkpt lat="49.26869" lon="1.15274">
        <ele>120.3</ele>
        <time>2017-04-09T08:49:04Z</time>
      </trkpt>
      <trkpt lat="49.2688" lon="1.1528">
        <ele>120.5</ele>
        <time>2017-04-09T08:49:07Z</time>
      </trkpt>
      <trkpt lat="49.2689" lon="1.15283">
        <ele>120.7</ele>
        <time>2017-04-09T08:49:10Z</time>
      </trkpt>
      <trkpt lat="49.269" lon="1.15286">
        <ele>120.8</ele>
        <time>2017-04-09T08:49:13Z</time>
      </trkpt>
      <trkpt lat="49.26909" lon="1.15292">
        <ele>120.9</ele>
        <time>2017-04-09T08:49:16Z</time>
      </trkpt>
      <trkpt lat="49.26919" lon="1.15293">
        <ele>121</ele>
        <time>2017-04-09T08:49:19Z</time>
      </trkpt>
      <trkpt lat="49.26927" lon="1.15283">
        <ele>121.1</ele>
        <time>2017-04-09T08:49:22Z</time>
      </trkpt>
      <trkpt lat="49.26932" lon="1.15267">
        <ele>121.2</ele>
        <time>2017-04-09T08:49:25Z</time>
      </trkpt>
      <trkpt lat="49.26937" lon="1.15249">
        <ele>121.4</ele>
        <time>2017-04-09T08:49:28Z</time>
      </trkpt>
      <trkpt lat="49.26942" lon="1.15232">
        <ele>121.5</ele>
        <time>2017-04-09T08:49:31Z</time>
      </trkpt>
      <trkpt lat="49.26946" lon="1.15213">
        <ele>121.6</ele>
        <time>2017-04-09T08:49:34Z</time>
      </trkpt>
      <trkpt lat="49.26951" lon="1.15199">
        <ele>121.8</ele>
        <time>2017-04-09T08:49:37Z</time>
      </trkpt>
      <trkpt lat="49.26956" lon="1.15176">
        <ele>121.9</ele>
        <time>2017-04-09T08:49:40Z</time>
      </trkpt>
      <trkpt lat="49.26958" lon="1.15159">
        <ele>122</ele>
        <time>2017-04-09T08:49:42Z</time>
      </trkpt>
      <trkpt lat="49.26961" lon="1.15142">
        <ele>122.1</ele>
        <time>2017-04-09T08:49:44Z</time>
      </trkpt>
      <trkpt lat="49.26964" lon="1.15122">
        <ele>122.3</ele>
        <time>2017-04-09T08:49:47Z</time>
      </trkpt>
      <trkpt lat="49.26969" lon="1.15105">
        <ele>122.4</ele>
        <time>2017-04-09T08:49:50Z</time>
      </trkpt>
      <trkpt lat="49.26972" lon="1.1509">
        <ele>122.5</ele>
        <time>2017-04-09T08:49:52Z</time>
      </trkpt>
      <trkpt lat="49.26974" lon="1.15075">
        <ele>122.6</ele>
        <time>2017-04-09T08:49:54Z</time>
      </trkpt>
      <trkpt lat="49.26978" lon="1.15056">
        <ele>122.7</ele>
        <time>2017-04-09T08:49:57Z</time>
      </trkpt>
      <trkpt lat="49.26982" lon="1.15037">
        <ele>122.8</ele>
        <time>2017-04-09T08:50:00Z</time>
      </trkpt>
      <trkpt lat="49.26987" lon="1.1502">
        <ele>122.8</ele>
        <time>2017-04-09T08:50:03Z</time>
      </trkpt>
      <trkpt lat="49.26989" lon="1.14998">
        <ele>122.9</ele>
        <time>2017-04-09T08:50:06Z</time>
      </trkpt>
      <trkpt lat="49.2699" lon="1.14985">
        <ele>123</ele>
        <time>2017-04-09T08:50:08Z</time>
      </trkpt>
      <trkpt lat="49.26995" lon="1.14965">
        <ele>123.2</ele>
        <time>2017-04-09T08:50:11Z</time>
      </trkpt>
      <trkpt lat="49.26999" lon="1.14952">
        <ele>123.4</ele>
        <time>2017-04-09T08:50:13Z</time>
      </trkpt>
      <trkpt lat="49.27001" lon="1.14938">
        <ele>123.5</ele>
        <time>2017-04-09T08:50:15Z</time>
      </trkpt>
      <trkpt lat="49.27006" lon="1.14919">
        <ele>123.7</ele>
        <time>2017-04-09T08:50:18Z</time>
      </trkpt>
      <trkpt lat="49.27011" lon="1.14902">
        <ele>123.9</ele>
        <time>2017-04-09T08:50:21Z</time>
      </trkpt>
      <trkpt lat="49.27014" lon="1.14883">
        <ele>124.1</ele>
        <time>2017-04-09T08:50:24Z</time>
      </trkpt>
      <trkpt lat="49.27016" lon="1.14866">
        <ele>124.3</ele>
        <time>2017-04-09T08:50:27Z</time>
      </trkpt>
      <trkpt lat="49.2702" lon="1.14853">
        <ele>124.6</ele>
        <time>2017-04-09T08:50:35Z</time>
      </trkpt>
      <trkpt lat="49.27021" lon="1.14839">
        <ele>124.9</ele>
        <time>2017-04-09T08:50:49Z</time>
      </trkpt>
      <trkpt lat="49.27022" lon="1.14824">
        <ele>125</ele>
        <time>2017-04-09T08:50:57Z</time>
      </trkpt>
      <trkpt lat="49.27024" lon="1.14808">
        <ele>125.1</ele>
        <time>2017-04-09T08:51:01Z</time>
      </trkpt>
      <trkpt lat="49.27027" lon="1.14795">
        <ele>125.1</ele>
        <time>2017-04-09T08:51:04Z</time>
      </trkpt>
      <trkpt lat="49.27031" lon="1.1478">
        <ele>125.1</ele>
        <time>2017-04-09T08:51:07Z</time>
      </trkpt>
      <trkpt lat="49.27036" lon="1.14768">
        <ele>125.1</ele>
        <time>2017-04-09T08:51:10Z</time>
      </trkpt>
      <trkpt lat="49.2704" lon="1.14754">
        <ele>125.1</ele>
        <time>2017-04-09T08:51:13Z</time>
      </trkpt>
      <trkpt lat="49.27042" lon="1.14738">
        <ele>125.1</ele>
        <time>2017-04-09T08:51:16Z</time>
      </trkpt>
      <trkpt lat="49.27046" lon="1.14725">
        <ele>125.2</ele>
        <time>2017-04-09T08:51:19Z</time>
      </trkpt>
      <trkpt lat="49.27052" lon="1.1471">
        <ele>125.3</ele>
        <time>2017-04-09T08:51:23Z</time>
      </trkpt>
      <trkpt lat="49.27057" lon="1.14691">
        <ele>125.4</ele>
        <time>2017-04-09T08:51:26Z</time>
      </trkpt>
      <trkpt lat="49.2706" lon="1.14674">
        <ele>125.3</ele>
        <time>2017-04-09T08:51:29Z</time>
      </trkpt>
      <trkpt lat="49.27062" lon="1.14654">
        <ele>125.5</ele>
        <time>2017-04-09T08:51:32Z</time>
      </trkpt>
      <trkpt lat="49.27066" lon="1.14636">
        <ele>125.5</ele>
        <time>2017-04-09T08:51:35Z</time>
      </trkpt>
      <trkpt lat="49.27068" lon="1.14622">
        <ele>125.6</ele>
        <time>2017-04-09T08:51:37Z</time>
      </trkpt>
      <trkpt lat="49.27071" lon="1.14603">
        <ele>125.7</ele>
        <time>2017-04-09T08:51:40Z</time>
      </trkpt>
      <trkpt lat="49.27074" lon="1.14589">
        <ele>125.7</ele>
        <time>2017-04-09T08:51:42Z</time>
      </trkpt>
      <trkpt lat="49.27078" lon="1.14569">
        <ele>125.8</ele>
        <time>2017-04-09T08:51:45Z</time>
      </trkpt>
      <trkpt lat="49.2708" lon="1.14556">
        <ele>125.8</ele>
        <time>2017-04-09T08:51:47Z</time>
      </trkpt>
      <trkpt lat="49.27083" lon="1.14537">
        <ele>125.8</ele>
        <time>2017-04-09T08:51:50Z</time>
      </trkpt>
      <trkpt lat="49.27083" lon="1.14522">
        <ele>125.9</ele>
        <time>2017-04-09T08:51:52Z</time>
      </trkpt>
      <trkpt lat="49.27089" lon="1.14505">
        <ele>126</ele>
        <time>2017-04-09T08:51:55Z</time>
      </trkpt>
      <trkpt lat="49.27094" lon="1.1449">
        <ele>126.1</ele>
        <time>2017-04-09T08:51:58Z</time>
      </trkpt>
      <trkpt lat="49.27094" lon="1.14475">
        <ele>126.1</ele>
        <time>2017-04-09T08:52:00Z</time>
      </trkpt>
      <trkpt lat="49.27096" lon="1.14461">
        <ele>126.1</ele>
        <time>2017-04-09T08:52:02Z</time>
      </trkpt>
      <trkpt lat="49.27105" lon="1.14455">
        <ele>126</ele>
        <time>2017-04-09T08:52:05Z</time>
      </trkpt>
      <trkpt lat="49.27119" lon="1.14459">
        <ele>126</ele>
        <time>2017-04-09T08:52:08Z</time>
      </trkpt>
      <trkpt lat="49.27131" lon="1.14462">
        <ele>125.9</ele>
        <time>2017-04-09T08:52:11Z</time>
      </trkpt>
      <trkpt lat="49.27143" lon="1.14466">
        <ele>125.9</ele>
        <time>2017-04-09T08:52:14Z</time>
      </trkpt>
      <trkpt lat="49.27153" lon="1.14468">
        <ele>125.9</ele>
        <time>2017-04-09T08:52:16Z</time>
      </trkpt>
      <trkpt lat="49.27162" lon="1.14472">
        <ele>125.9</ele>
        <time>2017-04-09T08:52:18Z</time>
      </trkpt>
      <trkpt lat="49.27173" lon="1.14476">
        <ele>125.9</ele>
        <time>2017-04-09T08:52:20Z</time>
      </trkpt>
      <trkpt lat="49.27187" lon="1.14481">
        <ele>125.8</ele>
        <time>2017-04-09T08:52:23Z</time>
      </trkpt>
      <trkpt lat="49.272" lon="1.14487">
        <ele>125.8</ele>
        <time>2017-04-09T08:52:26Z</time>
      </trkpt>
      <trkpt lat="49.27213" lon="1.14493">
        <ele>125.8</ele>
        <time>2017-04-09T08:52:29Z</time>
      </trkpt>
      <trkpt lat="49.27222" lon="1.14497">
        <ele>125.8</ele>
        <time>2017-04-09T08:52:31Z</time>
      </trkpt>
      <trkpt lat="49.27231" lon="1.14502">
        <ele>125.8</ele>
        <time>2017-04-09T08:52:33Z</time>
      </trkpt>
      <trkpt lat="49.27241" lon="1.14505">
        <ele>125.8</ele>
        <time>2017-04-09T08:52:35Z</time>
      </trkpt>
      <trkpt lat="49.27252" lon="1.14509">
        <ele>125.8</ele>
        <time>2017-04-09T08:52:37Z</time>
      </trkpt>
      <trkpt lat="49.27265" lon="1.14514">
        <ele>125.8</ele>
        <time>2017-04-09T08:52:40Z</time>
      </trkpt>
      <trkpt lat="49.27277" lon="1.1452">
        <ele>125.8</ele>
        <time>2017-04-09T08:52:43Z</time>
      </trkpt>
      <trkpt lat="49.27288" lon="1.14524">
        <ele>125.8</ele>
        <time>2017-04-09T08:52:46Z</time>
      </trkpt>
      <trkpt lat="49.273" lon="1.14529">
        <ele>125.8</ele>
        <time>2017-04-09T08:52:49Z</time>
      </trkpt>
      <trkpt lat="49.27313" lon="1.14535">
        <ele>125.8</ele>
        <time>2017-04-09T08:52:52Z</time>
      </trkpt>
      <trkpt lat="49.27326" lon="1.1454">
        <ele>125.7</ele>
        <time>2017-04-09T08:52:55Z</time>
      </trkpt>
      <trkpt lat="49.27339" lon="1.14546">
        <ele>125.7</ele>
        <time>2017-04-09T08:52:58Z</time>
      </trkpt>
      <trkpt lat="49.2735" lon="1.14552">
        <ele>125.7</ele>
        <time>2017-04-09T08:53:01Z</time>
      </trkpt>
      <trkpt lat="49.27359" lon="1.14559">
        <ele>125.6</ele>
        <time>2017-04-09T08:53:04Z</time>
      </trkpt>
      <trkpt lat="49.27368" lon="1.14557">
        <ele>124</ele>
        <time>2017-04-09T08:57:57Z</time>
      </trkpt>
      <trkpt lat="49.27376" lon="1.14548">
        <ele>124</ele>
        <time>2017-04-09T08:58:02Z</time>
      </trkpt>
      <trkpt lat="49.2738" lon="1.14535">
        <ele>124</ele>
        <time>2017-04-09T08:58:05Z</time>
      </trkpt>
      <trkpt lat="49.27383" lon="1.14518">
        <ele>124</ele>
        <time>2017-04-09T08:58:08Z</time>
      </trkpt>
      <trkpt lat="49.27386" lon="1.145">
        <ele>124</ele>
        <time>2017-04-09T08:58:11Z</time>
      </trkpt>
      <trkpt lat="49.27389" lon="1.14486">
        <ele>124</ele>
        <time>2017-04-09T08:58:13Z</time>
      </trkpt>
      <trkpt lat="49.27391" lon="1.1447">
        <ele>124</ele>
        <time>2017-04-09T08:58:15Z</time>
      </trkpt>
      <trkpt lat="49.27393" lon="1.14454">
        <ele>124</ele>
        <time>2017-04-09T08:58:17Z</time>
      </trkpt>
      <trkpt lat="49.27395" lon="1.14441">
        <ele>124</ele>
        <time>2017-04-09T08:58:19Z</time>
      </trkpt>
      <trkpt lat="49.27398" lon="1.14425">
        <ele>124</ele>
        <time>2017-04-09T08:58:21Z</time>
      </trkpt>
      <trkpt lat="49.274" lon="1.14407">
        <ele>123.9</ele>
        <time>2017-04-09T08:58:23Z</time>
      </trkpt>
      <trkpt lat="49.27401" lon="1.14391">
        <ele>123.7</ele>
        <time>2017-04-09T08:58:25Z</time>
      </trkpt>
      <trkpt lat="49.27403" lon="1.14375">
        <ele>123.5</ele>
        <time>2017-04-09T08:58:27Z</time>
      </trkpt>
      <trkpt lat="49.27405" lon="1.1436">
        <ele>123.4</ele>
        <time>2017-04-09T08:58:29Z</time>
      </trkpt>
      <trkpt lat="49.27407" lon="1.14343">
        <ele>123.3</ele>
        <time>2017-04-09T08:58:31Z</time>
      </trkpt>
      <trkpt lat="49.27409" lon="1.14324">
        <ele>123.2</ele>
        <time>2017-04-09T08:58:33Z</time>
      </trkpt>
      <trkpt lat="49.27411" lon="1.14306">
        <ele>123</ele>
        <time>2017-04-09T08:58:35Z</time>
      </trkpt>
      <trkpt lat="49.27413" lon="1.14287">
        <ele>122.7</ele>
        <time>2017-04-09T08:58:37Z</time>
      </trkpt>
      <trkpt lat="49.27414" lon="1.14266">
        <ele>122.5</ele>
        <time>2017-04-09T08:58:39Z</time>
      </trkpt>
      <trkpt lat="49.27416" lon="1.14245">
        <ele>122.2</ele>
        <time>2017-04-09T08:58:41Z</time>
      </trkpt>
      <trkpt lat="49.27418" lon="1.14225">
        <ele>122</ele>
        <time>2017-04-09T08:58:43Z</time>
      </trkpt>
      <trkpt lat="49.2742" lon="1.14206">
        <ele>121.8</ele>
        <time>2017-04-09T08:58:45Z</time>
      </trkpt>
      <trkpt lat="49.27422" lon="1.14188">
        <ele>121.6</ele>
        <time>2017-04-09T08:58:47Z</time>
      </trkpt>
      <trkpt lat="49.27424" lon="1.14172">
        <ele>121.3</ele>
        <time>2017-04-09T08:58:49Z</time>
      </trkpt>
      <trkpt lat="49.27434" lon="1.14162">
        <ele>121</ele>
        <time>2017-04-09T08:58:52Z</time>
      </trkpt>
      <trkpt lat="49.27444" lon="1.14162">
        <ele>120.7</ele>
        <time>2017-04-09T08:58:54Z</time>
      </trkpt>
      <trkpt lat="49.27454" lon="1.14165">
        <ele>120.4</ele>
        <time>2017-04-09T08:58:56Z</time>
      </trkpt>
      <trkpt lat="49.27465" lon="1.14169">
        <ele>120.1</ele>
        <time>2017-04-09T08:58:58Z</time>
      </trkpt>
      <trkpt lat="49.27477" lon="1.14172">
        <ele>119.7</ele>
        <time>2017-04-09T08:59:00Z</time>
      </trkpt>
      <trkpt lat="49.27489" lon="1.14175">
        <ele>119.3</ele>
        <time>2017-04-09T08:59:02Z</time>
      </trkpt>
      <trkpt lat="49.27502" lon="1.14179">
        <ele>118.9</ele>
        <time>2017-04-09T08:59:04Z</time>
      </trkpt>
      <trkpt lat="49.27515" lon="1.14183">
        <ele>118.5</ele>
        <time>2017-04-09T08:59:06Z</time>
      </trkpt>
      <trkpt lat="49.27529" lon="1.14187">
        <ele>118.2</ele>
        <time>2017-04-09T08:59:08Z</time>
      </trkpt>
      <trkpt lat="49.27544" lon="1.14189">
        <ele>117.7</ele>
        <time>2017-04-09T08:59:10Z</time>
      </trkpt>
      <trkpt lat="49.2756" lon="1.14192">
        <ele>117.1</ele>
        <time>2017-04-09T08:59:12Z</time>
      </trkpt>
      <trkpt lat="49.27576" lon="1.14194">
        <ele>116.5</ele>
        <time>2017-04-09T08:59:14Z</time>
      </trkpt>
      <trkpt lat="49.27592" lon="1.14191">
        <ele>115.7</ele>
        <time>2017-04-09T08:59:16Z</time>
      </trkpt>
      <trkpt lat="49.27607" lon="1.14179">
        <ele>114.9</ele>
        <time>2017-04-09T08:59:18Z</time>
      </trkpt>
      <trkpt lat="49.27617" lon="1.14159">
        <ele>113.9</ele>
        <time>2017-04-09T08:59:20Z</time>
      </trkpt>
      <trkpt lat="49.27622" lon="1.14146">
        <ele>113.4</ele>
        <time>2017-04-09T08:59:21Z</time>
      </trkpt>
      <trkpt lat="49.27628" lon="1.14134">
        <ele>112.8</ele>
        <time>2017-04-09T08:59:22Z</time>
      </trkpt>
      <trkpt lat="49.27635" lon="1.14124">
        <ele>112.2</ele>
        <time>2017-04-09T08:59:23Z</time>
      </trkpt>
      <trkpt lat="49.27643" lon="1.14115">
        <ele>111.6</ele>
        <time>2017-04-09T08:59:24Z</time>
      </trkpt>
      <trkpt lat="49.27652" lon="1.14109">
        <ele>111.1</ele>
        <time>2017-04-09T08:59:25Z</time>
      </trkpt>
      <trkpt lat="49.27662" lon="1.14102">
        <ele>110.5</ele>
        <time>2017-04-09T08:59:26Z</time>
      </trkpt>
      <trkpt lat="49.27671" lon="1.14098">
        <ele>110</ele>
        <time>2017-04-09T08:59:27Z</time>
      </trkpt>
      <trkpt lat="49.27681" lon="1.14093">
        <ele>109.4</ele>
        <time>2017-04-09T08:59:28Z</time>
      </trkpt>
      <trkpt lat="49.2769" lon="1.14089">
        <ele>108.8</ele>
        <time>2017-04-09T08:59:29Z</time>
      </trkpt>
      <trkpt lat="49.277" lon="1.14087">
        <ele>108.1</ele>
        <time>2017-04-09T08:59:30Z</time>
      </trkpt>
      <trkpt lat="49.2771" lon="1.14086">
        <ele>107.5</ele>
        <time>2017-04-09T08:59:31Z</time>
      </trkpt>
      <trkpt lat="49.2772" lon="1.14086">
        <ele>106.9</ele>
        <time>2017-04-09T08:59:32Z</time>
      </trkpt>
      <trkpt lat="49.27729" lon="1.14085">
        <ele>106.3</ele>
        <time>2017-04-09T08:59:33Z</time>
      </trkpt>
      <trkpt lat="49.27739" lon="1.14085">
        <ele>105.7</ele>
        <time>2017-04-09T08:59:34Z</time>
      </trkpt>
      <trkpt lat="49.27756" lon="1.14083">
        <ele>104.6</ele>
        <time>2017-04-09T08:59:36Z</time>
      </trkpt>
      <trkpt lat="49.27774" lon="1.14081">
        <ele>103.5</ele>
        <time>2017-04-09T08:59:38Z</time>
      </trkpt>
      <trkpt lat="49.27791" lon="1.14079">
        <ele>102.4</ele>
        <time>2017-04-09T08:59:40Z</time>
      </trkpt>
      <trkpt lat="49.278" lon="1.14079">
        <ele>101.8</ele>
        <time>2017-04-09T08:59:41Z</time>
      </trkpt>
      <trkpt lat="49.27809" lon="1.14079">
        <ele>101.3</ele>
        <time>2017-04-09T08:59:42Z</time>
      </trkpt>
      <trkpt lat="49.27827" lon="1.14081">
        <ele>100.2</ele>
        <time>2017-04-09T08:59:44Z</time>
      </trkpt>
      <trkpt lat="49.27845" lon="1.14084">
        <ele>99.2</ele>
        <time>2017-04-09T08:59:46Z</time>
      </trkpt>
      <trkpt lat="49.27862" lon="1.14088">
        <ele>98.2</ele>
        <time>2017-04-09T08:59:48Z</time>
      </trkpt>
      <trkpt lat="49.27878" lon="1.14091">
        <ele>97.1</ele>
        <time>2017-04-09T08:59:50Z</time>
      </trkpt>
      <trkpt lat="49.27895" lon="1.14095">
        <ele>96.2</ele>
        <time>2017-04-09T08:59:52Z</time>
      </trkpt>
      <trkpt lat="49.27911" lon="1.14098">
        <ele>95.2</ele>
        <time>2017-04-09T08:59:54Z</time>
      </trkpt>
      <trkpt lat="49.27927" lon="1.14102">
        <ele>94.4</ele>
        <time>2017-04-09T08:59:56Z</time>
      </trkpt>
      <trkpt lat="49.27944" lon="1.14107">
        <ele>93.5</ele>
        <time>2017-04-09T08:59:58Z</time>
      </trkpt>
      <trkpt lat="49.2796" lon="1.14116">
        <ele>92.6</ele>
        <time>2017-04-09T09:00:00Z</time>
      </trkpt>
      <trkpt lat="49.27968" lon="1.14123">
        <ele>92.2</ele>
        <time>2017-04-09T09:00:01Z</time>
      </trkpt>
      <trkpt lat="49.27982" lon="1.14138">
        <ele>91.5</ele>
        <time>2017-04-09T09:00:03Z</time>
      </trkpt>
      <trkpt lat="49.27995" lon="1.14154">
        <ele>90.7</ele>
        <time>2017-04-09T09:00:05Z</time>
      </trkpt>
      <trkpt lat="49.28008" lon="1.1417">
        <ele>89.9</ele>
        <time>2017-04-09T09:00:07Z</time>
      </trkpt>
      <trkpt lat="49.2802" lon="1.14186">
        <ele>89.1</ele>
        <time>2017-04-09T09:00:09Z</time>
      </trkpt>
      <trkpt lat="49.28034" lon="1.14202">
        <ele>88.4</ele>
        <time>2017-04-09T09:00:11Z</time>
      </trkpt>
      <trkpt lat="49.28047" lon="1.14218">
        <ele>87.6</ele>
        <time>2017-04-09T09:00:13Z</time>
      </trkpt>
      <trkpt lat="49.28059" lon="1.14235">
        <ele>86.8</ele>
        <time>2017-04-09T09:00:15Z</time>
      </trkpt>
      <trkpt lat="49.28072" lon="1.14251">
        <ele>86.1</ele>
        <time>2017-04-09T09:00:17Z</time>
      </trkpt>
      <trkpt lat="49.28085" lon="1.14267">
        <ele>85.4</ele>
        <time>2017-04-09T09:00:19Z</time>
      </trkpt>
      <trkpt lat="49.28098" lon="1.14283">
        <ele>84.7</ele>
        <time>2017-04-09T09:00:21Z</time>
      </trkpt>
      <trkpt lat="49.28112" lon="1.14299">
        <ele>84</ele>
        <time>2017-04-09T09:00:23Z</time>
      </trkpt>
      <trkpt lat="49.28125" lon="1.14314">
        <ele>83.3</ele>
        <time>2017-04-09T09:00:25Z</time>
      </trkpt>
      <trkpt lat="49.28139" lon="1.14328">
        <ele>82.6</ele>
        <time>2017-04-09T09:00:27Z</time>
      </trkpt>
      <trkpt lat="49.28154" lon="1.14342">
        <ele>81.9</ele>
        <time>2017-04-09T09:00:29Z</time>
      </trkpt>
      <trkpt lat="49.28168" lon="1.14355">
        <ele>81.2</ele>
        <time>2017-04-09T09:00:31Z</time>
      </trkpt>
      <trkpt lat="49.2818" lon="1.14366">
        <ele>80.5</ele>
        <time>2017-04-09T09:00:33Z</time>
      </trkpt>
      <trkpt lat="49.28193" lon="1.14376">
        <ele>79.6</ele>
        <time>2017-04-09T09:00:35Z</time>
      </trkpt>
      <trkpt lat="49.28209" lon="1.14385">
        <ele>78.9</ele>
        <time>2017-04-09T09:00:37Z</time>
      </trkpt>
      <trkpt lat="49.28219" lon="1.14393">
        <ele>78.1</ele>
        <time>2017-04-09T09:00:39Z</time>
      </trkpt>
      <trkpt lat="49.2823" lon="1.14386">
        <ele>77</ele>
        <time>2017-04-09T09:00:42Z</time>
      </trkpt>
      <trkpt lat="49.28236" lon="1.14371">
        <ele>76.1</ele>
        <time>2017-04-09T09:00:45Z</time>
      </trkpt>
      <trkpt lat="49.28239" lon="1.14353">
        <ele>75.1</ele>
        <time>2017-04-09T09:00:49Z</time>
      </trkpt>
      <trkpt lat="49.28242" lon="1.14337">
        <ele>74.8</ele>
        <time>2017-04-09T09:00:52Z</time>
      </trkpt>
      <trkpt lat="49.28242" lon="1.14323">
        <ele>74.6</ele>
        <time>2017-04-09T09:00:55Z</time>
      </trkpt>
      <trkpt lat="49.28244" lon="1.14307">
        <ele>74.6</ele>
        <time>2017-04-09T09:00:58Z</time>
      </trkpt>
      <trkpt lat="49.28246" lon="1.14291">
        <ele>74.7</ele>
        <time>2017-04-09T09:01:01Z</time>
      </trkpt>
      <trkpt lat="49.28248" lon="1.14275">
        <ele>74.8</ele>
        <time>2017-04-09T09:01:04Z</time>
      </trkpt>
      <trkpt lat="49.28249" lon="1.1426">
        <ele>74.9</ele>
        <time>2017-04-09T09:01:07Z</time>
      </trkpt>
      <trkpt lat="49.28248" lon="1.14243">
        <ele>75</ele>
        <time>2017-04-09T09:01:10Z</time>
      </trkpt>
      <trkpt lat="49.28251" lon="1.14228">
        <ele>75.3</ele>
        <time>2017-04-09T09:01:13Z</time>
      </trkpt>
      <trkpt lat="49.28253" lon="1.14208">
        <ele>75.5</ele>
        <time>2017-04-09T09:01:16Z</time>
      </trkpt>
      <trkpt lat="49.28254" lon="1.14189">
        <ele>75.8</ele>
        <time>2017-04-09T09:01:19Z</time>
      </trkpt>
      <trkpt lat="49.28255" lon="1.14175">
        <ele>76</ele>
        <time>2017-04-09T09:01:21Z</time>
      </trkpt>
      <trkpt lat="49.28257" lon="1.14156">
        <ele>76.2</ele>
        <time>2017-04-09T09:01:24Z</time>
      </trkpt>
      <trkpt lat="49.28259" lon="1.14141">
        <ele>76.3</ele>
        <time>2017-04-09T09:01:26Z</time>
      </trkpt>
      <trkpt lat="49.2826" lon="1.14127">
        <ele>76.5</ele>
        <time>2017-04-09T09:01:28Z</time>
      </trkpt>
      <trkpt lat="49.28262" lon="1.14107">
        <ele>76.6</ele>
        <time>2017-04-09T09:01:31Z</time>
      </trkpt>
      <trkpt lat="49.28264" lon="1.14087">
        <ele>76.8</ele>
        <time>2017-04-09T09:01:34Z</time>
      </trkpt>
      <trkpt lat="49.28266" lon="1.14071">
        <ele>76.9</ele>
        <time>2017-04-09T09:01:36Z</time>
      </trkpt>
      <trkpt lat="49.28267" lon="1.14055">
        <ele>76.9</ele>
        <time>2017-04-09T09:01:38Z</time>
      </trkpt>
      <trkpt lat="49.28268" lon="1.14039">
        <ele>77</ele>
        <time>2017-04-09T09:01:40Z</time>
      </trkpt>
      <trkpt lat="49.2827" lon="1.14021">
        <ele>77</ele>
        <time>2017-04-09T09:01:42Z</time>
      </trkpt>
      <trkpt lat="49.28271" lon="1.14002">
        <ele>77</ele>
        <time>2017-04-09T09:01:44Z</time>
      </trkpt>
      <trkpt lat="49.28272" lon="1.13986">
        <ele>77.1</ele>
        <time>2017-04-09T09:01:46Z</time>
      </trkpt>
      <trkpt lat="49.28273" lon="1.1397">
        <ele>77.1</ele>
        <time>2017-04-09T09:01:48Z</time>
      </trkpt>
      <trkpt lat="49.28276" lon="1.13955">
        <ele>77.1</ele>
        <time>2017-04-09T09:01:50Z</time>
      </trkpt>
      <trkpt lat="49.28277" lon="1.13937">
        <ele>77.1</ele>
        <time>2017-04-09T09:01:52Z</time>
      </trkpt>
      <trkpt lat="49.28279" lon="1.1392">
        <ele>77.1</ele>
        <time>2017-04-09T09:01:54Z</time>
      </trkpt>
      <trkpt lat="49.28279" lon="1.13902">
        <ele>77.1</ele>
        <time>2017-04-09T09:01:56Z</time>
      </trkpt>
      <trkpt lat="49.28282" lon="1.13882">
        <ele>77</ele>
        <time>2017-04-09T09:01:58Z</time>
      </trkpt>
      <trkpt lat="49.28284" lon="1.13861">
        <ele>76.8</ele>
        <time>2017-04-09T09:02:00Z</time>
      </trkpt>
      <trkpt lat="49.28286" lon="1.13839">
        <ele>76.7</ele>
        <time>2017-04-09T09:02:02Z</time>
      </trkpt>
      <trkpt lat="49.28287" lon="1.13814">
        <ele>76.5</ele>
        <time>2017-04-09T09:02:04Z</time>
      </trkpt>
      <trkpt lat="49.28289" lon="1.13792">
        <ele>76.2</ele>
        <time>2017-04-09T09:02:06Z</time>
      </trkpt>
      <trkpt lat="49.28291" lon="1.13768">
        <ele>75.8</ele>
        <time>2017-04-09T09:02:08Z</time>
      </trkpt>
      <trkpt lat="49.28294" lon="1.13747">
        <ele>75.5</ele>
        <time>2017-04-09T09:02:10Z</time>
      </trkpt>
      <trkpt lat="49.28296" lon="1.13727">
        <ele>74.9</ele>
        <time>2017-04-09T09:02:12Z</time>
      </trkpt>
      <trkpt lat="49.28298" lon="1.13706">
        <ele>74.3</ele>
        <time>2017-04-09T09:02:14Z</time>
      </trkpt>
      <trkpt lat="49.28299" lon="1.13689">
        <ele>73.7</ele>
        <time>2017-04-09T09:02:16Z</time>
      </trkpt>
      <trkpt lat="49.28299" lon="1.13675">
        <ele>73.1</ele>
        <time>2017-04-09T09:02:18Z</time>
      </trkpt>
      <trkpt lat="49.28297" lon="1.13658">
        <ele>72</ele>
        <time>2017-04-09T09:02:21Z</time>
      </trkpt>
      <trkpt lat="49.28295" lon="1.13642">
        <ele>71.6</ele>
        <time>2017-04-09T09:02:24Z</time>
      </trkpt>
      <trkpt lat="49.283" lon="1.13629">
        <ele>71</ele>
        <time>2017-04-09T09:02:27Z</time>
      </trkpt>
      <trkpt lat="49.28305" lon="1.13616">
        <ele>69.2</ele>
        <time>2017-04-09T09:02:42Z</time>
      </trkpt>
      <trkpt lat="49.28306" lon="1.13597">
        <ele>68.8</ele>
        <time>2017-04-09T09:02:47Z</time>
      </trkpt>
      <trkpt lat="49.28306" lon="1.13579">
        <ele>68.7</ele>
        <time>2017-04-09T09:02:50Z</time>
      </trkpt>
      <trkpt lat="49.28308" lon="1.13565">
        <ele>68.6</ele>
        <time>2017-04-09T09:02:52Z</time>
      </trkpt>
      <trkpt lat="49.2831" lon="1.13549">
        <ele>68.5</ele>
        <time>2017-04-09T09:02:54Z</time>
      </trkpt>
      <trkpt lat="49.28313" lon="1.13535">
        <ele>68.3</ele>
        <time>2017-04-09T09:02:56Z</time>
      </trkpt>
      <trkpt lat="49.28315" lon="1.13518">
        <ele>68.1</ele>
        <time>2017-04-09T09:02:58Z</time>
      </trkpt>
      <trkpt lat="49.28316" lon="1.13501">
        <ele>68</ele>
        <time>2017-04-09T09:03:00Z</time>
      </trkpt>
      <trkpt lat="49.28319" lon="1.13482">
        <ele>67.8</ele>
        <time>2017-04-09T09:03:02Z</time>
      </trkpt>
      <trkpt lat="49.2832" lon="1.13462">
        <ele>67.5</ele>
        <time>2017-04-09T09:03:04Z</time>
      </trkpt>
      <trkpt lat="49.28322" lon="1.13441">
        <ele>67.3</ele>
        <time>2017-04-09T09:03:06Z</time>
      </trkpt>
      <trkpt lat="49.28323" lon="1.13419">
        <ele>67.2</ele>
        <time>2017-04-09T09:03:08Z</time>
      </trkpt>
      <trkpt lat="49.28323" lon="1.13394">
        <ele>66.9</ele>
        <time>2017-04-09T09:03:10Z</time>
      </trkpt>
      <trkpt lat="49.28325" lon="1.13372">
        <ele>66.6</ele>
        <time>2017-04-09T09:03:12Z</time>
      </trkpt>
      <trkpt lat="49.28327" lon="1.1335">
        <ele>66.3</ele>
        <time>2017-04-09T09:03:14Z</time>
      </trkpt>
      <trkpt lat="49.28329" lon="1.13326">
        <ele>65.9</ele>
        <time>2017-04-09T09:03:16Z</time>
      </trkpt>
      <trkpt lat="49.28331" lon="1.13302">
        <ele>65.6</ele>
        <time>2017-04-09T09:03:18Z</time>
      </trkpt>
      <trkpt lat="49.28332" lon="1.13276">
        <ele>65.1</ele>
        <time>2017-04-09T09:03:20Z</time>
      </trkpt>
      <trkpt lat="49.28334" lon="1.13251">
        <ele>64.7</ele>
        <time>2017-04-09T09:03:22Z</time>
      </trkpt>
      <trkpt lat="49.28336" lon="1.13225">
        <ele>64.3</ele>
        <time>2017-04-09T09:03:24Z</time>
      </trkpt>
      <trkpt lat="49.28338" lon="1.13203">
        <ele>63.9</ele>
        <time>2017-04-09T09:03:26Z</time>
      </trkpt>
      <trkpt lat="49.2834" lon="1.13181">
        <ele>63.6</ele>
        <time>2017-04-09T09:03:28Z</time>
      </trkpt>
      <trkpt lat="49.28342" lon="1.1316">
        <ele>63.3</ele>
        <time>2017-04-09T09:03:30Z</time>
      </trkpt>
      <trkpt lat="49.28344" lon="1.1314">
        <ele>63</ele>
        <time>2017-04-09T09:03:32Z</time>
      </trkpt>
      <trkpt lat="49.28345" lon="1.13123">
        <ele>62.8</ele>
        <time>2017-04-09T09:03:34Z</time>
      </trkpt>
      <trkpt lat="49.28347" lon="1.13106">
        <ele>62.6</ele>
        <time>2017-04-09T09:03:36Z</time>
      </trkpt>
      <trkpt lat="49.28349" lon="1.1309">
        <ele>62.5</ele>
        <time>2017-04-09T09:03:38Z</time>
      </trkpt>
      <trkpt lat="49.28351" lon="1.13074">
        <ele>62.3</ele>
        <time>2017-04-09T09:03:40Z</time>
      </trkpt>
      <trkpt lat="49.28353" lon="1.13058">
        <ele>62.2</ele>
        <time>2017-04-09T09:03:42Z</time>
      </trkpt>
      <trkpt lat="49.28354" lon="1.13042">
        <ele>62.1</ele>
        <time>2017-04-09T09:03:44Z</time>
      </trkpt>
      <trkpt lat="49.28364" lon="1.13034">
        <ele>62</ele>
        <time>2017-04-09T09:03:47Z</time>
      </trkpt>
      <trkpt lat="49.28371" lon="1.13042">
        <ele>62</ele>
        <time>2017-04-09T09:03:49Z</time>
      </trkpt>
      <trkpt lat="49.2838" lon="1.13053">
        <ele>61.9</ele>
        <time>2017-04-09T09:03:51Z</time>
      </trkpt>
      <trkpt lat="49.28388" lon="1.13065">
        <ele>61.8</ele>
        <time>2017-04-09T09:03:53Z</time>
      </trkpt>
      <trkpt lat="49.28399" lon="1.13078">
        <ele>61.7</ele>
        <time>2017-04-09T09:03:55Z</time>
      </trkpt>
      <trkpt lat="49.28409" lon="1.1309">
        <ele>61.6</ele>
        <time>2017-04-09T09:03:57Z</time>
      </trkpt>
      <trkpt lat="49.28422" lon="1.13102">
        <ele>61.4</ele>
        <time>2017-04-09T09:03:59Z</time>
      </trkpt>
      <trkpt lat="49.28434" lon="1.13114">
        <ele>61.1</ele>
        <time>2017-04-09T09:04:01Z</time>
      </trkpt>
      <trkpt lat="49.28445" lon="1.13127">
        <ele>60.8</ele>
        <time>2017-04-09T09:04:03Z</time>
      </trkpt>
      <trkpt lat="49.28455" lon="1.1314">
        <ele>60.5</ele>
        <time>2017-04-09T09:04:05Z</time>
      </trkpt>
      <trkpt lat="49.28463" lon="1.13153">
        <ele>60.3</ele>
        <time>2017-04-09T09:04:07Z</time>
      </trkpt>
      <trkpt lat="49.28472" lon="1.13166">
        <ele>59.9</ele>
        <time>2017-04-09T09:04:09Z</time>
      </trkpt>
      <trkpt lat="49.28483" lon="1.13182">
        <ele>59.5</ele>
        <time>2017-04-09T09:04:11Z</time>
      </trkpt>
      <trkpt lat="49.28495" lon="1.13195">
        <ele>59.2</ele>
        <time>2017-04-09T09:04:13Z</time>
      </trkpt>
      <trkpt lat="49.28507" lon="1.13206">
        <ele>58.8</ele>
        <time>2017-04-09T09:04:15Z</time>
      </trkpt>
      <trkpt lat="49.2852" lon="1.13219">
        <ele>58.5</ele>
        <time>2017-04-09T09:04:17Z</time>
      </trkpt>
      <trkpt lat="49.28534" lon="1.13234">
        <ele>58.2</ele>
        <time>2017-04-09T09:04:19Z</time>
      </trkpt>
      <trkpt lat="49.28545" lon="1.13248">
        <ele>57.7</ele>
        <time>2017-04-09T09:04:21Z</time>
      </trkpt>
      <trkpt lat="49.28558" lon="1.13263">
        <ele>57.3</ele>
        <time>2017-04-09T09:04:23Z</time>
      </trkpt>
      <trkpt lat="49.28569" lon="1.13275">
        <ele>57</ele>
        <time>2017-04-09T09:04:25Z</time>
      </trkpt>
      <trkpt lat="49.28581" lon="1.13288">
        <ele>56.6</ele>
        <time>2017-04-09T09:04:27Z</time>
      </trkpt>
      <trkpt lat="49.28592" lon="1.13303">
        <ele>56.2</ele>
        <time>2017-04-09T09:04:29Z</time>
      </trkpt>
      <trkpt lat="49.28603" lon="1.13316">
        <ele>55.8</ele>
        <time>2017-04-09T09:04:31Z</time>
      </trkpt>
      <trkpt lat="49.28614" lon="1.1333">
        <ele>55.4</ele>
        <time>2017-04-09T09:04:33Z</time>
      </trkpt>
      <trkpt lat="49.28626" lon="1.13343">
        <ele>55</ele>
        <time>2017-04-09T09:04:35Z</time>
      </trkpt>
      <trkpt lat="49.28637" lon="1.13356">
        <ele>54.7</ele>
        <time>2017-04-09T09:04:37Z</time>
      </trkpt>
      <trkpt lat="49.28646" lon="1.13367">
        <ele>54.4</ele>
        <time>2017-04-09T09:04:39Z</time>
      </trkpt>
      <trkpt lat="49.28657" lon="1.13378">
        <ele>54.1</ele>
        <time>2017-04-09T09:04:41Z</time>
      </trkpt>
      <trkpt lat="49.28668" lon="1.13389">
        <ele>53.8</ele>
        <time>2017-04-09T09:04:43Z</time>
      </trkpt>
      <trkpt lat="49.28677" lon="1.13402">
        <ele>53.6</ele>
        <time>2017-04-09T09:04:45Z</time>
      </trkpt>
      <trkpt lat="49.28687" lon="1.13414">
        <ele>53.4</ele>
        <time>2017-04-09T09:04:47Z</time>
      </trkpt>
      <trkpt lat="49.28697" lon="1.13426">
        <ele>53.3</ele>
        <time>2017-04-09T09:04:49Z</time>
      </trkpt>
      <trkpt lat="49.28705" lon="1.13439">
        <ele>53.1</ele>
        <time>2017-04-09T09:04:51Z</time>
      </trkpt>
      <trkpt lat="49.28715" lon="1.1345">
        <ele>52.8</ele>
        <time>2017-04-09T09:04:53Z</time>
      </trkpt>
      <trkpt lat="49.28724" lon="1.13462">
        <ele>52.5</ele>
        <time>2017-04-09T09:04:55Z</time>
      </trkpt>
      <trkpt lat="49.28733" lon="1.13474">
        <ele>52.2</ele>
        <time>2017-04-09T09:04:57Z</time>
      </trkpt>
      <trkpt lat="49.28744" lon="1.13487">
        <ele>51.9</ele>
        <time>2017-04-09T09:04:59Z</time>
      </trkpt>
      <trkpt lat="49.28751" lon="1.13499">
        <ele>51.6</ele>
        <time>2017-04-09T09:05:01Z</time>
      </trkpt>
      <trkpt lat="49.2876" lon="1.13512">
        <ele>51.4</ele>
        <time>2017-04-09T09:05:03Z</time>
      </trkpt>
      <trkpt lat="49.28774" lon="1.13525">
        <ele>51.2</ele>
        <time>2017-04-09T09:05:05Z</time>
      </trkpt>
      <trkpt lat="49.28784" lon="1.13537">
        <ele>50.9</ele>
        <time>2017-04-09T09:05:07Z</time>
      </trkpt>
      <trkpt lat="49.28795" lon="1.1355">
        <ele>50.6</ele>
        <time>2017-04-09T09:05:09Z</time>
      </trkpt>
      <trkpt lat="49.28806" lon="1.13564">
        <ele>50.2</ele>
        <time>2017-04-09T09:05:11Z</time>
      </trkpt>
      <trkpt lat="49.28818" lon="1.13579">
        <ele>49.7</ele>
        <time>2017-04-09T09:05:13Z</time>
      </trkpt>
      <trkpt lat="49.2883" lon="1.13596">
        <ele>49.3</ele>
        <time>2017-04-09T09:05:15Z</time>
      </trkpt>
      <trkpt lat="49.28841" lon="1.13613">
        <ele>48.8</ele>
        <time>2017-04-09T09:05:17Z</time>
      </trkpt>
      <trkpt lat="49.28853" lon="1.13621">
        <ele>48.4</ele>
        <time>2017-04-09T09:05:19Z</time>
      </trkpt>
      <trkpt lat="49.28864" lon="1.1363">
        <ele>48.1</ele>
        <time>2017-04-09T09:05:21Z</time>
      </trkpt>
      <trkpt lat="49.28874" lon="1.13642">
        <ele>47.9</ele>
        <time>2017-04-09T09:05:23Z</time>
      </trkpt>
      <trkpt lat="49.28882" lon="1.13653">
        <ele>47.6</ele>
        <time>2017-04-09T09:05:25Z</time>
      </trkpt>
      <trkpt lat="49.2889" lon="1.13664">
        <ele>47.4</ele>
        <time>2017-04-09T09:05:27Z</time>
      </trkpt>
      <trkpt lat="49.28897" lon="1.13674">
        <ele>47.5</ele>
        <time>2017-04-09T09:05:29Z</time>
      </trkpt>
      <trkpt lat="49.28904" lon="1.13683">
        <ele>47.5</ele>
        <time>2017-04-09T09:05:31Z</time>
      </trkpt>
      <trkpt lat="49.28916" lon="1.13693">
        <ele>47.5</ele>
        <time>2017-04-09T09:05:33Z</time>
      </trkpt>
      <trkpt lat="49.28923" lon="1.13704">
        <ele>47.6</ele>
        <time>2017-04-09T09:05:35Z</time>
      </trkpt>
      <trkpt lat="49.28933" lon="1.13714">
        <ele>47.6</ele>
        <time>2017-04-09T09:05:37Z</time>
      </trkpt>
      <trkpt lat="49.28943" lon="1.13722">
        <ele>47.7</ele>
        <time>2017-04-09T09:05:39Z</time>
      </trkpt>
      <trkpt lat="49.28953" lon="1.13731">
        <ele>47.8</ele>
        <time>2017-04-09T09:05:41Z</time>
      </trkpt>
      <trkpt lat="49.28962" lon="1.13741">
        <ele>47.8</ele>
        <time>2017-04-09T09:05:43Z</time>
      </trkpt>
      <trkpt lat="49.28971" lon="1.1375">
        <ele>47.9</ele>
        <time>2017-04-09T09:05:45Z</time>
      </trkpt>
      <trkpt lat="49.2898" lon="1.13762">
        <ele>48</ele>
        <time>2017-04-09T09:05:47Z</time>
      </trkpt>
      <trkpt lat="49.2899" lon="1.13773">
        <ele>48</ele>
        <time>2017-04-09T09:05:49Z</time>
      </trkpt>
      <trkpt lat="49.29001" lon="1.13783">
        <ele>48.1</ele>
        <time>2017-04-09T09:05:51Z</time>
      </trkpt>
      <trkpt lat="49.2901" lon="1.13795">
        <ele>48.1</ele>
        <time>2017-04-09T09:05:53Z</time>
      </trkpt>
      <trkpt lat="49.29018" lon="1.13806">
        <ele>48.1</ele>
        <time>2017-04-09T09:05:55Z</time>
      </trkpt>
      <trkpt lat="49.29027" lon="1.13818">
        <ele>48.1</ele>
        <time>2017-04-09T09:05:57Z</time>
      </trkpt>
      <trkpt lat="49.29036" lon="1.13831">
        <ele>48</ele>
        <time>2017-04-09T09:05:59Z</time>
      </trkpt>
      <trkpt lat="49.29043" lon="1.13843">
        <ele>47.9</ele>
        <time>2017-04-09T09:06:01Z</time>
      </trkpt>
      <trkpt lat="49.29053" lon="1.13857">
        <ele>47.8</ele>
        <time>2017-04-09T09:06:03Z</time>
      </trkpt>
      <trkpt lat="49.29063" lon="1.13868">
        <ele>47.7</ele>
        <time>2017-04-09T09:06:05Z</time>
      </trkpt>
      <trkpt lat="49.29074" lon="1.13881">
        <ele>47.6</ele>
        <time>2017-04-09T09:06:07Z</time>
      </trkpt>
      <trkpt lat="49.29082" lon="1.13891">
        <ele>47.4</ele>
        <time>2017-04-09T09:06:09Z</time>
      </trkpt>
      <trkpt lat="49.29093" lon="1.13903">
        <ele>47.3</ele>
        <time>2017-04-09T09:06:11Z</time>
      </trkpt>
      <trkpt lat="49.29104" lon="1.13917">
        <ele>47.2</ele>
        <time>2017-04-09T09:06:13Z</time>
      </trkpt>
      <trkpt lat="49.29116" lon="1.13929">
        <ele>47.1</ele>
        <time>2017-04-09T09:06:15Z</time>
      </trkpt>
      <trkpt lat="49.29127" lon="1.13938">
        <ele>46.9</ele>
        <time>2017-04-09T09:06:17Z</time>
      </trkpt>
      <trkpt lat="49.29142" lon="1.1393">
        <ele>46.6</ele>
        <time>2017-04-09T09:06:20Z</time>
      </trkpt>
      <trkpt lat="49.29147" lon="1.13917">
        <ele>46.4</ele>
        <time>2017-04-09T09:06:22Z</time>
      </trkpt>
      <trkpt lat="49.2915" lon="1.13903">
        <ele>46.3</ele>
        <time>2017-04-09T09:06:24Z</time>
      </trkpt>
      <trkpt lat="49.29152" lon="1.13888">
        <ele>46.2</ele>
        <time>2017-04-09T09:06:26Z</time>
      </trkpt>
      <trkpt lat="49.29155" lon="1.13874">
        <ele>46.1</ele>
        <time>2017-04-09T09:06:28Z</time>
      </trkpt>
      <trkpt lat="49.29158" lon="1.13859">
        <ele>46</ele>
        <time>2017-04-09T09:06:30Z</time>
      </trkpt>
      <trkpt lat="49.29164" lon="1.13847">
        <ele>45.9</ele>
        <time>2017-04-09T09:06:32Z</time>
      </trkpt>
      <trkpt lat="49.29177" lon="1.13845">
        <ele>45.9</ele>
        <time>2017-04-09T09:06:35Z</time>
      </trkpt>
      <trkpt lat="49.29188" lon="1.1385">
        <ele>45.8</ele>
        <time>2017-04-09T09:06:38Z</time>
      </trkpt>
      <trkpt lat="49.29196" lon="1.13842">
        <ele>45.7</ele>
        <time>2017-04-09T09:06:40Z</time>
      </trkpt>
      <trkpt lat="49.29204" lon="1.13825">
        <ele>45.6</ele>
        <time>2017-04-09T09:06:43Z</time>
      </trkpt>
      <trkpt lat="49.2921" lon="1.13811">
        <ele>45.6</ele>
        <time>2017-04-09T09:06:45Z</time>
      </trkpt>
      <trkpt lat="49.29216" lon="1.13799">
        <ele>45.5</ele>
        <time>2017-04-09T09:06:47Z</time>
      </trkpt>
      <trkpt lat="49.29223" lon="1.13788">
        <ele>45.5</ele>
        <time>2017-04-09T09:06:49Z</time>
      </trkpt>
      <trkpt lat="49.29231" lon="1.13775">
        <ele>45.5</ele>
        <time>2017-04-09T09:06:51Z</time>
      </trkpt>
      <trkpt lat="49.29237" lon="1.13764">
        <ele>45.5</ele>
        <time>2017-04-09T09:06:53Z</time>
      </trkpt>
      <trkpt lat="49.29245" lon="1.13751">
        <ele>45.4</ele>
        <time>2017-04-09T09:06:55Z</time>
      </trkpt>
      <trkpt lat="49.29252" lon="1.13741">
        <ele>45.3</ele>
        <time>2017-04-09T09:06:57Z</time>
      </trkpt>
      <trkpt lat="49.29259" lon="1.13726">
        <ele>45.2</ele>
        <time>2017-04-09T09:06:59Z</time>
      </trkpt>
      <trkpt lat="49.29264" lon="1.13712">
        <ele>45</ele>
        <time>2017-04-09T09:07:01Z</time>
      </trkpt>
      <trkpt lat="49.29272" lon="1.137">
        <ele>44.9</ele>
        <time>2017-04-09T09:07:03Z</time>
      </trkpt>
      <trkpt lat="49.29278" lon="1.13688">
        <ele>44.8</ele>
        <time>2017-04-09T09:07:05Z</time>
      </trkpt>
      <trkpt lat="49.29285" lon="1.13673">
        <ele>44.8</ele>
        <time>2017-04-09T09:07:07Z</time>
      </trkpt>
      <trkpt lat="49.29292" lon="1.13655">
        <ele>44.7</ele>
        <time>2017-04-09T09:07:09Z</time>
      </trkpt>
      <trkpt lat="49.29298" lon="1.13642">
        <ele>44.6</ele>
        <time>2017-04-09T09:07:11Z</time>
      </trkpt>
      <trkpt lat="49.29305" lon="1.13629">
        <ele>44.6</ele>
        <time>2017-04-09T09:07:13Z</time>
      </trkpt>
      <trkpt lat="49.29311" lon="1.13616">
        <ele>44.6</ele>
        <time>2017-04-09T09:07:15Z</time>
      </trkpt>
      <trkpt lat="49.29317" lon="1.13605">
        <ele>44.6</ele>
        <time>2017-04-09T09:07:17Z</time>
      </trkpt>
      <trkpt lat="49.29324" lon="1.13591">
        <ele>44.6</ele>
        <time>2017-04-09T09:07:19Z</time>
      </trkpt>
      <trkpt lat="49.29332" lon="1.13577">
        <ele>44.6</ele>
        <time>2017-04-09T09:07:21Z</time>
      </trkpt>
      <trkpt lat="49.29339" lon="1.13563">
        <ele>44.6</ele>
        <time>2017-04-09T09:07:23Z</time>
      </trkpt>
      <trkpt lat="49.29346" lon="1.1355">
        <ele>44.6</ele>
        <time>2017-04-09T09:07:25Z</time>
      </trkpt>
      <trkpt lat="49.29354" lon="1.13539">
        <ele>44.6</ele>
        <time>2017-04-09T09:07:27Z</time>
      </trkpt>
      <trkpt lat="49.29362" lon="1.13527">
        <ele>44.5</ele>
        <time>2017-04-09T09:07:29Z</time>
      </trkpt>
      <trkpt lat="49.29369" lon="1.13512">
        <ele>44.5</ele>
        <time>2017-04-09T09:07:31Z</time>
      </trkpt>
      <trkpt lat="49.29378" lon="1.13496">
        <ele>44.4</ele>
        <time>2017-04-09T09:07:33Z</time>
      </trkpt>
      <trkpt lat="49.29384" lon="1.1348">
        <ele>44.3</ele>
        <time>2017-04-09T09:07:35Z</time>
      </trkpt>
      <trkpt lat="49.29391" lon="1.13465">
        <ele>44.2</ele>
        <time>2017-04-09T09:07:37Z</time>
      </trkpt>
      <trkpt lat="49.29398" lon="1.1345">
        <ele>44.1</ele>
        <time>2017-04-09T09:07:39Z</time>
      </trkpt>
      <trkpt lat="49.29406" lon="1.13436">
        <ele>43.9</ele>
        <time>2017-04-09T09:07:41Z</time>
      </trkpt>
      <trkpt lat="49.29412" lon="1.13423">
        <ele>43.8</ele>
        <time>2017-04-09T09:07:43Z</time>
      </trkpt>
      <trkpt lat="49.29418" lon="1.13409">
        <ele>43.7</ele>
        <time>2017-04-09T09:07:45Z</time>
      </trkpt>
      <trkpt lat="49.29425" lon="1.13397">
        <ele>43.3</ele>
        <time>2017-04-09T09:07:47Z</time>
      </trkpt>
      <trkpt lat="49.29433" lon="1.13385">
        <ele>43.1</ele>
        <time>2017-04-09T09:07:49Z</time>
      </trkpt>
      <trkpt lat="49.29439" lon="1.13371">
        <ele>43</ele>
        <time>2017-04-09T09:07:51Z</time>
      </trkpt>
      <trkpt lat="49.29445" lon="1.13358">
        <ele>42.9</ele>
        <time>2017-04-09T09:07:53Z</time>
      </trkpt>
      <trkpt lat="49.2945" lon="1.13344">
        <ele>42.7</ele>
        <time>2017-04-09T09:07:55Z</time>
      </trkpt>
      <trkpt lat="49.29455" lon="1.13333">
        <ele>42.6</ele>
        <time>2017-04-09T09:07:57Z</time>
      </trkpt>
      <trkpt lat="49.29462" lon="1.1332">
        <ele>42.5</ele>
        <time>2017-04-09T09:07:59Z</time>
      </trkpt>
      <trkpt lat="49.29468" lon="1.1331">
        <ele>42.4</ele>
        <time>2017-04-09T09:08:01Z</time>
      </trkpt>
      <trkpt lat="49.29475" lon="1.13299">
        <ele>42.4</ele>
        <time>2017-04-09T09:08:03Z</time>
      </trkpt>
      <trkpt lat="49.29482" lon="1.13284">
        <ele>42.3</ele>
        <time>2017-04-09T09:08:05Z</time>
      </trkpt>
      <trkpt lat="49.29488" lon="1.1327">
        <ele>42.2</ele>
        <time>2017-04-09T09:08:07Z</time>
      </trkpt>
      <trkpt lat="49.29495" lon="1.13255">
        <ele>42</ele>
        <time>2017-04-09T09:08:09Z</time>
      </trkpt>
      <trkpt lat="49.29501" lon="1.13243">
        <ele>41.9</ele>
        <time>2017-04-09T09:08:11Z</time>
      </trkpt>
      <trkpt lat="49.29508" lon="1.1323">
        <ele>41.8</ele>
        <time>2017-04-09T09:08:13Z</time>
      </trkpt>
      <trkpt lat="49.29515" lon="1.13217">
        <ele>41.6</ele>
        <time>2017-04-09T09:08:15Z</time>
      </trkpt>
      <trkpt lat="49.29522" lon="1.13205">
        <ele>41.4</ele>
        <time>2017-04-09T09:08:17Z</time>
      </trkpt>
      <trkpt lat="49.29529" lon="1.13191">
        <ele>41.3</ele>
        <time>2017-04-09T09:08:19Z</time>
      </trkpt>
      <trkpt lat="49.29535" lon="1.13177">
        <ele>41.2</ele>
        <time>2017-04-09T09:08:21Z</time>
      </trkpt>
      <trkpt lat="49.29541" lon="1.13163">
        <ele>41</ele>
        <time>2017-04-09T09:08:23Z</time>
      </trkpt>
      <trkpt lat="49.29548" lon="1.13149">
        <ele>40.7</ele>
        <time>2017-04-09T09:08:25Z</time>
      </trkpt>
      <trkpt lat="49.29556" lon="1.13134">
        <ele>40.5</ele>
        <time>2017-04-09T09:08:27Z</time>
      </trkpt>
      <trkpt lat="49.29563" lon="1.13122">
        <ele>40.4</ele>
        <time>2017-04-09T09:08:29Z</time>
      </trkpt>
      <trkpt lat="49.29569" lon="1.13109">
        <ele>40.2</ele>
        <time>2017-04-09T09:08:31Z</time>
      </trkpt>
      <trkpt lat="49.29576" lon="1.13096">
        <ele>40</ele>
        <time>2017-04-09T09:08:33Z</time>
      </trkpt>
      <trkpt lat="49.29583" lon="1.13081">
        <ele>39.8</ele>
        <time>2017-04-09T09:08:35Z</time>
      </trkpt>
      <trkpt lat="49.2959" lon="1.13068">
        <ele>39.6</ele>
        <time>2017-04-09T09:08:37Z</time>
      </trkpt>
      <trkpt lat="49.29598" lon="1.13054">
        <ele>39.5</ele>
        <time>2017-04-09T09:08:39Z</time>
      </trkpt>
      <trkpt lat="49.29606" lon="1.1304">
        <ele>39.2</ele>
        <time>2017-04-09T09:08:41Z</time>
      </trkpt>
      <trkpt lat="49.29614" lon="1.13023">
        <ele>39</ele>
        <time>2017-04-09T09:08:43Z</time>
      </trkpt>
      <trkpt lat="49.29621" lon="1.13007">
        <ele>38.6</ele>
        <time>2017-04-09T09:08:45Z</time>
      </trkpt>
      <trkpt lat="49.29629" lon="1.12992">
        <ele>38.1</ele>
        <time>2017-04-09T09:08:47Z</time>
      </trkpt>
      <trkpt lat="49.29637" lon="1.12977">
        <ele>37.6</ele>
        <time>2017-04-09T09:08:49Z</time>
      </trkpt>
      <trkpt lat="49.29644" lon="1.12962">
        <ele>37.3</ele>
        <time>2017-04-09T09:08:51Z</time>
      </trkpt>
      <trkpt lat="49.29651" lon="1.12948">
        <ele>36.9</ele>
        <time>2017-04-09T09:08:53Z</time>
      </trkpt>
      <trkpt lat="49.29659" lon="1.12933">
        <ele>36.5</ele>
        <time>2017-04-09T09:08:55Z</time>
      </trkpt>
      <trkpt lat="49.29667" lon="1.12918">
        <ele>36</ele>
        <time>2017-04-09T09:08:57Z</time>
      </trkpt>
      <trkpt lat="49.29668" lon="1.129">
        <ele>35.4</ele>
        <time>2017-04-09T09:09:00Z</time>
      </trkpt>
      <trkpt lat="49.29659" lon="1.12888">
        <ele>34.8</ele>
        <time>2017-04-09T09:09:03Z</time>
      </trkpt>
      <trkpt lat="49.29651" lon="1.12874">
        <ele>34.3</ele>
        <time>2017-04-09T09:09:06Z</time>
      </trkpt>
      <trkpt lat="49.29641" lon="1.12863">
        <ele>33.9</ele>
        <time>2017-04-09T09:09:09Z</time>
      </trkpt>
      <trkpt lat="49.29631" lon="1.12851">
        <ele>33.7</ele>
        <time>2017-04-09T09:09:12Z</time>
      </trkpt>
      <trkpt lat="49.29622" lon="1.12838">
        <ele>33.5</ele>
        <time>2017-04-09T09:09:15Z</time>
      </trkpt>
      <trkpt lat="49.29615" lon="1.12828">
        <ele>33.5</ele>
        <time>2017-04-09T09:09:17Z</time>
      </trkpt>
      <trkpt lat="49.29605" lon="1.12814">
        <ele>33.4</ele>
        <time>2017-04-09T09:09:20Z</time>
      </trkpt>
      <trkpt lat="49.29598" lon="1.12804">
        <ele>33.4</ele>
        <time>2017-04-09T09:09:22Z</time>
      </trkpt>
      <trkpt lat="49.29591" lon="1.12795">
        <ele>33.5</ele>
        <time>2017-04-09T09:09:24Z</time>
      </trkpt>
      <trkpt lat="49.2958" lon="1.12785">
        <ele>33.7</ele>
        <time>2017-04-09T09:09:27Z</time>
      </trkpt>
      <trkpt lat="49.29573" lon="1.12776">
        <ele>33.9</ele>
        <time>2017-04-09T09:09:29Z</time>
      </trkpt>
      <trkpt lat="49.29565" lon="1.12767">
        <ele>34.1</ele>
        <time>2017-04-09T09:09:31Z</time>
      </trkpt>
      <trkpt lat="49.29557" lon="1.12756">
        <ele>34.3</ele>
        <time>2017-04-09T09:09:34Z</time>
      </trkpt>
      <trkpt lat="49.29546" lon="1.12745">
        <ele>34.5</ele>
        <time>2017-04-09T09:09:37Z</time>
      </trkpt>
      <trkpt lat="49.2954" lon="1.12735">
        <ele>34.6</ele>
        <time>2017-04-09T09:09:39Z</time>
      </trkpt>
      <trkpt lat="49.29529" lon="1.12723">
        <ele>34.8</ele>
        <time>2017-04-09T09:09:42Z</time>
      </trkpt>
      <trkpt lat="49.29522" lon="1.12715">
        <ele>34.9</ele>
        <time>2017-04-09T09:09:44Z</time>
      </trkpt>
      <trkpt lat="49.29513" lon="1.12706">
        <ele>35.1</ele>
        <time>2017-04-09T09:09:46Z</time>
      </trkpt>
      <trkpt lat="49.29505" lon="1.12696">
        <ele>35.3</ele>
        <time>2017-04-09T09:09:48Z</time>
      </trkpt>
      <trkpt lat="49.29497" lon="1.12687">
        <ele>35.5</ele>
        <time>2017-04-09T09:09:50Z</time>
      </trkpt>
      <trkpt lat="49.29489" lon="1.12678">
        <ele>35.7</ele>
        <time>2017-04-09T09:09:52Z</time>
      </trkpt>
      <trkpt lat="49.29481" lon="1.12668">
        <ele>35.8</ele>
        <time>2017-04-09T09:09:54Z</time>
      </trkpt>
      <trkpt lat="49.29473" lon="1.12659">
        <ele>36</ele>
        <time>2017-04-09T09:09:56Z</time>
      </trkpt>
      <trkpt lat="49.29464" lon="1.1265">
        <ele>36.1</ele>
        <time>2017-04-09T09:09:58Z</time>
      </trkpt>
      <trkpt lat="49.29456" lon="1.1264">
        <ele>36.2</ele>
        <time>2017-04-09T09:10:00Z</time>
      </trkpt>
      <trkpt lat="49.29447" lon="1.12631">
        <ele>36.3</ele>
        <time>2017-04-09T09:10:02Z</time>
      </trkpt>
      <trkpt lat="49.2944" lon="1.12621">
        <ele>36.4</ele>
        <time>2017-04-09T09:10:04Z</time>
      </trkpt>
      <trkpt lat="49.29431" lon="1.12611">
        <ele>36.6</ele>
        <time>2017-04-09T09:10:06Z</time>
      </trkpt>
      <trkpt lat="49.29423" lon="1.12602">
        <ele>36.8</ele>
        <time>2017-04-09T09:10:08Z</time>
      </trkpt>
      <trkpt lat="49.29415" lon="1.12593">
        <ele>36.9</ele>
        <time>2017-04-09T09:10:10Z</time>
      </trkpt>
      <trkpt lat="49.29407" lon="1.12583">
        <ele>37</ele>
        <time>2017-04-09T09:10:12Z</time>
      </trkpt>
      <trkpt lat="49.29398" lon="1.12573">
        <ele>37.1</ele>
        <time>2017-04-09T09:10:14Z</time>
      </trkpt>
      <trkpt lat="49.29389" lon="1.12562">
        <ele>37.2</ele>
        <time>2017-04-09T09:10:16Z</time>
      </trkpt>
      <trkpt lat="49.2938" lon="1.12551">
        <ele>37.4</ele>
        <time>2017-04-09T09:10:18Z</time>
      </trkpt>
      <trkpt lat="49.29372" lon="1.12541">
        <ele>37.5</ele>
        <time>2017-04-09T09:10:20Z</time>
      </trkpt>
      <trkpt lat="49.29364" lon="1.12531">
        <ele>37.6</ele>
        <time>2017-04-09T09:10:22Z</time>
      </trkpt>
      <trkpt lat="49.29356" lon="1.12521">
        <ele>37.7</ele>
        <time>2017-04-09T09:10:24Z</time>
      </trkpt>
      <trkpt lat="49.29348" lon="1.12512">
        <ele>37.8</ele>
        <time>2017-04-09T09:10:26Z</time>
      </trkpt>
      <trkpt lat="49.2934" lon="1.12502">
        <ele>37.9</ele>
        <time>2017-04-09T09:10:28Z</time>
      </trkpt>
      <trkpt lat="49.29332" lon="1.12493">
        <ele>38</ele>
        <time>2017-04-09T09:10:30Z</time>
      </trkpt>
      <trkpt lat="49.29321" lon="1.1249">
        <ele>38.2</ele>
        <time>2017-04-09T09:10:33Z</time>
      </trkpt>
      <trkpt lat="49.29314" lon="1.12502">
        <ele>38.4</ele>
        <time>2017-04-09T09:10:36Z</time>
      </trkpt>
      <trkpt lat="49.29312" lon="1.12519">
        <ele>38.6</ele>
        <time>2017-04-09T09:10:39Z</time>
      </trkpt>
      <trkpt lat="49.29304" lon="1.12527">
        <ele>39</ele>
        <time>2017-04-09T09:10:42Z</time>
      </trkpt>
      <trkpt lat="49.29296" lon="1.12519">
        <ele>39.4</ele>
        <time>2017-04-09T09:10:45Z</time>
      </trkpt>
      <trkpt lat="49.29289" lon="1.12508">
        <ele>39.6</ele>
        <time>2017-04-09T09:10:47Z</time>
      </trkpt>
      <trkpt lat="49.29282" lon="1.12497">
        <ele>39.8</ele>
        <time>2017-04-09T09:10:49Z</time>
      </trkpt>
      <trkpt lat="49.29274" lon="1.12489">
        <ele>40</ele>
        <time>2017-04-09T09:10:51Z</time>
      </trkpt>
      <trkpt lat="49.29266" lon="1.1248">
        <ele>40.1</ele>
        <time>2017-04-09T09:10:53Z</time>
      </trkpt>
      <trkpt lat="49.29258" lon="1.12471">
        <ele>40.2</ele>
        <time>2017-04-09T09:10:55Z</time>
      </trkpt>
      <trkpt lat="49.2925" lon="1.12462">
        <ele>40.4</ele>
        <time>2017-04-09T09:10:57Z</time>
      </trkpt>
      <trkpt lat="49.29242" lon="1.12453">
        <ele>40.5</ele>
        <time>2017-04-09T09:10:59Z</time>
      </trkpt>
      <trkpt lat="49.29234" lon="1.12443">
        <ele>40.6</ele>
        <time>2017-04-09T09:11:01Z</time>
      </trkpt>
      <trkpt lat="49.29225" lon="1.12431">
        <ele>41</ele>
        <time>2017-04-09T09:11:04Z</time>
      </trkpt>
      <trkpt lat="49.29213" lon="1.12418">
        <ele>41.3</ele>
        <time>2017-04-09T09:11:07Z</time>
      </trkpt>
      <trkpt lat="49.29205" lon="1.12409">
        <ele>41.4</ele>
        <time>2017-04-09T09:11:09Z</time>
      </trkpt>
      <trkpt lat="49.29196" lon="1.12397">
        <ele>41.6</ele>
        <time>2017-04-09T09:11:12Z</time>
      </trkpt>
      <trkpt lat="49.29187" lon="1.12393">
        <ele>41.8</ele>
        <time>2017-04-09T09:11:14Z</time>
      </trkpt>
      <trkpt lat="49.29177" lon="1.12393">
        <ele>42</ele>
        <time>2017-04-09T09:11:16Z</time>
      </trkpt>
      <trkpt lat="49.29168" lon="1.12395">
        <ele>42.2</ele>
        <time>2017-04-09T09:11:18Z</time>
      </trkpt>
      <trkpt lat="49.29158" lon="1.12399">
        <ele>42.3</ele>
        <time>2017-04-09T09:11:20Z</time>
      </trkpt>
      <trkpt lat="49.29146" lon="1.12405">
        <ele>42.6</ele>
        <time>2017-04-09T09:11:23Z</time>
      </trkpt>
      <trkpt lat="49.29134" lon="1.1241">
        <ele>42.8</ele>
        <time>2017-04-09T09:11:26Z</time>
      </trkpt>
      <trkpt lat="49.29124" lon="1.1241">
        <ele>43.1</ele>
        <time>2017-04-09T09:11:28Z</time>
      </trkpt>
      <trkpt lat="49.29112" lon="1.12416">
        <ele>43.5</ele>
        <time>2017-04-09T09:11:31Z</time>
      </trkpt>
      <trkpt lat="49.291" lon="1.12421">
        <ele>43.9</ele>
        <time>2017-04-09T09:11:34Z</time>
      </trkpt>
      <trkpt lat="49.29089" lon="1.12426">
        <ele>44.4</ele>
        <time>2017-04-09T09:11:37Z</time>
      </trkpt>
      <trkpt lat="49.29076" lon="1.12431">
        <ele>44.9</ele>
        <time>2017-04-09T09:11:40Z</time>
      </trkpt>
      <trkpt lat="49.29066" lon="1.12434">
        <ele>45.2</ele>
        <time>2017-04-09T09:11:42Z</time>
      </trkpt>
      <trkpt lat="49.29054" lon="1.12438">
        <ele>45.6</ele>
        <time>2017-04-09T09:11:45Z</time>
      </trkpt>
      <trkpt lat="49.29042" lon="1.12443">
        <ele>46.1</ele>
        <time>2017-04-09T09:11:48Z</time>
      </trkpt>
      <trkpt lat="49.2903" lon="1.12448">
        <ele>46.7</ele>
        <time>2017-04-09T09:11:51Z</time>
      </trkpt>
      <trkpt lat="49.29019" lon="1.12453">
        <ele>47.1</ele>
        <time>2017-04-09T09:11:54Z</time>
      </trkpt>
      <trkpt lat="49.29008" lon="1.12458">
        <ele>47.6</ele>
        <time>2017-04-09T09:11:57Z</time>
      </trkpt>
      <trkpt lat="49.28997" lon="1.12463">
        <ele>48</ele>
        <time>2017-04-09T09:12:00Z</time>
      </trkpt>
      <trkpt lat="49.28988" lon="1.12467">
        <ele>48.4</ele>
        <time>2017-04-09T09:12:02Z</time>
      </trkpt>
      <trkpt lat="49.28976" lon="1.12472">
        <ele>48.8</ele>
        <time>2017-04-09T09:12:05Z</time>
      </trkpt>
      <trkpt lat="49.28964" lon="1.12477">
        <ele>49.2</ele>
        <time>2017-04-09T09:12:08Z</time>
      </trkpt>
      <trkpt lat="49.28952" lon="1.12482">
        <ele>49.6</ele>
        <time>2017-04-09T09:12:11Z</time>
      </trkpt>
      <trkpt lat="49.28939" lon="1.12487">
        <ele>50</ele>
        <time>2017-04-09T09:12:14Z</time>
      </trkpt>
      <trkpt lat="49.28929" lon="1.12493">
        <ele>50.3</ele>
        <time>2017-04-09T09:12:16Z</time>
      </trkpt>
      <trkpt lat="49.2892" lon="1.12496">
        <ele>50.6</ele>
        <time>2017-04-09T09:12:18Z</time>
      </trkpt>
      <trkpt lat="49.28911" lon="1.12499">
        <ele>50.8</ele>
        <time>2017-04-09T09:12:20Z</time>
      </trkpt>
      <trkpt lat="49.28902" lon="1.12502">
        <ele>51</ele>
        <time>2017-04-09T09:12:22Z</time>
      </trkpt>
      <trkpt lat="49.28892" lon="1.12505">
        <ele>51.3</ele>
        <time>2017-04-09T09:12:24Z</time>
      </trkpt>
      <trkpt lat="49.28883" lon="1.12508">
        <ele>51.5</ele>
        <time>2017-04-09T09:12:26Z</time>
      </trkpt>
      <trkpt lat="49.28873" lon="1.12512">
        <ele>51.7</ele>
        <time>2017-04-09T09:12:28Z</time>
      </trkpt>
      <trkpt lat="49.28863" lon="1.12515">
        <ele>51.9</ele>
        <time>2017-04-09T09:12:30Z</time>
      </trkpt>
      <trkpt lat="49.28853" lon="1.12518">
        <ele>52.1</ele>
        <time>2017-04-09T09:12:32Z</time>
      </trkpt>
      <trkpt lat="49.28844" lon="1.12522">
        <ele>52.2</ele>
        <time>2017-04-09T09:12:34Z</time>
      </trkpt>
      <trkpt lat="49.28834" lon="1.12527">
        <ele>52.4</ele>
        <time>2017-04-09T09:12:36Z</time>
      </trkpt>
      <trkpt lat="49.28823" lon="1.12534">
        <ele>52.5</ele>
        <time>2017-04-09T09:12:38Z</time>
      </trkpt>
      <trkpt lat="49.28815" lon="1.12541">
        <ele>52.6</ele>
        <time>2017-04-09T09:12:40Z</time>
      </trkpt>
      <trkpt lat="49.28806" lon="1.12549">
        <ele>52.7</ele>
        <time>2017-04-09T09:12:42Z</time>
      </trkpt>
      <trkpt lat="49.28795" lon="1.12558">
        <ele>52.8</ele>
        <time>2017-04-09T09:12:45Z</time>
      </trkpt>
      <trkpt lat="49.28782" lon="1.12556">
        <ele>52.9</ele>
        <time>2017-04-09T09:12:48Z</time>
      </trkpt>
      <trkpt lat="49.28771" lon="1.12558">
        <ele>52.9</ele>
        <time>2017-04-09T09:12:50Z</time>
      </trkpt>
      <trkpt lat="49.28761" lon="1.12561">
        <ele>53</ele>
        <time>2017-04-09T09:12:52Z</time>
      </trkpt>
      <trkpt lat="49.2875" lon="1.12567">
        <ele>53</ele>
        <time>2017-04-09T09:12:54Z</time>
      </trkpt>
      <trkpt lat="49.28739" lon="1.12572">
        <ele>53</ele>
        <time>2017-04-09T09:12:56Z</time>
      </trkpt>
      <trkpt lat="49.28729" lon="1.12578">
        <ele>53.1</ele>
        <time>2017-04-09T09:12:58Z</time>
      </trkpt>
      <trkpt lat="49.28718" lon="1.12583">
        <ele>53.1</ele>
        <time>2017-04-09T09:13:00Z</time>
      </trkpt>
      <trkpt lat="49.28707" lon="1.12588">
        <ele>53.1</ele>
        <time>2017-04-09T09:13:02Z</time>
      </trkpt>
      <trkpt lat="49.28696" lon="1.12594">
        <ele>53.2</ele>
        <time>2017-04-09T09:13:04Z</time>
      </trkpt>
      <trkpt lat="49.28685" lon="1.12599">
        <ele>53.3</ele>
        <time>2017-04-09T09:13:06Z</time>
      </trkpt>
      <trkpt lat="49.28675" lon="1.12604">
        <ele>53.3</ele>
        <time>2017-04-09T09:13:08Z</time>
      </trkpt>
      <trkpt lat="49.28664" lon="1.12609">
        <ele>53.3</ele>
        <time>2017-04-09T09:13:10Z</time>
      </trkpt>
      <trkpt lat="49.28653" lon="1.12615">
        <ele>53.4</ele>
        <time>2017-04-09T09:13:12Z</time>
      </trkpt>
      <trkpt lat="49.28642" lon="1.1262">
        <ele>53.4</ele>
        <time>2017-04-09T09:13:14Z</time>
      </trkpt>
      <trkpt lat="49.28631" lon="1.12625">
        <ele>53.4</ele>
        <time>2017-04-09T09:13:16Z</time>
      </trkpt>
      <trkpt lat="49.2862" lon="1.1263">
        <ele>53.5</ele>
        <time>2017-04-09T09:13:18Z</time>
      </trkpt>
      <trkpt lat="49.28609" lon="1.12635">
        <ele>53.5</ele>
        <time>2017-04-09T09:13:20Z</time>
      </trkpt>
      <trkpt lat="49.28598" lon="1.1264">
        <ele>53.5</ele>
        <time>2017-04-09T09:13:22Z</time>
      </trkpt>
      <trkpt lat="49.28588" lon="1.12646">
        <ele>53.5</ele>
        <time>2017-04-09T09:13:24Z</time>
      </trkpt>
      <trkpt lat="49.28577" lon="1.12651">
        <ele>53.6</ele>
        <time>2017-04-09T09:13:26Z</time>
      </trkpt>
      <trkpt lat="49.28567" lon="1.12656">
        <ele>53.7</ele>
        <time>2017-04-09T09:13:28Z</time>
      </trkpt>
      <trkpt lat="49.28556" lon="1.12661">
        <ele>53.8</ele>
        <time>2017-04-09T09:13:30Z</time>
      </trkpt>
      <trkpt lat="49.28545" lon="1.12666">
        <ele>54</ele>
        <time>2017-04-09T09:13:32Z</time>
      </trkpt>
      <trkpt lat="49.28535" lon="1.12671">
        <ele>54.2</ele>
        <time>2017-04-09T09:13:34Z</time>
      </trkpt>
      <trkpt lat="49.28525" lon="1.12677">
        <ele>54.3</ele>
        <time>2017-04-09T09:13:36Z</time>
      </trkpt>
      <trkpt lat="49.28515" lon="1.12683">
        <ele>54.5</ele>
        <time>2017-04-09T09:13:38Z</time>
      </trkpt>
      <trkpt lat="49.28505" lon="1.1269">
        <ele>54.8</ele>
        <time>2017-04-09T09:13:40Z</time>
      </trkpt>
      <trkpt lat="49.28496" lon="1.12698">
        <ele>55.1</ele>
        <time>2017-04-09T09:13:42Z</time>
      </trkpt>
      <trkpt lat="49.28487" lon="1.12706">
        <ele>55.4</ele>
        <time>2017-04-09T09:13:44Z</time>
      </trkpt>
      <trkpt lat="49.28479" lon="1.12714">
        <ele>55.6</ele>
        <time>2017-04-09T09:13:46Z</time>
      </trkpt>
      <trkpt lat="49.2847" lon="1.12721">
        <ele>55.8</ele>
        <time>2017-04-09T09:13:48Z</time>
      </trkpt>
      <trkpt lat="49.2846" lon="1.12723">
        <ele>56.1</ele>
        <time>2017-04-09T09:13:50Z</time>
      </trkpt>
      <trkpt lat="49.28452" lon="1.12715">
        <ele>56.3</ele>
        <time>2017-04-09T09:13:52Z</time>
      </trkpt>
      <trkpt lat="49.28447" lon="1.12702">
        <ele>56.5</ele>
        <time>2017-04-09T09:13:54Z</time>
      </trkpt>
      <trkpt lat="49.28444" lon="1.12688">
        <ele>56.8</ele>
        <time>2017-04-09T09:13:56Z</time>
      </trkpt>
      <trkpt lat="49.28441" lon="1.12673">
        <ele>57</ele>
        <time>2017-04-09T09:13:58Z</time>
      </trkpt>
      <trkpt lat="49.28438" lon="1.12659">
        <ele>57.2</ele>
        <time>2017-04-09T09:14:00Z</time>
      </trkpt>
      <trkpt lat="49.28434" lon="1.12642">
        <ele>57.4</ele>
        <time>2017-04-09T09:14:03Z</time>
      </trkpt>
      <trkpt lat="49.28429" lon="1.12621">
        <ele>57.6</ele>
        <time>2017-04-09T09:14:06Z</time>
      </trkpt>
      <trkpt lat="49.28426" lon="1.12605">
        <ele>57.8</ele>
        <time>2017-04-09T09:14:08Z</time>
      </trkpt>
      <trkpt lat="49.28423" lon="1.12588">
        <ele>57.9</ele>
        <time>2017-04-09T09:14:10Z</time>
      </trkpt>
      <trkpt lat="49.28419" lon="1.12574">
        <ele>58</ele>
        <time>2017-04-09T09:14:12Z</time>
      </trkpt>
      <trkpt lat="49.28415" lon="1.12554">
        <ele>58.2</ele>
        <time>2017-04-09T09:14:15Z</time>
      </trkpt>
      <trkpt lat="49.28413" lon="1.1254">
        <ele>58.4</ele>
        <time>2017-04-09T09:14:17Z</time>
      </trkpt>
      <trkpt lat="49.2841" lon="1.12525">
        <ele>58.5</ele>
        <time>2017-04-09T09:14:19Z</time>
      </trkpt>
      <trkpt lat="49.28407" lon="1.1251">
        <ele>58.6</ele>
        <time>2017-04-09T09:14:21Z</time>
      </trkpt>
      <trkpt lat="49.28406" lon="1.12494">
        <ele>58.7</ele>
        <time>2017-04-09T09:14:23Z</time>
      </trkpt>
      <trkpt lat="49.28405" lon="1.12478">
        <ele>58.8</ele>
        <time>2017-04-09T09:14:25Z</time>
      </trkpt>
      <trkpt lat="49.28405" lon="1.12462">
        <ele>58.9</ele>
        <time>2017-04-09T09:14:27Z</time>
      </trkpt>
      <trkpt lat="49.28406" lon="1.12445">
        <ele>59</ele>
        <time>2017-04-09T09:14:29Z</time>
      </trkpt>
      <trkpt lat="49.28407" lon="1.12428">
        <ele>59.1</ele>
        <time>2017-04-09T09:14:31Z</time>
      </trkpt>
      <trkpt lat="49.28409" lon="1.12411">
        <ele>59.1</ele>
        <time>2017-04-09T09:14:33Z</time>
      </trkpt>
      <trkpt lat="49.2841" lon="1.12395">
        <ele>59.2</ele>
        <time>2017-04-09T09:14:35Z</time>
      </trkpt>
      <trkpt lat="49.28411" lon="1.12378">
        <ele>59.3</ele>
        <time>2017-04-09T09:14:37Z</time>
      </trkpt>
      <trkpt lat="49.28412" lon="1.1236">
        <ele>59.3</ele>
        <time>2017-04-09T09:14:39Z</time>
      </trkpt>
      <trkpt lat="49.28414" lon="1.12343">
        <ele>59.3</ele>
        <time>2017-04-09T09:14:41Z</time>
      </trkpt>
      <trkpt lat="49.28415" lon="1.12324">
        <ele>59.4</ele>
        <time>2017-04-09T09:14:43Z</time>
      </trkpt>
      <trkpt lat="49.28417" lon="1.12305">
        <ele>59.4</ele>
        <time>2017-04-09T09:14:45Z</time>
      </trkpt>
      <trkpt lat="49.28419" lon="1.12286">
        <ele>59.4</ele>
        <time>2017-04-09T09:14:47Z</time>
      </trkpt>
      <trkpt lat="49.2842" lon="1.12267">
        <ele>59.4</ele>
        <time>2017-04-09T09:14:49Z</time>
      </trkpt>
      <trkpt lat="49.28421" lon="1.12247">
        <ele>59.3</ele>
        <time>2017-04-09T09:14:51Z</time>
      </trkpt>
      <trkpt lat="49.28423" lon="1.12226">
        <ele>59.2</ele>
        <time>2017-04-09T09:14:53Z</time>
      </trkpt>
      <trkpt lat="49.28425" lon="1.12206">
        <ele>59.1</ele>
        <time>2017-04-09T09:14:55Z</time>
      </trkpt>
      <trkpt lat="49.28426" lon="1.12185">
        <ele>58.9</ele>
        <time>2017-04-09T09:14:57Z</time>
      </trkpt>
      <trkpt lat="49.28428" lon="1.12165">
        <ele>58.6</ele>
        <time>2017-04-09T09:14:59Z</time>
      </trkpt>
      <trkpt lat="49.2843" lon="1.12146">
        <ele>58.4</ele>
        <time>2017-04-09T09:15:01Z</time>
      </trkpt>
      <trkpt lat="49.28431" lon="1.12131">
        <ele>58.1</ele>
        <time>2017-04-09T09:15:03Z</time>
      </trkpt>
      <trkpt lat="49.28433" lon="1.12115">
        <ele>57.6</ele>
        <time>2017-04-09T09:15:06Z</time>
      </trkpt>
      <trkpt lat="49.28434" lon="1.12096">
        <ele>57.1</ele>
        <time>2017-04-09T09:15:09Z</time>
      </trkpt>
      <trkpt lat="49.28435" lon="1.12079">
        <ele>56.8</ele>
        <time>2017-04-09T09:15:11Z</time>
      </trkpt>
      <trkpt lat="49.28437" lon="1.12062">
        <ele>56.4</ele>
        <time>2017-04-09T09:15:13Z</time>
      </trkpt>
      <trkpt lat="49.28439" lon="1.12045">
        <ele>56.1</ele>
        <time>2017-04-09T09:15:15Z</time>
      </trkpt>
      <trkpt lat="49.2844" lon="1.12025">
        <ele>55.7</ele>
        <time>2017-04-09T09:15:17Z</time>
      </trkpt>
      <trkpt lat="49.28442" lon="1.12003">
        <ele>55.3</ele>
        <time>2017-04-09T09:15:19Z</time>
      </trkpt>
      <trkpt lat="49.28444" lon="1.11983">
        <ele>54.8</ele>
        <time>2017-04-09T09:15:21Z</time>
      </trkpt>
      <trkpt lat="49.28445" lon="1.11962">
        <ele>54.4</ele>
        <time>2017-04-09T09:15:23Z</time>
      </trkpt>
      <trkpt lat="49.28446" lon="1.11943">
        <ele>54</ele>
        <time>2017-04-09T09:15:25Z</time>
      </trkpt>
      <trkpt lat="49.28448" lon="1.11926">
        <ele>53.7</ele>
        <time>2017-04-09T09:15:27Z</time>
      </trkpt>
      <trkpt lat="49.28449" lon="1.1191">
        <ele>53.4</ele>
        <time>2017-04-09T09:15:29Z</time>
      </trkpt>
      <trkpt lat="49.28449" lon="1.11895">
        <ele>53.1</ele>
        <time>2017-04-09T09:15:31Z</time>
      </trkpt>
      <trkpt lat="49.2845" lon="1.11875">
        <ele>52.7</ele>
        <time>2017-04-09T09:15:34Z</time>
      </trkpt>
      <trkpt lat="49.28452" lon="1.11856">
        <ele>52.5</ele>
        <time>2017-04-09T09:15:37Z</time>
      </trkpt>
      <trkpt lat="49.28453" lon="1.11842">
        <ele>52.3</ele>
        <time>2017-04-09T09:15:39Z</time>
      </trkpt>
      <trkpt lat="49.28455" lon="1.11827">
        <ele>52.2</ele>
        <time>2017-04-09T09:15:41Z</time>
      </trkpt>
      <trkpt lat="49.28456" lon="1.1181">
        <ele>52.2</ele>
        <time>2017-04-09T09:15:43Z</time>
      </trkpt>
      <trkpt lat="49.28457" lon="1.11794">
        <ele>52.3</ele>
        <time>2017-04-09T09:15:45Z</time>
      </trkpt>
      <trkpt lat="49.28459" lon="1.11778">
        <ele>52.4</ele>
        <time>2017-04-09T09:15:47Z</time>
      </trkpt>
      <trkpt lat="49.2846" lon="1.11762">
        <ele>52.4</ele>
        <time>2017-04-09T09:15:49Z</time>
      </trkpt>
      <trkpt lat="49.28462" lon="1.11745">
        <ele>52.5</ele>
        <time>2017-04-09T09:15:51Z</time>
      </trkpt>
      <trkpt lat="49.28464" lon="1.11728">
        <ele>52.6</ele>
        <time>2017-04-09T09:15:53Z</time>
      </trkpt>
      <trkpt lat="49.28465" lon="1.1171">
        <ele>52.6</ele>
        <time>2017-04-09T09:15:55Z</time>
      </trkpt>
      <trkpt lat="49.28466" lon="1.11692">
        <ele>52.7</ele>
        <time>2017-04-09T09:15:57Z</time>
      </trkpt>
      <trkpt lat="49.28467" lon="1.11674">
        <ele>52.8</ele>
        <time>2017-04-09T09:15:59Z</time>
      </trkpt>
      <trkpt lat="49.28469" lon="1.11657">
        <ele>53</ele>
        <time>2017-04-09T09:16:01Z</time>
      </trkpt>
      <trkpt lat="49.28471" lon="1.11641">
        <ele>53.1</ele>
        <time>2017-04-09T09:16:03Z</time>
      </trkpt>
      <trkpt lat="49.28473" lon="1.11625">
        <ele>53.2</ele>
        <time>2017-04-09T09:16:05Z</time>
      </trkpt>
      <trkpt lat="49.28474" lon="1.11609">
        <ele>53.2</ele>
        <time>2017-04-09T09:16:07Z</time>
      </trkpt>
      <trkpt lat="49.28475" lon="1.11592">
        <ele>53.3</ele>
        <time>2017-04-09T09:16:09Z</time>
      </trkpt>
      <trkpt lat="49.28476" lon="1.11575">
        <ele>53.4</ele>
        <time>2017-04-09T09:16:11Z</time>
      </trkpt>
      <trkpt lat="49.28477" lon="1.11558">
        <ele>53.4</ele>
        <time>2017-04-09T09:16:13Z</time>
      </trkpt>
      <trkpt lat="49.28479" lon="1.11541">
        <ele>53.5</ele>
        <time>2017-04-09T09:16:15Z</time>
      </trkpt>
      <trkpt lat="49.28481" lon="1.11525">
        <ele>53.5</ele>
        <time>2017-04-09T09:16:17Z</time>
      </trkpt>
      <trkpt lat="49.28482" lon="1.11507">
        <ele>53.5</ele>
        <time>2017-04-09T09:16:19Z</time>
      </trkpt>
      <trkpt lat="49.28484" lon="1.1149">
        <ele>53.6</ele>
        <time>2017-04-09T09:16:21Z</time>
      </trkpt>
      <trkpt lat="49.28485" lon="1.11472">
        <ele>53.6</ele>
        <time>2017-04-09T09:16:23Z</time>
      </trkpt>
      <trkpt lat="49.28486" lon="1.11455">
        <ele>53.6</ele>
        <time>2017-04-09T09:16:25Z</time>
      </trkpt>
      <trkpt lat="49.28488" lon="1.11439">
        <ele>53.7</ele>
        <time>2017-04-09T09:16:27Z</time>
      </trkpt>
      <trkpt lat="49.28489" lon="1.11422">
        <ele>53.7</ele>
        <time>2017-04-09T09:16:29Z</time>
      </trkpt>
      <trkpt lat="49.28491" lon="1.11405">
        <ele>53.8</ele>
        <time>2017-04-09T09:16:31Z</time>
      </trkpt>
      <trkpt lat="49.28492" lon="1.11385">
        <ele>53.8</ele>
        <time>2017-04-09T09:16:33Z</time>
      </trkpt>
      <trkpt lat="49.28494" lon="1.11367">
        <ele>53.8</ele>
        <time>2017-04-09T09:16:35Z</time>
      </trkpt>
      <trkpt lat="49.28497" lon="1.11347">
        <ele>53.9</ele>
        <time>2017-04-09T09:16:37Z</time>
      </trkpt>
      <trkpt lat="49.28498" lon="1.11331">
        <ele>53.9</ele>
        <time>2017-04-09T09:16:39Z</time>
      </trkpt>
      <trkpt lat="49.28499" lon="1.11316">
        <ele>53.9</ele>
        <time>2017-04-09T09:16:41Z</time>
      </trkpt>
      <trkpt lat="49.28501" lon="1.11299">
        <ele>54</ele>
        <time>2017-04-09T09:16:43Z</time>
      </trkpt>
      <trkpt lat="49.28502" lon="1.11281">
        <ele>54.1</ele>
        <time>2017-04-09T09:16:45Z</time>
      </trkpt>
      <trkpt lat="49.28503" lon="1.11263">
        <ele>54.1</ele>
        <time>2017-04-09T09:16:47Z</time>
      </trkpt>
      <trkpt lat="49.28504" lon="1.11246">
        <ele>54.2</ele>
        <time>2017-04-09T09:16:49Z</time>
      </trkpt>
      <trkpt lat="49.28506" lon="1.11229">
        <ele>54.2</ele>
        <time>2017-04-09T09:16:51Z</time>
      </trkpt>
      <trkpt lat="49.28507" lon="1.11211">
        <ele>54.3</ele>
        <time>2017-04-09T09:16:53Z</time>
      </trkpt>
      <trkpt lat="49.28509" lon="1.11195">
        <ele>54.4</ele>
        <time>2017-04-09T09:16:55Z</time>
      </trkpt>
      <trkpt lat="49.2851" lon="1.11177">
        <ele>54.4</ele>
        <time>2017-04-09T09:16:57Z</time>
      </trkpt>
      <trkpt lat="49.28512" lon="1.11158">
        <ele>54.5</ele>
        <time>2017-04-09T09:16:59Z</time>
      </trkpt>
      <trkpt lat="49.28514" lon="1.1114">
        <ele>54.6</ele>
        <time>2017-04-09T09:17:01Z</time>
      </trkpt>
      <trkpt lat="49.28515" lon="1.11123">
        <ele>54.6</ele>
        <time>2017-04-09T09:17:03Z</time>
      </trkpt>
      <trkpt lat="49.28516" lon="1.11105">
        <ele>54.7</ele>
        <time>2017-04-09T09:17:05Z</time>
      </trkpt>
      <trkpt lat="49.28518" lon="1.11089">
        <ele>54.7</ele>
        <time>2017-04-09T09:17:07Z</time>
      </trkpt>
      <trkpt lat="49.28519" lon="1.11072">
        <ele>54.7</ele>
        <time>2017-04-09T09:17:09Z</time>
      </trkpt>
      <trkpt lat="49.2852" lon="1.11056">
        <ele>54.8</ele>
        <time>2017-04-09T09:17:11Z</time>
      </trkpt>
      <trkpt lat="49.28522" lon="1.1104">
        <ele>54.8</ele>
        <time>2017-04-09T09:17:13Z</time>
      </trkpt>
      <trkpt lat="49.28523" lon="1.11023">
        <ele>54.9</ele>
        <time>2017-04-09T09:17:15Z</time>
      </trkpt>
      <trkpt lat="49.28525" lon="1.11007">
        <ele>54.9</ele>
        <time>2017-04-09T09:17:17Z</time>
      </trkpt>
      <trkpt lat="49.28526" lon="1.10993">
        <ele>55</ele>
        <time>2017-04-09T09:17:19Z</time>
      </trkpt>
      <trkpt lat="49.28527" lon="1.10973">
        <ele>55.1</ele>
        <time>2017-04-09T09:17:22Z</time>
      </trkpt>
      <trkpt lat="49.28529" lon="1.10954">
        <ele>55.1</ele>
        <time>2017-04-09T09:17:25Z</time>
      </trkpt>
      <trkpt lat="49.28531" lon="1.10934">
        <ele>55.2</ele>
        <time>2017-04-09T09:17:28Z</time>
      </trkpt>
      <trkpt lat="49.28532" lon="1.1092">
        <ele>55.2</ele>
        <time>2017-04-09T09:17:30Z</time>
      </trkpt>
      <trkpt lat="49.28534" lon="1.10905">
        <ele>55.3</ele>
        <time>2017-04-09T09:17:32Z</time>
      </trkpt>
      <trkpt lat="49.28535" lon="1.10889">
        <ele>55.3</ele>
        <time>2017-04-09T09:17:34Z</time>
      </trkpt>
      <trkpt lat="49.28536" lon="1.10874">
        <ele>55.3</ele>
        <time>2017-04-09T09:17:36Z</time>
      </trkpt>
      <trkpt lat="49.28537" lon="1.10857">
        <ele>55.3</ele>
        <time>2017-04-09T09:17:38Z</time>
      </trkpt>
      <trkpt lat="49.28539" lon="1.10841">
        <ele>55.2</ele>
        <time>2017-04-09T09:17:40Z</time>
      </trkpt>
      <trkpt lat="49.2854" lon="1.10825">
        <ele>55.1</ele>
        <time>2017-04-09T09:17:42Z</time>
      </trkpt>
      <trkpt lat="49.28541" lon="1.1081">
        <ele>55</ele>
        <time>2017-04-09T09:17:44Z</time>
      </trkpt>
      <trkpt lat="49.28542" lon="1.10796">
        <ele>55</ele>
        <time>2017-04-09T09:17:46Z</time>
      </trkpt>
      <trkpt lat="49.28543" lon="1.10779">
        <ele>54.8</ele>
        <time>2017-04-09T09:17:49Z</time>
      </trkpt>
      <trkpt lat="49.28545" lon="1.10763">
        <ele>54.7</ele>
        <time>2017-04-09T09:17:52Z</time>
      </trkpt>
      <trkpt lat="49.28546" lon="1.10746">
        <ele>54.4</ele>
        <time>2017-04-09T09:17:56Z</time>
      </trkpt>
      <trkpt lat="49.28547" lon="1.10731">
        <ele>54.2</ele>
        <time>2017-04-09T09:17:59Z</time>
      </trkpt>
      <trkpt lat="49.28549" lon="1.10715">
        <ele>54</ele>
        <time>2017-04-09T09:18:03Z</time>
      </trkpt>
      <trkpt lat="49.2855" lon="1.10698">
        <ele>53.9</ele>
        <time>2017-04-09T09:18:07Z</time>
      </trkpt>
      <trkpt lat="49.28552" lon="1.10681">
        <ele>53.7</ele>
        <time>2017-04-09T09:18:11Z</time>
      </trkpt>
      <trkpt lat="49.28552" lon="1.10665">
        <ele>53.6</ele>
        <time>2017-04-09T09:18:15Z</time>
      </trkpt>
      <trkpt lat="49.28545" lon="1.10651">
        <ele>53.4</ele>
        <time>2017-04-09T09:18:19Z</time>
      </trkpt>
      <trkpt lat="49.28538" lon="1.10641">
        <ele>53.3</ele>
        <time>2017-04-09T09:18:22Z</time>
      </trkpt>
      <trkpt lat="49.28529" lon="1.1063">
        <ele>53.2</ele>
        <time>2017-04-09T09:18:25Z</time>
      </trkpt>
      <trkpt lat="49.28519" lon="1.10619">
        <ele>53.1</ele>
        <time>2017-04-09T09:18:28Z</time>
      </trkpt>
      <trkpt lat="49.28512" lon="1.10609">
        <ele>53.1</ele>
        <time>2017-04-09T09:18:30Z</time>
      </trkpt>
      <trkpt lat="49.28502" lon="1.10597">
        <ele>53</ele>
        <time>2017-04-09T09:18:33Z</time>
      </trkpt>
      <trkpt lat="49.28496" lon="1.10587">
        <ele>53.1</ele>
        <time>2017-04-09T09:18:35Z</time>
      </trkpt>
      <trkpt lat="49.28486" lon="1.10574">
        <ele>53.2</ele>
        <time>2017-04-09T09:18:38Z</time>
      </trkpt>
      <trkpt lat="49.28479" lon="1.10565">
        <ele>53.3</ele>
        <time>2017-04-09T09:18:40Z</time>
      </trkpt>
      <trkpt lat="49.28472" lon="1.10556">
        <ele>53.4</ele>
        <time>2017-04-09T09:18:42Z</time>
      </trkpt>
      <trkpt lat="49.28462" lon="1.10543">
        <ele>53.6</ele>
        <time>2017-04-09T09:18:45Z</time>
      </trkpt>
      <trkpt lat="49.28455" lon="1.10536">
        <ele>53.7</ele>
        <time>2017-04-09T09:18:47Z</time>
      </trkpt>
      <trkpt lat="49.28447" lon="1.10527">
        <ele>53.9</ele>
        <time>2017-04-09T09:18:49Z</time>
      </trkpt>
      <trkpt lat="49.2844" lon="1.10517">
        <ele>54</ele>
        <time>2017-04-09T09:18:51Z</time>
      </trkpt>
      <trkpt lat="49.28432" lon="1.10507">
        <ele>54.1</ele>
        <time>2017-04-09T09:18:53Z</time>
      </trkpt>
      <trkpt lat="49.28425" lon="1.10497">
        <ele>54.3</ele>
        <time>2017-04-09T09:18:55Z</time>
      </trkpt>
      <trkpt lat="49.28415" lon="1.10483">
        <ele>54.6</ele>
        <time>2017-04-09T09:18:58Z</time>
      </trkpt>
      <trkpt lat="49.28405" lon="1.1047">
        <ele>55</ele>
        <time>2017-04-09T09:19:01Z</time>
      </trkpt>
      <trkpt lat="49.28395" lon="1.10459">
        <ele>55.3</ele>
        <time>2017-04-09T09:19:04Z</time>
      </trkpt>
      <trkpt lat="49.28385" lon="1.10444">
        <ele>55.6</ele>
        <time>2017-04-09T09:19:07Z</time>
      </trkpt>
      <trkpt lat="49.28375" lon="1.10432">
        <ele>55.9</ele>
        <time>2017-04-09T09:19:10Z</time>
      </trkpt>
      <trkpt lat="49.28368" lon="1.10422">
        <ele>56</ele>
        <time>2017-04-09T09:19:12Z</time>
      </trkpt>
      <trkpt lat="49.28361" lon="1.10413">
        <ele>56.3</ele>
        <time>2017-04-09T09:19:14Z</time>
      </trkpt>
      <trkpt lat="49.28351" lon="1.10399">
        <ele>56.7</ele>
        <time>2017-04-09T09:19:17Z</time>
      </trkpt>
      <trkpt lat="49.28342" lon="1.10387">
        <ele>57.1</ele>
        <time>2017-04-09T09:19:20Z</time>
      </trkpt>
      <trkpt lat="49.28334" lon="1.10375">
        <ele>57.5</ele>
        <time>2017-04-09T09:19:23Z</time>
      </trkpt>
      <trkpt lat="49.28325" lon="1.10363">
        <ele>57.9</ele>
        <time>2017-04-09T09:19:26Z</time>
      </trkpt>
      <trkpt lat="49.28316" lon="1.10351">
        <ele>58.3</ele>
        <time>2017-04-09T09:19:29Z</time>
      </trkpt>
      <trkpt lat="49.28307" lon="1.10337">
        <ele>58.7</ele>
        <time>2017-04-09T09:19:32Z</time>
      </trkpt>
      <trkpt lat="49.28297" lon="1.10324">
        <ele>59</ele>
        <time>2017-04-09T09:19:35Z</time>
      </trkpt>
      <trkpt lat="49.2829" lon="1.10315">
        <ele>59.2</ele>
        <time>2017-04-09T09:19:37Z</time>
      </trkpt>
      <trkpt lat="49.28283" lon="1.10306">
        <ele>59.4</ele>
        <time>2017-04-09T09:19:39Z</time>
      </trkpt>
      <trkpt lat="49.28276" lon="1.10297">
        <ele>59.6</ele>
        <time>2017-04-09T09:19:41Z</time>
      </trkpt>
      <trkpt lat="49.28266" lon="1.10284">
        <ele>59.9</ele>
        <time>2017-04-09T09:19:44Z</time>
      </trkpt>
      <trkpt lat="49.28259" lon="1.10274">
        <ele>60.1</ele>
        <time>2017-04-09T09:19:46Z</time>
      </trkpt>
      <trkpt lat="49.28252" lon="1.10262">
        <ele>60.4</ele>
        <time>2017-04-09T09:19:49Z</time>
      </trkpt>
      <trkpt lat="49.28245" lon="1.10254">
        <ele>60.6</ele>
        <time>2017-04-09T09:19:51Z</time>
      </trkpt>
      <trkpt lat="49.28236" lon="1.10244">
        <ele>60.7</ele>
        <time>2017-04-09T09:19:53Z</time>
      </trkpt>
      <trkpt lat="49.28229" lon="1.10235">
        <ele>60.9</ele>
        <time>2017-04-09T09:19:55Z</time>
      </trkpt>
      <trkpt lat="49.28221" lon="1.10227">
        <ele>61</ele>
        <time>2017-04-09T09:19:57Z</time>
      </trkpt>
      <trkpt lat="49.28213" lon="1.10217">
        <ele>61.2</ele>
        <time>2017-04-09T09:19:59Z</time>
      </trkpt>
      <trkpt lat="49.28205" lon="1.10206">
        <ele>61.3</ele>
        <time>2017-04-09T09:20:01Z</time>
      </trkpt>
      <trkpt lat="49.28197" lon="1.10197">
        <ele>61.4</ele>
        <time>2017-04-09T09:20:03Z</time>
      </trkpt>
      <trkpt lat="49.28189" lon="1.10188">
        <ele>61.5</ele>
        <time>2017-04-09T09:20:05Z</time>
      </trkpt>
      <trkpt lat="49.28182" lon="1.10179">
        <ele>61.6</ele>
        <time>2017-04-09T09:20:07Z</time>
      </trkpt>
      <trkpt lat="49.28171" lon="1.10166">
        <ele>61.7</ele>
        <time>2017-04-09T09:20:10Z</time>
      </trkpt>
      <trkpt lat="49.28164" lon="1.10158">
        <ele>61.8</ele>
        <time>2017-04-09T09:20:12Z</time>
      </trkpt>
      <trkpt lat="49.28158" lon="1.10149">
        <ele>61.9</ele>
        <time>2017-04-09T09:20:14Z</time>
      </trkpt>
      <trkpt lat="49.28151" lon="1.10138">
        <ele>62.2</ele>
        <time>2017-04-09T09:20:17Z</time>
      </trkpt>
      <trkpt lat="49.28157" lon="1.10122">
        <ele>62.5</ele>
        <time>2017-04-09T09:20:22Z</time>
      </trkpt>
      <trkpt lat="49.28163" lon="1.10111">
        <ele>62.6</ele>
        <time>2017-04-09T09:20:24Z</time>
      </trkpt>
      <trkpt lat="49.2817" lon="1.10097">
        <ele>62.7</ele>
        <time>2017-04-09T09:20:26Z</time>
      </trkpt>
      <trkpt lat="49.28177" lon="1.10084">
        <ele>62.8</ele>
        <time>2017-04-09T09:20:28Z</time>
      </trkpt>
      <trkpt lat="49.28185" lon="1.1007">
        <ele>62.7</ele>
        <time>2017-04-09T09:20:30Z</time>
      </trkpt>
      <trkpt lat="49.28193" lon="1.10054">
        <ele>62.6</ele>
        <time>2017-04-09T09:20:32Z</time>
      </trkpt>
      <trkpt lat="49.282" lon="1.10037">
        <ele>62.5</ele>
        <time>2017-04-09T09:20:34Z</time>
      </trkpt>
      <trkpt lat="49.28208" lon="1.10022">
        <ele>62.2</ele>
        <time>2017-04-09T09:20:36Z</time>
      </trkpt>
      <trkpt lat="49.28207" lon="1.10003">
        <ele>61.7</ele>
        <time>2017-04-09T09:20:39Z</time>
      </trkpt>
      <trkpt lat="49.28204" lon="1.09981">
        <ele>61.2</ele>
        <time>2017-04-09T09:20:42Z</time>
      </trkpt>
      <trkpt lat="49.28201" lon="1.09963">
        <ele>61</ele>
        <time>2017-04-09T09:20:44Z</time>
      </trkpt>
      <trkpt lat="49.28198" lon="1.09947">
        <ele>60.8</ele>
        <time>2017-04-09T09:20:46Z</time>
      </trkpt>
      <trkpt lat="49.28194" lon="1.09928">
        <ele>60.5</ele>
        <time>2017-04-09T09:20:48Z</time>
      </trkpt>
      <trkpt lat="49.28191" lon="1.0991">
        <ele>60.3</ele>
        <time>2017-04-09T09:20:50Z</time>
      </trkpt>
      <trkpt lat="49.28187" lon="1.09894">
        <ele>60.2</ele>
        <time>2017-04-09T09:20:52Z</time>
      </trkpt>
      <trkpt lat="49.28181" lon="1.09874">
        <ele>59.9</ele>
        <time>2017-04-09T09:20:55Z</time>
      </trkpt>
      <trkpt lat="49.28177" lon="1.09857">
        <ele>59.8</ele>
        <time>2017-04-09T09:20:57Z</time>
      </trkpt>
      <trkpt lat="49.28173" lon="1.09839">
        <ele>59.6</ele>
        <time>2017-04-09T09:20:59Z</time>
      </trkpt>
      <trkpt lat="49.28171" lon="1.09824">
        <ele>59.5</ele>
        <time>2017-04-09T09:21:01Z</time>
      </trkpt>
      <trkpt lat="49.28167" lon="1.09808">
        <ele>59.2</ele>
        <time>2017-04-09T09:21:03Z</time>
      </trkpt>
      <trkpt lat="49.28164" lon="1.09793">
        <ele>58.9</ele>
        <time>2017-04-09T09:21:05Z</time>
      </trkpt>
      <trkpt lat="49.28163" lon="1.09776">
        <ele>58.7</ele>
        <time>2017-04-09T09:21:07Z</time>
      </trkpt>
      <trkpt lat="49.2816" lon="1.09757">
        <ele>58.5</ele>
        <time>2017-04-09T09:21:09Z</time>
      </trkpt>
      <trkpt lat="49.28153" lon="1.09739">
        <ele>58.3</ele>
        <time>2017-04-09T09:21:11Z</time>
      </trkpt>
      <trkpt lat="49.28145" lon="1.09726">
        <ele>58.1</ele>
        <time>2017-04-09T09:21:13Z</time>
      </trkpt>
      <trkpt lat="49.28138" lon="1.09714">
        <ele>58</ele>
        <time>2017-04-09T09:21:15Z</time>
      </trkpt>
      <trkpt lat="49.28131" lon="1.09702">
        <ele>57.8</ele>
        <time>2017-04-09T09:21:17Z</time>
      </trkpt>
      <trkpt lat="49.28123" lon="1.0969">
        <ele>57.7</ele>
        <time>2017-04-09T09:21:19Z</time>
      </trkpt>
      <trkpt lat="49.28116" lon="1.09679">
        <ele>57.7</ele>
        <time>2017-04-09T09:21:21Z</time>
      </trkpt>
      <trkpt lat="49.28108" lon="1.09667">
        <ele>57.7</ele>
        <time>2017-04-09T09:21:23Z</time>
      </trkpt>
      <trkpt lat="49.28099" lon="1.09655">
        <ele>57.7</ele>
        <time>2017-04-09T09:21:25Z</time>
      </trkpt>
      <trkpt lat="49.28091" lon="1.09644">
        <ele>57.8</ele>
        <time>2017-04-09T09:21:27Z</time>
      </trkpt>
      <trkpt lat="49.28084" lon="1.09632">
        <ele>57.9</ele>
        <time>2017-04-09T09:21:29Z</time>
      </trkpt>
      <trkpt lat="49.28076" lon="1.0962">
        <ele>58</ele>
        <time>2017-04-09T09:21:31Z</time>
      </trkpt>
      <trkpt lat="49.28068" lon="1.0961">
        <ele>58.1</ele>
        <time>2017-04-09T09:21:33Z</time>
      </trkpt>
      <trkpt lat="49.28061" lon="1.096">
        <ele>58.1</ele>
        <time>2017-04-09T09:21:35Z</time>
      </trkpt>
      <trkpt lat="49.28054" lon="1.09591">
        <ele>58.2</ele>
        <time>2017-04-09T09:21:37Z</time>
      </trkpt>
      <trkpt lat="49.28046" lon="1.09581">
        <ele>58.3</ele>
        <time>2017-04-09T09:21:39Z</time>
      </trkpt>
      <trkpt lat="49.28045" lon="1.09567">
        <ele>58.3</ele>
        <time>2017-04-09T09:21:42Z</time>
      </trkpt>
      <trkpt lat="49.2804" lon="1.09554">
        <ele>58.5</ele>
        <time>2017-04-09T09:21:46Z</time>
      </trkpt>
      <trkpt lat="49.28031" lon="1.09548">
        <ele>58.5</ele>
        <time>2017-04-09T09:21:48Z</time>
      </trkpt>
      <trkpt lat="49.28018" lon="1.09539">
        <ele>58.6</ele>
        <time>2017-04-09T09:21:51Z</time>
      </trkpt>
      <trkpt lat="49.28009" lon="1.09533">
        <ele>58.6</ele>
        <time>2017-04-09T09:21:53Z</time>
      </trkpt>
      <trkpt lat="49.28" lon="1.09525">
        <ele>58.6</ele>
        <time>2017-04-09T09:21:55Z</time>
      </trkpt>
      <trkpt lat="49.27991" lon="1.09519">
        <ele>58.7</ele>
        <time>2017-04-09T09:21:57Z</time>
      </trkpt>
      <trkpt lat="49.27982" lon="1.09514">
        <ele>58.7</ele>
        <time>2017-04-09T09:21:59Z</time>
      </trkpt>
      <trkpt lat="49.27973" lon="1.09508">
        <ele>58.7</ele>
        <time>2017-04-09T09:22:01Z</time>
      </trkpt>
      <trkpt lat="49.27964" lon="1.09502">
        <ele>58.7</ele>
        <time>2017-04-09T09:22:03Z</time>
      </trkpt>
      <trkpt lat="49.27955" lon="1.09489">
        <ele>58.7</ele>
        <time>2017-04-09T09:22:06Z</time>
      </trkpt>
      <trkpt lat="49.27945" lon="1.0948">
        <ele>58.8</ele>
        <time>2017-04-09T09:22:09Z</time>
      </trkpt>
      <trkpt lat="49.27937" lon="1.09474">
        <ele>58.8</ele>
        <time>2017-04-09T09:22:11Z</time>
      </trkpt>
      <trkpt lat="49.27926" lon="1.09464">
        <ele>58.9</ele>
        <time>2017-04-09T09:22:14Z</time>
      </trkpt>
      <trkpt lat="49.2792" lon="1.09448">
        <ele>58.9</ele>
        <time>2017-04-09T09:22:17Z</time>
      </trkpt>
      <trkpt lat="49.27921" lon="1.09434">
        <ele>58.9</ele>
        <time>2017-04-09T09:22:19Z</time>
      </trkpt>
      <trkpt lat="49.27922" lon="1.09419">
        <ele>58.8</ele>
        <time>2017-04-09T09:22:21Z</time>
      </trkpt>
      <trkpt lat="49.27924" lon="1.09402">
        <ele>58.6</ele>
        <time>2017-04-09T09:22:23Z</time>
      </trkpt>
      <trkpt lat="49.27925" lon="1.09384">
        <ele>58.6</ele>
        <time>2017-04-09T09:22:25Z</time>
      </trkpt>
      <trkpt lat="49.27926" lon="1.09366">
        <ele>58.5</ele>
        <time>2017-04-09T09:22:27Z</time>
      </trkpt>
      <trkpt lat="49.27922" lon="1.09351">
        <ele>58.4</ele>
        <time>2017-04-09T09:22:29Z</time>
      </trkpt>
      <trkpt lat="49.27914" lon="1.09337">
        <ele>58.2</ele>
        <time>2017-04-09T09:22:31Z</time>
      </trkpt>
      <trkpt lat="49.27905" lon="1.09323">
        <ele>58</ele>
        <time>2017-04-09T09:22:33Z</time>
      </trkpt>
      <trkpt lat="49.27895" lon="1.09314">
        <ele>57.7</ele>
        <time>2017-04-09T09:22:35Z</time>
      </trkpt>
      <trkpt lat="49.27886" lon="1.09306">
        <ele>57.5</ele>
        <time>2017-04-09T09:22:37Z</time>
      </trkpt>
      <trkpt lat="49.27878" lon="1.09295">
        <ele>57.3</ele>
        <time>2017-04-09T09:22:39Z</time>
      </trkpt>
      <trkpt lat="49.27869" lon="1.09282">
        <ele>57</ele>
        <time>2017-04-09T09:22:41Z</time>
      </trkpt>
      <trkpt lat="49.2786" lon="1.09269">
        <ele>56.8</ele>
        <time>2017-04-09T09:22:43Z</time>
      </trkpt>
      <trkpt lat="49.27851" lon="1.09257">
        <ele>56.6</ele>
        <time>2017-04-09T09:22:45Z</time>
      </trkpt>
      <trkpt lat="49.27843" lon="1.09247">
        <ele>56.4</ele>
        <time>2017-04-09T09:22:47Z</time>
      </trkpt>
      <trkpt lat="49.27834" lon="1.09237">
        <ele>56.3</ele>
        <time>2017-04-09T09:22:49Z</time>
      </trkpt>
      <trkpt lat="49.27825" lon="1.09228">
        <ele>56.2</ele>
        <time>2017-04-09T09:22:51Z</time>
      </trkpt>
      <trkpt lat="49.27816" lon="1.09217">
        <ele>56</ele>
        <time>2017-04-09T09:22:53Z</time>
      </trkpt>
      <trkpt lat="49.27807" lon="1.09208">
        <ele>55.9</ele>
        <time>2017-04-09T09:22:55Z</time>
      </trkpt>
      <trkpt lat="49.27797" lon="1.09193">
        <ele>55.8</ele>
        <time>2017-04-09T09:22:57Z</time>
      </trkpt>
      <trkpt lat="49.27787" lon="1.09181">
        <ele>55.8</ele>
        <time>2017-04-09T09:22:59Z</time>
      </trkpt>
      <trkpt lat="49.27778" lon="1.09172">
        <ele>55.7</ele>
        <time>2017-04-09T09:23:01Z</time>
      </trkpt>
      <trkpt lat="49.27768" lon="1.09157">
        <ele>55.6</ele>
        <time>2017-04-09T09:23:03Z</time>
      </trkpt>
      <trkpt lat="49.27757" lon="1.09143">
        <ele>55.7</ele>
        <time>2017-04-09T09:23:05Z</time>
      </trkpt>
      <trkpt lat="49.27748" lon="1.09131">
        <ele>55.7</ele>
        <time>2017-04-09T09:23:07Z</time>
      </trkpt>
      <trkpt lat="49.27739" lon="1.09119">
        <ele>55.8</ele>
        <time>2017-04-09T09:23:09Z</time>
      </trkpt>
      <trkpt lat="49.27731" lon="1.09107">
        <ele>55.9</ele>
        <time>2017-04-09T09:23:11Z</time>
      </trkpt>
      <trkpt lat="49.27722" lon="1.09096">
        <ele>56.1</ele>
        <time>2017-04-09T09:23:13Z</time>
      </trkpt>
      <trkpt lat="49.27714" lon="1.09085">
        <ele>56.2</ele>
        <time>2017-04-09T09:23:15Z</time>
      </trkpt>
      <trkpt lat="49.27705" lon="1.09074">
        <ele>56.5</ele>
        <time>2017-04-09T09:23:17Z</time>
      </trkpt>
      <trkpt lat="49.27697" lon="1.09063">
        <ele>56.8</ele>
        <time>2017-04-09T09:23:19Z</time>
      </trkpt>
      <trkpt lat="49.27689" lon="1.09052">
        <ele>57.1</ele>
        <time>2017-04-09T09:23:21Z</time>
      </trkpt>
      <trkpt lat="49.27681" lon="1.09041">
        <ele>57.4</ele>
        <time>2017-04-09T09:23:23Z</time>
      </trkpt>
      <trkpt lat="49.27673" lon="1.0903">
        <ele>57.7</ele>
        <time>2017-04-09T09:23:25Z</time>
      </trkpt>
      <trkpt lat="49.27664" lon="1.0902">
        <ele>58</ele>
        <time>2017-04-09T09:23:27Z</time>
      </trkpt>
      <trkpt lat="49.27656" lon="1.09011">
        <ele>58.3</ele>
        <time>2017-04-09T09:23:29Z</time>
      </trkpt>
      <trkpt lat="49.27649" lon="1.09">
        <ele>58.5</ele>
        <time>2017-04-09T09:23:31Z</time>
      </trkpt>
      <trkpt lat="49.27641" lon="1.08991">
        <ele>58.8</ele>
        <time>2017-04-09T09:23:33Z</time>
      </trkpt>
      <trkpt lat="49.27633" lon="1.08981">
        <ele>59</ele>
        <time>2017-04-09T09:23:35Z</time>
      </trkpt>
      <trkpt lat="49.27624" lon="1.0897">
        <ele>59.2</ele>
        <time>2017-04-09T09:23:37Z</time>
      </trkpt>
      <trkpt lat="49.27616" lon="1.0896">
        <ele>59.4</ele>
        <time>2017-04-09T09:23:39Z</time>
      </trkpt>
      <trkpt lat="49.27607" lon="1.0895">
        <ele>59.6</ele>
        <time>2017-04-09T09:23:41Z</time>
      </trkpt>
      <trkpt lat="49.27597" lon="1.08938">
        <ele>59.8</ele>
        <time>2017-04-09T09:23:43Z</time>
      </trkpt>
      <trkpt lat="49.27588" lon="1.08928">
        <ele>59.9</ele>
        <time>2017-04-09T09:23:45Z</time>
      </trkpt>
      <trkpt lat="49.27578" lon="1.08917">
        <ele>60</ele>
        <time>2017-04-09T09:23:47Z</time>
      </trkpt>
      <trkpt lat="49.27569" lon="1.08905">
        <ele>60.1</ele>
        <time>2017-04-09T09:23:49Z</time>
      </trkpt>
      <trkpt lat="49.27559" lon="1.0889">
        <ele>60.2</ele>
        <time>2017-04-09T09:23:51Z</time>
      </trkpt>
      <trkpt lat="49.2755" lon="1.08877">
        <ele>60.1</ele>
        <time>2017-04-09T09:23:53Z</time>
      </trkpt>
      <trkpt lat="49.27538" lon="1.08861">
        <ele>60</ele>
        <time>2017-04-09T09:23:55Z</time>
      </trkpt>
      <trkpt lat="49.27527" lon="1.08846">
        <ele>59.8</ele>
        <time>2017-04-09T09:23:57Z</time>
      </trkpt>
      <trkpt lat="49.27516" lon="1.08829">
        <ele>59.5</ele>
        <time>2017-04-09T09:23:59Z</time>
      </trkpt>
      <trkpt lat="49.27504" lon="1.08815">
        <ele>59</ele>
        <time>2017-04-09T09:24:01Z</time>
      </trkpt>
      <trkpt lat="49.27493" lon="1.08799">
        <ele>58.4</ele>
        <time>2017-04-09T09:24:03Z</time>
      </trkpt>
      <trkpt lat="49.27479" lon="1.08787">
        <ele>57.8</ele>
        <time>2017-04-09T09:24:05Z</time>
      </trkpt>
      <trkpt lat="49.27472" lon="1.08776">
        <ele>57.4</ele>
        <time>2017-04-09T09:24:06Z</time>
      </trkpt>
      <trkpt lat="49.27464" lon="1.08766">
        <ele>57</ele>
        <time>2017-04-09T09:24:07Z</time>
      </trkpt>
      <trkpt lat="49.27452" lon="1.08749">
        <ele>56.2</ele>
        <time>2017-04-09T09:24:09Z</time>
      </trkpt>
      <trkpt lat="49.27451" lon="1.0873">
        <ele>55.2</ele>
        <time>2017-04-09T09:24:12Z</time>
      </trkpt>
      <trkpt lat="49.27449" lon="1.08716">
        <ele>54.6</ele>
        <time>2017-04-09T09:24:14Z</time>
      </trkpt>
      <trkpt lat="49.27452" lon="1.08696">
        <ele>53.9</ele>
        <time>2017-04-09T09:24:17Z</time>
      </trkpt>
      <trkpt lat="49.27455" lon="1.08679">
        <ele>53.5</ele>
        <time>2017-04-09T09:24:19Z</time>
      </trkpt>
      <trkpt lat="49.27459" lon="1.08664">
        <ele>53.1</ele>
        <time>2017-04-09T09:24:21Z</time>
      </trkpt>
      <trkpt lat="49.27467" lon="1.08644">
        <ele>52.8</ele>
        <time>2017-04-09T09:24:23Z</time>
      </trkpt>
      <trkpt lat="49.27473" lon="1.08623">
        <ele>52.4</ele>
        <time>2017-04-09T09:24:25Z</time>
      </trkpt>
      <trkpt lat="49.27482" lon="1.08604">
        <ele>52.1</ele>
        <time>2017-04-09T09:24:27Z</time>
      </trkpt>
      <trkpt lat="49.2749" lon="1.08584">
        <ele>51.7</ele>
        <time>2017-04-09T09:24:29Z</time>
      </trkpt>
      <trkpt lat="49.27499" lon="1.08566">
        <ele>51.4</ele>
        <time>2017-04-09T09:24:31Z</time>
      </trkpt>
      <trkpt lat="49.27508" lon="1.08547">
        <ele>51.1</ele>
        <time>2017-04-09T09:24:33Z</time>
      </trkpt>
      <trkpt lat="49.27518" lon="1.08529">
        <ele>50.8</ele>
        <time>2017-04-09T09:24:35Z</time>
      </trkpt>
      <trkpt lat="49.27527" lon="1.08511">
        <ele>50.3</ele>
        <time>2017-04-09T09:24:37Z</time>
      </trkpt>
      <trkpt lat="49.27537" lon="1.08492">
        <ele>49.8</ele>
        <time>2017-04-09T09:24:39Z</time>
      </trkpt>
      <trkpt lat="49.27546" lon="1.08473">
        <ele>49.3</ele>
        <time>2017-04-09T09:24:41Z</time>
      </trkpt>
      <trkpt lat="49.27556" lon="1.08453">
        <ele>48.8</ele>
        <time>2017-04-09T09:24:43Z</time>
      </trkpt>
      <trkpt lat="49.27565" lon="1.08435">
        <ele>48.3</ele>
        <time>2017-04-09T09:24:45Z</time>
      </trkpt>
      <trkpt lat="49.27574" lon="1.08416">
        <ele>47.8</ele>
        <time>2017-04-09T09:24:47Z</time>
      </trkpt>
      <trkpt lat="49.27584" lon="1.08398">
        <ele>47.3</ele>
        <time>2017-04-09T09:24:49Z</time>
      </trkpt>
      <trkpt lat="49.27591" lon="1.08383">
        <ele>46.7</ele>
        <time>2017-04-09T09:24:51Z</time>
      </trkpt>
      <trkpt lat="49.27589" lon="1.08364">
        <ele>45.9</ele>
        <time>2017-04-09T09:24:54Z</time>
      </trkpt>
      <trkpt lat="49.27584" lon="1.0835">
        <ele>45.4</ele>
        <time>2017-04-09T09:24:56Z</time>
      </trkpt>
      <trkpt lat="49.27579" lon="1.08334">
        <ele>45</ele>
        <time>2017-04-09T09:24:58Z</time>
      </trkpt>
      <trkpt lat="49.27574" lon="1.08317">
        <ele>44.6</ele>
        <time>2017-04-09T09:25:00Z</time>
      </trkpt>
      <trkpt lat="49.27568" lon="1.083">
        <ele>44.3</ele>
        <time>2017-04-09T09:25:02Z</time>
      </trkpt>
      <trkpt lat="49.27562" lon="1.08283">
        <ele>43.9</ele>
        <time>2017-04-09T09:25:04Z</time>
      </trkpt>
      <trkpt lat="49.27555" lon="1.08266">
        <ele>43.5</ele>
        <time>2017-04-09T09:25:06Z</time>
      </trkpt>
      <trkpt lat="49.27549" lon="1.08251">
        <ele>43.2</ele>
        <time>2017-04-09T09:25:08Z</time>
      </trkpt>
      <trkpt lat="49.27544" lon="1.08236">
        <ele>42.9</ele>
        <time>2017-04-09T09:25:10Z</time>
      </trkpt>
      <trkpt lat="49.27537" lon="1.08224">
        <ele>42.6</ele>
        <time>2017-04-09T09:25:12Z</time>
      </trkpt>
      <trkpt lat="49.2753" lon="1.08213">
        <ele>42.4</ele>
        <time>2017-04-09T09:25:14Z</time>
      </trkpt>
      <trkpt lat="49.27522" lon="1.08203">
        <ele>42.1</ele>
        <time>2017-04-09T09:25:16Z</time>
      </trkpt>
      <trkpt lat="49.27515" lon="1.08191">
        <ele>41.9</ele>
        <time>2017-04-09T09:25:18Z</time>
      </trkpt>
      <trkpt lat="49.27509" lon="1.08178">
        <ele>41.7</ele>
        <time>2017-04-09T09:25:20Z</time>
      </trkpt>
      <trkpt lat="49.27501" lon="1.08166">
        <ele>41.5</ele>
        <time>2017-04-09T09:25:22Z</time>
      </trkpt>
      <trkpt lat="49.27493" lon="1.08153">
        <ele>41.4</ele>
        <time>2017-04-09T09:25:24Z</time>
      </trkpt>
      <trkpt lat="49.27485" lon="1.08142">
        <ele>41.3</ele>
        <time>2017-04-09T09:25:26Z</time>
      </trkpt>
      <trkpt lat="49.27477" lon="1.0813">
        <ele>41.2</ele>
        <time>2017-04-09T09:25:28Z</time>
      </trkpt>
      <trkpt lat="49.27468" lon="1.08118">
        <ele>41.2</ele>
        <time>2017-04-09T09:25:30Z</time>
      </trkpt>
      <trkpt lat="49.2746" lon="1.08106">
        <ele>41.1</ele>
        <time>2017-04-09T09:25:32Z</time>
      </trkpt>
      <trkpt lat="49.27451" lon="1.08095">
        <ele>41.1</ele>
        <time>2017-04-09T09:25:34Z</time>
      </trkpt>
      <trkpt lat="49.27444" lon="1.08083">
        <ele>41.1</ele>
        <time>2017-04-09T09:25:36Z</time>
      </trkpt>
      <trkpt lat="49.27435" lon="1.08071">
        <ele>41.2</ele>
        <time>2017-04-09T09:25:38Z</time>
      </trkpt>
      <trkpt lat="49.27427" lon="1.08059">
        <ele>41.3</ele>
        <time>2017-04-09T09:25:40Z</time>
      </trkpt>
      <trkpt lat="49.27418" lon="1.08046">
        <ele>41.4</ele>
        <time>2017-04-09T09:25:42Z</time>
      </trkpt>
      <trkpt lat="49.2741" lon="1.08033">
        <ele>41.4</ele>
        <time>2017-04-09T09:25:44Z</time>
      </trkpt>
      <trkpt lat="49.27402" lon="1.0802">
        <ele>41.5</ele>
        <time>2017-04-09T09:25:46Z</time>
      </trkpt>
      <trkpt lat="49.27394" lon="1.08008">
        <ele>41.6</ele>
        <time>2017-04-09T09:25:48Z</time>
      </trkpt>
      <trkpt lat="49.27385" lon="1.07996">
        <ele>41.7</ele>
        <time>2017-04-09T09:25:50Z</time>
      </trkpt>
      <trkpt lat="49.27376" lon="1.07984">
        <ele>41.8</ele>
        <time>2017-04-09T09:25:52Z</time>
      </trkpt>
      <trkpt lat="49.27366" lon="1.07972">
        <ele>41.9</ele>
        <time>2017-04-09T09:25:54Z</time>
      </trkpt>
      <trkpt lat="49.27357" lon="1.0796">
        <ele>41.9</ele>
        <time>2017-04-09T09:25:56Z</time>
      </trkpt>
      <trkpt lat="49.27347" lon="1.07948">
        <ele>42</ele>
        <time>2017-04-09T09:25:58Z</time>
      </trkpt>
      <trkpt lat="49.27338" lon="1.07935">
        <ele>42</ele>
        <time>2017-04-09T09:26:00Z</time>
      </trkpt>
      <trkpt lat="49.27329" lon="1.07922">
        <ele>42.1</ele>
        <time>2017-04-09T09:26:02Z</time>
      </trkpt>
      <trkpt lat="49.2732" lon="1.07909">
        <ele>42.1</ele>
        <time>2017-04-09T09:26:04Z</time>
      </trkpt>
      <trkpt lat="49.27311" lon="1.07897">
        <ele>42.1</ele>
        <time>2017-04-09T09:26:06Z</time>
      </trkpt>
      <trkpt lat="49.27302" lon="1.07885">
        <ele>42.2</ele>
        <time>2017-04-09T09:26:08Z</time>
      </trkpt>
      <trkpt lat="49.27294" lon="1.07878">
        <ele>42.2</ele>
        <time>2017-04-09T09:26:10Z</time>
      </trkpt>
      <trkpt lat="49.27282" lon="1.07878">
        <ele>42.3</ele>
        <time>2017-04-09T09:26:13Z</time>
      </trkpt>
      <trkpt lat="49.2727" lon="1.07879">
        <ele>42.4</ele>
        <time>2017-04-09T09:26:16Z</time>
      </trkpt>
      <trkpt lat="49.27261" lon="1.07874">
        <ele>42.5</ele>
        <time>2017-04-09T09:26:19Z</time>
      </trkpt>
      <trkpt lat="49.2725" lon="1.07865">
        <ele>42.6</ele>
        <time>2017-04-09T09:26:22Z</time>
      </trkpt>
      <trkpt lat="49.27243" lon="1.07851">
        <ele>42.8</ele>
        <time>2017-04-09T09:26:25Z</time>
      </trkpt>
      <trkpt lat="49.27238" lon="1.07838">
        <ele>42.8</ele>
        <time>2017-04-09T09:26:27Z</time>
      </trkpt>
      <trkpt lat="49.27233" lon="1.07824">
        <ele>42.9</ele>
        <time>2017-04-09T09:26:29Z</time>
      </trkpt>
      <trkpt lat="49.27227" lon="1.07809">
        <ele>43</ele>
        <time>2017-04-09T09:26:31Z</time>
      </trkpt>
      <trkpt lat="49.27219" lon="1.07796">
        <ele>43.1</ele>
        <time>2017-04-09T09:26:33Z</time>
      </trkpt>
      <trkpt lat="49.27209" lon="1.07783">
        <ele>43.2</ele>
        <time>2017-04-09T09:26:35Z</time>
      </trkpt>
      <trkpt lat="49.27199" lon="1.07772">
        <ele>43.3</ele>
        <time>2017-04-09T09:26:37Z</time>
      </trkpt>
      <trkpt lat="49.27191" lon="1.07761">
        <ele>43.3</ele>
        <time>2017-04-09T09:26:39Z</time>
      </trkpt>
      <trkpt lat="49.27181" lon="1.07749">
        <ele>43.4</ele>
        <time>2017-04-09T09:26:41Z</time>
      </trkpt>
      <trkpt lat="49.27172" lon="1.07738">
        <ele>43.4</ele>
        <time>2017-04-09T09:26:43Z</time>
      </trkpt>
      <trkpt lat="49.27163" lon="1.07723">
        <ele>43.5</ele>
        <time>2017-04-09T09:26:45Z</time>
      </trkpt>
      <trkpt lat="49.27156" lon="1.0771">
        <ele>43.5</ele>
        <time>2017-04-09T09:26:47Z</time>
      </trkpt>
      <trkpt lat="49.2715" lon="1.07695">
        <ele>43.5</ele>
        <time>2017-04-09T09:26:49Z</time>
      </trkpt>
      <trkpt lat="49.27143" lon="1.07679">
        <ele>43.6</ele>
        <time>2017-04-09T09:26:51Z</time>
      </trkpt>
      <trkpt lat="49.27134" lon="1.07664">
        <ele>43.6</ele>
        <time>2017-04-09T09:26:53Z</time>
      </trkpt>
      <trkpt lat="49.27125" lon="1.07651">
        <ele>43.6</ele>
        <time>2017-04-09T09:26:55Z</time>
      </trkpt>
      <trkpt lat="49.27116" lon="1.07638">
        <ele>43.6</ele>
        <time>2017-04-09T09:26:57Z</time>
      </trkpt>
      <trkpt lat="49.27107" lon="1.07625">
        <ele>43.6</ele>
        <time>2017-04-09T09:26:59Z</time>
      </trkpt>
      <trkpt lat="49.27097" lon="1.07613">
        <ele>43.6</ele>
        <time>2017-04-09T09:27:01Z</time>
      </trkpt>
      <trkpt lat="49.27086" lon="1.07601">
        <ele>43.6</ele>
        <time>2017-04-09T09:27:03Z</time>
      </trkpt>
      <trkpt lat="49.27076" lon="1.0759">
        <ele>43.6</ele>
        <time>2017-04-09T09:27:05Z</time>
      </trkpt>
      <trkpt lat="49.27065" lon="1.07577">
        <ele>43.6</ele>
        <time>2017-04-09T09:27:07Z</time>
      </trkpt>
      <trkpt lat="49.27055" lon="1.07563">
        <ele>43.6</ele>
        <time>2017-04-09T09:27:09Z</time>
      </trkpt>
      <trkpt lat="49.27045" lon="1.0755">
        <ele>43.5</ele>
        <time>2017-04-09T09:27:11Z</time>
      </trkpt>
      <trkpt lat="49.27035" lon="1.07538">
        <ele>43.5</ele>
        <time>2017-04-09T09:27:13Z</time>
      </trkpt>
      <trkpt lat="49.27023" lon="1.07528">
        <ele>43.5</ele>
        <time>2017-04-09T09:27:15Z</time>
      </trkpt>
      <trkpt lat="49.27012" lon="1.07517">
        <ele>43.5</ele>
        <time>2017-04-09T09:27:17Z</time>
      </trkpt>
      <trkpt lat="49.27003" lon="1.07504">
        <ele>43.4</ele>
        <time>2017-04-09T09:27:19Z</time>
      </trkpt>
      <trkpt lat="49.26995" lon="1.0749">
        <ele>43.5</ele>
        <time>2017-04-09T09:27:21Z</time>
      </trkpt>
      <trkpt lat="49.26989" lon="1.07472">
        <ele>43.5</ele>
        <time>2017-04-09T09:27:23Z</time>
      </trkpt>
      <trkpt lat="49.26982" lon="1.07455">
        <ele>43.5</ele>
        <time>2017-04-09T09:27:25Z</time>
      </trkpt>
      <trkpt lat="49.26975" lon="1.07435">
        <ele>43.5</ele>
        <time>2017-04-09T09:27:27Z</time>
      </trkpt>
      <trkpt lat="49.26967" lon="1.07414">
        <ele>43.6</ele>
        <time>2017-04-09T09:27:29Z</time>
      </trkpt>
      <trkpt lat="49.26957" lon="1.07394">
        <ele>43.5</ele>
        <time>2017-04-09T09:27:31Z</time>
      </trkpt>
      <trkpt lat="49.26947" lon="1.07376">
        <ele>43.5</ele>
        <time>2017-04-09T09:27:33Z</time>
      </trkpt>
      <trkpt lat="49.26936" lon="1.07361">
        <ele>43.4</ele>
        <time>2017-04-09T09:27:35Z</time>
      </trkpt>
      <trkpt lat="49.26926" lon="1.07347">
        <ele>43.3</ele>
        <time>2017-04-09T09:27:37Z</time>
      </trkpt>
      <trkpt lat="49.26917" lon="1.07334">
        <ele>43.3</ele>
        <time>2017-04-09T09:27:39Z</time>
      </trkpt>
      <trkpt lat="49.26909" lon="1.07321">
        <ele>43.4</ele>
        <time>2017-04-09T09:27:41Z</time>
      </trkpt>
      <trkpt lat="49.269" lon="1.07309">
        <ele>43.5</ele>
        <time>2017-04-09T09:27:43Z</time>
      </trkpt>
      <trkpt lat="49.26903" lon="1.07291">
        <ele>43.6</ele>
        <time>2017-04-09T09:27:46Z</time>
      </trkpt>
      <trkpt lat="49.2691" lon="1.07275">
        <ele>43.7</ele>
        <time>2017-04-09T09:27:49Z</time>
      </trkpt>
      <trkpt lat="49.26913" lon="1.07258">
        <ele>43.8</ele>
        <time>2017-04-09T09:27:51Z</time>
      </trkpt>
      <trkpt lat="49.26917" lon="1.07244">
        <ele>43.8</ele>
        <time>2017-04-09T09:27:53Z</time>
      </trkpt>
      <trkpt lat="49.26916" lon="1.07227">
        <ele>43.9</ele>
        <time>2017-04-09T09:27:55Z</time>
      </trkpt>
      <trkpt lat="49.26915" lon="1.07211">
        <ele>43.9</ele>
        <time>2017-04-09T09:27:57Z</time>
      </trkpt>
      <trkpt lat="49.26911" lon="1.07195">
        <ele>44</ele>
        <time>2017-04-09T09:27:59Z</time>
      </trkpt>
      <trkpt lat="49.26908" lon="1.0718">
        <ele>44</ele>
        <time>2017-04-09T09:28:01Z</time>
      </trkpt>
      <trkpt lat="49.26906" lon="1.07163">
        <ele>44.1</ele>
        <time>2017-04-09T09:28:03Z</time>
      </trkpt>
      <trkpt lat="49.26905" lon="1.07146">
        <ele>44.1</ele>
        <time>2017-04-09T09:28:05Z</time>
      </trkpt>
      <trkpt lat="49.26903" lon="1.07128">
        <ele>44.2</ele>
        <time>2017-04-09T09:28:07Z</time>
      </trkpt>
      <trkpt lat="49.26901" lon="1.07112">
        <ele>44.2</ele>
        <time>2017-04-09T09:28:09Z</time>
      </trkpt>
      <trkpt lat="49.26896" lon="1.07096">
        <ele>44.3</ele>
        <time>2017-04-09T09:28:11Z</time>
      </trkpt>
      <trkpt lat="49.26895" lon="1.07081">
        <ele>44.3</ele>
        <time>2017-04-09T09:28:13Z</time>
      </trkpt>
      <trkpt lat="49.26899" lon="1.07067">
        <ele>44.2</ele>
        <time>2017-04-09T09:28:15Z</time>
      </trkpt>
      <trkpt lat="49.26899" lon="1.07049">
        <ele>44.2</ele>
        <time>2017-04-09T09:28:17Z</time>
      </trkpt>
      <trkpt lat="49.26894" lon="1.07035">
        <ele>44.1</ele>
        <time>2017-04-09T09:28:19Z</time>
      </trkpt>
      <trkpt lat="49.26889" lon="1.07023">
        <ele>44.1</ele>
        <time>2017-04-09T09:28:21Z</time>
      </trkpt>
      <trkpt lat="49.2689" lon="1.07009">
        <ele>44</ele>
        <time>2017-04-09T09:28:23Z</time>
      </trkpt>
      <trkpt lat="49.26895" lon="1.06994">
        <ele>43.9</ele>
        <time>2017-04-09T09:28:25Z</time>
      </trkpt>
      <trkpt lat="49.26902" lon="1.06976">
        <ele>43.7</ele>
        <time>2017-04-09T09:28:27Z</time>
      </trkpt>
      <trkpt lat="49.26912" lon="1.0696">
        <ele>43.5</ele>
        <time>2017-04-09T09:28:29Z</time>
      </trkpt>
      <trkpt lat="49.26921" lon="1.06941">
        <ele>43.2</ele>
        <time>2017-04-09T09:28:31Z</time>
      </trkpt>
      <trkpt lat="49.26929" lon="1.06921">
        <ele>42.7</ele>
        <time>2017-04-09T09:28:33Z</time>
      </trkpt>
      <trkpt lat="49.26937" lon="1.069">
        <ele>42.2</ele>
        <time>2017-04-09T09:28:35Z</time>
      </trkpt>
      <trkpt lat="49.26945" lon="1.0688">
        <ele>41.3</ele>
        <time>2017-04-09T09:28:37Z</time>
      </trkpt>
      <trkpt lat="49.26954" lon="1.06869">
        <ele>40.3</ele>
        <time>2017-04-09T09:28:40Z</time>
      </trkpt>
      <trkpt lat="49.26964" lon="1.06877">
        <ele>39.3</ele>
        <time>2017-04-09T09:28:43Z</time>
      </trkpt>
      <trkpt lat="49.26973" lon="1.06887">
        <ele>38.7</ele>
        <time>2017-04-09T09:28:45Z</time>
      </trkpt>
      <trkpt lat="49.26982" lon="1.06898">
        <ele>38.1</ele>
        <time>2017-04-09T09:28:47Z</time>
      </trkpt>
      <trkpt lat="49.26993" lon="1.06909">
        <ele>37.6</ele>
        <time>2017-04-09T09:28:49Z</time>
      </trkpt>
      <trkpt lat="49.27003" lon="1.06922">
        <ele>37.1</ele>
        <time>2017-04-09T09:28:51Z</time>
      </trkpt>
      <trkpt lat="49.27014" lon="1.06935">
        <ele>36.7</ele>
        <time>2017-04-09T09:28:53Z</time>
      </trkpt>
      <trkpt lat="49.27027" lon="1.06948">
        <ele>36.3</ele>
        <time>2017-04-09T09:28:55Z</time>
      </trkpt>
      <trkpt lat="49.27039" lon="1.06961">
        <ele>36</ele>
        <time>2017-04-09T09:28:57Z</time>
      </trkpt>
      <trkpt lat="49.27051" lon="1.06975">
        <ele>35.7</ele>
        <time>2017-04-09T09:28:59Z</time>
      </trkpt>
      <trkpt lat="49.27061" lon="1.06988">
        <ele>35.5</ele>
        <time>2017-04-09T09:29:01Z</time>
      </trkpt>
      <trkpt lat="49.27072" lon="1.07">
        <ele>35.2</ele>
        <time>2017-04-09T09:29:03Z</time>
      </trkpt>
      <trkpt lat="49.27078" lon="1.07011">
        <ele>35</ele>
        <time>2017-04-09T09:29:05Z</time>
      </trkpt>
      <trkpt lat="49.27088" lon="1.07004">
        <ele>34.8</ele>
        <time>2017-04-09T09:29:07Z</time>
      </trkpt>
      <trkpt lat="49.27097" lon="1.06994">
        <ele>34.6</ele>
        <time>2017-04-09T09:29:09Z</time>
      </trkpt>
      <trkpt lat="49.27106" lon="1.06983">
        <ele>34.4</ele>
        <time>2017-04-09T09:29:11Z</time>
      </trkpt>
      <trkpt lat="49.27117" lon="1.06968">
        <ele>34.2</ele>
        <time>2017-04-09T09:29:13Z</time>
      </trkpt>
      <trkpt lat="49.27125" lon="1.06951">
        <ele>33.9</ele>
        <time>2017-04-09T09:29:15Z</time>
      </trkpt>
      <trkpt lat="49.27133" lon="1.06932">
        <ele>33.6</ele>
        <time>2017-04-09T09:29:17Z</time>
      </trkpt>
      <trkpt lat="49.27143" lon="1.06917">
        <ele>33.3</ele>
        <time>2017-04-09T09:29:19Z</time>
      </trkpt>
      <trkpt lat="49.27154" lon="1.06901">
        <ele>33</ele>
        <time>2017-04-09T09:29:21Z</time>
      </trkpt>
      <trkpt lat="49.27166" lon="1.06887">
        <ele>32.7</ele>
        <time>2017-04-09T09:29:23Z</time>
      </trkpt>
      <trkpt lat="49.27179" lon="1.06881">
        <ele>32.3</ele>
        <time>2017-04-09T09:29:25Z</time>
      </trkpt>
      <trkpt lat="49.27191" lon="1.06875">
        <ele>32.1</ele>
        <time>2017-04-09T09:29:27Z</time>
      </trkpt>
      <trkpt lat="49.272" lon="1.06868">
        <ele>31.9</ele>
        <time>2017-04-09T09:29:28Z</time>
      </trkpt>
      <trkpt lat="49.27208" lon="1.06861">
        <ele>31.8</ele>
        <time>2017-04-09T09:29:29Z</time>
      </trkpt>
      <trkpt lat="49.27218" lon="1.06842">
        <ele>31.5</ele>
        <time>2017-04-09T09:29:31Z</time>
      </trkpt>
      <trkpt lat="49.2723" lon="1.06825">
        <ele>31.2</ele>
        <time>2017-04-09T09:29:33Z</time>
      </trkpt>
      <trkpt lat="49.27241" lon="1.0681">
        <ele>30.9</ele>
        <time>2017-04-09T09:29:35Z</time>
      </trkpt>
      <trkpt lat="49.27251" lon="1.06794">
        <ele>30.6</ele>
        <time>2017-04-09T09:29:37Z</time>
      </trkpt>
      <trkpt lat="49.27254" lon="1.06775">
        <ele>30.3</ele>
        <time>2017-04-09T09:29:39Z</time>
      </trkpt>
      <trkpt lat="49.27261" lon="1.0676">
        <ele>30</ele>
        <time>2017-04-09T09:29:41Z</time>
      </trkpt>
      <trkpt lat="49.2727" lon="1.06743">
        <ele>29.7</ele>
        <time>2017-04-09T09:29:43Z</time>
      </trkpt>
      <trkpt lat="49.27281" lon="1.06725">
        <ele>29.5</ele>
        <time>2017-04-09T09:29:45Z</time>
      </trkpt>
      <trkpt lat="49.27291" lon="1.06708">
        <ele>29.3</ele>
        <time>2017-04-09T09:29:47Z</time>
      </trkpt>
      <trkpt lat="49.27301" lon="1.06692">
        <ele>29</ele>
        <time>2017-04-09T09:29:49Z</time>
      </trkpt>
      <trkpt lat="49.27312" lon="1.06676">
        <ele>28.7</ele>
        <time>2017-04-09T09:29:51Z</time>
      </trkpt>
      <trkpt lat="49.27324" lon="1.06657">
        <ele>28.5</ele>
        <time>2017-04-09T09:29:53Z</time>
      </trkpt>
      <trkpt lat="49.27336" lon="1.06641">
        <ele>28.2</ele>
        <time>2017-04-09T09:29:55Z</time>
      </trkpt>
      <trkpt lat="49.27347" lon="1.06625">
        <ele>28</ele>
        <time>2017-04-09T09:29:57Z</time>
      </trkpt>
      <trkpt lat="49.27358" lon="1.06607">
        <ele>27.8</ele>
        <time>2017-04-09T09:29:59Z</time>
      </trkpt>
      <trkpt lat="49.2737" lon="1.0659">
        <ele>27.5</ele>
        <time>2017-04-09T09:30:01Z</time>
      </trkpt>
      <trkpt lat="49.27382" lon="1.06574">
        <ele>27.3</ele>
        <time>2017-04-09T09:30:03Z</time>
      </trkpt>
      <trkpt lat="49.27388" lon="1.06556">
        <ele>27.1</ele>
        <time>2017-04-09T09:30:05Z</time>
      </trkpt>
      <trkpt lat="49.27385" lon="1.06541">
        <ele>26.8</ele>
        <time>2017-04-09T09:30:07Z</time>
      </trkpt>
      <trkpt lat="49.27377" lon="1.06528">
        <ele>26.5</ele>
        <time>2017-04-09T09:30:09Z</time>
      </trkpt>
      <trkpt lat="49.27368" lon="1.06515">
        <ele>26.2</ele>
        <time>2017-04-09T09:30:11Z</time>
      </trkpt>
      <trkpt lat="49.27359" lon="1.06502">
        <ele>26</ele>
        <time>2017-04-09T09:30:13Z</time>
      </trkpt>
      <trkpt lat="49.27349" lon="1.06489">
        <ele>25.7</ele>
        <time>2017-04-09T09:30:15Z</time>
      </trkpt>
      <trkpt lat="49.2734" lon="1.06475">
        <ele>25.5</ele>
        <time>2017-04-09T09:30:17Z</time>
      </trkpt>
      <trkpt lat="49.2733" lon="1.06461">
        <ele>25.4</ele>
        <time>2017-04-09T09:30:19Z</time>
      </trkpt>
      <trkpt lat="49.2732" lon="1.06447">
        <ele>25.2</ele>
        <time>2017-04-09T09:30:21Z</time>
      </trkpt>
      <trkpt lat="49.2731" lon="1.06433">
        <ele>25.1</ele>
        <time>2017-04-09T09:30:23Z</time>
      </trkpt>
      <trkpt lat="49.273" lon="1.0642">
        <ele>25</ele>
        <time>2017-04-09T09:30:25Z</time>
      </trkpt>
      <trkpt lat="49.27289" lon="1.06406">
        <ele>24.8</ele>
        <time>2017-04-09T09:30:27Z</time>
      </trkpt>
      <trkpt lat="49.27278" lon="1.0639">
        <ele>24.8</ele>
        <time>2017-04-09T09:30:29Z</time>
      </trkpt>
      <trkpt lat="49.27267" lon="1.06373">
        <ele>24.7</ele>
        <time>2017-04-09T09:30:31Z</time>
      </trkpt>
      <trkpt lat="49.27255" lon="1.06358">
        <ele>24.7</ele>
        <time>2017-04-09T09:30:33Z</time>
      </trkpt>
      <trkpt lat="49.27243" lon="1.06343">
        <ele>24.7</ele>
        <time>2017-04-09T09:30:35Z</time>
      </trkpt>
      <trkpt lat="49.27232" lon="1.06327">
        <ele>24.8</ele>
        <time>2017-04-09T09:30:37Z</time>
      </trkpt>
      <trkpt lat="49.27221" lon="1.06314">
        <ele>24.8</ele>
        <time>2017-04-09T09:30:39Z</time>
      </trkpt>
      <trkpt lat="49.2721" lon="1.06299">
        <ele>24.9</ele>
        <time>2017-04-09T09:30:41Z</time>
      </trkpt>
      <trkpt lat="49.27199" lon="1.06285">
        <ele>24.8</ele>
        <time>2017-04-09T09:30:43Z</time>
      </trkpt>
      <trkpt lat="49.27188" lon="1.06269">
        <ele>24.8</ele>
        <time>2017-04-09T09:30:45Z</time>
      </trkpt>
      <trkpt lat="49.27177" lon="1.06254">
        <ele>24.8</ele>
        <time>2017-04-09T09:30:47Z</time>
      </trkpt>
      <trkpt lat="49.27165" lon="1.06238">
        <ele>24.8</ele>
        <time>2017-04-09T09:30:49Z</time>
      </trkpt>
      <trkpt lat="49.27154" lon="1.06222">
        <ele>24.8</ele>
        <time>2017-04-09T09:30:51Z</time>
      </trkpt>
      <trkpt lat="49.27143" lon="1.06207">
        <ele>24.8</ele>
        <time>2017-04-09T09:30:53Z</time>
      </trkpt>
      <trkpt lat="49.27132" lon="1.06191">
        <ele>24.8</ele>
        <time>2017-04-09T09:30:55Z</time>
      </trkpt>
      <trkpt lat="49.27121" lon="1.06177">
        <ele>24.8</ele>
        <time>2017-04-09T09:30:57Z</time>
      </trkpt>
      <trkpt lat="49.27111" lon="1.06163">
        <ele>24.8</ele>
        <time>2017-04-09T09:30:59Z</time>
      </trkpt>
      <trkpt lat="49.271" lon="1.0615">
        <ele>24.8</ele>
        <time>2017-04-09T09:31:01Z</time>
      </trkpt>
      <trkpt lat="49.27091" lon="1.06136">
        <ele>24.8</ele>
        <time>2017-04-09T09:31:03Z</time>
      </trkpt>
      <trkpt lat="49.27081" lon="1.06122">
        <ele>24.7</ele>
        <time>2017-04-09T09:31:05Z</time>
      </trkpt>
      <trkpt lat="49.2707" lon="1.06109">
        <ele>24.7</ele>
        <time>2017-04-09T09:31:07Z</time>
      </trkpt>
      <trkpt lat="49.27061" lon="1.06095">
        <ele>24.6</ele>
        <time>2017-04-09T09:31:09Z</time>
      </trkpt>
      <trkpt lat="49.27053" lon="1.06082">
        <ele>24.6</ele>
        <time>2017-04-09T09:31:11Z</time>
      </trkpt>
      <trkpt lat="49.27046" lon="1.06062">
        <ele>24.6</ele>
        <time>2017-04-09T09:31:13Z</time>
      </trkpt>
      <trkpt lat="49.27041" lon="1.06044">
        <ele>24.5</ele>
        <time>2017-04-09T09:31:15Z</time>
      </trkpt>
      <trkpt lat="49.27035" lon="1.06027">
        <ele>24.5</ele>
        <time>2017-04-09T09:31:17Z</time>
      </trkpt>
      <trkpt lat="49.27025" lon="1.06013">
        <ele>24.5</ele>
        <time>2017-04-09T09:31:19Z</time>
      </trkpt>
      <trkpt lat="49.27014" lon="1.06">
        <ele>24.5</ele>
        <time>2017-04-09T09:31:21Z</time>
      </trkpt>
      <trkpt lat="49.27006" lon="1.05988">
        <ele>24.5</ele>
        <time>2017-04-09T09:31:23Z</time>
      </trkpt>
      <trkpt lat="49.26997" lon="1.05975">
        <ele>24.5</ele>
        <time>2017-04-09T09:31:25Z</time>
      </trkpt>
      <trkpt lat="49.2699" lon="1.05961">
        <ele>24.5</ele>
        <time>2017-04-09T09:31:27Z</time>
      </trkpt>
      <trkpt lat="49.26983" lon="1.05948">
        <ele>24.5</ele>
        <time>2017-04-09T09:31:29Z</time>
      </trkpt>
      <trkpt lat="49.26978" lon="1.05935">
        <ele>24.6</ele>
        <time>2017-04-09T09:31:31Z</time>
      </trkpt>
      <trkpt lat="49.26972" lon="1.05918">
        <ele>24.6</ele>
        <time>2017-04-09T09:31:33Z</time>
      </trkpt>
      <trkpt lat="49.26966" lon="1.05903">
        <ele>24.7</ele>
        <time>2017-04-09T09:31:35Z</time>
      </trkpt>
      <trkpt lat="49.26958" lon="1.05889">
        <ele>24.7</ele>
        <time>2017-04-09T09:31:37Z</time>
      </trkpt>
      <trkpt lat="49.2695" lon="1.05874">
        <ele>24.8</ele>
        <time>2017-04-09T09:31:39Z</time>
      </trkpt>
      <trkpt lat="49.26943" lon="1.05859">
        <ele>24.9</ele>
        <time>2017-04-09T09:31:41Z</time>
      </trkpt>
      <trkpt lat="49.26935" lon="1.05843">
        <ele>25</ele>
        <time>2017-04-09T09:31:43Z</time>
      </trkpt>
      <trkpt lat="49.26929" lon="1.05828">
        <ele>25.1</ele>
        <time>2017-04-09T09:31:45Z</time>
      </trkpt>
      <trkpt lat="49.26921" lon="1.05813">
        <ele>25.2</ele>
        <time>2017-04-09T09:31:47Z</time>
      </trkpt>
      <trkpt lat="49.26913" lon="1.05797">
        <ele>25.3</ele>
        <time>2017-04-09T09:31:49Z</time>
      </trkpt>
      <trkpt lat="49.26905" lon="1.05781">
        <ele>25.4</ele>
        <time>2017-04-09T09:31:51Z</time>
      </trkpt>
      <trkpt lat="49.26897" lon="1.05766">
        <ele>25.5</ele>
        <time>2017-04-09T09:31:53Z</time>
      </trkpt>
      <trkpt lat="49.2689" lon="1.05754">
        <ele>25.6</ele>
        <time>2017-04-09T09:31:55Z</time>
      </trkpt>
      <trkpt lat="49.26883" lon="1.05738">
        <ele>25.7</ele>
        <time>2017-04-09T09:31:57Z</time>
      </trkpt>
      <trkpt lat="49.26876" lon="1.05724">
        <ele>25.7</ele>
        <time>2017-04-09T09:31:59Z</time>
      </trkpt>
      <trkpt lat="49.26869" lon="1.05711">
        <ele>25.8</ele>
        <time>2017-04-09T09:32:01Z</time>
      </trkpt>
      <trkpt lat="49.26862" lon="1.05696">
        <ele>25.9</ele>
        <time>2017-04-09T09:32:03Z</time>
      </trkpt>
      <trkpt lat="49.26854" lon="1.05681">
        <ele>26</ele>
        <time>2017-04-09T09:32:05Z</time>
      </trkpt>
      <trkpt lat="49.26847" lon="1.05665">
        <ele>26.2</ele>
        <time>2017-04-09T09:32:07Z</time>
      </trkpt>
      <trkpt lat="49.26839" lon="1.05651">
        <ele>26.4</ele>
        <time>2017-04-09T09:32:09Z</time>
      </trkpt>
      <trkpt lat="49.26831" lon="1.05638">
        <ele>26.6</ele>
        <time>2017-04-09T09:32:11Z</time>
      </trkpt>
      <trkpt lat="49.26823" lon="1.05624">
        <ele>26.8</ele>
        <time>2017-04-09T09:32:13Z</time>
      </trkpt>
      <trkpt lat="49.26816" lon="1.05611">
        <ele>26.9</ele>
        <time>2017-04-09T09:32:15Z</time>
      </trkpt>
      <trkpt lat="49.2681" lon="1.05599">
        <ele>27.1</ele>
        <time>2017-04-09T09:32:17Z</time>
      </trkpt>
      <trkpt lat="49.26802" lon="1.05585">
        <ele>27.3</ele>
        <time>2017-04-09T09:32:19Z</time>
      </trkpt>
      <trkpt lat="49.26795" lon="1.05571">
        <ele>27.5</ele>
        <time>2017-04-09T09:32:21Z</time>
      </trkpt>
      <trkpt lat="49.2679" lon="1.05557">
        <ele>27.7</ele>
        <time>2017-04-09T09:32:23Z</time>
      </trkpt>
      <trkpt lat="49.26786" lon="1.05539">
        <ele>27.8</ele>
        <time>2017-04-09T09:32:25Z</time>
      </trkpt>
      <trkpt lat="49.26786" lon="1.05524">
        <ele>28</ele>
        <time>2017-04-09T09:32:27Z</time>
      </trkpt>
      <trkpt lat="49.26787" lon="1.05504">
        <ele>28.2</ele>
        <time>2017-04-09T09:32:30Z</time>
      </trkpt>
      <trkpt lat="49.26788" lon="1.05489">
        <ele>28.3</ele>
        <time>2017-04-09T09:32:32Z</time>
      </trkpt>
      <trkpt lat="49.26791" lon="1.05474">
        <ele>28.5</ele>
        <time>2017-04-09T09:32:34Z</time>
      </trkpt>
      <trkpt lat="49.26793" lon="1.0546">
        <ele>28.6</ele>
        <time>2017-04-09T09:32:36Z</time>
      </trkpt>
      <trkpt lat="49.26795" lon="1.05441">
        <ele>28.8</ele>
        <time>2017-04-09T09:32:39Z</time>
      </trkpt>
      <trkpt lat="49.26796" lon="1.05427">
        <ele>28.9</ele>
        <time>2017-04-09T09:32:41Z</time>
      </trkpt>
      <trkpt lat="49.26798" lon="1.05407">
        <ele>29</ele>
        <time>2017-04-09T09:32:44Z</time>
      </trkpt>
      <trkpt lat="49.26801" lon="1.05389">
        <ele>29.1</ele>
        <time>2017-04-09T09:32:47Z</time>
      </trkpt>
      <trkpt lat="49.26807" lon="1.05372">
        <ele>29.2</ele>
        <time>2017-04-09T09:32:50Z</time>
      </trkpt>
      <trkpt lat="49.26812" lon="1.0536">
        <ele>29.3</ele>
        <time>2017-04-09T09:32:52Z</time>
      </trkpt>
      <trkpt lat="49.26818" lon="1.05347">
        <ele>29.3</ele>
        <time>2017-04-09T09:32:54Z</time>
      </trkpt>
      <trkpt lat="49.26823" lon="1.05333">
        <ele>29.3</ele>
        <time>2017-04-09T09:32:56Z</time>
      </trkpt>
      <trkpt lat="49.26829" lon="1.0532">
        <ele>29.4</ele>
        <time>2017-04-09T09:32:58Z</time>
      </trkpt>
      <trkpt lat="49.26835" lon="1.05307">
        <ele>29.4</ele>
        <time>2017-04-09T09:33:00Z</time>
      </trkpt>
      <trkpt lat="49.26841" lon="1.05295">
        <ele>29.4</ele>
        <time>2017-04-09T09:33:02Z</time>
      </trkpt>
      <trkpt lat="49.26849" lon="1.05282">
        <ele>29.4</ele>
        <time>2017-04-09T09:33:04Z</time>
      </trkpt>
      <trkpt lat="49.26856" lon="1.05267">
        <ele>29.4</ele>
        <time>2017-04-09T09:33:06Z</time>
      </trkpt>
      <trkpt lat="49.26864" lon="1.05253">
        <ele>29.4</ele>
        <time>2017-04-09T09:33:08Z</time>
      </trkpt>
      <trkpt lat="49.26872" lon="1.05238">
        <ele>29.3</ele>
        <time>2017-04-09T09:33:10Z</time>
      </trkpt>
      <trkpt lat="49.2688" lon="1.05223">
        <ele>29.3</ele>
        <time>2017-04-09T09:33:12Z</time>
      </trkpt>
      <trkpt lat="49.26888" lon="1.05208">
        <ele>29.3</ele>
        <time>2017-04-09T09:33:14Z</time>
      </trkpt>
      <trkpt lat="49.26896" lon="1.05193">
        <ele>29.2</ele>
        <time>2017-04-09T09:33:16Z</time>
      </trkpt>
      <trkpt lat="49.26904" lon="1.05178">
        <ele>29.1</ele>
        <time>2017-04-09T09:33:18Z</time>
      </trkpt>
      <trkpt lat="49.26911" lon="1.05163">
        <ele>28.9</ele>
        <time>2017-04-09T09:33:20Z</time>
      </trkpt>
      <trkpt lat="49.26919" lon="1.05149">
        <ele>28.7</ele>
        <time>2017-04-09T09:33:22Z</time>
      </trkpt>
      <trkpt lat="49.26926" lon="1.05139">
        <ele>28.5</ele>
        <time>2017-04-09T09:33:24Z</time>
      </trkpt>
      <trkpt lat="49.26936" lon="1.05134">
        <ele>28.3</ele>
        <time>2017-04-09T09:33:26Z</time>
      </trkpt>
      <trkpt lat="49.26948" lon="1.05132">
        <ele>28.1</ele>
        <time>2017-04-09T09:33:28Z</time>
      </trkpt>
      <trkpt lat="49.2696" lon="1.05132">
        <ele>28</ele>
        <time>2017-04-09T09:33:30Z</time>
      </trkpt>
      <trkpt lat="49.26972" lon="1.05133">
        <ele>27.9</ele>
        <time>2017-04-09T09:33:32Z</time>
      </trkpt>
      <trkpt lat="49.26984" lon="1.05131">
        <ele>27.8</ele>
        <time>2017-04-09T09:33:34Z</time>
      </trkpt>
      <trkpt lat="49.26996" lon="1.05127">
        <ele>27.7</ele>
        <time>2017-04-09T09:33:36Z</time>
      </trkpt>
      <trkpt lat="49.27008" lon="1.0512">
        <ele>27.6</ele>
        <time>2017-04-09T09:33:38Z</time>
      </trkpt>
      <trkpt lat="49.27019" lon="1.05111">
        <ele>27.6</ele>
        <time>2017-04-09T09:33:40Z</time>
      </trkpt>
      <trkpt lat="49.27029" lon="1.05101">
        <ele>27.5</ele>
        <time>2017-04-09T09:33:42Z</time>
      </trkpt>
      <trkpt lat="49.27039" lon="1.05089">
        <ele>27.4</ele>
        <time>2017-04-09T09:33:44Z</time>
      </trkpt>
      <trkpt lat="49.27049" lon="1.05076">
        <ele>27.3</ele>
        <time>2017-04-09T09:33:46Z</time>
      </trkpt>
      <trkpt lat="49.27059" lon="1.05063">
        <ele>27.2</ele>
        <time>2017-04-09T09:33:48Z</time>
      </trkpt>
      <trkpt lat="49.27069" lon="1.05052">
        <ele>27</ele>
        <time>2017-04-09T09:33:50Z</time>
      </trkpt>
      <trkpt lat="49.27079" lon="1.05042">
        <ele>26.9</ele>
        <time>2017-04-09T09:33:52Z</time>
      </trkpt>
      <trkpt lat="49.27091" lon="1.05036">
        <ele>26.8</ele>
        <time>2017-04-09T09:33:54Z</time>
      </trkpt>
      <trkpt lat="49.27103" lon="1.05032">
        <ele>26.7</ele>
        <time>2017-04-09T09:33:56Z</time>
      </trkpt>
      <trkpt lat="49.27115" lon="1.05031">
        <ele>26.6</ele>
        <time>2017-04-09T09:33:58Z</time>
      </trkpt>
      <trkpt lat="49.27127" lon="1.0503">
        <ele>26.5</ele>
        <time>2017-04-09T09:34:00Z</time>
      </trkpt>
      <trkpt lat="49.27139" lon="1.05031">
        <ele>26.4</ele>
        <time>2017-04-09T09:34:02Z</time>
      </trkpt>
      <trkpt lat="49.27151" lon="1.05031">
        <ele>26.3</ele>
        <time>2017-04-09T09:34:04Z</time>
      </trkpt>
      <trkpt lat="49.27163" lon="1.05031">
        <ele>26.2</ele>
        <time>2017-04-09T09:34:06Z</time>
      </trkpt>
      <trkpt lat="49.27174" lon="1.05032">
        <ele>26</ele>
        <time>2017-04-09T09:34:08Z</time>
      </trkpt>
      <trkpt lat="49.27186" lon="1.05034">
        <ele>25.9</ele>
        <time>2017-04-09T09:34:10Z</time>
      </trkpt>
      <trkpt lat="49.27197" lon="1.05039">
        <ele>25.8</ele>
        <time>2017-04-09T09:34:12Z</time>
      </trkpt>
      <trkpt lat="49.27209" lon="1.05043">
        <ele>25.7</ele>
        <time>2017-04-09T09:34:14Z</time>
      </trkpt>
      <trkpt lat="49.27219" lon="1.05047">
        <ele>25.6</ele>
        <time>2017-04-09T09:34:16Z</time>
      </trkpt>
      <trkpt lat="49.2723" lon="1.05051">
        <ele>25.5</ele>
        <time>2017-04-09T09:34:18Z</time>
      </trkpt>
      <trkpt lat="49.2724" lon="1.05055">
        <ele>25.4</ele>
        <time>2017-04-09T09:34:20Z</time>
      </trkpt>
      <trkpt lat="49.27251" lon="1.05059">
        <ele>25.4</ele>
        <time>2017-04-09T09:34:22Z</time>
      </trkpt>
      <trkpt lat="49.2726" lon="1.05059">
        <ele>25.3</ele>
        <time>2017-04-09T09:34:25Z</time>
      </trkpt>
      <trkpt lat="49.27272" lon="1.05059">
        <ele>25.1</ele>
        <time>2017-04-09T09:34:28Z</time>
      </trkpt>
      <trkpt lat="49.27282" lon="1.05058">
        <ele>25</ele>
        <time>2017-04-09T09:34:30Z</time>
      </trkpt>
      <trkpt lat="49.27292" lon="1.05056">
        <ele>24.9</ele>
        <time>2017-04-09T09:34:32Z</time>
      </trkpt>
      <trkpt lat="49.27302" lon="1.05054">
        <ele>24.9</ele>
        <time>2017-04-09T09:34:34Z</time>
      </trkpt>
      <trkpt lat="49.27312" lon="1.05051">
        <ele>24.8</ele>
        <time>2017-04-09T09:34:36Z</time>
      </trkpt>
      <trkpt lat="49.27323" lon="1.05049">
        <ele>24.7</ele>
        <time>2017-04-09T09:34:38Z</time>
      </trkpt>
      <trkpt lat="49.27334" lon="1.05045">
        <ele>24.6</ele>
        <time>2017-04-09T09:34:40Z</time>
      </trkpt>
      <trkpt lat="49.27345" lon="1.05042">
        <ele>24.5</ele>
        <time>2017-04-09T09:34:42Z</time>
      </trkpt>
      <trkpt lat="49.27357" lon="1.05039">
        <ele>24.4</ele>
        <time>2017-04-09T09:34:44Z</time>
      </trkpt>
      <trkpt lat="49.27368" lon="1.05036">
        <ele>24.3</ele>
        <time>2017-04-09T09:34:46Z</time>
      </trkpt>
      <trkpt lat="49.2738" lon="1.05032">
        <ele>24.2</ele>
        <time>2017-04-09T09:34:48Z</time>
      </trkpt>
      <trkpt lat="49.27393" lon="1.05029">
        <ele>24.1</ele>
        <time>2017-04-09T09:34:50Z</time>
      </trkpt>
      <trkpt lat="49.27405" lon="1.05026">
        <ele>24</ele>
        <time>2017-04-09T09:34:52Z</time>
      </trkpt>
      <trkpt lat="49.27418" lon="1.05024">
        <ele>23.9</ele>
        <time>2017-04-09T09:34:54Z</time>
      </trkpt>
      <trkpt lat="49.2743" lon="1.05022">
        <ele>23.9</ele>
        <time>2017-04-09T09:34:56Z</time>
      </trkpt>
      <trkpt lat="49.27442" lon="1.0502">
        <ele>23.8</ele>
        <time>2017-04-09T09:34:58Z</time>
      </trkpt>
      <trkpt lat="49.27453" lon="1.0502">
        <ele>23.7</ele>
        <time>2017-04-09T09:35:00Z</time>
      </trkpt>
      <trkpt lat="49.27464" lon="1.0502">
        <ele>23.6</ele>
        <time>2017-04-09T09:35:02Z</time>
      </trkpt>
      <trkpt lat="49.27474" lon="1.0502">
        <ele>23.4</ele>
        <time>2017-04-09T09:35:04Z</time>
      </trkpt>
      <trkpt lat="49.27484" lon="1.05019">
        <ele>23.3</ele>
        <time>2017-04-09T09:35:06Z</time>
      </trkpt>
      <trkpt lat="49.27495" lon="1.05019">
        <ele>23.2</ele>
        <time>2017-04-09T09:35:08Z</time>
      </trkpt>
      <trkpt lat="49.27507" lon="1.05021">
        <ele>23.1</ele>
        <time>2017-04-09T09:35:10Z</time>
      </trkpt>
      <trkpt lat="49.27519" lon="1.05024">
        <ele>23</ele>
        <time>2017-04-09T09:35:12Z</time>
      </trkpt>
      <trkpt lat="49.27531" lon="1.05026">
        <ele>22.9</ele>
        <time>2017-04-09T09:35:14Z</time>
      </trkpt>
      <trkpt lat="49.27543" lon="1.05026">
        <ele>22.9</ele>
        <time>2017-04-09T09:35:16Z</time>
      </trkpt>
      <trkpt lat="49.27555" lon="1.05024">
        <ele>22.8</ele>
        <time>2017-04-09T09:35:18Z</time>
      </trkpt>
      <trkpt lat="49.27568" lon="1.05023">
        <ele>22.7</ele>
        <time>2017-04-09T09:35:20Z</time>
      </trkpt>
      <trkpt lat="49.2758" lon="1.05022">
        <ele>22.6</ele>
        <time>2017-04-09T09:35:22Z</time>
      </trkpt>
      <trkpt lat="49.27593" lon="1.05022">
        <ele>22.5</ele>
        <time>2017-04-09T09:35:24Z</time>
      </trkpt>
      <trkpt lat="49.27606" lon="1.05021">
        <ele>22.4</ele>
        <time>2017-04-09T09:35:26Z</time>
      </trkpt>
      <trkpt lat="49.27618" lon="1.0502">
        <ele>22.3</ele>
        <time>2017-04-09T09:35:28Z</time>
      </trkpt>
      <trkpt lat="49.27629" lon="1.05018">
        <ele>22.1</ele>
        <time>2017-04-09T09:35:30Z</time>
      </trkpt>
      <trkpt lat="49.2764" lon="1.05015">
        <ele>22</ele>
        <time>2017-04-09T09:35:32Z</time>
      </trkpt>
      <trkpt lat="49.2765" lon="1.05009">
        <ele>21.8</ele>
        <time>2017-04-09T09:35:34Z</time>
      </trkpt>
      <trkpt lat="49.27655" lon="1.04995">
        <ele>21.6</ele>
        <time>2017-04-09T09:35:36Z</time>
      </trkpt>
      <trkpt lat="49.27656" lon="1.04978">
        <ele>21.5</ele>
        <time>2017-04-09T09:35:38Z</time>
      </trkpt>
      <trkpt lat="49.27656" lon="1.04961">
        <ele>21.3</ele>
        <time>2017-04-09T09:35:40Z</time>
      </trkpt>
      <trkpt lat="49.27655" lon="1.04944">
        <ele>21.2</ele>
        <time>2017-04-09T09:35:42Z</time>
      </trkpt>
      <trkpt lat="49.27655" lon="1.04926">
        <ele>21.1</ele>
        <time>2017-04-09T09:35:44Z</time>
      </trkpt>
      <trkpt lat="49.27657" lon="1.04908">
        <ele>21.1</ele>
        <time>2017-04-09T09:35:46Z</time>
      </trkpt>
      <trkpt lat="49.27657" lon="1.0489">
        <ele>21</ele>
        <time>2017-04-09T09:35:48Z</time>
      </trkpt>
      <trkpt lat="49.27657" lon="1.04872">
        <ele>20.9</ele>
        <time>2017-04-09T09:35:50Z</time>
      </trkpt>
      <trkpt lat="49.27656" lon="1.04854">
        <ele>20.8</ele>
        <time>2017-04-09T09:35:52Z</time>
      </trkpt>
      <trkpt lat="49.27656" lon="1.04836">
        <ele>20.8</ele>
        <time>2017-04-09T09:35:54Z</time>
      </trkpt>
      <trkpt lat="49.27655" lon="1.04817">
        <ele>20.6</ele>
        <time>2017-04-09T09:35:56Z</time>
      </trkpt>
      <trkpt lat="49.27655" lon="1.04797">
        <ele>20.5</ele>
        <time>2017-04-09T09:35:58Z</time>
      </trkpt>
      <trkpt lat="49.27654" lon="1.04777">
        <ele>20.3</ele>
        <time>2017-04-09T09:36:00Z</time>
      </trkpt>
      <trkpt lat="49.27658" lon="1.04759">
        <ele>20.1</ele>
        <time>2017-04-09T09:36:02Z</time>
      </trkpt>
      <trkpt lat="49.2767" lon="1.04748">
        <ele>19.9</ele>
        <time>2017-04-09T09:36:04Z</time>
      </trkpt>
      <trkpt lat="49.27683" lon="1.04744">
        <ele>19.6</ele>
        <time>2017-04-09T09:36:06Z</time>
      </trkpt>
      <trkpt lat="49.27698" lon="1.04743">
        <ele>19.4</ele>
        <time>2017-04-09T09:36:08Z</time>
      </trkpt>
      <trkpt lat="49.2771" lon="1.04736">
        <ele>19.1</ele>
        <time>2017-04-09T09:36:10Z</time>
      </trkpt>
      <trkpt lat="49.27718" lon="1.04717">
        <ele>18.7</ele>
        <time>2017-04-09T09:36:12Z</time>
      </trkpt>
      <trkpt lat="49.27719" lon="1.04695">
        <ele>18.3</ele>
        <time>2017-04-09T09:36:14Z</time>
      </trkpt>
      <trkpt lat="49.27718" lon="1.04673">
        <ele>17.9</ele>
        <time>2017-04-09T09:36:16Z</time>
      </trkpt>
      <trkpt lat="49.27716" lon="1.0465">
        <ele>17.4</ele>
        <time>2017-04-09T09:36:18Z</time>
      </trkpt>
      <trkpt lat="49.27713" lon="1.04626">
        <ele>16.9</ele>
        <time>2017-04-09T09:36:20Z</time>
      </trkpt>
      <trkpt lat="49.27711" lon="1.04603">
        <ele>16.5</ele>
        <time>2017-04-09T09:36:22Z</time>
      </trkpt>
      <trkpt lat="49.27708" lon="1.04579">
        <ele>16</ele>
        <time>2017-04-09T09:36:24Z</time>
      </trkpt>
      <trkpt lat="49.27706" lon="1.04556">
        <ele>15.6</ele>
        <time>2017-04-09T09:36:26Z</time>
      </trkpt>
      <trkpt lat="49.27703" lon="1.04533">
        <ele>15.1</ele>
        <time>2017-04-09T09:36:28Z</time>
      </trkpt>
      <trkpt lat="49.277" lon="1.0451">
        <ele>14.7</ele>
        <time>2017-04-09T09:36:30Z</time>
      </trkpt>
      <trkpt lat="49.27698" lon="1.04487">
        <ele>14.3</ele>
        <time>2017-04-09T09:36:32Z</time>
      </trkpt>
      <trkpt lat="49.27696" lon="1.04464">
        <ele>13.9</ele>
        <time>2017-04-09T09:36:34Z</time>
      </trkpt>
      <trkpt lat="49.27693" lon="1.04442">
        <ele>13.6</ele>
        <time>2017-04-09T09:36:36Z</time>
      </trkpt>
      <trkpt lat="49.27691" lon="1.04421">
        <ele>13.4</ele>
        <time>2017-04-09T09:36:38Z</time>
      </trkpt>
      <trkpt lat="49.27689" lon="1.04399">
        <ele>13.1</ele>
        <time>2017-04-09T09:36:40Z</time>
      </trkpt>
      <trkpt lat="49.27688" lon="1.04378">
        <ele>12.9</ele>
        <time>2017-04-09T09:36:42Z</time>
      </trkpt>
      <trkpt lat="49.27691" lon="1.04357">
        <ele>12.6</ele>
        <time>2017-04-09T09:36:44Z</time>
      </trkpt>
      <trkpt lat="49.27691" lon="1.04336">
        <ele>12.5</ele>
        <time>2017-04-09T09:36:46Z</time>
      </trkpt>
      <trkpt lat="49.27689" lon="1.04316">
        <ele>12.3</ele>
        <time>2017-04-09T09:36:48Z</time>
      </trkpt>
      <trkpt lat="49.27687" lon="1.04296">
        <ele>12.2</ele>
        <time>2017-04-09T09:36:50Z</time>
      </trkpt>
      <trkpt lat="49.27684" lon="1.04277">
        <ele>12</ele>
        <time>2017-04-09T09:36:52Z</time>
      </trkpt>
      <trkpt lat="49.27678" lon="1.04262">
        <ele>11.9</ele>
        <time>2017-04-09T09:36:54Z</time>
      </trkpt>
      <trkpt lat="49.27673" lon="1.04246">
        <ele>11.8</ele>
        <time>2017-04-09T09:36:56Z</time>
      </trkpt>
      <trkpt lat="49.2767" lon="1.04229">
        <ele>11.8</ele>
        <time>2017-04-09T09:36:58Z</time>
      </trkpt>
      <trkpt lat="49.27668" lon="1.04211">
        <ele>11.8</ele>
        <time>2017-04-09T09:37:00Z</time>
      </trkpt>
      <trkpt lat="49.27667" lon="1.04194">
        <ele>11.9</ele>
        <time>2017-04-09T09:37:02Z</time>
      </trkpt>
      <trkpt lat="49.27665" lon="1.04177">
        <ele>12</ele>
        <time>2017-04-09T09:37:04Z</time>
      </trkpt>
      <trkpt lat="49.27663" lon="1.04164">
        <ele>12.1</ele>
        <time>2017-04-09T09:37:06Z</time>
      </trkpt>
      <trkpt lat="49.27663" lon="1.04146">
        <ele>12.2</ele>
        <time>2017-04-09T09:37:09Z</time>
      </trkpt>
      <trkpt lat="49.27664" lon="1.04132">
        <ele>12.3</ele>
        <time>2017-04-09T09:37:12Z</time>
      </trkpt>
      <trkpt lat="49.27665" lon="1.04116">
        <ele>12.4</ele>
        <time>2017-04-09T09:37:15Z</time>
      </trkpt>
      <trkpt lat="49.2767" lon="1.04101">
        <ele>12.4</ele>
        <time>2017-04-09T09:37:19Z</time>
      </trkpt>
      <trkpt lat="49.27668" lon="1.04083">
        <ele>12.5</ele>
        <time>2017-04-09T09:37:23Z</time>
      </trkpt>
      <trkpt lat="49.27666" lon="1.04065">
        <ele>12.5</ele>
        <time>2017-04-09T09:37:26Z</time>
      </trkpt>
      <trkpt lat="49.27664" lon="1.04051">
        <ele>12.6</ele>
        <time>2017-04-09T09:37:28Z</time>
      </trkpt>
      <trkpt lat="49.27666" lon="1.04037">
        <ele>12.6</ele>
        <time>2017-04-09T09:37:30Z</time>
      </trkpt>
      <trkpt lat="49.27669" lon="1.0402">
        <ele>12.7</ele>
        <time>2017-04-09T09:37:32Z</time>
      </trkpt>
      <trkpt lat="49.27676" lon="1.04005">
        <ele>12.8</ele>
        <time>2017-04-09T09:37:34Z</time>
      </trkpt>
      <trkpt lat="49.27685" lon="1.03992">
        <ele>12.8</ele>
        <time>2017-04-09T09:37:36Z</time>
      </trkpt>
      <trkpt lat="49.27694" lon="1.03978">
        <ele>12.9</ele>
        <time>2017-04-09T09:37:38Z</time>
      </trkpt>
      <trkpt lat="49.27702" lon="1.03965">
        <ele>12.9</ele>
        <time>2017-04-09T09:37:40Z</time>
      </trkpt>
      <trkpt lat="49.27711" lon="1.03951">
        <ele>13</ele>
        <time>2017-04-09T09:37:42Z</time>
      </trkpt>
      <trkpt lat="49.2772" lon="1.03937">
        <ele>13</ele>
        <time>2017-04-09T09:37:44Z</time>
      </trkpt>
      <trkpt lat="49.27728" lon="1.03923">
        <ele>13</ele>
        <time>2017-04-09T09:37:46Z</time>
      </trkpt>
      <trkpt lat="49.27737" lon="1.03909">
        <ele>13</ele>
        <time>2017-04-09T09:37:48Z</time>
      </trkpt>
      <trkpt lat="49.27745" lon="1.03894">
        <ele>13.1</ele>
        <time>2017-04-09T09:37:50Z</time>
      </trkpt>
      <trkpt lat="49.27753" lon="1.03878">
        <ele>13.1</ele>
        <time>2017-04-09T09:37:52Z</time>
      </trkpt>
      <trkpt lat="49.27761" lon="1.03863">
        <ele>13.1</ele>
        <time>2017-04-09T09:37:54Z</time>
      </trkpt>
      <trkpt lat="49.27769" lon="1.03847">
        <ele>13.1</ele>
        <time>2017-04-09T09:37:56Z</time>
      </trkpt>
      <trkpt lat="49.27776" lon="1.03832">
        <ele>13.1</ele>
        <time>2017-04-09T09:37:58Z</time>
      </trkpt>
      <trkpt lat="49.27784" lon="1.03816">
        <ele>13.1</ele>
        <time>2017-04-09T09:38:00Z</time>
      </trkpt>
      <trkpt lat="49.27792" lon="1.03801">
        <ele>13.1</ele>
        <time>2017-04-09T09:38:02Z</time>
      </trkpt>
      <trkpt lat="49.278" lon="1.03785">
        <ele>13</ele>
        <time>2017-04-09T09:38:04Z</time>
      </trkpt>
      <trkpt lat="49.27808" lon="1.03769">
        <ele>12.9</ele>
        <time>2017-04-09T09:38:06Z</time>
      </trkpt>
      <trkpt lat="49.27816" lon="1.03754">
        <ele>12.9</ele>
        <time>2017-04-09T09:38:08Z</time>
      </trkpt>
      <trkpt lat="49.27825" lon="1.03738">
        <ele>12.8</ele>
        <time>2017-04-09T09:38:10Z</time>
      </trkpt>
      <trkpt lat="49.27833" lon="1.03721">
        <ele>12.7</ele>
        <time>2017-04-09T09:38:12Z</time>
      </trkpt>
      <trkpt lat="49.27842" lon="1.03705">
        <ele>12.6</ele>
        <time>2017-04-09T09:38:14Z</time>
      </trkpt>
      <trkpt lat="49.2785" lon="1.03688">
        <ele>12.5</ele>
        <time>2017-04-09T09:38:16Z</time>
      </trkpt>
      <trkpt lat="49.27858" lon="1.03671">
        <ele>12.4</ele>
        <time>2017-04-09T09:38:18Z</time>
      </trkpt>
      <trkpt lat="49.27867" lon="1.03655">
        <ele>12.3</ele>
        <time>2017-04-09T09:38:20Z</time>
      </trkpt>
      <trkpt lat="49.27875" lon="1.03638">
        <ele>12.2</ele>
        <time>2017-04-09T09:38:22Z</time>
      </trkpt>
      <trkpt lat="49.27883" lon="1.03622">
        <ele>12.1</ele>
        <time>2017-04-09T09:38:24Z</time>
      </trkpt>
      <trkpt lat="49.27892" lon="1.03606">
        <ele>12</ele>
        <time>2017-04-09T09:38:26Z</time>
      </trkpt>
      <trkpt lat="49.279" lon="1.03589">
        <ele>11.9</ele>
        <time>2017-04-09T09:38:28Z</time>
      </trkpt>
      <trkpt lat="49.27908" lon="1.03573">
        <ele>11.8</ele>
        <time>2017-04-09T09:38:30Z</time>
      </trkpt>
      <trkpt lat="49.27916" lon="1.03557">
        <ele>11.7</ele>
        <time>2017-04-09T09:38:32Z</time>
      </trkpt>
      <trkpt lat="49.27924" lon="1.0354">
        <ele>11.6</ele>
        <time>2017-04-09T09:38:34Z</time>
      </trkpt>
      <trkpt lat="49.27932" lon="1.03524">
        <ele>11.6</ele>
        <time>2017-04-09T09:38:36Z</time>
      </trkpt>
      <trkpt lat="49.2794" lon="1.03508">
        <ele>11.5</ele>
        <time>2017-04-09T09:38:38Z</time>
      </trkpt>
      <trkpt lat="49.27947" lon="1.03494">
        <ele>11.4</ele>
        <time>2017-04-09T09:38:40Z</time>
      </trkpt>
      <trkpt lat="49.27953" lon="1.03483">
        <ele>11.2</ele>
        <time>2017-04-09T09:38:42Z</time>
      </trkpt>
      <trkpt lat="49.27959" lon="1.03472">
        <ele>11.1</ele>
        <time>2017-04-09T09:38:44Z</time>
      </trkpt>
      <trkpt lat="49.27966" lon="1.03459">
        <ele>10.9</ele>
        <time>2017-04-09T09:38:46Z</time>
      </trkpt>
      <trkpt lat="49.27974" lon="1.03444">
        <ele>10.8</ele>
        <time>2017-04-09T09:38:48Z</time>
      </trkpt>
      <trkpt lat="49.27982" lon="1.03429">
        <ele>10.6</ele>
        <time>2017-04-09T09:38:50Z</time>
      </trkpt>
      <trkpt lat="49.27989" lon="1.03413">
        <ele>10.5</ele>
        <time>2017-04-09T09:38:52Z</time>
      </trkpt>
      <trkpt lat="49.27997" lon="1.03398">
        <ele>10.4</ele>
        <time>2017-04-09T09:38:54Z</time>
      </trkpt>
      <trkpt lat="49.28006" lon="1.03382">
        <ele>10.3</ele>
        <time>2017-04-09T09:38:56Z</time>
      </trkpt>
      <trkpt lat="49.28014" lon="1.03365">
        <ele>10.2</ele>
        <time>2017-04-09T09:38:58Z</time>
      </trkpt>
      <trkpt lat="49.28023" lon="1.03349">
        <ele>10.2</ele>
        <time>2017-04-09T09:39:00Z</time>
      </trkpt>
      <trkpt lat="49.28031" lon="1.03333">
        <ele>10.1</ele>
        <time>2017-04-09T09:39:02Z</time>
      </trkpt>
      <trkpt lat="49.2804" lon="1.03316">
        <ele>10</ele>
        <time>2017-04-09T09:39:04Z</time>
      </trkpt>
      <trkpt lat="49.28048" lon="1.03299">
        <ele>10</ele>
        <time>2017-04-09T09:39:06Z</time>
      </trkpt>
      <trkpt lat="49.28057" lon="1.03282">
        <ele>9.9</ele>
        <time>2017-04-09T09:39:08Z</time>
      </trkpt>
      <trkpt lat="49.28065" lon="1.03265">
        <ele>9.9</ele>
        <time>2017-04-09T09:39:10Z</time>
      </trkpt>
      <trkpt lat="49.28074" lon="1.03248">
        <ele>9.8</ele>
        <time>2017-04-09T09:39:12Z</time>
      </trkpt>
      <trkpt lat="49.28083" lon="1.03231">
        <ele>9.7</ele>
        <time>2017-04-09T09:39:14Z</time>
      </trkpt>
      <trkpt lat="49.28092" lon="1.03213">
        <ele>9.7</ele>
        <time>2017-04-09T09:39:16Z</time>
      </trkpt>
      <trkpt lat="49.28101" lon="1.03196">
        <ele>9.7</ele>
        <time>2017-04-09T09:39:18Z</time>
      </trkpt>
      <trkpt lat="49.28109" lon="1.03179">
        <ele>9.6</ele>
        <time>2017-04-09T09:39:20Z</time>
      </trkpt>
      <trkpt lat="49.28118" lon="1.03162">
        <ele>9.6</ele>
        <time>2017-04-09T09:39:22Z</time>
      </trkpt>
      <trkpt lat="49.28127" lon="1.03146">
        <ele>9.6</ele>
        <time>2017-04-09T09:39:24Z</time>
      </trkpt>
      <trkpt lat="49.28135" lon="1.03129">
        <ele>9.5</ele>
        <time>2017-04-09T09:39:26Z</time>
      </trkpt>
      <trkpt lat="49.28143" lon="1.03112">
        <ele>9.5</ele>
        <time>2017-04-09T09:39:28Z</time>
      </trkpt>
      <trkpt lat="49.28151" lon="1.03095">
        <ele>9.4</ele>
        <time>2017-04-09T09:39:30Z</time>
      </trkpt>
      <trkpt lat="49.28158" lon="1.0308">
        <ele>9.4</ele>
        <time>2017-04-09T09:39:32Z</time>
      </trkpt>
      <trkpt lat="49.28166" lon="1.03065">
        <ele>9.4</ele>
        <time>2017-04-09T09:39:34Z</time>
      </trkpt>
      <trkpt lat="49.28173" lon="1.03052">
        <ele>9.3</ele>
        <time>2017-04-09T09:39:36Z</time>
      </trkpt>
      <trkpt lat="49.2818" lon="1.03039">
        <ele>9.3</ele>
        <time>2017-04-09T09:39:38Z</time>
      </trkpt>
      <trkpt lat="49.28185" lon="1.03026">
        <ele>9.3</ele>
        <time>2017-04-09T09:39:40Z</time>
      </trkpt>
      <trkpt lat="49.28191" lon="1.03015">
        <ele>9.3</ele>
        <time>2017-04-09T09:39:42Z</time>
      </trkpt>
      <trkpt lat="49.28198" lon="1.03002">
        <ele>9.2</ele>
        <time>2017-04-09T09:39:45Z</time>
      </trkpt>
      <trkpt lat="49.28204" lon="1.0299">
        <ele>9.2</ele>
        <time>2017-04-09T09:39:49Z</time>
      </trkpt>
      <trkpt lat="49.28211" lon="1.02976">
        <ele>9.1</ele>
        <time>2017-04-09T09:40:11Z</time>
      </trkpt>
      <trkpt lat="49.28217" lon="1.02963">
        <ele>9.1</ele>
        <time>2017-04-09T09:40:14Z</time>
      </trkpt>
      <trkpt lat="49.2822" lon="1.02942">
        <ele>9.1</ele>
        <time>2017-04-09T09:40:17Z</time>
      </trkpt>
      <trkpt lat="49.28221" lon="1.02927">
        <ele>9.1</ele>
        <time>2017-04-09T09:40:19Z</time>
      </trkpt>
      <trkpt lat="49.28221" lon="1.0291">
        <ele>9.1</ele>
        <time>2017-04-09T09:40:21Z</time>
      </trkpt>
      <trkpt lat="49.28221" lon="1.02893">
        <ele>9.1</ele>
        <time>2017-04-09T09:40:23Z</time>
      </trkpt>
      <trkpt lat="49.2822" lon="1.02875">
        <ele>9.1</ele>
        <time>2017-04-09T09:40:25Z</time>
      </trkpt>
      <trkpt lat="49.2822" lon="1.02858">
        <ele>9.1</ele>
        <time>2017-04-09T09:40:27Z</time>
      </trkpt>
      <trkpt lat="49.28219" lon="1.02841">
        <ele>9.1</ele>
        <time>2017-04-09T09:40:29Z</time>
      </trkpt>
      <trkpt lat="49.28219" lon="1.02824">
        <ele>9.1</ele>
        <time>2017-04-09T09:40:31Z</time>
      </trkpt>
      <trkpt lat="49.28218" lon="1.02805">
        <ele>9.1</ele>
        <time>2017-04-09T09:40:33Z</time>
      </trkpt>
      <trkpt lat="49.28218" lon="1.02786">
        <ele>9.1</ele>
        <time>2017-04-09T09:40:35Z</time>
      </trkpt>
      <trkpt lat="49.28218" lon="1.02767">
        <ele>9.1</ele>
        <time>2017-04-09T09:40:37Z</time>
      </trkpt>
      <trkpt lat="49.28218" lon="1.02747">
        <ele>9</ele>
        <time>2017-04-09T09:40:39Z</time>
      </trkpt>
      <trkpt lat="49.28219" lon="1.02727">
        <ele>9</ele>
        <time>2017-04-09T09:40:41Z</time>
      </trkpt>
      <trkpt lat="49.28219" lon="1.02707">
        <ele>9</ele>
        <time>2017-04-09T09:40:43Z</time>
      </trkpt>
      <trkpt lat="49.2822" lon="1.02687">
        <ele>8.9</ele>
        <time>2017-04-09T09:40:45Z</time>
      </trkpt>
      <trkpt lat="49.2822" lon="1.02668">
        <ele>8.8</ele>
        <time>2017-04-09T09:40:47Z</time>
      </trkpt>
      <trkpt lat="49.28219" lon="1.0265">
        <ele>8.7</ele>
        <time>2017-04-09T09:40:49Z</time>
      </trkpt>
      <trkpt lat="49.28218" lon="1.02632">
        <ele>8.5</ele>
        <time>2017-04-09T09:40:51Z</time>
      </trkpt>
      <trkpt lat="49.28216" lon="1.02615">
        <ele>8.4</ele>
        <time>2017-04-09T09:40:53Z</time>
      </trkpt>
      <trkpt lat="49.28215" lon="1.02601">
        <ele>8.3</ele>
        <time>2017-04-09T09:40:55Z</time>
      </trkpt>
      <trkpt lat="49.28212" lon="1.02584">
        <ele>8.1</ele>
        <time>2017-04-09T09:40:59Z</time>
      </trkpt>
      <trkpt lat="49.282" lon="1.02577">
        <ele>8</ele>
        <time>2017-04-09T09:41:02Z</time>
      </trkpt>
      <trkpt lat="49.28189" lon="1.02574">
        <ele>7.9</ele>
        <time>2017-04-09T09:41:04Z</time>
      </trkpt>
      <trkpt lat="49.28178" lon="1.0257">
        <ele>7.8</ele>
        <time>2017-04-09T09:41:06Z</time>
      </trkpt>
      <trkpt lat="49.28166" lon="1.02566">
        <ele>7.7</ele>
        <time>2017-04-09T09:41:08Z</time>
      </trkpt>
      <trkpt lat="49.28155" lon="1.02562">
        <ele>7.6</ele>
        <time>2017-04-09T09:41:10Z</time>
      </trkpt>
      <trkpt lat="49.28145" lon="1.02558">
        <ele>7.6</ele>
        <time>2017-04-09T09:41:12Z</time>
      </trkpt>
      <trkpt lat="49.28144" lon="1.02544">
        <ele>7.5</ele>
        <time>2017-04-09T09:41:15Z</time>
      </trkpt>
      <trkpt lat="49.28152" lon="1.02531">
        <ele>7.4</ele>
        <time>2017-04-09T09:41:18Z</time>
      </trkpt>
      <trkpt lat="49.28146" lon="1.02517">
        <ele>7.4</ele>
        <time>2017-04-09T09:41:21Z</time>
      </trkpt>
      <trkpt lat="49.28138" lon="1.02511">
        <ele>7.4</ele>
        <time>2017-04-09T09:41:23Z</time>
      </trkpt>
      <trkpt lat="49.28128" lon="1.02504">
        <ele>7.3</ele>
        <time>2017-04-09T09:41:25Z</time>
      </trkpt>
      <trkpt lat="49.28116" lon="1.02497">
        <ele>7.3</ele>
        <time>2017-04-09T09:41:27Z</time>
      </trkpt>
      <trkpt lat="49.28103" lon="1.0249">
        <ele>7.3</ele>
        <time>2017-04-09T09:41:29Z</time>
      </trkpt>
      <trkpt lat="49.28091" lon="1.02482">
        <ele>7.2</ele>
        <time>2017-04-09T09:41:31Z</time>
      </trkpt>
      <trkpt lat="49.28079" lon="1.02475">
        <ele>7.2</ele>
        <time>2017-04-09T09:41:33Z</time>
      </trkpt>
      <trkpt lat="49.28067" lon="1.02468">
        <ele>7.2</ele>
        <time>2017-04-09T09:41:35Z</time>
      </trkpt>
      <trkpt lat="49.28055" lon="1.02461">
        <ele>7.2</ele>
        <time>2017-04-09T09:41:37Z</time>
      </trkpt>
      <trkpt lat="49.28043" lon="1.02454">
        <ele>7.2</ele>
        <time>2017-04-09T09:41:39Z</time>
      </trkpt>
      <trkpt lat="49.28031" lon="1.02446">
        <ele>7.2</ele>
        <time>2017-04-09T09:41:41Z</time>
      </trkpt>
      <trkpt lat="49.28019" lon="1.0244">
        <ele>7.1</ele>
        <time>2017-04-09T09:41:43Z</time>
      </trkpt>
      <trkpt lat="49.28007" lon="1.02433">
        <ele>7.1</ele>
        <time>2017-04-09T09:41:45Z</time>
      </trkpt>
      <trkpt lat="49.27997" lon="1.02426">
        <ele>7.1</ele>
        <time>2017-04-09T09:41:47Z</time>
      </trkpt>
      <trkpt lat="49.27988" lon="1.02412">
        <ele>7.1</ele>
        <time>2017-04-09T09:41:50Z</time>
      </trkpt>
      <trkpt lat="49.27976" lon="1.02405">
        <ele>7.2</ele>
        <time>2017-04-09T09:41:53Z</time>
      </trkpt>
      <trkpt lat="49.27966" lon="1.02404">
        <ele>7.2</ele>
        <time>2017-04-09T09:41:55Z</time>
      </trkpt>
      <trkpt lat="49.27956" lon="1.024">
        <ele>7.3</ele>
        <time>2017-04-09T09:41:57Z</time>
      </trkpt>
      <trkpt lat="49.27946" lon="1.024">
        <ele>7.3</ele>
        <time>2017-04-09T09:41:59Z</time>
      </trkpt>
      <trkpt lat="49.27937" lon="1.02406">
        <ele>7.4</ele>
        <time>2017-04-09T09:42:01Z</time>
      </trkpt>
      <trkpt lat="49.2793" lon="1.02416">
        <ele>7.4</ele>
        <time>2017-04-09T09:42:03Z</time>
      </trkpt>
      <trkpt lat="49.27924" lon="1.02427">
        <ele>7.4</ele>
        <time>2017-04-09T09:42:05Z</time>
      </trkpt>
      <trkpt lat="49.27918" lon="1.02438">
        <ele>7.5</ele>
        <time>2017-04-09T09:42:07Z</time>
      </trkpt>
      <trkpt lat="49.27911" lon="1.02448">
        <ele>7.5</ele>
        <time>2017-04-09T09:42:09Z</time>
      </trkpt>
      <trkpt lat="49.27904" lon="1.02458">
        <ele>7.5</ele>
        <time>2017-04-09T09:42:11Z</time>
      </trkpt>
      <trkpt lat="49.27898" lon="1.02468">
        <ele>7.5</ele>
        <time>2017-04-09T09:42:13Z</time>
      </trkpt>
      <trkpt lat="49.27898" lon="1.02483">
        <ele>7.5</ele>
        <time>2017-04-09T09:42:16Z</time>
      </trkpt>
      <trkpt lat="49.27907" lon="1.0249">
        <ele>7.6</ele>
        <time>2017-04-09T09:42:23Z</time>
      </trkpt>
      <trkpt lat="49.27903" lon="1.02492">
        <ele>7.4</ele>
        <time>2017-04-09T09:42:57Z</time>
      </trkpt>
    </trkseg>
  </trk>
</gpx>